<?xml version="1.0" encoding="UTF-8" standalone="no" ?>
<gpx xmlns="http://www.topografix.com/GPX/1/1" xmlns:xsi="http://www.w3.org/2001/XMLSchema-instance" xsi:schemaLocation="http://www.topografix.com/GPX/1/1 http://www.topografix.com/GPX/1/1/gpx.xsd" version="1.1" creator="VisuGPX - https://www.visugpx.com">
  <metadata>
    <name>Mirebel-La Marre-Bonnefontaine-Château de Mirebel.</name>
  </metadata>
  <trk>
    <name><![CDATA[Mirebel-La Marre-Bonnefontaine-Château de Mirebel._1]]></name>
    <extensions>
      <line xmlns="http://www.topografix.com/GPX/gpx_style/0/2">
        <color>0000FF</color>
        <width>4</width>
      </line>
    </extensions>
    <trkseg>
      <trkpt lat="46.69655" lon="5.72701">
        <ele>592.8</ele>
        <time>2022-03-08T08:00:50Z</time>
      </trkpt>
      <trkpt lat="46.69649" lon="5.72701">
        <ele>593.5</ele>
        <time>2022-03-08T08:00:54Z</time>
      </trkpt>
      <trkpt lat="46.69645" lon="5.72704">
        <ele>593.8</ele>
        <time>2022-03-08T08:01:00Z</time>
      </trkpt>
      <trkpt lat="46.69647" lon="5.72699">
        <ele>591.6</ele>
        <time>2022-03-08T08:01:45Z</time>
      </trkpt>
      <trkpt lat="46.69652" lon="5.72696">
        <ele>591.1</ele>
        <time>2022-03-08T08:01:50Z</time>
      </trkpt>
      <trkpt lat="46.69658" lon="5.72694">
        <ele>590.8</ele>
        <time>2022-03-08T08:01:54Z</time>
      </trkpt>
      <trkpt lat="46.69663" lon="5.72693">
        <ele>590.3</ele>
        <time>2022-03-08T08:01:59Z</time>
      </trkpt>
      <trkpt lat="46.69668" lon="5.72691">
        <ele>590.1</ele>
        <time>2022-03-08T08:02:04Z</time>
      </trkpt>
      <trkpt lat="46.69672" lon="5.72688">
        <ele>590.1</ele>
        <time>2022-03-08T08:02:08Z</time>
      </trkpt>
      <trkpt lat="46.69677" lon="5.72686">
        <ele>590.6</ele>
        <time>2022-03-08T08:02:13Z</time>
      </trkpt>
      <trkpt lat="46.69682" lon="5.72687">
        <ele>590</ele>
        <time>2022-03-08T08:02:18Z</time>
      </trkpt>
      <trkpt lat="46.69686" lon="5.72691">
        <ele>589.1</ele>
        <time>2022-03-08T08:02:21Z</time>
      </trkpt>
      <trkpt lat="46.69691" lon="5.72693">
        <ele>587.8</ele>
        <time>2022-03-08T08:02:26Z</time>
      </trkpt>
      <trkpt lat="46.69695" lon="5.72697">
        <ele>585.7</ele>
        <time>2022-03-08T08:02:31Z</time>
      </trkpt>
      <trkpt lat="46.69698" lon="5.72702">
        <ele>584.1</ele>
        <time>2022-03-08T08:02:36Z</time>
      </trkpt>
      <trkpt lat="46.69702" lon="5.72707">
        <ele>583.9</ele>
        <time>2022-03-08T08:02:41Z</time>
      </trkpt>
      <trkpt lat="46.69706" lon="5.72713">
        <ele>583.6</ele>
        <time>2022-03-08T08:02:46Z</time>
      </trkpt>
      <trkpt lat="46.6971" lon="5.72716">
        <ele>583.2</ele>
        <time>2022-03-08T08:02:50Z</time>
      </trkpt>
      <trkpt lat="46.69715" lon="5.72718">
        <ele>583.5</ele>
        <time>2022-03-08T08:02:54Z</time>
      </trkpt>
      <trkpt lat="46.69719" lon="5.72723">
        <ele>583.5</ele>
        <time>2022-03-08T08:02:58Z</time>
      </trkpt>
      <trkpt lat="46.69721" lon="5.72728">
        <ele>584</ele>
        <time>2022-03-08T08:03:01Z</time>
      </trkpt>
      <trkpt lat="46.69724" lon="5.72735">
        <ele>585</ele>
        <time>2022-03-08T08:03:05Z</time>
      </trkpt>
      <trkpt lat="46.69728" lon="5.72741">
        <ele>586.7</ele>
        <time>2022-03-08T08:03:11Z</time>
      </trkpt>
      <trkpt lat="46.69733" lon="5.72744">
        <ele>586.7</ele>
        <time>2022-03-08T08:03:21Z</time>
      </trkpt>
      <trkpt lat="46.69737" lon="5.72741">
        <ele>584.6</ele>
        <time>2022-03-08T08:03:29Z</time>
      </trkpt>
      <trkpt lat="46.6974" lon="5.72735">
        <ele>583.6</ele>
        <time>2022-03-08T08:03:34Z</time>
      </trkpt>
      <trkpt lat="46.69743" lon="5.7273">
        <ele>583.1</ele>
        <time>2022-03-08T08:03:40Z</time>
      </trkpt>
      <trkpt lat="46.69746" lon="5.72724">
        <ele>584</ele>
        <time>2022-03-08T08:03:47Z</time>
      </trkpt>
      <trkpt lat="46.69749" lon="5.72718">
        <ele>584.1</ele>
        <time>2022-03-08T08:03:53Z</time>
      </trkpt>
      <trkpt lat="46.69753" lon="5.72713">
        <ele>583.9</ele>
        <time>2022-03-08T08:03:57Z</time>
      </trkpt>
      <trkpt lat="46.69756" lon="5.72707">
        <ele>583.4</ele>
        <time>2022-03-08T08:04:02Z</time>
      </trkpt>
      <trkpt lat="46.69758" lon="5.727">
        <ele>582.5</ele>
        <time>2022-03-08T08:04:07Z</time>
      </trkpt>
      <trkpt lat="46.69761" lon="5.72695">
        <ele>581.7</ele>
        <time>2022-03-08T08:04:11Z</time>
      </trkpt>
      <trkpt lat="46.69765" lon="5.7269">
        <ele>581.6</ele>
        <time>2022-03-08T08:04:15Z</time>
      </trkpt>
      <trkpt lat="46.69768" lon="5.72684">
        <ele>582.1</ele>
        <time>2022-03-08T08:04:20Z</time>
      </trkpt>
      <trkpt lat="46.6977" lon="5.72679">
        <ele>582.8</ele>
        <time>2022-03-08T08:04:25Z</time>
      </trkpt>
      <trkpt lat="46.69774" lon="5.72673">
        <ele>583.9</ele>
        <time>2022-03-08T08:04:31Z</time>
      </trkpt>
      <trkpt lat="46.69777" lon="5.72669">
        <ele>584.2</ele>
        <time>2022-03-08T08:04:37Z</time>
      </trkpt>
      <trkpt lat="46.69781" lon="5.72664">
        <ele>584.1</ele>
        <time>2022-03-08T08:04:43Z</time>
      </trkpt>
      <trkpt lat="46.69784" lon="5.72658">
        <ele>584</ele>
        <time>2022-03-08T08:04:48Z</time>
      </trkpt>
      <trkpt lat="46.69787" lon="5.72652">
        <ele>583.5</ele>
        <time>2022-03-08T08:04:53Z</time>
      </trkpt>
      <trkpt lat="46.6979" lon="5.72647">
        <ele>583.1</ele>
        <time>2022-03-08T08:04:57Z</time>
      </trkpt>
      <trkpt lat="46.69794" lon="5.72642">
        <ele>582.4</ele>
        <time>2022-03-08T08:05:02Z</time>
      </trkpt>
      <trkpt lat="46.69797" lon="5.72635">
        <ele>581.9</ele>
        <time>2022-03-08T08:05:07Z</time>
      </trkpt>
      <trkpt lat="46.698" lon="5.7263">
        <ele>582.3</ele>
        <time>2022-03-08T08:05:12Z</time>
      </trkpt>
      <trkpt lat="46.69804" lon="5.72626">
        <ele>582.6</ele>
        <time>2022-03-08T08:05:16Z</time>
      </trkpt>
      <trkpt lat="46.69808" lon="5.72621">
        <ele>582.8</ele>
        <time>2022-03-08T08:05:20Z</time>
      </trkpt>
      <trkpt lat="46.69811" lon="5.72617">
        <ele>582.7</ele>
        <time>2022-03-08T08:05:25Z</time>
      </trkpt>
      <trkpt lat="46.69815" lon="5.72613">
        <ele>582</ele>
        <time>2022-03-08T08:05:30Z</time>
      </trkpt>
      <trkpt lat="46.6982" lon="5.7261">
        <ele>581.2</ele>
        <time>2022-03-08T08:05:37Z</time>
      </trkpt>
      <trkpt lat="46.69825" lon="5.72609">
        <ele>580.9</ele>
        <time>2022-03-08T08:05:41Z</time>
      </trkpt>
      <trkpt lat="46.6983" lon="5.72606">
        <ele>580.8</ele>
        <time>2022-03-08T08:05:45Z</time>
      </trkpt>
      <trkpt lat="46.69835" lon="5.72602">
        <ele>580.6</ele>
        <time>2022-03-08T08:05:49Z</time>
      </trkpt>
      <trkpt lat="46.69839" lon="5.72598">
        <ele>579.8</ele>
        <time>2022-03-08T08:05:54Z</time>
      </trkpt>
      <trkpt lat="46.69843" lon="5.72593">
        <ele>578.7</ele>
        <time>2022-03-08T08:05:59Z</time>
      </trkpt>
      <trkpt lat="46.69846" lon="5.72587">
        <ele>577.8</ele>
        <time>2022-03-08T08:06:03Z</time>
      </trkpt>
      <trkpt lat="46.69851" lon="5.72582">
        <ele>576.9</ele>
        <time>2022-03-08T08:06:07Z</time>
      </trkpt>
      <trkpt lat="46.69854" lon="5.72577">
        <ele>575.9</ele>
        <time>2022-03-08T08:06:12Z</time>
      </trkpt>
      <trkpt lat="46.69857" lon="5.72573">
        <ele>575</ele>
        <time>2022-03-08T08:06:17Z</time>
      </trkpt>
      <trkpt lat="46.69861" lon="5.72566">
        <ele>574.2</ele>
        <time>2022-03-08T08:06:22Z</time>
      </trkpt>
      <trkpt lat="46.69864" lon="5.72561">
        <ele>573.6</ele>
        <time>2022-03-08T08:06:27Z</time>
      </trkpt>
      <trkpt lat="46.69868" lon="5.72554">
        <ele>572.8</ele>
        <time>2022-03-08T08:06:32Z</time>
      </trkpt>
      <trkpt lat="46.69871" lon="5.72549">
        <ele>572.7</ele>
        <time>2022-03-08T08:06:35Z</time>
      </trkpt>
      <trkpt lat="46.69875" lon="5.72544">
        <ele>572.4</ele>
        <time>2022-03-08T08:06:39Z</time>
      </trkpt>
      <trkpt lat="46.69878" lon="5.7254">
        <ele>571.6</ele>
        <time>2022-03-08T08:06:44Z</time>
      </trkpt>
      <trkpt lat="46.69882" lon="5.72534">
        <ele>571.1</ele>
        <time>2022-03-08T08:06:49Z</time>
      </trkpt>
      <trkpt lat="46.69886" lon="5.72528">
        <ele>571.4</ele>
        <time>2022-03-08T08:06:53Z</time>
      </trkpt>
      <trkpt lat="46.69889" lon="5.72522">
        <ele>571.7</ele>
        <time>2022-03-08T08:06:57Z</time>
      </trkpt>
      <trkpt lat="46.69894" lon="5.72517">
        <ele>572.2</ele>
        <time>2022-03-08T08:07:02Z</time>
      </trkpt>
      <trkpt lat="46.69898" lon="5.72514">
        <ele>572.3</ele>
        <time>2022-03-08T08:07:06Z</time>
      </trkpt>
      <trkpt lat="46.69903" lon="5.72511">
        <ele>572.1</ele>
        <time>2022-03-08T08:07:11Z</time>
      </trkpt>
      <trkpt lat="46.69907" lon="5.72508">
        <ele>571.2</ele>
        <time>2022-03-08T08:07:17Z</time>
      </trkpt>
      <trkpt lat="46.69912" lon="5.72505">
        <ele>570.7</ele>
        <time>2022-03-08T08:07:22Z</time>
      </trkpt>
      <trkpt lat="46.69916" lon="5.725">
        <ele>570.2</ele>
        <time>2022-03-08T08:07:27Z</time>
      </trkpt>
      <trkpt lat="46.6992" lon="5.72495">
        <ele>570.1</ele>
        <time>2022-03-08T08:07:31Z</time>
      </trkpt>
      <trkpt lat="46.69924" lon="5.7249">
        <ele>570.5</ele>
        <time>2022-03-08T08:07:35Z</time>
      </trkpt>
      <trkpt lat="46.69925" lon="5.72483">
        <ele>570.5</ele>
        <time>2022-03-08T08:07:40Z</time>
      </trkpt>
      <trkpt lat="46.69927" lon="5.72476">
        <ele>570</ele>
        <time>2022-03-08T08:07:44Z</time>
      </trkpt>
      <trkpt lat="46.69929" lon="5.7247">
        <ele>569.5</ele>
        <time>2022-03-08T08:07:49Z</time>
      </trkpt>
      <trkpt lat="46.69931" lon="5.72463">
        <ele>569.4</ele>
        <time>2022-03-08T08:07:54Z</time>
      </trkpt>
      <trkpt lat="46.69933" lon="5.72456">
        <ele>569.2</ele>
        <time>2022-03-08T08:07:58Z</time>
      </trkpt>
      <trkpt lat="46.69935" lon="5.7245">
        <ele>569.2</ele>
        <time>2022-03-08T08:08:02Z</time>
      </trkpt>
      <trkpt lat="46.69937" lon="5.72442">
        <ele>569.4</ele>
        <time>2022-03-08T08:08:06Z</time>
      </trkpt>
      <trkpt lat="46.6994" lon="5.72437">
        <ele>570</ele>
        <time>2022-03-08T08:08:10Z</time>
      </trkpt>
      <trkpt lat="46.69941" lon="5.72431">
        <ele>570.1</ele>
        <time>2022-03-08T08:08:14Z</time>
      </trkpt>
      <trkpt lat="46.69943" lon="5.72424">
        <ele>570.5</ele>
        <time>2022-03-08T08:08:20Z</time>
      </trkpt>
      <trkpt lat="46.69947" lon="5.72422">
        <ele>569.6</ele>
        <time>2022-03-08T08:08:27Z</time>
      </trkpt>
      <trkpt lat="46.69948" lon="5.72415">
        <ele>568.6</ele>
        <time>2022-03-08T08:08:34Z</time>
      </trkpt>
      <trkpt lat="46.69948" lon="5.72407">
        <ele>568.4</ele>
        <time>2022-03-08T08:08:38Z</time>
      </trkpt>
      <trkpt lat="46.69947" lon="5.72401">
        <ele>568.5</ele>
        <time>2022-03-08T08:08:42Z</time>
      </trkpt>
      <trkpt lat="46.69947" lon="5.72393">
        <ele>568.8</ele>
        <time>2022-03-08T08:08:47Z</time>
      </trkpt>
      <trkpt lat="46.69946" lon="5.72387">
        <ele>568.9</ele>
        <time>2022-03-08T08:08:52Z</time>
      </trkpt>
      <trkpt lat="46.69944" lon="5.72379">
        <ele>568.3</ele>
        <time>2022-03-08T08:08:56Z</time>
      </trkpt>
      <trkpt lat="46.69943" lon="5.72372">
        <ele>567.7</ele>
        <time>2022-03-08T08:09:01Z</time>
      </trkpt>
      <trkpt lat="46.69942" lon="5.72365">
        <ele>567.7</ele>
        <time>2022-03-08T08:09:06Z</time>
      </trkpt>
      <trkpt lat="46.69941" lon="5.72358">
        <ele>568</ele>
        <time>2022-03-08T08:09:11Z</time>
      </trkpt>
      <trkpt lat="46.69941" lon="5.7235">
        <ele>568.1</ele>
        <time>2022-03-08T08:09:16Z</time>
      </trkpt>
      <trkpt lat="46.69941" lon="5.72343">
        <ele>568.2</ele>
        <time>2022-03-08T08:09:20Z</time>
      </trkpt>
      <trkpt lat="46.69941" lon="5.72336">
        <ele>568.8</ele>
        <time>2022-03-08T08:09:26Z</time>
      </trkpt>
      <trkpt lat="46.69942" lon="5.72328">
        <ele>569.1</ele>
        <time>2022-03-08T08:09:33Z</time>
      </trkpt>
      <trkpt lat="46.69942" lon="5.72321">
        <ele>569.1</ele>
        <time>2022-03-08T08:09:37Z</time>
      </trkpt>
      <trkpt lat="46.69942" lon="5.72314">
        <ele>569.4</ele>
        <time>2022-03-08T08:09:41Z</time>
      </trkpt>
      <trkpt lat="46.69942" lon="5.72306">
        <ele>569.4</ele>
        <time>2022-03-08T08:09:45Z</time>
      </trkpt>
      <trkpt lat="46.69942" lon="5.72299">
        <ele>568.9</ele>
        <time>2022-03-08T08:09:49Z</time>
      </trkpt>
      <trkpt lat="46.69941" lon="5.72292">
        <ele>569.2</ele>
        <time>2022-03-08T08:09:53Z</time>
      </trkpt>
      <trkpt lat="46.6994" lon="5.72285">
        <ele>569.8</ele>
        <time>2022-03-08T08:09:58Z</time>
      </trkpt>
      <trkpt lat="46.69939" lon="5.72278">
        <ele>570.6</ele>
        <time>2022-03-08T08:10:03Z</time>
      </trkpt>
      <trkpt lat="46.6994" lon="5.72271">
        <ele>570.9</ele>
        <time>2022-03-08T08:10:09Z</time>
      </trkpt>
      <trkpt lat="46.69939" lon="5.72264">
        <ele>570.5</ele>
        <time>2022-03-08T08:10:14Z</time>
      </trkpt>
      <trkpt lat="46.69937" lon="5.72256">
        <ele>569.7</ele>
        <time>2022-03-08T08:10:19Z</time>
      </trkpt>
      <trkpt lat="46.69934" lon="5.7225">
        <ele>569.6</ele>
        <time>2022-03-08T08:10:22Z</time>
      </trkpt>
      <trkpt lat="46.69932" lon="5.72244">
        <ele>569.2</ele>
        <time>2022-03-08T08:10:25Z</time>
      </trkpt>
      <trkpt lat="46.6993" lon="5.72237">
        <ele>568.8</ele>
        <time>2022-03-08T08:10:29Z</time>
      </trkpt>
      <trkpt lat="46.69929" lon="5.7223">
        <ele>568.3</ele>
        <time>2022-03-08T08:10:34Z</time>
      </trkpt>
      <trkpt lat="46.69927" lon="5.72223">
        <ele>567.8</ele>
        <time>2022-03-08T08:10:38Z</time>
      </trkpt>
      <trkpt lat="46.69924" lon="5.72217">
        <ele>566.9</ele>
        <time>2022-03-08T08:10:42Z</time>
      </trkpt>
      <trkpt lat="46.69922" lon="5.7221">
        <ele>566.2</ele>
        <time>2022-03-08T08:10:45Z</time>
      </trkpt>
      <trkpt lat="46.69921" lon="5.72204">
        <ele>565.5</ele>
        <time>2022-03-08T08:10:49Z</time>
      </trkpt>
      <trkpt lat="46.6992" lon="5.72197">
        <ele>565.1</ele>
        <time>2022-03-08T08:10:55Z</time>
      </trkpt>
      <trkpt lat="46.69919" lon="5.7219">
        <ele>565.2</ele>
        <time>2022-03-08T08:10:59Z</time>
      </trkpt>
      <trkpt lat="46.69919" lon="5.72182">
        <ele>565.5</ele>
        <time>2022-03-08T08:11:03Z</time>
      </trkpt>
      <trkpt lat="46.69918" lon="5.72175">
        <ele>566</ele>
        <time>2022-03-08T08:11:07Z</time>
      </trkpt>
      <trkpt lat="46.69917" lon="5.72167">
        <ele>566.4</ele>
        <time>2022-03-08T08:11:12Z</time>
      </trkpt>
      <trkpt lat="46.69918" lon="5.72161">
        <ele>566.5</ele>
        <time>2022-03-08T08:11:17Z</time>
      </trkpt>
      <trkpt lat="46.69918" lon="5.72154">
        <ele>566.2</ele>
        <time>2022-03-08T08:11:22Z</time>
      </trkpt>
      <trkpt lat="46.69917" lon="5.72147">
        <ele>565.6</ele>
        <time>2022-03-08T08:11:28Z</time>
      </trkpt>
      <trkpt lat="46.69917" lon="5.7214">
        <ele>565.7</ele>
        <time>2022-03-08T08:11:33Z</time>
      </trkpt>
      <trkpt lat="46.69917" lon="5.72133">
        <ele>566</ele>
        <time>2022-03-08T08:11:39Z</time>
      </trkpt>
      <trkpt lat="46.69916" lon="5.72126">
        <ele>566</ele>
        <time>2022-03-08T08:11:44Z</time>
      </trkpt>
      <trkpt lat="46.69915" lon="5.72119">
        <ele>565.8</ele>
        <time>2022-03-08T08:11:48Z</time>
      </trkpt>
      <trkpt lat="46.69914" lon="5.72112">
        <ele>565.5</ele>
        <time>2022-03-08T08:11:52Z</time>
      </trkpt>
      <trkpt lat="46.69913" lon="5.72105">
        <ele>565.5</ele>
        <time>2022-03-08T08:11:56Z</time>
      </trkpt>
      <trkpt lat="46.69912" lon="5.72098">
        <ele>565.8</ele>
        <time>2022-03-08T08:12:01Z</time>
      </trkpt>
      <trkpt lat="46.69912" lon="5.72091">
        <ele>565.7</ele>
        <time>2022-03-08T08:12:07Z</time>
      </trkpt>
      <trkpt lat="46.69911" lon="5.72083">
        <ele>565.4</ele>
        <time>2022-03-08T08:12:12Z</time>
      </trkpt>
      <trkpt lat="46.69911" lon="5.72076">
        <ele>564.8</ele>
        <time>2022-03-08T08:12:17Z</time>
      </trkpt>
      <trkpt lat="46.6991" lon="5.72068">
        <ele>564.6</ele>
        <time>2022-03-08T08:12:21Z</time>
      </trkpt>
      <trkpt lat="46.69909" lon="5.7206">
        <ele>564.5</ele>
        <time>2022-03-08T08:12:25Z</time>
      </trkpt>
      <trkpt lat="46.69907" lon="5.72053">
        <ele>564.4</ele>
        <time>2022-03-08T08:12:28Z</time>
      </trkpt>
      <trkpt lat="46.69906" lon="5.72047">
        <ele>564.3</ele>
        <time>2022-03-08T08:12:31Z</time>
      </trkpt>
      <trkpt lat="46.69904" lon="5.7204">
        <ele>564.1</ele>
        <time>2022-03-08T08:12:35Z</time>
      </trkpt>
      <trkpt lat="46.69902" lon="5.72033">
        <ele>564.3</ele>
        <time>2022-03-08T08:12:40Z</time>
      </trkpt>
      <trkpt lat="46.69901" lon="5.72025">
        <ele>564.5</ele>
        <time>2022-03-08T08:12:44Z</time>
      </trkpt>
      <trkpt lat="46.699" lon="5.72017">
        <ele>564.5</ele>
        <time>2022-03-08T08:12:48Z</time>
      </trkpt>
      <trkpt lat="46.69899" lon="5.72009">
        <ele>564.4</ele>
        <time>2022-03-08T08:12:52Z</time>
      </trkpt>
      <trkpt lat="46.69898" lon="5.72003">
        <ele>564.2</ele>
        <time>2022-03-08T08:12:56Z</time>
      </trkpt>
      <trkpt lat="46.69898" lon="5.71995">
        <ele>563.9</ele>
        <time>2022-03-08T08:13:02Z</time>
      </trkpt>
      <trkpt lat="46.69897" lon="5.71989">
        <ele>563.9</ele>
        <time>2022-03-08T08:13:07Z</time>
      </trkpt>
      <trkpt lat="46.69897" lon="5.71981">
        <ele>564</ele>
        <time>2022-03-08T08:13:12Z</time>
      </trkpt>
      <trkpt lat="46.69896" lon="5.71974">
        <ele>563.6</ele>
        <time>2022-03-08T08:13:17Z</time>
      </trkpt>
      <trkpt lat="46.69896" lon="5.71966">
        <ele>563</ele>
        <time>2022-03-08T08:13:22Z</time>
      </trkpt>
      <trkpt lat="46.69896" lon="5.71959">
        <ele>562.5</ele>
        <time>2022-03-08T08:13:26Z</time>
      </trkpt>
      <trkpt lat="46.69896" lon="5.71951">
        <ele>562.2</ele>
        <time>2022-03-08T08:13:29Z</time>
      </trkpt>
      <trkpt lat="46.69897" lon="5.71944">
        <ele>561.7</ele>
        <time>2022-03-08T08:13:33Z</time>
      </trkpt>
      <trkpt lat="46.69898" lon="5.71936">
        <ele>560.7</ele>
        <time>2022-03-08T08:13:38Z</time>
      </trkpt>
      <trkpt lat="46.69899" lon="5.71929">
        <ele>559.8</ele>
        <time>2022-03-08T08:13:43Z</time>
      </trkpt>
      <trkpt lat="46.69899" lon="5.71921">
        <ele>559.1</ele>
        <time>2022-03-08T08:13:48Z</time>
      </trkpt>
      <trkpt lat="46.69901" lon="5.71915">
        <ele>558.6</ele>
        <time>2022-03-08T08:13:52Z</time>
      </trkpt>
      <trkpt lat="46.69901" lon="5.71907">
        <ele>558.3</ele>
        <time>2022-03-08T08:13:57Z</time>
      </trkpt>
      <trkpt lat="46.69903" lon="5.719">
        <ele>557.7</ele>
        <time>2022-03-08T08:14:02Z</time>
      </trkpt>
      <trkpt lat="46.69904" lon="5.71893">
        <ele>557.1</ele>
        <time>2022-03-08T08:14:06Z</time>
      </trkpt>
      <trkpt lat="46.69906" lon="5.71886">
        <ele>556.8</ele>
        <time>2022-03-08T08:14:10Z</time>
      </trkpt>
      <trkpt lat="46.69908" lon="5.7188">
        <ele>556.5</ele>
        <time>2022-03-08T08:14:14Z</time>
      </trkpt>
      <trkpt lat="46.69909" lon="5.71873">
        <ele>556.2</ele>
        <time>2022-03-08T08:14:18Z</time>
      </trkpt>
      <trkpt lat="46.69909" lon="5.71865">
        <ele>556.1</ele>
        <time>2022-03-08T08:14:22Z</time>
      </trkpt>
      <trkpt lat="46.69909" lon="5.71857">
        <ele>556.1</ele>
        <time>2022-03-08T08:14:26Z</time>
      </trkpt>
      <trkpt lat="46.6991" lon="5.7185">
        <ele>556.1</ele>
        <time>2022-03-08T08:14:30Z</time>
      </trkpt>
      <trkpt lat="46.6991" lon="5.71843">
        <ele>556.1</ele>
        <time>2022-03-08T08:14:35Z</time>
      </trkpt>
      <trkpt lat="46.6991" lon="5.71836">
        <ele>555.9</ele>
        <time>2022-03-08T08:14:40Z</time>
      </trkpt>
      <trkpt lat="46.6991" lon="5.71829">
        <ele>556.2</ele>
        <time>2022-03-08T08:14:45Z</time>
      </trkpt>
      <trkpt lat="46.69909" lon="5.71822">
        <ele>556.5</ele>
        <time>2022-03-08T08:14:49Z</time>
      </trkpt>
      <trkpt lat="46.69908" lon="5.71815">
        <ele>556.9</ele>
        <time>2022-03-08T08:14:53Z</time>
      </trkpt>
      <trkpt lat="46.69906" lon="5.71808">
        <ele>556.4</ele>
        <time>2022-03-08T08:14:58Z</time>
      </trkpt>
      <trkpt lat="46.69905" lon="5.718">
        <ele>554.4</ele>
        <time>2022-03-08T08:15:04Z</time>
      </trkpt>
      <trkpt lat="46.69904" lon="5.71793">
        <ele>553.3</ele>
        <time>2022-03-08T08:15:08Z</time>
      </trkpt>
      <trkpt lat="46.69902" lon="5.71785">
        <ele>552.1</ele>
        <time>2022-03-08T08:15:12Z</time>
      </trkpt>
      <trkpt lat="46.69901" lon="5.71777">
        <ele>551.6</ele>
        <time>2022-03-08T08:15:16Z</time>
      </trkpt>
      <trkpt lat="46.69899" lon="5.71771">
        <ele>551.7</ele>
        <time>2022-03-08T08:15:19Z</time>
      </trkpt>
      <trkpt lat="46.69897" lon="5.71765">
        <ele>552.4</ele>
        <time>2022-03-08T08:15:25Z</time>
      </trkpt>
      <trkpt lat="46.69897" lon="5.71757">
        <ele>552.6</ele>
        <time>2022-03-08T08:15:30Z</time>
      </trkpt>
      <trkpt lat="46.69895" lon="5.71751">
        <ele>553</ele>
        <time>2022-03-08T08:15:34Z</time>
      </trkpt>
      <trkpt lat="46.69894" lon="5.71745">
        <ele>553.2</ele>
        <time>2022-03-08T08:15:39Z</time>
      </trkpt>
      <trkpt lat="46.69893" lon="5.71737">
        <ele>552.9</ele>
        <time>2022-03-08T08:15:44Z</time>
      </trkpt>
      <trkpt lat="46.69892" lon="5.71731">
        <ele>552</ele>
        <time>2022-03-08T08:15:48Z</time>
      </trkpt>
      <trkpt lat="46.69892" lon="5.71723">
        <ele>551.2</ele>
        <time>2022-03-08T08:15:53Z</time>
      </trkpt>
      <trkpt lat="46.69892" lon="5.71716">
        <ele>551</ele>
        <time>2022-03-08T08:15:58Z</time>
      </trkpt>
      <trkpt lat="46.69892" lon="5.71708">
        <ele>550.9</ele>
        <time>2022-03-08T08:16:03Z</time>
      </trkpt>
      <trkpt lat="46.69894" lon="5.71701">
        <ele>551.7</ele>
        <time>2022-03-08T08:16:08Z</time>
      </trkpt>
      <trkpt lat="46.69897" lon="5.71695">
        <ele>552.5</ele>
        <time>2022-03-08T08:16:13Z</time>
      </trkpt>
      <trkpt lat="46.699" lon="5.71689">
        <ele>552.4</ele>
        <time>2022-03-08T08:16:19Z</time>
      </trkpt>
      <trkpt lat="46.69903" lon="5.71683">
        <ele>552.3</ele>
        <time>2022-03-08T08:16:24Z</time>
      </trkpt>
      <trkpt lat="46.69905" lon="5.71677">
        <ele>553.5</ele>
        <time>2022-03-08T08:16:28Z</time>
      </trkpt>
      <trkpt lat="46.69908" lon="5.71671">
        <ele>554.9</ele>
        <time>2022-03-08T08:16:32Z</time>
      </trkpt>
      <trkpt lat="46.69911" lon="5.71665">
        <ele>556.3</ele>
        <time>2022-03-08T08:16:36Z</time>
      </trkpt>
      <trkpt lat="46.69914" lon="5.71659">
        <ele>557.7</ele>
        <time>2022-03-08T08:16:41Z</time>
      </trkpt>
      <trkpt lat="46.69918" lon="5.71654">
        <ele>558.8</ele>
        <time>2022-03-08T08:16:46Z</time>
      </trkpt>
      <trkpt lat="46.6992" lon="5.71648">
        <ele>559.3</ele>
        <time>2022-03-08T08:16:51Z</time>
      </trkpt>
      <trkpt lat="46.69923" lon="5.71642">
        <ele>559.5</ele>
        <time>2022-03-08T08:16:56Z</time>
      </trkpt>
      <trkpt lat="46.69926" lon="5.71635">
        <ele>559.4</ele>
        <time>2022-03-08T08:17:00Z</time>
      </trkpt>
      <trkpt lat="46.69929" lon="5.71629">
        <ele>559.2</ele>
        <time>2022-03-08T08:17:04Z</time>
      </trkpt>
      <trkpt lat="46.69933" lon="5.71624">
        <ele>558.9</ele>
        <time>2022-03-08T08:17:09Z</time>
      </trkpt>
      <trkpt lat="46.69937" lon="5.71619">
        <ele>558.8</ele>
        <time>2022-03-08T08:17:14Z</time>
      </trkpt>
      <trkpt lat="46.69942" lon="5.71615">
        <ele>558.4</ele>
        <time>2022-03-08T08:17:18Z</time>
      </trkpt>
      <trkpt lat="46.69945" lon="5.7161">
        <ele>557.9</ele>
        <time>2022-03-08T08:17:22Z</time>
      </trkpt>
      <trkpt lat="46.6995" lon="5.71605">
        <ele>556.9</ele>
        <time>2022-03-08T08:17:28Z</time>
      </trkpt>
      <trkpt lat="46.69952" lon="5.71597">
        <ele>556.2</ele>
        <time>2022-03-08T08:17:32Z</time>
      </trkpt>
      <trkpt lat="46.69954" lon="5.7159">
        <ele>555.3</ele>
        <time>2022-03-08T08:17:36Z</time>
      </trkpt>
      <trkpt lat="46.69957" lon="5.71585">
        <ele>554.4</ele>
        <time>2022-03-08T08:17:40Z</time>
      </trkpt>
      <trkpt lat="46.6996" lon="5.7158">
        <ele>553.8</ele>
        <time>2022-03-08T08:17:45Z</time>
      </trkpt>
      <trkpt lat="46.69963" lon="5.71574">
        <ele>553.2</ele>
        <time>2022-03-08T08:17:50Z</time>
      </trkpt>
      <trkpt lat="46.69966" lon="5.71568">
        <ele>553</ele>
        <time>2022-03-08T08:17:55Z</time>
      </trkpt>
      <trkpt lat="46.69969" lon="5.71562">
        <ele>553.1</ele>
        <time>2022-03-08T08:18:00Z</time>
      </trkpt>
      <trkpt lat="46.69972" lon="5.71555">
        <ele>553.2</ele>
        <time>2022-03-08T08:18:05Z</time>
      </trkpt>
      <trkpt lat="46.69975" lon="5.71548">
        <ele>553.1</ele>
        <time>2022-03-08T08:18:09Z</time>
      </trkpt>
      <trkpt lat="46.69978" lon="5.71541">
        <ele>552.9</ele>
        <time>2022-03-08T08:18:13Z</time>
      </trkpt>
      <trkpt lat="46.69981" lon="5.71535">
        <ele>552.8</ele>
        <time>2022-03-08T08:18:17Z</time>
      </trkpt>
      <trkpt lat="46.69984" lon="5.71529">
        <ele>552.6</ele>
        <time>2022-03-08T08:18:21Z</time>
      </trkpt>
      <trkpt lat="46.69986" lon="5.71523">
        <ele>552.8</ele>
        <time>2022-03-08T08:18:25Z</time>
      </trkpt>
      <trkpt lat="46.69988" lon="5.71515">
        <ele>552.5</ele>
        <time>2022-03-08T08:18:30Z</time>
      </trkpt>
      <trkpt lat="46.6999" lon="5.71508">
        <ele>552.3</ele>
        <time>2022-03-08T08:18:36Z</time>
      </trkpt>
      <trkpt lat="46.69993" lon="5.71503">
        <ele>552.1</ele>
        <time>2022-03-08T08:18:41Z</time>
      </trkpt>
      <trkpt lat="46.69995" lon="5.71497">
        <ele>552</ele>
        <time>2022-03-08T08:18:46Z</time>
      </trkpt>
      <trkpt lat="46.69997" lon="5.7149">
        <ele>551.5</ele>
        <time>2022-03-08T08:18:49Z</time>
      </trkpt>
      <trkpt lat="46.69997" lon="5.71482">
        <ele>551.1</ele>
        <time>2022-03-08T08:18:52Z</time>
      </trkpt>
      <trkpt lat="46.69998" lon="5.71475">
        <ele>550.7</ele>
        <time>2022-03-08T08:18:55Z</time>
      </trkpt>
      <trkpt lat="46.69999" lon="5.71467">
        <ele>550.2</ele>
        <time>2022-03-08T08:18:59Z</time>
      </trkpt>
      <trkpt lat="46.70001" lon="5.71461">
        <ele>549.8</ele>
        <time>2022-03-08T08:19:03Z</time>
      </trkpt>
      <trkpt lat="46.70003" lon="5.71455">
        <ele>549.3</ele>
        <time>2022-03-08T08:19:07Z</time>
      </trkpt>
      <trkpt lat="46.70004" lon="5.71448">
        <ele>549</ele>
        <time>2022-03-08T08:19:12Z</time>
      </trkpt>
      <trkpt lat="46.70003" lon="5.7144">
        <ele>549.1</ele>
        <time>2022-03-08T08:19:17Z</time>
      </trkpt>
      <trkpt lat="46.70004" lon="5.71432">
        <ele>549.1</ele>
        <time>2022-03-08T08:19:21Z</time>
      </trkpt>
      <trkpt lat="46.70007" lon="5.71426">
        <ele>549</ele>
        <time>2022-03-08T08:19:25Z</time>
      </trkpt>
      <trkpt lat="46.70008" lon="5.71418">
        <ele>548.9</ele>
        <time>2022-03-08T08:19:30Z</time>
      </trkpt>
      <trkpt lat="46.70009" lon="5.71412">
        <ele>549</ele>
        <time>2022-03-08T08:19:35Z</time>
      </trkpt>
      <trkpt lat="46.7001" lon="5.71404">
        <ele>549</ele>
        <time>2022-03-08T08:19:41Z</time>
      </trkpt>
      <trkpt lat="46.70011" lon="5.71397">
        <ele>548.9</ele>
        <time>2022-03-08T08:19:46Z</time>
      </trkpt>
      <trkpt lat="46.70013" lon="5.7139">
        <ele>548.6</ele>
        <time>2022-03-08T08:19:52Z</time>
      </trkpt>
      <trkpt lat="46.70015" lon="5.71384">
        <ele>547.7</ele>
        <time>2022-03-08T08:19:59Z</time>
      </trkpt>
      <trkpt lat="46.70018" lon="5.71376">
        <ele>547.4</ele>
        <time>2022-03-08T08:20:03Z</time>
      </trkpt>
      <trkpt lat="46.7002" lon="5.71369">
        <ele>547.3</ele>
        <time>2022-03-08T08:20:06Z</time>
      </trkpt>
      <trkpt lat="46.70021" lon="5.71361">
        <ele>547.2</ele>
        <time>2022-03-08T08:20:10Z</time>
      </trkpt>
      <trkpt lat="46.70021" lon="5.71354">
        <ele>546.9</ele>
        <time>2022-03-08T08:20:15Z</time>
      </trkpt>
      <trkpt lat="46.70023" lon="5.71347">
        <ele>547</ele>
        <time>2022-03-08T08:20:20Z</time>
      </trkpt>
      <trkpt lat="46.70024" lon="5.7134">
        <ele>547.4</ele>
        <time>2022-03-08T08:20:24Z</time>
      </trkpt>
      <trkpt lat="46.70026" lon="5.71333">
        <ele>547.7</ele>
        <time>2022-03-08T08:20:29Z</time>
      </trkpt>
      <trkpt lat="46.70027" lon="5.71326">
        <ele>547.3</ele>
        <time>2022-03-08T08:20:34Z</time>
      </trkpt>
      <trkpt lat="46.70027" lon="5.71318">
        <ele>547</ele>
        <time>2022-03-08T08:20:38Z</time>
      </trkpt>
      <trkpt lat="46.70027" lon="5.71309">
        <ele>546.7</ele>
        <time>2022-03-08T08:20:42Z</time>
      </trkpt>
      <trkpt lat="46.70028" lon="5.71303">
        <ele>546.5</ele>
        <time>2022-03-08T08:20:46Z</time>
      </trkpt>
      <trkpt lat="46.70028" lon="5.71296">
        <ele>546.6</ele>
        <time>2022-03-08T08:20:51Z</time>
      </trkpt>
      <trkpt lat="46.70027" lon="5.71288">
        <ele>546.8</ele>
        <time>2022-03-08T08:20:56Z</time>
      </trkpt>
      <trkpt lat="46.70025" lon="5.7128">
        <ele>546.9</ele>
        <time>2022-03-08T08:21:00Z</time>
      </trkpt>
      <trkpt lat="46.70024" lon="5.71272">
        <ele>547.2</ele>
        <time>2022-03-08T08:21:04Z</time>
      </trkpt>
      <trkpt lat="46.70023" lon="5.71265">
        <ele>547.4</ele>
        <time>2022-03-08T08:21:07Z</time>
      </trkpt>
      <trkpt lat="46.70023" lon="5.71258">
        <ele>547.5</ele>
        <time>2022-03-08T08:21:10Z</time>
      </trkpt>
      <trkpt lat="46.70022" lon="5.71251">
        <ele>547.6</ele>
        <time>2022-03-08T08:21:13Z</time>
      </trkpt>
      <trkpt lat="46.70022" lon="5.71244">
        <ele>547.7</ele>
        <time>2022-03-08T08:21:16Z</time>
      </trkpt>
      <trkpt lat="46.70023" lon="5.71237">
        <ele>548.2</ele>
        <time>2022-03-08T08:21:22Z</time>
      </trkpt>
      <trkpt lat="46.70022" lon="5.7123">
        <ele>548.7</ele>
        <time>2022-03-08T08:21:28Z</time>
      </trkpt>
      <trkpt lat="46.70022" lon="5.71222">
        <ele>549.2</ele>
        <time>2022-03-08T08:21:32Z</time>
      </trkpt>
      <trkpt lat="46.70022" lon="5.71214">
        <ele>549.2</ele>
        <time>2022-03-08T08:21:36Z</time>
      </trkpt>
      <trkpt lat="46.70022" lon="5.71207">
        <ele>549</ele>
        <time>2022-03-08T08:21:40Z</time>
      </trkpt>
      <trkpt lat="46.70022" lon="5.712">
        <ele>548.6</ele>
        <time>2022-03-08T08:21:46Z</time>
      </trkpt>
      <trkpt lat="46.70022" lon="5.71194">
        <ele>548.3</ele>
        <time>2022-03-08T08:21:54Z</time>
      </trkpt>
      <trkpt lat="46.70021" lon="5.71187">
        <ele>547.9</ele>
        <time>2022-03-08T08:21:59Z</time>
      </trkpt>
      <trkpt lat="46.70021" lon="5.7118">
        <ele>547.4</ele>
        <time>2022-03-08T08:22:03Z</time>
      </trkpt>
      <trkpt lat="46.70022" lon="5.71173">
        <ele>546.9</ele>
        <time>2022-03-08T08:22:08Z</time>
      </trkpt>
      <trkpt lat="46.70024" lon="5.71166">
        <ele>546.6</ele>
        <time>2022-03-08T08:22:13Z</time>
      </trkpt>
      <trkpt lat="46.70024" lon="5.71158">
        <ele>546.2</ele>
        <time>2022-03-08T08:22:17Z</time>
      </trkpt>
      <trkpt lat="46.70025" lon="5.7115">
        <ele>545.9</ele>
        <time>2022-03-08T08:22:21Z</time>
      </trkpt>
      <trkpt lat="46.70026" lon="5.71143">
        <ele>545.6</ele>
        <time>2022-03-08T08:22:25Z</time>
      </trkpt>
      <trkpt lat="46.70027" lon="5.71135">
        <ele>545.3</ele>
        <time>2022-03-08T08:22:29Z</time>
      </trkpt>
      <trkpt lat="46.70028" lon="5.71126">
        <ele>545</ele>
        <time>2022-03-08T08:22:33Z</time>
      </trkpt>
      <trkpt lat="46.70029" lon="5.71119">
        <ele>544.8</ele>
        <time>2022-03-08T08:22:37Z</time>
      </trkpt>
      <trkpt lat="46.70029" lon="5.71111">
        <ele>544.6</ele>
        <time>2022-03-08T08:22:41Z</time>
      </trkpt>
      <trkpt lat="46.70029" lon="5.71104">
        <ele>544.4</ele>
        <time>2022-03-08T08:22:45Z</time>
      </trkpt>
      <trkpt lat="46.7003" lon="5.71096">
        <ele>544.1</ele>
        <time>2022-03-08T08:22:50Z</time>
      </trkpt>
      <trkpt lat="46.7003" lon="5.71089">
        <ele>543.3</ele>
        <time>2022-03-08T08:22:56Z</time>
      </trkpt>
      <trkpt lat="46.7003" lon="5.71082">
        <ele>543</ele>
        <time>2022-03-08T08:23:00Z</time>
      </trkpt>
      <trkpt lat="46.7003" lon="5.71074">
        <ele>542.8</ele>
        <time>2022-03-08T08:23:04Z</time>
      </trkpt>
      <trkpt lat="46.7003" lon="5.71066">
        <ele>542.5</ele>
        <time>2022-03-08T08:23:08Z</time>
      </trkpt>
      <trkpt lat="46.7003" lon="5.71059">
        <ele>542.4</ele>
        <time>2022-03-08T08:23:12Z</time>
      </trkpt>
      <trkpt lat="46.70031" lon="5.71052">
        <ele>542.5</ele>
        <time>2022-03-08T08:23:17Z</time>
      </trkpt>
      <trkpt lat="46.70031" lon="5.71045">
        <ele>542.7</ele>
        <time>2022-03-08T08:23:21Z</time>
      </trkpt>
      <trkpt lat="46.70031" lon="5.71037">
        <ele>542.7</ele>
        <time>2022-03-08T08:23:25Z</time>
      </trkpt>
      <trkpt lat="46.70031" lon="5.71029">
        <ele>542.9</ele>
        <time>2022-03-08T08:23:29Z</time>
      </trkpt>
      <trkpt lat="46.70031" lon="5.71021">
        <ele>543.7</ele>
        <time>2022-03-08T08:23:33Z</time>
      </trkpt>
      <trkpt lat="46.70033" lon="5.71014">
        <ele>544.4</ele>
        <time>2022-03-08T08:23:39Z</time>
      </trkpt>
      <trkpt lat="46.70035" lon="5.71007">
        <ele>544.7</ele>
        <time>2022-03-08T08:23:45Z</time>
      </trkpt>
      <trkpt lat="46.70037" lon="5.70999">
        <ele>544.7</ele>
        <time>2022-03-08T08:23:49Z</time>
      </trkpt>
      <trkpt lat="46.70038" lon="5.70992">
        <ele>544.6</ele>
        <time>2022-03-08T08:23:53Z</time>
      </trkpt>
      <trkpt lat="46.70039" lon="5.70983">
        <ele>544.2</ele>
        <time>2022-03-08T08:23:57Z</time>
      </trkpt>
      <trkpt lat="46.7004" lon="5.70977">
        <ele>543.4</ele>
        <time>2022-03-08T08:24:01Z</time>
      </trkpt>
      <trkpt lat="46.70043" lon="5.70972">
        <ele>542.8</ele>
        <time>2022-03-08T08:24:05Z</time>
      </trkpt>
      <trkpt lat="46.70046" lon="5.70966">
        <ele>542.5</ele>
        <time>2022-03-08T08:24:08Z</time>
      </trkpt>
      <trkpt lat="46.70049" lon="5.70961">
        <ele>542.5</ele>
        <time>2022-03-08T08:24:11Z</time>
      </trkpt>
      <trkpt lat="46.70051" lon="5.70956">
        <ele>542.7</ele>
        <time>2022-03-08T08:24:14Z</time>
      </trkpt>
      <trkpt lat="46.70055" lon="5.70949">
        <ele>543.1</ele>
        <time>2022-03-08T08:24:18Z</time>
      </trkpt>
      <trkpt lat="46.70058" lon="5.70944">
        <ele>544.1</ele>
        <time>2022-03-08T08:24:23Z</time>
      </trkpt>
      <trkpt lat="46.70061" lon="5.70938">
        <ele>544.6</ele>
        <time>2022-03-08T08:24:27Z</time>
      </trkpt>
      <trkpt lat="46.70063" lon="5.70932">
        <ele>544.9</ele>
        <time>2022-03-08T08:24:30Z</time>
      </trkpt>
      <trkpt lat="46.70065" lon="5.70925">
        <ele>545.4</ele>
        <time>2022-03-08T08:24:35Z</time>
      </trkpt>
      <trkpt lat="46.7007" lon="5.70923">
        <ele>546.6</ele>
        <time>2022-03-08T08:24:41Z</time>
      </trkpt>
      <trkpt lat="46.70075" lon="5.70922">
        <ele>546.9</ele>
        <time>2022-03-08T08:24:46Z</time>
      </trkpt>
      <trkpt lat="46.7008" lon="5.70919">
        <ele>546.3</ele>
        <time>2022-03-08T08:24:53Z</time>
      </trkpt>
      <trkpt lat="46.70085" lon="5.70918">
        <ele>544.8</ele>
        <time>2022-03-08T08:24:59Z</time>
      </trkpt>
      <trkpt lat="46.70089" lon="5.70916">
        <ele>544.3</ele>
        <time>2022-03-08T08:25:02Z</time>
      </trkpt>
      <trkpt lat="46.70093" lon="5.7091">
        <ele>543.8</ele>
        <time>2022-03-08T08:25:05Z</time>
      </trkpt>
      <trkpt lat="46.70097" lon="5.70904">
        <ele>543.5</ele>
        <time>2022-03-08T08:25:08Z</time>
      </trkpt>
      <trkpt lat="46.701" lon="5.70897">
        <ele>542.8</ele>
        <time>2022-03-08T08:25:12Z</time>
      </trkpt>
      <trkpt lat="46.70103" lon="5.70891">
        <ele>541.6</ele>
        <time>2022-03-08T08:25:17Z</time>
      </trkpt>
      <trkpt lat="46.70108" lon="5.70889">
        <ele>541</ele>
        <time>2022-03-08T08:25:21Z</time>
      </trkpt>
      <trkpt lat="46.70111" lon="5.70885">
        <ele>540.7</ele>
        <time>2022-03-08T08:25:25Z</time>
      </trkpt>
      <trkpt lat="46.70116" lon="5.70882">
        <ele>540.9</ele>
        <time>2022-03-08T08:25:29Z</time>
      </trkpt>
      <trkpt lat="46.7012" lon="5.70879">
        <ele>541.1</ele>
        <time>2022-03-08T08:25:33Z</time>
      </trkpt>
      <trkpt lat="46.70125" lon="5.70876">
        <ele>541.5</ele>
        <time>2022-03-08T08:25:37Z</time>
      </trkpt>
      <trkpt lat="46.70129" lon="5.70871">
        <ele>542.1</ele>
        <time>2022-03-08T08:25:43Z</time>
      </trkpt>
      <trkpt lat="46.70134" lon="5.70868">
        <ele>542.4</ele>
        <time>2022-03-08T08:25:50Z</time>
      </trkpt>
      <trkpt lat="46.70139" lon="5.70866">
        <ele>542.6</ele>
        <time>2022-03-08T08:25:56Z</time>
      </trkpt>
      <trkpt lat="46.70144" lon="5.70862">
        <ele>542.7</ele>
        <time>2022-03-08T08:26:00Z</time>
      </trkpt>
      <trkpt lat="46.70147" lon="5.70858">
        <ele>542.4</ele>
        <time>2022-03-08T08:26:04Z</time>
      </trkpt>
      <trkpt lat="46.70152" lon="5.70856">
        <ele>541.9</ele>
        <time>2022-03-08T08:26:09Z</time>
      </trkpt>
      <trkpt lat="46.70156" lon="5.70854">
        <ele>541.6</ele>
        <time>2022-03-08T08:26:13Z</time>
      </trkpt>
      <trkpt lat="46.7016" lon="5.7085">
        <ele>540.9</ele>
        <time>2022-03-08T08:26:18Z</time>
      </trkpt>
      <trkpt lat="46.70165" lon="5.70847">
        <ele>540.1</ele>
        <time>2022-03-08T08:26:23Z</time>
      </trkpt>
      <trkpt lat="46.7017" lon="5.70842">
        <ele>539.4</ele>
        <time>2022-03-08T08:26:27Z</time>
      </trkpt>
      <trkpt lat="46.70172" lon="5.70835">
        <ele>538.9</ele>
        <time>2022-03-08T08:26:30Z</time>
      </trkpt>
      <trkpt lat="46.70174" lon="5.70828">
        <ele>538.6</ele>
        <time>2022-03-08T08:26:33Z</time>
      </trkpt>
      <trkpt lat="46.70177" lon="5.70821">
        <ele>538.5</ele>
        <time>2022-03-08T08:26:37Z</time>
      </trkpt>
      <trkpt lat="46.70179" lon="5.70815">
        <ele>538.8</ele>
        <time>2022-03-08T08:26:41Z</time>
      </trkpt>
      <trkpt lat="46.70182" lon="5.70808">
        <ele>539.4</ele>
        <time>2022-03-08T08:26:46Z</time>
      </trkpt>
      <trkpt lat="46.70184" lon="5.70801">
        <ele>539.6</ele>
        <time>2022-03-08T08:26:51Z</time>
      </trkpt>
      <trkpt lat="46.70186" lon="5.70794">
        <ele>539.6</ele>
        <time>2022-03-08T08:26:56Z</time>
      </trkpt>
      <trkpt lat="46.70187" lon="5.70787">
        <ele>539.4</ele>
        <time>2022-03-08T08:27:01Z</time>
      </trkpt>
      <trkpt lat="46.70189" lon="5.70779">
        <ele>539.2</ele>
        <time>2022-03-08T08:27:06Z</time>
      </trkpt>
      <trkpt lat="46.70191" lon="5.70772">
        <ele>538.9</ele>
        <time>2022-03-08T08:27:11Z</time>
      </trkpt>
      <trkpt lat="46.70193" lon="5.70766">
        <ele>538.5</ele>
        <time>2022-03-08T08:27:15Z</time>
      </trkpt>
      <trkpt lat="46.70195" lon="5.70759">
        <ele>538</ele>
        <time>2022-03-08T08:27:20Z</time>
      </trkpt>
      <trkpt lat="46.70197" lon="5.70751">
        <ele>537.4</ele>
        <time>2022-03-08T08:27:25Z</time>
      </trkpt>
      <trkpt lat="46.70198" lon="5.70745">
        <ele>537.1</ele>
        <time>2022-03-08T08:27:30Z</time>
      </trkpt>
      <trkpt lat="46.70201" lon="5.70739">
        <ele>536.8</ele>
        <time>2022-03-08T08:27:34Z</time>
      </trkpt>
      <trkpt lat="46.70203" lon="5.70732">
        <ele>536.5</ele>
        <time>2022-03-08T08:27:39Z</time>
      </trkpt>
      <trkpt lat="46.70204" lon="5.70726">
        <ele>536.8</ele>
        <time>2022-03-08T08:27:43Z</time>
      </trkpt>
      <trkpt lat="46.70204" lon="5.70718">
        <ele>536.6</ele>
        <time>2022-03-08T08:27:47Z</time>
      </trkpt>
      <trkpt lat="46.70204" lon="5.70711">
        <ele>535.5</ele>
        <time>2022-03-08T08:27:51Z</time>
      </trkpt>
      <trkpt lat="46.70204" lon="5.70704">
        <ele>533.8</ele>
        <time>2022-03-08T08:27:55Z</time>
      </trkpt>
      <trkpt lat="46.70203" lon="5.70696">
        <ele>531.8</ele>
        <time>2022-03-08T08:27:59Z</time>
      </trkpt>
      <trkpt lat="46.70203" lon="5.70688">
        <ele>529.4</ele>
        <time>2022-03-08T08:28:05Z</time>
      </trkpt>
      <trkpt lat="46.70201" lon="5.70681">
        <ele>528.8</ele>
        <time>2022-03-08T08:28:08Z</time>
      </trkpt>
      <trkpt lat="46.702" lon="5.70674">
        <ele>528.5</ele>
        <time>2022-03-08T08:28:11Z</time>
      </trkpt>
      <trkpt lat="46.702" lon="5.70666">
        <ele>528.8</ele>
        <time>2022-03-08T08:28:16Z</time>
      </trkpt>
      <trkpt lat="46.70198" lon="5.70659">
        <ele>530.5</ele>
        <time>2022-03-08T08:28:23Z</time>
      </trkpt>
      <trkpt lat="46.70195" lon="5.70653">
        <ele>533</ele>
        <time>2022-03-08T08:28:29Z</time>
      </trkpt>
      <trkpt lat="46.70191" lon="5.70648">
        <ele>534.4</ele>
        <time>2022-03-08T08:28:33Z</time>
      </trkpt>
      <trkpt lat="46.70188" lon="5.70644">
        <ele>535.4</ele>
        <time>2022-03-08T08:28:37Z</time>
      </trkpt>
      <trkpt lat="46.70184" lon="5.70639">
        <ele>536.1</ele>
        <time>2022-03-08T08:28:42Z</time>
      </trkpt>
      <trkpt lat="46.7018" lon="5.70634">
        <ele>536.3</ele>
        <time>2022-03-08T08:28:48Z</time>
      </trkpt>
      <trkpt lat="46.70176" lon="5.70631">
        <ele>535.9</ele>
        <time>2022-03-08T08:28:54Z</time>
      </trkpt>
      <trkpt lat="46.70171" lon="5.70628">
        <ele>534.7</ele>
        <time>2022-03-08T08:29:02Z</time>
      </trkpt>
      <trkpt lat="46.70165" lon="5.70628">
        <ele>534</ele>
        <time>2022-03-08T08:29:07Z</time>
      </trkpt>
      <trkpt lat="46.70161" lon="5.70626">
        <ele>533.8</ele>
        <time>2022-03-08T08:29:10Z</time>
      </trkpt>
      <trkpt lat="46.70157" lon="5.70621">
        <ele>533.1</ele>
        <time>2022-03-08T08:29:15Z</time>
      </trkpt>
      <trkpt lat="46.70152" lon="5.70617">
        <ele>532.9</ele>
        <time>2022-03-08T08:29:19Z</time>
      </trkpt>
      <trkpt lat="46.70147" lon="5.70612">
        <ele>533.1</ele>
        <time>2022-03-08T08:29:22Z</time>
      </trkpt>
      <trkpt lat="46.70143" lon="5.70608">
        <ele>533.1</ele>
        <time>2022-03-08T08:29:26Z</time>
      </trkpt>
      <trkpt lat="46.7014" lon="5.70602">
        <ele>533.1</ele>
        <time>2022-03-08T08:29:30Z</time>
      </trkpt>
      <trkpt lat="46.70136" lon="5.70596">
        <ele>534.7</ele>
        <time>2022-03-08T08:29:35Z</time>
      </trkpt>
      <trkpt lat="46.70134" lon="5.7059">
        <ele>536</ele>
        <time>2022-03-08T08:29:39Z</time>
      </trkpt>
      <trkpt lat="46.70133" lon="5.70582">
        <ele>536.9</ele>
        <time>2022-03-08T08:29:43Z</time>
      </trkpt>
      <trkpt lat="46.70133" lon="5.70573">
        <ele>537.7</ele>
        <time>2022-03-08T08:29:47Z</time>
      </trkpt>
      <trkpt lat="46.70134" lon="5.70566">
        <ele>538</ele>
        <time>2022-03-08T08:29:50Z</time>
      </trkpt>
      <trkpt lat="46.70134" lon="5.7056">
        <ele>538.1</ele>
        <time>2022-03-08T08:29:53Z</time>
      </trkpt>
      <trkpt lat="46.70134" lon="5.70552">
        <ele>538.2</ele>
        <time>2022-03-08T08:29:57Z</time>
      </trkpt>
      <trkpt lat="46.70134" lon="5.70545">
        <ele>538.3</ele>
        <time>2022-03-08T08:30:01Z</time>
      </trkpt>
      <trkpt lat="46.70135" lon="5.70537">
        <ele>538.1</ele>
        <time>2022-03-08T08:30:06Z</time>
      </trkpt>
      <trkpt lat="46.70134" lon="5.70531">
        <ele>537.8</ele>
        <time>2022-03-08T08:30:11Z</time>
      </trkpt>
      <trkpt lat="46.70134" lon="5.70523">
        <ele>537.6</ele>
        <time>2022-03-08T08:30:17Z</time>
      </trkpt>
      <trkpt lat="46.70134" lon="5.70516">
        <ele>537.3</ele>
        <time>2022-03-08T08:30:22Z</time>
      </trkpt>
      <trkpt lat="46.70132" lon="5.70509">
        <ele>536.7</ele>
        <time>2022-03-08T08:30:27Z</time>
      </trkpt>
      <trkpt lat="46.70131" lon="5.70503">
        <ele>536</ele>
        <time>2022-03-08T08:30:31Z</time>
      </trkpt>
      <trkpt lat="46.7013" lon="5.70496">
        <ele>535.3</ele>
        <time>2022-03-08T08:30:36Z</time>
      </trkpt>
      <trkpt lat="46.70129" lon="5.70489">
        <ele>535</ele>
        <time>2022-03-08T08:30:40Z</time>
      </trkpt>
      <trkpt lat="46.70129" lon="5.70482">
        <ele>535</ele>
        <time>2022-03-08T08:30:44Z</time>
      </trkpt>
      <trkpt lat="46.70129" lon="5.70475">
        <ele>534.7</ele>
        <time>2022-03-08T08:30:48Z</time>
      </trkpt>
      <trkpt lat="46.7013" lon="5.70468">
        <ele>534.2</ele>
        <time>2022-03-08T08:30:53Z</time>
      </trkpt>
      <trkpt lat="46.7013" lon="5.70461">
        <ele>534.4</ele>
        <time>2022-03-08T08:30:58Z</time>
      </trkpt>
      <trkpt lat="46.70132" lon="5.70455">
        <ele>534.7</ele>
        <time>2022-03-08T08:31:03Z</time>
      </trkpt>
      <trkpt lat="46.70134" lon="5.70448">
        <ele>534.8</ele>
        <time>2022-03-08T08:31:08Z</time>
      </trkpt>
      <trkpt lat="46.70135" lon="5.70442">
        <ele>534.9</ele>
        <time>2022-03-08T08:31:12Z</time>
      </trkpt>
      <trkpt lat="46.70136" lon="5.70435">
        <ele>535.1</ele>
        <time>2022-03-08T08:31:16Z</time>
      </trkpt>
      <trkpt lat="46.70137" lon="5.70428">
        <ele>534.9</ele>
        <time>2022-03-08T08:31:20Z</time>
      </trkpt>
      <trkpt lat="46.70139" lon="5.70421">
        <ele>534.3</ele>
        <time>2022-03-08T08:31:25Z</time>
      </trkpt>
      <trkpt lat="46.7014" lon="5.70414">
        <ele>533.9</ele>
        <time>2022-03-08T08:31:29Z</time>
      </trkpt>
      <trkpt lat="46.70142" lon="5.70407">
        <ele>533.6</ele>
        <time>2022-03-08T08:31:33Z</time>
      </trkpt>
      <trkpt lat="46.70143" lon="5.704">
        <ele>533.5</ele>
        <time>2022-03-08T08:31:37Z</time>
      </trkpt>
      <trkpt lat="46.70145" lon="5.70394">
        <ele>533.3</ele>
        <time>2022-03-08T08:31:41Z</time>
      </trkpt>
      <trkpt lat="46.70147" lon="5.70387">
        <ele>532.8</ele>
        <time>2022-03-08T08:31:46Z</time>
      </trkpt>
      <trkpt lat="46.70149" lon="5.7038">
        <ele>532.7</ele>
        <time>2022-03-08T08:31:51Z</time>
      </trkpt>
      <trkpt lat="46.70151" lon="5.70373">
        <ele>532.8</ele>
        <time>2022-03-08T08:31:55Z</time>
      </trkpt>
      <trkpt lat="46.70152" lon="5.70366">
        <ele>532.2</ele>
        <time>2022-03-08T08:32:00Z</time>
      </trkpt>
      <trkpt lat="46.70154" lon="5.70358">
        <ele>531.3</ele>
        <time>2022-03-08T08:32:05Z</time>
      </trkpt>
      <trkpt lat="46.70155" lon="5.70351">
        <ele>530.7</ele>
        <time>2022-03-08T08:32:09Z</time>
      </trkpt>
      <trkpt lat="46.70157" lon="5.70344">
        <ele>530.2</ele>
        <time>2022-03-08T08:32:14Z</time>
      </trkpt>
      <trkpt lat="46.70159" lon="5.70337">
        <ele>530.1</ele>
        <time>2022-03-08T08:32:19Z</time>
      </trkpt>
      <trkpt lat="46.70162" lon="5.70331">
        <ele>530.3</ele>
        <time>2022-03-08T08:32:25Z</time>
      </trkpt>
      <trkpt lat="46.70163" lon="5.70324">
        <ele>530.4</ele>
        <time>2022-03-08T08:32:29Z</time>
      </trkpt>
      <trkpt lat="46.70165" lon="5.70317">
        <ele>530.4</ele>
        <time>2022-03-08T08:32:33Z</time>
      </trkpt>
      <trkpt lat="46.70166" lon="5.70311">
        <ele>530.4</ele>
        <time>2022-03-08T08:32:37Z</time>
      </trkpt>
      <trkpt lat="46.70168" lon="5.70304">
        <ele>530.4</ele>
        <time>2022-03-08T08:32:41Z</time>
      </trkpt>
      <trkpt lat="46.70171" lon="5.70298">
        <ele>530.5</ele>
        <time>2022-03-08T08:32:46Z</time>
      </trkpt>
      <trkpt lat="46.70173" lon="5.70292">
        <ele>530.4</ele>
        <time>2022-03-08T08:32:50Z</time>
      </trkpt>
      <trkpt lat="46.70176" lon="5.70285">
        <ele>529.8</ele>
        <time>2022-03-08T08:32:55Z</time>
      </trkpt>
      <trkpt lat="46.70177" lon="5.70279">
        <ele>529.5</ele>
        <time>2022-03-08T08:32:59Z</time>
      </trkpt>
      <trkpt lat="46.7018" lon="5.70272">
        <ele>528.9</ele>
        <time>2022-03-08T08:33:04Z</time>
      </trkpt>
      <trkpt lat="46.70183" lon="5.70267">
        <ele>528.6</ele>
        <time>2022-03-08T08:33:09Z</time>
      </trkpt>
      <trkpt lat="46.70185" lon="5.7026">
        <ele>528.5</ele>
        <time>2022-03-08T08:33:14Z</time>
      </trkpt>
      <trkpt lat="46.70187" lon="5.70252">
        <ele>528.5</ele>
        <time>2022-03-08T08:33:18Z</time>
      </trkpt>
      <trkpt lat="46.70189" lon="5.70245">
        <ele>528.7</ele>
        <time>2022-03-08T08:33:22Z</time>
      </trkpt>
      <trkpt lat="46.7019" lon="5.70239">
        <ele>529.1</ele>
        <time>2022-03-08T08:33:26Z</time>
      </trkpt>
      <trkpt lat="46.70192" lon="5.70232">
        <ele>529.5</ele>
        <time>2022-03-08T08:33:31Z</time>
      </trkpt>
      <trkpt lat="46.70195" lon="5.70226">
        <ele>529.7</ele>
        <time>2022-03-08T08:33:36Z</time>
      </trkpt>
      <trkpt lat="46.70198" lon="5.70219">
        <ele>529.8</ele>
        <time>2022-03-08T08:33:41Z</time>
      </trkpt>
      <trkpt lat="46.702" lon="5.70212">
        <ele>529.5</ele>
        <time>2022-03-08T08:33:46Z</time>
      </trkpt>
      <trkpt lat="46.70202" lon="5.70206">
        <ele>529.2</ele>
        <time>2022-03-08T08:33:50Z</time>
      </trkpt>
      <trkpt lat="46.70204" lon="5.702">
        <ele>528.9</ele>
        <time>2022-03-08T08:33:54Z</time>
      </trkpt>
      <trkpt lat="46.70206" lon="5.70193">
        <ele>528.8</ele>
        <time>2022-03-08T08:33:58Z</time>
      </trkpt>
      <trkpt lat="46.70208" lon="5.70186">
        <ele>529</ele>
        <time>2022-03-08T08:34:02Z</time>
      </trkpt>
      <trkpt lat="46.70209" lon="5.7018">
        <ele>528.9</ele>
        <time>2022-03-08T08:34:06Z</time>
      </trkpt>
      <trkpt lat="46.70211" lon="5.70172">
        <ele>529.1</ele>
        <time>2022-03-08T08:34:11Z</time>
      </trkpt>
      <trkpt lat="46.70212" lon="5.70165">
        <ele>529.1</ele>
        <time>2022-03-08T08:34:15Z</time>
      </trkpt>
      <trkpt lat="46.70212" lon="5.70158">
        <ele>529.1</ele>
        <time>2022-03-08T08:34:19Z</time>
      </trkpt>
      <trkpt lat="46.70212" lon="5.70151">
        <ele>529.1</ele>
        <time>2022-03-08T08:34:24Z</time>
      </trkpt>
      <trkpt lat="46.70211" lon="5.70145">
        <ele>528.8</ele>
        <time>2022-03-08T08:34:29Z</time>
      </trkpt>
      <trkpt lat="46.70208" lon="5.70139">
        <ele>528.3</ele>
        <time>2022-03-08T08:34:34Z</time>
      </trkpt>
      <trkpt lat="46.70204" lon="5.70134">
        <ele>528.1</ele>
        <time>2022-03-08T08:34:39Z</time>
      </trkpt>
      <trkpt lat="46.702" lon="5.70129">
        <ele>527.7</ele>
        <time>2022-03-08T08:34:44Z</time>
      </trkpt>
      <trkpt lat="46.70197" lon="5.70125">
        <ele>527.5</ele>
        <time>2022-03-08T08:34:49Z</time>
      </trkpt>
      <trkpt lat="46.70193" lon="5.7012">
        <ele>527.1</ele>
        <time>2022-03-08T08:34:54Z</time>
      </trkpt>
      <trkpt lat="46.7019" lon="5.70115">
        <ele>526.6</ele>
        <time>2022-03-08T08:34:59Z</time>
      </trkpt>
      <trkpt lat="46.70186" lon="5.7011">
        <ele>526.3</ele>
        <time>2022-03-08T08:35:04Z</time>
      </trkpt>
      <trkpt lat="46.70183" lon="5.70104">
        <ele>526.1</ele>
        <time>2022-03-08T08:35:08Z</time>
      </trkpt>
      <trkpt lat="46.7018" lon="5.70099">
        <ele>526</ele>
        <time>2022-03-08T08:35:12Z</time>
      </trkpt>
      <trkpt lat="46.70179" lon="5.70093">
        <ele>525.8</ele>
        <time>2022-03-08T08:35:16Z</time>
      </trkpt>
      <trkpt lat="46.70177" lon="5.70086">
        <ele>526</ele>
        <time>2022-03-08T08:35:20Z</time>
      </trkpt>
      <trkpt lat="46.70177" lon="5.70078">
        <ele>526.5</ele>
        <time>2022-03-08T08:35:25Z</time>
      </trkpt>
      <trkpt lat="46.70178" lon="5.70072">
        <ele>527</ele>
        <time>2022-03-08T08:35:29Z</time>
      </trkpt>
      <trkpt lat="46.70179" lon="5.70065">
        <ele>527.3</ele>
        <time>2022-03-08T08:35:34Z</time>
      </trkpt>
      <trkpt lat="46.70181" lon="5.70057">
        <ele>527</ele>
        <time>2022-03-08T08:35:39Z</time>
      </trkpt>
      <trkpt lat="46.70181" lon="5.7005">
        <ele>527.1</ele>
        <time>2022-03-08T08:35:44Z</time>
      </trkpt>
      <trkpt lat="46.70181" lon="5.70043">
        <ele>527.6</ele>
        <time>2022-03-08T08:35:49Z</time>
      </trkpt>
      <trkpt lat="46.7018" lon="5.70036">
        <ele>528.3</ele>
        <time>2022-03-08T08:35:54Z</time>
      </trkpt>
      <trkpt lat="46.70179" lon="5.70028">
        <ele>529.2</ele>
        <time>2022-03-08T08:36:00Z</time>
      </trkpt>
      <trkpt lat="46.70178" lon="5.70022">
        <ele>529.7</ele>
        <time>2022-03-08T08:36:06Z</time>
      </trkpt>
      <trkpt lat="46.70182" lon="5.70026">
        <ele>527.2</ele>
        <time>2022-03-08T08:36:35Z</time>
      </trkpt>
      <trkpt lat="46.70187" lon="5.70025">
        <ele>526.3</ele>
        <time>2022-03-08T08:36:44Z</time>
      </trkpt>
      <trkpt lat="46.70191" lon="5.70021">
        <ele>526.2</ele>
        <time>2022-03-08T08:36:49Z</time>
      </trkpt>
      <trkpt lat="46.70196" lon="5.70018">
        <ele>526.1</ele>
        <time>2022-03-08T08:36:53Z</time>
      </trkpt>
      <trkpt lat="46.70199" lon="5.70015">
        <ele>526.3</ele>
        <time>2022-03-08T08:36:57Z</time>
      </trkpt>
      <trkpt lat="46.70203" lon="5.70009">
        <ele>526.6</ele>
        <time>2022-03-08T08:37:02Z</time>
      </trkpt>
      <trkpt lat="46.70206" lon="5.70002">
        <ele>527.3</ele>
        <time>2022-03-08T08:37:07Z</time>
      </trkpt>
      <trkpt lat="46.70208" lon="5.69996">
        <ele>528</ele>
        <time>2022-03-08T08:37:11Z</time>
      </trkpt>
      <trkpt lat="46.70211" lon="5.6999">
        <ele>528.3</ele>
        <time>2022-03-08T08:37:15Z</time>
      </trkpt>
      <trkpt lat="46.70213" lon="5.69984">
        <ele>528.2</ele>
        <time>2022-03-08T08:37:19Z</time>
      </trkpt>
      <trkpt lat="46.70215" lon="5.69978">
        <ele>527.9</ele>
        <time>2022-03-08T08:37:23Z</time>
      </trkpt>
      <trkpt lat="46.70217" lon="5.69972">
        <ele>527.7</ele>
        <time>2022-03-08T08:37:27Z</time>
      </trkpt>
      <trkpt lat="46.7022" lon="5.69965">
        <ele>527.6</ele>
        <time>2022-03-08T08:37:32Z</time>
      </trkpt>
      <trkpt lat="46.70222" lon="5.69959">
        <ele>527.6</ele>
        <time>2022-03-08T08:37:36Z</time>
      </trkpt>
      <trkpt lat="46.70225" lon="5.69954">
        <ele>527.7</ele>
        <time>2022-03-08T08:37:40Z</time>
      </trkpt>
      <trkpt lat="46.70227" lon="5.69948">
        <ele>527.8</ele>
        <time>2022-03-08T08:37:44Z</time>
      </trkpt>
      <trkpt lat="46.70229" lon="5.69942">
        <ele>527.5</ele>
        <time>2022-03-08T08:37:48Z</time>
      </trkpt>
      <trkpt lat="46.70231" lon="5.69935">
        <ele>526.9</ele>
        <time>2022-03-08T08:37:53Z</time>
      </trkpt>
      <trkpt lat="46.70233" lon="5.69928">
        <ele>526.4</ele>
        <time>2022-03-08T08:37:57Z</time>
      </trkpt>
      <trkpt lat="46.70234" lon="5.69921">
        <ele>525.8</ele>
        <time>2022-03-08T08:38:02Z</time>
      </trkpt>
      <trkpt lat="46.70237" lon="5.69914">
        <ele>526</ele>
        <time>2022-03-08T08:38:07Z</time>
      </trkpt>
      <trkpt lat="46.70239" lon="5.69908">
        <ele>526.2</ele>
        <time>2022-03-08T08:38:12Z</time>
      </trkpt>
      <trkpt lat="46.70241" lon="5.699">
        <ele>526.4</ele>
        <time>2022-03-08T08:38:17Z</time>
      </trkpt>
      <trkpt lat="46.70243" lon="5.69893">
        <ele>526.3</ele>
        <time>2022-03-08T08:38:22Z</time>
      </trkpt>
      <trkpt lat="46.70245" lon="5.69887">
        <ele>526.1</ele>
        <time>2022-03-08T08:38:26Z</time>
      </trkpt>
      <trkpt lat="46.70246" lon="5.6988">
        <ele>526</ele>
        <time>2022-03-08T08:38:30Z</time>
      </trkpt>
      <trkpt lat="46.70249" lon="5.69873">
        <ele>525.8</ele>
        <time>2022-03-08T08:38:35Z</time>
      </trkpt>
      <trkpt lat="46.70251" lon="5.69867">
        <ele>525.8</ele>
        <time>2022-03-08T08:38:40Z</time>
      </trkpt>
      <trkpt lat="46.70253" lon="5.6986">
        <ele>525.5</ele>
        <time>2022-03-08T08:38:44Z</time>
      </trkpt>
      <trkpt lat="46.70255" lon="5.69853">
        <ele>524.9</ele>
        <time>2022-03-08T08:38:48Z</time>
      </trkpt>
      <trkpt lat="46.70257" lon="5.69847">
        <ele>524.6</ele>
        <time>2022-03-08T08:38:52Z</time>
      </trkpt>
      <trkpt lat="46.70258" lon="5.69839">
        <ele>525.2</ele>
        <time>2022-03-08T08:38:57Z</time>
      </trkpt>
      <trkpt lat="46.70259" lon="5.69832">
        <ele>526</ele>
        <time>2022-03-08T08:39:01Z</time>
      </trkpt>
      <trkpt lat="46.70261" lon="5.69825">
        <ele>526.8</ele>
        <time>2022-03-08T08:39:06Z</time>
      </trkpt>
      <trkpt lat="46.70263" lon="5.69817">
        <ele>526.7</ele>
        <time>2022-03-08T08:39:11Z</time>
      </trkpt>
      <trkpt lat="46.70262" lon="5.6981">
        <ele>526.4</ele>
        <time>2022-03-08T08:39:16Z</time>
      </trkpt>
      <trkpt lat="46.7026" lon="5.69804">
        <ele>525.5</ele>
        <time>2022-03-08T08:39:22Z</time>
      </trkpt>
      <trkpt lat="46.70256" lon="5.69799">
        <ele>524.9</ele>
        <time>2022-03-08T08:39:26Z</time>
      </trkpt>
      <trkpt lat="46.70252" lon="5.69795">
        <ele>524.6</ele>
        <time>2022-03-08T08:39:32Z</time>
      </trkpt>
      <trkpt lat="46.70248" lon="5.69792">
        <ele>524.2</ele>
        <time>2022-03-08T08:39:37Z</time>
      </trkpt>
      <trkpt lat="46.70243" lon="5.69789">
        <ele>523.6</ele>
        <time>2022-03-08T08:39:42Z</time>
      </trkpt>
      <trkpt lat="46.70238" lon="5.69786">
        <ele>523.5</ele>
        <time>2022-03-08T08:39:47Z</time>
      </trkpt>
      <trkpt lat="46.70233" lon="5.69784">
        <ele>523.5</ele>
        <time>2022-03-08T08:39:52Z</time>
      </trkpt>
      <trkpt lat="46.70228" lon="5.69782">
        <ele>523.4</ele>
        <time>2022-03-08T08:39:56Z</time>
      </trkpt>
      <trkpt lat="46.70223" lon="5.6978">
        <ele>523.5</ele>
        <time>2022-03-08T08:40:00Z</time>
      </trkpt>
      <trkpt lat="46.70219" lon="5.69778">
        <ele>523.5</ele>
        <time>2022-03-08T08:40:04Z</time>
      </trkpt>
      <trkpt lat="46.70214" lon="5.69777">
        <ele>523.3</ele>
        <time>2022-03-08T08:40:08Z</time>
      </trkpt>
      <trkpt lat="46.70209" lon="5.69776">
        <ele>522.9</ele>
        <time>2022-03-08T08:40:12Z</time>
      </trkpt>
      <trkpt lat="46.70204" lon="5.69775">
        <ele>522.3</ele>
        <time>2022-03-08T08:40:17Z</time>
      </trkpt>
      <trkpt lat="46.70199" lon="5.69773">
        <ele>522.2</ele>
        <time>2022-03-08T08:40:22Z</time>
      </trkpt>
      <trkpt lat="46.70194" lon="5.69772">
        <ele>522.3</ele>
        <time>2022-03-08T08:40:27Z</time>
      </trkpt>
      <trkpt lat="46.70189" lon="5.6977">
        <ele>522.6</ele>
        <time>2022-03-08T08:40:32Z</time>
      </trkpt>
      <trkpt lat="46.70184" lon="5.69768">
        <ele>522.9</ele>
        <time>2022-03-08T08:40:37Z</time>
      </trkpt>
      <trkpt lat="46.70178" lon="5.69767">
        <ele>523.5</ele>
        <time>2022-03-08T08:40:42Z</time>
      </trkpt>
      <trkpt lat="46.70174" lon="5.69766">
        <ele>523.9</ele>
        <time>2022-03-08T08:40:46Z</time>
      </trkpt>
      <trkpt lat="46.70169" lon="5.69766">
        <ele>524.3</ele>
        <time>2022-03-08T08:40:50Z</time>
      </trkpt>
      <trkpt lat="46.70164" lon="5.69765">
        <ele>524.7</ele>
        <time>2022-03-08T08:40:54Z</time>
      </trkpt>
      <trkpt lat="46.70158" lon="5.69763">
        <ele>525.2</ele>
        <time>2022-03-08T08:40:59Z</time>
      </trkpt>
      <trkpt lat="46.70153" lon="5.69761">
        <ele>525.7</ele>
        <time>2022-03-08T08:41:04Z</time>
      </trkpt>
      <trkpt lat="46.70148" lon="5.6976">
        <ele>526.1</ele>
        <time>2022-03-08T08:41:08Z</time>
      </trkpt>
      <trkpt lat="46.70143" lon="5.69758">
        <ele>526.5</ele>
        <time>2022-03-08T08:41:12Z</time>
      </trkpt>
      <trkpt lat="46.70139" lon="5.69756">
        <ele>526.5</ele>
        <time>2022-03-08T08:41:16Z</time>
      </trkpt>
      <trkpt lat="46.70134" lon="5.69754">
        <ele>526.2</ele>
        <time>2022-03-08T08:41:20Z</time>
      </trkpt>
      <trkpt lat="46.70129" lon="5.69752">
        <ele>526</ele>
        <time>2022-03-08T08:41:25Z</time>
      </trkpt>
      <trkpt lat="46.70124" lon="5.69749">
        <ele>525.7</ele>
        <time>2022-03-08T08:41:30Z</time>
      </trkpt>
      <trkpt lat="46.70119" lon="5.69746">
        <ele>525.6</ele>
        <time>2022-03-08T08:41:35Z</time>
      </trkpt>
      <trkpt lat="46.70114" lon="5.69743">
        <ele>525.5</ele>
        <time>2022-03-08T08:41:40Z</time>
      </trkpt>
      <trkpt lat="46.7011" lon="5.6974">
        <ele>525.5</ele>
        <time>2022-03-08T08:41:45Z</time>
      </trkpt>
      <trkpt lat="46.70105" lon="5.69738">
        <ele>525.6</ele>
        <time>2022-03-08T08:41:49Z</time>
      </trkpt>
      <trkpt lat="46.70099" lon="5.69736">
        <ele>525.2</ele>
        <time>2022-03-08T08:41:53Z</time>
      </trkpt>
      <trkpt lat="46.70094" lon="5.69733">
        <ele>524.3</ele>
        <time>2022-03-08T08:41:57Z</time>
      </trkpt>
      <trkpt lat="46.7009" lon="5.6973">
        <ele>523.8</ele>
        <time>2022-03-08T08:42:01Z</time>
      </trkpt>
      <trkpt lat="46.70086" lon="5.69728">
        <ele>523.4</ele>
        <time>2022-03-08T08:42:06Z</time>
      </trkpt>
      <trkpt lat="46.70082" lon="5.69723">
        <ele>522.2</ele>
        <time>2022-03-08T08:42:11Z</time>
      </trkpt>
      <trkpt lat="46.70078" lon="5.69719">
        <ele>521.2</ele>
        <time>2022-03-08T08:42:15Z</time>
      </trkpt>
      <trkpt lat="46.70074" lon="5.69715">
        <ele>520.6</ele>
        <time>2022-03-08T08:42:19Z</time>
      </trkpt>
      <trkpt lat="46.70069" lon="5.69712">
        <ele>520.3</ele>
        <time>2022-03-08T08:42:23Z</time>
      </trkpt>
      <trkpt lat="46.70065" lon="5.6971">
        <ele>520.2</ele>
        <time>2022-03-08T08:42:27Z</time>
      </trkpt>
      <trkpt lat="46.7006" lon="5.69707">
        <ele>520.7</ele>
        <time>2022-03-08T08:42:31Z</time>
      </trkpt>
      <trkpt lat="46.70055" lon="5.69704">
        <ele>521.5</ele>
        <time>2022-03-08T08:42:35Z</time>
      </trkpt>
      <trkpt lat="46.70051" lon="5.69702">
        <ele>522.8</ele>
        <time>2022-03-08T08:42:39Z</time>
      </trkpt>
      <trkpt lat="46.70046" lon="5.69699">
        <ele>524.2</ele>
        <time>2022-03-08T08:42:44Z</time>
      </trkpt>
      <trkpt lat="46.7004" lon="5.69698">
        <ele>524.9</ele>
        <time>2022-03-08T08:42:49Z</time>
      </trkpt>
      <trkpt lat="46.70037" lon="5.69693">
        <ele>525.3</ele>
        <time>2022-03-08T08:42:54Z</time>
      </trkpt>
      <trkpt lat="46.70035" lon="5.69686">
        <ele>525.7</ele>
        <time>2022-03-08T08:42:59Z</time>
      </trkpt>
      <trkpt lat="46.70034" lon="5.69679">
        <ele>526.4</ele>
        <time>2022-03-08T08:43:04Z</time>
      </trkpt>
      <trkpt lat="46.70035" lon="5.69671">
        <ele>527.2</ele>
        <time>2022-03-08T08:43:09Z</time>
      </trkpt>
      <trkpt lat="46.70037" lon="5.69663">
        <ele>527.7</ele>
        <time>2022-03-08T08:43:13Z</time>
      </trkpt>
      <trkpt lat="46.70039" lon="5.69656">
        <ele>527.9</ele>
        <time>2022-03-08T08:43:17Z</time>
      </trkpt>
      <trkpt lat="46.7004" lon="5.6965">
        <ele>528</ele>
        <time>2022-03-08T08:43:21Z</time>
      </trkpt>
      <trkpt lat="46.70042" lon="5.69642">
        <ele>527.9</ele>
        <time>2022-03-08T08:43:25Z</time>
      </trkpt>
      <trkpt lat="46.70045" lon="5.69635">
        <ele>528.1</ele>
        <time>2022-03-08T08:43:29Z</time>
      </trkpt>
      <trkpt lat="46.70048" lon="5.69629">
        <ele>528.6</ele>
        <time>2022-03-08T08:43:34Z</time>
      </trkpt>
      <trkpt lat="46.70051" lon="5.69624">
        <ele>528.7</ele>
        <time>2022-03-08T08:43:39Z</time>
      </trkpt>
      <trkpt lat="46.70053" lon="5.69618">
        <ele>527.9</ele>
        <time>2022-03-08T08:43:43Z</time>
      </trkpt>
      <trkpt lat="46.70056" lon="5.69613">
        <ele>527</ele>
        <time>2022-03-08T08:43:47Z</time>
      </trkpt>
      <trkpt lat="46.70058" lon="5.69606">
        <ele>526.8</ele>
        <time>2022-03-08T08:43:51Z</time>
      </trkpt>
      <trkpt lat="46.70061" lon="5.696">
        <ele>527</ele>
        <time>2022-03-08T08:43:55Z</time>
      </trkpt>
      <trkpt lat="46.70063" lon="5.69593">
        <ele>527.3</ele>
        <time>2022-03-08T08:44:00Z</time>
      </trkpt>
      <trkpt lat="46.70066" lon="5.69587">
        <ele>527.7</ele>
        <time>2022-03-08T08:44:05Z</time>
      </trkpt>
      <trkpt lat="46.70069" lon="5.69581">
        <ele>528.3</ele>
        <time>2022-03-08T08:44:10Z</time>
      </trkpt>
      <trkpt lat="46.70071" lon="5.69575">
        <ele>528.8</ele>
        <time>2022-03-08T08:44:14Z</time>
      </trkpt>
      <trkpt lat="46.70073" lon="5.69567">
        <ele>528.7</ele>
        <time>2022-03-08T08:44:19Z</time>
      </trkpt>
      <trkpt lat="46.70075" lon="5.6956">
        <ele>527.8</ele>
        <time>2022-03-08T08:44:24Z</time>
      </trkpt>
      <trkpt lat="46.70078" lon="5.69554">
        <ele>526.2</ele>
        <time>2022-03-08T08:44:29Z</time>
      </trkpt>
      <trkpt lat="46.7008" lon="5.69547">
        <ele>524.8</ele>
        <time>2022-03-08T08:44:34Z</time>
      </trkpt>
      <trkpt lat="46.70083" lon="5.6954">
        <ele>524.4</ele>
        <time>2022-03-08T08:44:38Z</time>
      </trkpt>
      <trkpt lat="46.70085" lon="5.69534">
        <ele>524.2</ele>
        <time>2022-03-08T08:44:42Z</time>
      </trkpt>
      <trkpt lat="46.70087" lon="5.69528">
        <ele>524.1</ele>
        <time>2022-03-08T08:44:46Z</time>
      </trkpt>
      <trkpt lat="46.70088" lon="5.69521">
        <ele>524.4</ele>
        <time>2022-03-08T08:44:51Z</time>
      </trkpt>
      <trkpt lat="46.7009" lon="5.69514">
        <ele>524.3</ele>
        <time>2022-03-08T08:44:55Z</time>
      </trkpt>
      <trkpt lat="46.70092" lon="5.69508">
        <ele>524.5</ele>
        <time>2022-03-08T08:44:59Z</time>
      </trkpt>
      <trkpt lat="46.70094" lon="5.69501">
        <ele>525.2</ele>
        <time>2022-03-08T08:45:03Z</time>
      </trkpt>
      <trkpt lat="46.70096" lon="5.69494">
        <ele>525.9</ele>
        <time>2022-03-08T08:45:07Z</time>
      </trkpt>
      <trkpt lat="46.70098" lon="5.69488">
        <ele>527.2</ele>
        <time>2022-03-08T08:45:11Z</time>
      </trkpt>
      <trkpt lat="46.701" lon="5.69482">
        <ele>528.5</ele>
        <time>2022-03-08T08:45:16Z</time>
      </trkpt>
      <trkpt lat="46.70102" lon="5.69474">
        <ele>529</ele>
        <time>2022-03-08T08:45:21Z</time>
      </trkpt>
      <trkpt lat="46.70104" lon="5.69467">
        <ele>529.5</ele>
        <time>2022-03-08T08:45:26Z</time>
      </trkpt>
      <trkpt lat="46.70105" lon="5.69461">
        <ele>529.7</ele>
        <time>2022-03-08T08:45:30Z</time>
      </trkpt>
      <trkpt lat="46.70108" lon="5.69454">
        <ele>530</ele>
        <time>2022-03-08T08:45:35Z</time>
      </trkpt>
      <trkpt lat="46.7011" lon="5.69447">
        <ele>530.1</ele>
        <time>2022-03-08T08:45:40Z</time>
      </trkpt>
      <trkpt lat="46.70111" lon="5.6944">
        <ele>530.3</ele>
        <time>2022-03-08T08:45:44Z</time>
      </trkpt>
      <trkpt lat="46.70113" lon="5.69432">
        <ele>530.2</ele>
        <time>2022-03-08T08:45:49Z</time>
      </trkpt>
      <trkpt lat="46.70114" lon="5.69426">
        <ele>530.2</ele>
        <time>2022-03-08T08:45:53Z</time>
      </trkpt>
      <trkpt lat="46.70116" lon="5.6942">
        <ele>529.9</ele>
        <time>2022-03-08T08:45:57Z</time>
      </trkpt>
      <trkpt lat="46.70116" lon="5.69413">
        <ele>530.1</ele>
        <time>2022-03-08T08:46:01Z</time>
      </trkpt>
      <trkpt lat="46.70118" lon="5.69406">
        <ele>531</ele>
        <time>2022-03-08T08:46:05Z</time>
      </trkpt>
      <trkpt lat="46.7012" lon="5.69399">
        <ele>532.2</ele>
        <time>2022-03-08T08:46:10Z</time>
      </trkpt>
      <trkpt lat="46.70123" lon="5.69393">
        <ele>533.7</ele>
        <time>2022-03-08T08:46:15Z</time>
      </trkpt>
      <trkpt lat="46.70124" lon="5.69386">
        <ele>534.1</ele>
        <time>2022-03-08T08:46:20Z</time>
      </trkpt>
      <trkpt lat="46.70126" lon="5.6938">
        <ele>532.3</ele>
        <time>2022-03-08T08:47:56Z</time>
      </trkpt>
      <trkpt lat="46.70128" lon="5.69374">
        <ele>533.1</ele>
        <time>2022-03-08T08:48:05Z</time>
      </trkpt>
      <trkpt lat="46.7013" lon="5.69367">
        <ele>534.4</ele>
        <time>2022-03-08T08:48:11Z</time>
      </trkpt>
      <trkpt lat="46.70131" lon="5.6936">
        <ele>534.9</ele>
        <time>2022-03-08T08:48:16Z</time>
      </trkpt>
      <trkpt lat="46.70133" lon="5.69353">
        <ele>534.7</ele>
        <time>2022-03-08T08:48:21Z</time>
      </trkpt>
      <trkpt lat="46.70134" lon="5.69346">
        <ele>534.3</ele>
        <time>2022-03-08T08:48:25Z</time>
      </trkpt>
      <trkpt lat="46.70135" lon="5.69339">
        <ele>534.2</ele>
        <time>2022-03-08T08:48:29Z</time>
      </trkpt>
      <trkpt lat="46.70135" lon="5.69332">
        <ele>533.8</ele>
        <time>2022-03-08T08:48:33Z</time>
      </trkpt>
      <trkpt lat="46.70136" lon="5.69325">
        <ele>533.1</ele>
        <time>2022-03-08T08:48:37Z</time>
      </trkpt>
      <trkpt lat="46.70139" lon="5.69319">
        <ele>532.9</ele>
        <time>2022-03-08T08:48:42Z</time>
      </trkpt>
      <trkpt lat="46.70142" lon="5.69312">
        <ele>532.6</ele>
        <time>2022-03-08T08:48:47Z</time>
      </trkpt>
      <trkpt lat="46.70143" lon="5.69305">
        <ele>532.4</ele>
        <time>2022-03-08T08:48:51Z</time>
      </trkpt>
      <trkpt lat="46.70145" lon="5.69297">
        <ele>532.7</ele>
        <time>2022-03-08T08:48:55Z</time>
      </trkpt>
      <trkpt lat="46.70146" lon="5.6929">
        <ele>533.2</ele>
        <time>2022-03-08T08:49:00Z</time>
      </trkpt>
      <trkpt lat="46.70149" lon="5.69283">
        <ele>533.2</ele>
        <time>2022-03-08T08:49:06Z</time>
      </trkpt>
      <trkpt lat="46.70151" lon="5.69276">
        <ele>533.2</ele>
        <time>2022-03-08T08:49:10Z</time>
      </trkpt>
      <trkpt lat="46.70153" lon="5.6927">
        <ele>533.3</ele>
        <time>2022-03-08T08:49:14Z</time>
      </trkpt>
      <trkpt lat="46.70155" lon="5.69262">
        <ele>533.1</ele>
        <time>2022-03-08T08:49:19Z</time>
      </trkpt>
      <trkpt lat="46.70156" lon="5.69255">
        <ele>533.3</ele>
        <time>2022-03-08T08:49:24Z</time>
      </trkpt>
      <trkpt lat="46.70158" lon="5.69249">
        <ele>533.5</ele>
        <time>2022-03-08T08:49:28Z</time>
      </trkpt>
      <trkpt lat="46.70159" lon="5.69242">
        <ele>534</ele>
        <time>2022-03-08T08:49:32Z</time>
      </trkpt>
      <trkpt lat="46.70161" lon="5.69234">
        <ele>533.9</ele>
        <time>2022-03-08T08:49:37Z</time>
      </trkpt>
      <trkpt lat="46.70163" lon="5.69228">
        <ele>533.4</ele>
        <time>2022-03-08T08:49:41Z</time>
      </trkpt>
      <trkpt lat="46.70164" lon="5.69221">
        <ele>532.6</ele>
        <time>2022-03-08T08:49:46Z</time>
      </trkpt>
      <trkpt lat="46.70166" lon="5.69213">
        <ele>531.8</ele>
        <time>2022-03-08T08:49:51Z</time>
      </trkpt>
      <trkpt lat="46.70168" lon="5.69207">
        <ele>531.7</ele>
        <time>2022-03-08T08:49:55Z</time>
      </trkpt>
      <trkpt lat="46.70171" lon="5.692">
        <ele>532.2</ele>
        <time>2022-03-08T08:50:00Z</time>
      </trkpt>
      <trkpt lat="46.70174" lon="5.69195">
        <ele>532.5</ele>
        <time>2022-03-08T08:50:04Z</time>
      </trkpt>
      <trkpt lat="46.70177" lon="5.6919">
        <ele>532.4</ele>
        <time>2022-03-08T08:50:08Z</time>
      </trkpt>
      <trkpt lat="46.7018" lon="5.69183">
        <ele>532.6</ele>
        <time>2022-03-08T08:50:13Z</time>
      </trkpt>
      <trkpt lat="46.70182" lon="5.69176">
        <ele>533.3</ele>
        <time>2022-03-08T08:50:18Z</time>
      </trkpt>
      <trkpt lat="46.70183" lon="5.6917">
        <ele>533.6</ele>
        <time>2022-03-08T08:50:22Z</time>
      </trkpt>
      <trkpt lat="46.70186" lon="5.69165">
        <ele>533.3</ele>
        <time>2022-03-08T08:50:26Z</time>
      </trkpt>
      <trkpt lat="46.70188" lon="5.69157">
        <ele>532.8</ele>
        <time>2022-03-08T08:50:31Z</time>
      </trkpt>
      <trkpt lat="46.70189" lon="5.69151">
        <ele>532.3</ele>
        <time>2022-03-08T08:50:35Z</time>
      </trkpt>
      <trkpt lat="46.70192" lon="5.69145">
        <ele>531.9</ele>
        <time>2022-03-08T08:50:39Z</time>
      </trkpt>
      <trkpt lat="46.70194" lon="5.69138">
        <ele>531.8</ele>
        <time>2022-03-08T08:50:44Z</time>
      </trkpt>
      <trkpt lat="46.70196" lon="5.69131">
        <ele>531.9</ele>
        <time>2022-03-08T08:50:49Z</time>
      </trkpt>
      <trkpt lat="46.70199" lon="5.69125">
        <ele>531.9</ele>
        <time>2022-03-08T08:50:53Z</time>
      </trkpt>
      <trkpt lat="46.70201" lon="5.6912">
        <ele>531.6</ele>
        <time>2022-03-08T08:50:57Z</time>
      </trkpt>
      <trkpt lat="46.70204" lon="5.69113">
        <ele>530.7</ele>
        <time>2022-03-08T08:51:02Z</time>
      </trkpt>
      <trkpt lat="46.70206" lon="5.69107">
        <ele>530.5</ele>
        <time>2022-03-08T08:51:07Z</time>
      </trkpt>
      <trkpt lat="46.70208" lon="5.691">
        <ele>530.4</ele>
        <time>2022-03-08T08:51:12Z</time>
      </trkpt>
      <trkpt lat="46.70211" lon="5.69094">
        <ele>530.4</ele>
        <time>2022-03-08T08:51:16Z</time>
      </trkpt>
      <trkpt lat="46.70213" lon="5.69088">
        <ele>530.4</ele>
        <time>2022-03-08T08:51:20Z</time>
      </trkpt>
      <trkpt lat="46.70214" lon="5.69082">
        <ele>530.4</ele>
        <time>2022-03-08T08:51:25Z</time>
      </trkpt>
      <trkpt lat="46.70217" lon="5.69076">
        <ele>530.4</ele>
        <time>2022-03-08T08:51:30Z</time>
      </trkpt>
      <trkpt lat="46.70219" lon="5.69069">
        <ele>530.5</ele>
        <time>2022-03-08T08:51:34Z</time>
      </trkpt>
      <trkpt lat="46.70221" lon="5.69061">
        <ele>530.7</ele>
        <time>2022-03-08T08:51:38Z</time>
      </trkpt>
      <trkpt lat="46.70223" lon="5.69055">
        <ele>530.4</ele>
        <time>2022-03-08T08:51:43Z</time>
      </trkpt>
      <trkpt lat="46.70226" lon="5.69049">
        <ele>530.6</ele>
        <time>2022-03-08T08:51:47Z</time>
      </trkpt>
      <trkpt lat="46.70228" lon="5.69041">
        <ele>531</ele>
        <time>2022-03-08T08:51:52Z</time>
      </trkpt>
      <trkpt lat="46.70231" lon="5.69037">
        <ele>531.6</ele>
        <time>2022-03-08T08:51:57Z</time>
      </trkpt>
      <trkpt lat="46.70236" lon="5.69032">
        <ele>531.4</ele>
        <time>2022-03-08T08:52:03Z</time>
      </trkpt>
      <trkpt lat="46.70239" lon="5.69026">
        <ele>530.6</ele>
        <time>2022-03-08T08:52:08Z</time>
      </trkpt>
      <trkpt lat="46.70241" lon="5.6902">
        <ele>529.8</ele>
        <time>2022-03-08T08:52:13Z</time>
      </trkpt>
      <trkpt lat="46.70245" lon="5.69013">
        <ele>529.3</ele>
        <time>2022-03-08T08:52:18Z</time>
      </trkpt>
      <trkpt lat="46.70246" lon="5.69005">
        <ele>528.8</ele>
        <time>2022-03-08T08:52:22Z</time>
      </trkpt>
      <trkpt lat="46.70246" lon="5.68998">
        <ele>528.5</ele>
        <time>2022-03-08T08:52:26Z</time>
      </trkpt>
      <trkpt lat="46.70247" lon="5.68991">
        <ele>527.8</ele>
        <time>2022-03-08T08:52:31Z</time>
      </trkpt>
      <trkpt lat="46.70248" lon="5.68985">
        <ele>527.5</ele>
        <time>2022-03-08T08:52:34Z</time>
      </trkpt>
      <trkpt lat="46.70248" lon="5.68977">
        <ele>527.3</ele>
        <time>2022-03-08T08:52:37Z</time>
      </trkpt>
      <trkpt lat="46.70249" lon="5.6897">
        <ele>527.2</ele>
        <time>2022-03-08T08:52:40Z</time>
      </trkpt>
      <trkpt lat="46.70249" lon="5.68962">
        <ele>527.4</ele>
        <time>2022-03-08T08:52:44Z</time>
      </trkpt>
      <trkpt lat="46.70249" lon="5.68956">
        <ele>528.1</ele>
        <time>2022-03-08T08:52:50Z</time>
      </trkpt>
      <trkpt lat="46.70248" lon="5.68949">
        <ele>528.4</ele>
        <time>2022-03-08T08:52:55Z</time>
      </trkpt>
      <trkpt lat="46.70251" lon="5.68942">
        <ele>528.4</ele>
        <time>2022-03-08T08:53:01Z</time>
      </trkpt>
      <trkpt lat="46.70252" lon="5.68934">
        <ele>528.3</ele>
        <time>2022-03-08T08:53:06Z</time>
      </trkpt>
      <trkpt lat="46.70252" lon="5.68928">
        <ele>528.3</ele>
        <time>2022-03-08T08:53:09Z</time>
      </trkpt>
      <trkpt lat="46.70253" lon="5.68919">
        <ele>528.3</ele>
        <time>2022-03-08T08:53:13Z</time>
      </trkpt>
      <trkpt lat="46.70253" lon="5.68913">
        <ele>528.3</ele>
        <time>2022-03-08T08:53:17Z</time>
      </trkpt>
      <trkpt lat="46.70255" lon="5.68906">
        <ele>527.5</ele>
        <time>2022-03-08T08:53:24Z</time>
      </trkpt>
      <trkpt lat="46.70257" lon="5.68899">
        <ele>526.8</ele>
        <time>2022-03-08T08:53:28Z</time>
      </trkpt>
      <trkpt lat="46.70258" lon="5.68891">
        <ele>526</ele>
        <time>2022-03-08T08:53:32Z</time>
      </trkpt>
      <trkpt lat="46.70259" lon="5.68884">
        <ele>525.2</ele>
        <time>2022-03-08T08:53:36Z</time>
      </trkpt>
      <trkpt lat="46.70259" lon="5.68877">
        <ele>524.5</ele>
        <time>2022-03-08T08:53:40Z</time>
      </trkpt>
      <trkpt lat="46.70259" lon="5.68869">
        <ele>524</ele>
        <time>2022-03-08T08:53:45Z</time>
      </trkpt>
      <trkpt lat="46.70259" lon="5.68862">
        <ele>523.6</ele>
        <time>2022-03-08T08:53:49Z</time>
      </trkpt>
      <trkpt lat="46.70258" lon="5.68856">
        <ele>523.6</ele>
        <time>2022-03-08T08:53:53Z</time>
      </trkpt>
      <trkpt lat="46.7026" lon="5.68849">
        <ele>523.9</ele>
        <time>2022-03-08T08:53:59Z</time>
      </trkpt>
      <trkpt lat="46.70259" lon="5.68841">
        <ele>524.1</ele>
        <time>2022-03-08T08:54:04Z</time>
      </trkpt>
      <trkpt lat="46.70257" lon="5.68833">
        <ele>524.1</ele>
        <time>2022-03-08T08:54:08Z</time>
      </trkpt>
      <trkpt lat="46.70255" lon="5.68825">
        <ele>524</ele>
        <time>2022-03-08T08:54:12Z</time>
      </trkpt>
      <trkpt lat="46.70254" lon="5.68817">
        <ele>523.6</ele>
        <time>2022-03-08T08:54:17Z</time>
      </trkpt>
      <trkpt lat="46.70252" lon="5.6881">
        <ele>523.4</ele>
        <time>2022-03-08T08:54:21Z</time>
      </trkpt>
      <trkpt lat="46.7025" lon="5.68804">
        <ele>523.3</ele>
        <time>2022-03-08T08:54:25Z</time>
      </trkpt>
      <trkpt lat="46.70248" lon="5.68798">
        <ele>523.6</ele>
        <time>2022-03-08T08:54:30Z</time>
      </trkpt>
      <trkpt lat="46.70246" lon="5.68791">
        <ele>523.7</ele>
        <time>2022-03-08T08:54:35Z</time>
      </trkpt>
      <trkpt lat="46.70246" lon="5.68783">
        <ele>522.4</ele>
        <time>2022-03-08T08:54:40Z</time>
      </trkpt>
      <trkpt lat="46.70245" lon="5.68776">
        <ele>522</ele>
        <time>2022-03-08T08:54:46Z</time>
      </trkpt>
      <trkpt lat="46.70249" lon="5.68773">
        <ele>525.6</ele>
        <time>2022-03-08T08:55:03Z</time>
      </trkpt>
      <trkpt lat="46.70246" lon="5.68777">
        <ele>527.4</ele>
        <time>2022-03-08T08:56:05Z</time>
      </trkpt>
      <trkpt lat="46.70249" lon="5.68783">
        <ele>523.8</ele>
        <time>2022-03-08T08:57:47Z</time>
      </trkpt>
      <trkpt lat="46.70244" lon="5.6878">
        <ele>521.4</ele>
        <time>2022-03-08T08:57:53Z</time>
      </trkpt>
      <trkpt lat="46.70249" lon="5.68778">
        <ele>523.6</ele>
        <time>2022-03-08T09:01:22Z</time>
      </trkpt>
      <trkpt lat="46.70247" lon="5.68772">
        <ele>526.2</ele>
        <time>2022-03-08T09:01:54Z</time>
      </trkpt>
      <trkpt lat="46.70246" lon="5.68765">
        <ele>526.4</ele>
        <time>2022-03-08T09:02:00Z</time>
      </trkpt>
      <trkpt lat="46.70245" lon="5.68758">
        <ele>525.3</ele>
        <time>2022-03-08T09:02:05Z</time>
      </trkpt>
      <trkpt lat="46.70244" lon="5.6875">
        <ele>524.5</ele>
        <time>2022-03-08T09:02:10Z</time>
      </trkpt>
      <trkpt lat="46.70245" lon="5.68743">
        <ele>524.6</ele>
        <time>2022-03-08T09:02:17Z</time>
      </trkpt>
      <trkpt lat="46.70246" lon="5.68737">
        <ele>525.3</ele>
        <time>2022-03-08T09:02:23Z</time>
      </trkpt>
      <trkpt lat="46.7025" lon="5.68731">
        <ele>525.5</ele>
        <time>2022-03-08T09:02:27Z</time>
      </trkpt>
      <trkpt lat="46.70252" lon="5.68726">
        <ele>525.5</ele>
        <time>2022-03-08T09:02:31Z</time>
      </trkpt>
      <trkpt lat="46.70255" lon="5.6872">
        <ele>525.5</ele>
        <time>2022-03-08T09:02:36Z</time>
      </trkpt>
      <trkpt lat="46.70259" lon="5.68715">
        <ele>524.7</ele>
        <time>2022-03-08T09:02:41Z</time>
      </trkpt>
      <trkpt lat="46.7026" lon="5.68708">
        <ele>523.9</ele>
        <time>2022-03-08T09:02:45Z</time>
      </trkpt>
      <trkpt lat="46.70263" lon="5.68702">
        <ele>521.4</ele>
        <time>2022-03-08T09:02:51Z</time>
      </trkpt>
      <trkpt lat="46.70266" lon="5.68697">
        <ele>517.7</ele>
        <time>2022-03-08T09:02:58Z</time>
      </trkpt>
      <trkpt lat="46.70267" lon="5.68689">
        <ele>515.1</ele>
        <time>2022-03-08T09:03:03Z</time>
      </trkpt>
      <trkpt lat="46.70266" lon="5.6868">
        <ele>514</ele>
        <time>2022-03-08T09:03:06Z</time>
      </trkpt>
      <trkpt lat="46.70266" lon="5.68673">
        <ele>513.1</ele>
        <time>2022-03-08T09:03:09Z</time>
      </trkpt>
      <trkpt lat="46.70266" lon="5.68665">
        <ele>512.3</ele>
        <time>2022-03-08T09:03:13Z</time>
      </trkpt>
      <trkpt lat="46.70266" lon="5.68657">
        <ele>511.7</ele>
        <time>2022-03-08T09:03:17Z</time>
      </trkpt>
      <trkpt lat="46.70265" lon="5.68651">
        <ele>511.1</ele>
        <time>2022-03-08T09:03:21Z</time>
      </trkpt>
      <trkpt lat="46.70265" lon="5.68644">
        <ele>510.3</ele>
        <time>2022-03-08T09:03:26Z</time>
      </trkpt>
      <trkpt lat="46.70265" lon="5.68637">
        <ele>509.8</ele>
        <time>2022-03-08T09:03:31Z</time>
      </trkpt>
      <trkpt lat="46.70266" lon="5.6863">
        <ele>509.9</ele>
        <time>2022-03-08T09:03:36Z</time>
      </trkpt>
      <trkpt lat="46.70267" lon="5.68623">
        <ele>510</ele>
        <time>2022-03-08T09:03:42Z</time>
      </trkpt>
      <trkpt lat="46.70267" lon="5.68615">
        <ele>510.3</ele>
        <time>2022-03-08T09:03:48Z</time>
      </trkpt>
      <trkpt lat="46.7027" lon="5.68609">
        <ele>511.1</ele>
        <time>2022-03-08T09:03:54Z</time>
      </trkpt>
      <trkpt lat="46.70272" lon="5.68602">
        <ele>511.8</ele>
        <time>2022-03-08T09:03:59Z</time>
      </trkpt>
      <trkpt lat="46.70271" lon="5.68596">
        <ele>512</ele>
        <time>2022-03-08T09:04:03Z</time>
      </trkpt>
      <trkpt lat="46.70272" lon="5.68589">
        <ele>512.2</ele>
        <time>2022-03-08T09:04:06Z</time>
      </trkpt>
      <trkpt lat="46.70272" lon="5.68583">
        <ele>512.3</ele>
        <time>2022-03-08T09:04:10Z</time>
      </trkpt>
      <trkpt lat="46.70272" lon="5.68575">
        <ele>512.3</ele>
        <time>2022-03-08T09:04:15Z</time>
      </trkpt>
      <trkpt lat="46.70273" lon="5.68569">
        <ele>512.3</ele>
        <time>2022-03-08T09:04:20Z</time>
      </trkpt>
      <trkpt lat="46.70275" lon="5.68562">
        <ele>512</ele>
        <time>2022-03-08T09:04:24Z</time>
      </trkpt>
      <trkpt lat="46.70278" lon="5.68556">
        <ele>511.9</ele>
        <time>2022-03-08T09:04:27Z</time>
      </trkpt>
      <trkpt lat="46.7028" lon="5.6855">
        <ele>511.9</ele>
        <time>2022-03-08T09:04:31Z</time>
      </trkpt>
      <trkpt lat="46.70284" lon="5.68545">
        <ele>512.4</ele>
        <time>2022-03-08T09:04:35Z</time>
      </trkpt>
      <trkpt lat="46.70286" lon="5.68539">
        <ele>512.9</ele>
        <time>2022-03-08T09:04:39Z</time>
      </trkpt>
      <trkpt lat="46.70287" lon="5.68533">
        <ele>513</ele>
        <time>2022-03-08T09:04:42Z</time>
      </trkpt>
      <trkpt lat="46.70289" lon="5.68526">
        <ele>513</ele>
        <time>2022-03-08T09:04:46Z</time>
      </trkpt>
      <trkpt lat="46.70292" lon="5.6852">
        <ele>513</ele>
        <time>2022-03-08T09:04:51Z</time>
      </trkpt>
      <trkpt lat="46.70296" lon="5.68515">
        <ele>513.5</ele>
        <time>2022-03-08T09:04:56Z</time>
      </trkpt>
      <trkpt lat="46.70298" lon="5.6851">
        <ele>513.3</ele>
        <time>2022-03-08T09:05:01Z</time>
      </trkpt>
      <trkpt lat="46.70301" lon="5.68504">
        <ele>513.3</ele>
        <time>2022-03-08T09:05:05Z</time>
      </trkpt>
      <trkpt lat="46.70303" lon="5.68498">
        <ele>513.1</ele>
        <time>2022-03-08T09:05:09Z</time>
      </trkpt>
      <trkpt lat="46.70306" lon="5.68492">
        <ele>513</ele>
        <time>2022-03-08T09:05:14Z</time>
      </trkpt>
      <trkpt lat="46.70308" lon="5.68485">
        <ele>512.8</ele>
        <time>2022-03-08T09:05:18Z</time>
      </trkpt>
      <trkpt lat="46.70311" lon="5.68478">
        <ele>512.6</ele>
        <time>2022-03-08T09:05:23Z</time>
      </trkpt>
      <trkpt lat="46.70311" lon="5.68471">
        <ele>512.1</ele>
        <time>2022-03-08T09:05:29Z</time>
      </trkpt>
      <trkpt lat="46.70313" lon="5.68464">
        <ele>511.6</ele>
        <time>2022-03-08T09:05:34Z</time>
      </trkpt>
      <trkpt lat="46.70313" lon="5.68457">
        <ele>511.3</ele>
        <time>2022-03-08T09:05:38Z</time>
      </trkpt>
      <trkpt lat="46.70313" lon="5.68449">
        <ele>510.7</ele>
        <time>2022-03-08T09:05:43Z</time>
      </trkpt>
      <trkpt lat="46.70312" lon="5.68442">
        <ele>510.1</ele>
        <time>2022-03-08T09:05:48Z</time>
      </trkpt>
      <trkpt lat="46.70309" lon="5.68435">
        <ele>509.6</ele>
        <time>2022-03-08T09:05:53Z</time>
      </trkpt>
      <trkpt lat="46.70308" lon="5.68428">
        <ele>509.3</ele>
        <time>2022-03-08T09:05:58Z</time>
      </trkpt>
      <trkpt lat="46.70307" lon="5.68421">
        <ele>509.3</ele>
        <time>2022-03-08T09:06:02Z</time>
      </trkpt>
      <trkpt lat="46.70305" lon="5.68414">
        <ele>509.6</ele>
        <time>2022-03-08T09:06:06Z</time>
      </trkpt>
      <trkpt lat="46.70303" lon="5.68407">
        <ele>510.2</ele>
        <time>2022-03-08T09:06:11Z</time>
      </trkpt>
      <trkpt lat="46.70303" lon="5.684">
        <ele>510.4</ele>
        <time>2022-03-08T09:06:15Z</time>
      </trkpt>
      <trkpt lat="46.70302" lon="5.68393">
        <ele>510.6</ele>
        <time>2022-03-08T09:06:19Z</time>
      </trkpt>
      <trkpt lat="46.703" lon="5.68386">
        <ele>510.6</ele>
        <time>2022-03-08T09:06:23Z</time>
      </trkpt>
      <trkpt lat="46.70298" lon="5.68379">
        <ele>511.1</ele>
        <time>2022-03-08T09:06:27Z</time>
      </trkpt>
      <trkpt lat="46.70298" lon="5.68371">
        <ele>512</ele>
        <time>2022-03-08T09:06:32Z</time>
      </trkpt>
      <trkpt lat="46.70297" lon="5.68364">
        <ele>512.4</ele>
        <time>2022-03-08T09:06:37Z</time>
      </trkpt>
      <trkpt lat="46.70297" lon="5.68358">
        <ele>512.8</ele>
        <time>2022-03-08T09:06:41Z</time>
      </trkpt>
      <trkpt lat="46.70296" lon="5.6835">
        <ele>512.9</ele>
        <time>2022-03-08T09:06:46Z</time>
      </trkpt>
      <trkpt lat="46.70294" lon="5.68343">
        <ele>512.7</ele>
        <time>2022-03-08T09:06:51Z</time>
      </trkpt>
      <trkpt lat="46.70292" lon="5.68337">
        <ele>512.4</ele>
        <time>2022-03-08T09:06:55Z</time>
      </trkpt>
      <trkpt lat="46.70291" lon="5.68329">
        <ele>512</ele>
        <time>2022-03-08T09:06:59Z</time>
      </trkpt>
      <trkpt lat="46.70291" lon="5.68321">
        <ele>511.8</ele>
        <time>2022-03-08T09:07:03Z</time>
      </trkpt>
      <trkpt lat="46.7029" lon="5.68314">
        <ele>511.8</ele>
        <time>2022-03-08T09:07:08Z</time>
      </trkpt>
      <trkpt lat="46.7029" lon="5.68307">
        <ele>511.8</ele>
        <time>2022-03-08T09:07:14Z</time>
      </trkpt>
      <trkpt lat="46.7029" lon="5.68298">
        <ele>512.1</ele>
        <time>2022-03-08T09:07:19Z</time>
      </trkpt>
      <trkpt lat="46.70291" lon="5.68291">
        <ele>512.4</ele>
        <time>2022-03-08T09:07:23Z</time>
      </trkpt>
      <trkpt lat="46.70292" lon="5.68284">
        <ele>512.5</ele>
        <time>2022-03-08T09:07:27Z</time>
      </trkpt>
      <trkpt lat="46.70292" lon="5.68277">
        <ele>512.5</ele>
        <time>2022-03-08T09:07:31Z</time>
      </trkpt>
      <trkpt lat="46.70292" lon="5.6827">
        <ele>512.6</ele>
        <time>2022-03-08T09:07:36Z</time>
      </trkpt>
      <trkpt lat="46.70293" lon="5.68263">
        <ele>512.3</ele>
        <time>2022-03-08T09:07:41Z</time>
      </trkpt>
      <trkpt lat="46.70295" lon="5.68256">
        <ele>511.6</ele>
        <time>2022-03-08T09:07:46Z</time>
      </trkpt>
      <trkpt lat="46.70295" lon="5.68249">
        <ele>511.1</ele>
        <time>2022-03-08T09:07:50Z</time>
      </trkpt>
      <trkpt lat="46.70296" lon="5.68241">
        <ele>510.8</ele>
        <time>2022-03-08T09:07:54Z</time>
      </trkpt>
      <trkpt lat="46.70297" lon="5.68235">
        <ele>511</ele>
        <time>2022-03-08T09:07:58Z</time>
      </trkpt>
      <trkpt lat="46.70299" lon="5.68228">
        <ele>511</ele>
        <time>2022-03-08T09:08:03Z</time>
      </trkpt>
      <trkpt lat="46.70299" lon="5.6822">
        <ele>511</ele>
        <time>2022-03-08T09:08:08Z</time>
      </trkpt>
      <trkpt lat="46.703" lon="5.68212">
        <ele>511.1</ele>
        <time>2022-03-08T09:08:13Z</time>
      </trkpt>
      <trkpt lat="46.70301" lon="5.68205">
        <ele>511.4</ele>
        <time>2022-03-08T09:08:17Z</time>
      </trkpt>
      <trkpt lat="46.70302" lon="5.68197">
        <ele>511.4</ele>
        <time>2022-03-08T09:08:21Z</time>
      </trkpt>
      <trkpt lat="46.70305" lon="5.68191">
        <ele>511.5</ele>
        <time>2022-03-08T09:08:27Z</time>
      </trkpt>
      <trkpt lat="46.70306" lon="5.68183">
        <ele>511.3</ele>
        <time>2022-03-08T09:08:33Z</time>
      </trkpt>
      <trkpt lat="46.70308" lon="5.68176">
        <ele>510.9</ele>
        <time>2022-03-08T09:08:38Z</time>
      </trkpt>
      <trkpt lat="46.7031" lon="5.68168">
        <ele>511.1</ele>
        <time>2022-03-08T09:08:43Z</time>
      </trkpt>
      <trkpt lat="46.70311" lon="5.68162">
        <ele>511.9</ele>
        <time>2022-03-08T09:08:48Z</time>
      </trkpt>
      <trkpt lat="46.70314" lon="5.68156">
        <ele>512.5</ele>
        <time>2022-03-08T09:08:54Z</time>
      </trkpt>
      <trkpt lat="46.70318" lon="5.68152">
        <ele>513.2</ele>
        <time>2022-03-08T09:09:03Z</time>
      </trkpt>
      <trkpt lat="46.70323" lon="5.68151">
        <ele>513.1</ele>
        <time>2022-03-08T09:09:12Z</time>
      </trkpt>
      <trkpt lat="46.70328" lon="5.68151">
        <ele>512.9</ele>
        <time>2022-03-08T09:09:20Z</time>
      </trkpt>
      <trkpt lat="46.70334" lon="5.68152">
        <ele>512.9</ele>
        <time>2022-03-08T09:09:24Z</time>
      </trkpt>
      <trkpt lat="46.70339" lon="5.68153">
        <ele>513.5</ele>
        <time>2022-03-08T09:09:29Z</time>
      </trkpt>
      <trkpt lat="46.70344" lon="5.68154">
        <ele>514.2</ele>
        <time>2022-03-08T09:09:34Z</time>
      </trkpt>
      <trkpt lat="46.70349" lon="5.68154">
        <ele>514.5</ele>
        <time>2022-03-08T09:09:38Z</time>
      </trkpt>
      <trkpt lat="46.70354" lon="5.68154">
        <ele>514.6</ele>
        <time>2022-03-08T09:09:42Z</time>
      </trkpt>
      <trkpt lat="46.70358" lon="5.68156">
        <ele>514.9</ele>
        <time>2022-03-08T09:09:46Z</time>
      </trkpt>
      <trkpt lat="46.70363" lon="5.68158">
        <ele>515.5</ele>
        <time>2022-03-08T09:09:51Z</time>
      </trkpt>
      <trkpt lat="46.70368" lon="5.6816">
        <ele>515.7</ele>
        <time>2022-03-08T09:09:55Z</time>
      </trkpt>
      <trkpt lat="46.70372" lon="5.68162">
        <ele>516.3</ele>
        <time>2022-03-08T09:10:01Z</time>
      </trkpt>
      <trkpt lat="46.70377" lon="5.68163">
        <ele>516.8</ele>
        <time>2022-03-08T09:10:07Z</time>
      </trkpt>
      <trkpt lat="46.70382" lon="5.68163">
        <ele>517.1</ele>
        <time>2022-03-08T09:10:12Z</time>
      </trkpt>
      <trkpt lat="46.70387" lon="5.68169">
        <ele>517.4</ele>
        <time>2022-03-08T09:10:17Z</time>
      </trkpt>
      <trkpt lat="46.7039" lon="5.68174">
        <ele>517.8</ele>
        <time>2022-03-08T09:10:20Z</time>
      </trkpt>
      <trkpt lat="46.70393" lon="5.68181">
        <ele>518.1</ele>
        <time>2022-03-08T09:10:23Z</time>
      </trkpt>
      <trkpt lat="46.70392" lon="5.68189">
        <ele>519.6</ele>
        <time>2022-03-08T09:10:27Z</time>
      </trkpt>
      <trkpt lat="46.70389" lon="5.68196">
        <ele>521.8</ele>
        <time>2022-03-08T09:10:31Z</time>
      </trkpt>
      <trkpt lat="46.70388" lon="5.68203">
        <ele>524.6</ele>
        <time>2022-03-08T09:10:36Z</time>
      </trkpt>
      <trkpt lat="46.70388" lon="5.6821">
        <ele>527.1</ele>
        <time>2022-03-08T09:10:41Z</time>
      </trkpt>
      <trkpt lat="46.70387" lon="5.68218">
        <ele>528.9</ele>
        <time>2022-03-08T09:10:46Z</time>
      </trkpt>
      <trkpt lat="46.70386" lon="5.68224">
        <ele>530</ele>
        <time>2022-03-08T09:10:50Z</time>
      </trkpt>
      <trkpt lat="46.70385" lon="5.68232">
        <ele>531</ele>
        <time>2022-03-08T09:10:55Z</time>
      </trkpt>
      <trkpt lat="46.70386" lon="5.68238">
        <ele>531.7</ele>
        <time>2022-03-08T09:10:59Z</time>
      </trkpt>
      <trkpt lat="46.70387" lon="5.68245">
        <ele>532.5</ele>
        <time>2022-03-08T09:11:04Z</time>
      </trkpt>
      <trkpt lat="46.70386" lon="5.68252">
        <ele>532.9</ele>
        <time>2022-03-08T09:11:08Z</time>
      </trkpt>
      <trkpt lat="46.70387" lon="5.6826">
        <ele>533</ele>
        <time>2022-03-08T09:11:12Z</time>
      </trkpt>
      <trkpt lat="46.70389" lon="5.68267">
        <ele>532.3</ele>
        <time>2022-03-08T09:11:16Z</time>
      </trkpt>
      <trkpt lat="46.70391" lon="5.68273">
        <ele>531.2</ele>
        <time>2022-03-08T09:11:20Z</time>
      </trkpt>
      <trkpt lat="46.70393" lon="5.6828">
        <ele>530.5</ele>
        <time>2022-03-08T09:11:26Z</time>
      </trkpt>
      <trkpt lat="46.70395" lon="5.68286">
        <ele>530.5</ele>
        <time>2022-03-08T09:11:31Z</time>
      </trkpt>
      <trkpt lat="46.70397" lon="5.68294">
        <ele>529.9</ele>
        <time>2022-03-08T09:11:35Z</time>
      </trkpt>
      <trkpt lat="46.70401" lon="5.683">
        <ele>528.1</ele>
        <time>2022-03-08T09:11:40Z</time>
      </trkpt>
      <trkpt lat="46.70404" lon="5.68304">
        <ele>526.7</ele>
        <time>2022-03-08T09:11:45Z</time>
      </trkpt>
      <trkpt lat="46.70408" lon="5.6831">
        <ele>525.5</ele>
        <time>2022-03-08T09:11:50Z</time>
      </trkpt>
      <trkpt lat="46.70413" lon="5.68313">
        <ele>523.4</ele>
        <time>2022-03-08T09:11:54Z</time>
      </trkpt>
      <trkpt lat="46.70418" lon="5.68317">
        <ele>520.9</ele>
        <time>2022-03-08T09:11:59Z</time>
      </trkpt>
      <trkpt lat="46.70422" lon="5.68322">
        <ele>519</ele>
        <time>2022-03-08T09:12:04Z</time>
      </trkpt>
      <trkpt lat="46.70426" lon="5.68328">
        <ele>517.7</ele>
        <time>2022-03-08T09:12:09Z</time>
      </trkpt>
      <trkpt lat="46.70429" lon="5.68333">
        <ele>517.3</ele>
        <time>2022-03-08T09:12:13Z</time>
      </trkpt>
      <trkpt lat="46.70432" lon="5.68338">
        <ele>517.3</ele>
        <time>2022-03-08T09:12:18Z</time>
      </trkpt>
      <trkpt lat="46.70436" lon="5.68341">
        <ele>517.6</ele>
        <time>2022-03-08T09:12:23Z</time>
      </trkpt>
      <trkpt lat="46.7044" lon="5.68344">
        <ele>517.9</ele>
        <time>2022-03-08T09:12:27Z</time>
      </trkpt>
      <trkpt lat="46.70444" lon="5.68349">
        <ele>518.2</ele>
        <time>2022-03-08T09:12:31Z</time>
      </trkpt>
      <trkpt lat="46.70447" lon="5.68354">
        <ele>518.4</ele>
        <time>2022-03-08T09:12:36Z</time>
      </trkpt>
      <trkpt lat="46.70451" lon="5.6836">
        <ele>518.4</ele>
        <time>2022-03-08T09:12:41Z</time>
      </trkpt>
      <trkpt lat="46.70454" lon="5.68365">
        <ele>518.7</ele>
        <time>2022-03-08T09:12:45Z</time>
      </trkpt>
      <trkpt lat="46.70458" lon="5.6837">
        <ele>518.9</ele>
        <time>2022-03-08T09:12:49Z</time>
      </trkpt>
      <trkpt lat="46.70461" lon="5.68376">
        <ele>519.2</ele>
        <time>2022-03-08T09:12:54Z</time>
      </trkpt>
      <trkpt lat="46.70464" lon="5.68382">
        <ele>520</ele>
        <time>2022-03-08T09:13:00Z</time>
      </trkpt>
      <trkpt lat="46.70468" lon="5.68385">
        <ele>520.3</ele>
        <time>2022-03-08T09:13:07Z</time>
      </trkpt>
      <trkpt lat="46.70473" lon="5.68384">
        <ele>520.2</ele>
        <time>2022-03-08T09:13:12Z</time>
      </trkpt>
      <trkpt lat="46.70478" lon="5.68381">
        <ele>520.5</ele>
        <time>2022-03-08T09:13:16Z</time>
      </trkpt>
      <trkpt lat="46.70482" lon="5.68379">
        <ele>520.8</ele>
        <time>2022-03-08T09:13:21Z</time>
      </trkpt>
      <trkpt lat="46.70486" lon="5.68374">
        <ele>520.8</ele>
        <time>2022-03-08T09:13:27Z</time>
      </trkpt>
      <trkpt lat="46.7049" lon="5.68371">
        <ele>520.5</ele>
        <time>2022-03-08T09:13:32Z</time>
      </trkpt>
      <trkpt lat="46.70495" lon="5.68369">
        <ele>520.1</ele>
        <time>2022-03-08T09:13:38Z</time>
      </trkpt>
      <trkpt lat="46.70499" lon="5.68367">
        <ele>519.5</ele>
        <time>2022-03-08T09:13:43Z</time>
      </trkpt>
      <trkpt lat="46.70504" lon="5.68367">
        <ele>518.7</ele>
        <time>2022-03-08T09:13:50Z</time>
      </trkpt>
      <trkpt lat="46.70509" lon="5.68367">
        <ele>518.4</ele>
        <time>2022-03-08T09:13:56Z</time>
      </trkpt>
      <trkpt lat="46.70514" lon="5.68367">
        <ele>518.3</ele>
        <time>2022-03-08T09:14:00Z</time>
      </trkpt>
      <trkpt lat="46.70519" lon="5.68367">
        <ele>518.1</ele>
        <time>2022-03-08T09:14:03Z</time>
      </trkpt>
      <trkpt lat="46.70524" lon="5.68366">
        <ele>517.8</ele>
        <time>2022-03-08T09:14:06Z</time>
      </trkpt>
      <trkpt lat="46.70529" lon="5.68366">
        <ele>517.2</ele>
        <time>2022-03-08T09:14:10Z</time>
      </trkpt>
      <trkpt lat="46.70534" lon="5.68368">
        <ele>516.4</ele>
        <time>2022-03-08T09:14:15Z</time>
      </trkpt>
      <trkpt lat="46.70539" lon="5.68369">
        <ele>515.9</ele>
        <time>2022-03-08T09:14:19Z</time>
      </trkpt>
      <trkpt lat="46.70544" lon="5.68368">
        <ele>515.1</ele>
        <time>2022-03-08T09:14:23Z</time>
      </trkpt>
      <trkpt lat="46.70549" lon="5.68368">
        <ele>514.4</ele>
        <time>2022-03-08T09:14:28Z</time>
      </trkpt>
      <trkpt lat="46.70555" lon="5.68369">
        <ele>513.8</ele>
        <time>2022-03-08T09:14:34Z</time>
      </trkpt>
      <trkpt lat="46.7056" lon="5.68369">
        <ele>513.8</ele>
        <time>2022-03-08T09:14:38Z</time>
      </trkpt>
      <trkpt lat="46.70565" lon="5.6837">
        <ele>513.7</ele>
        <time>2022-03-08T09:14:43Z</time>
      </trkpt>
      <trkpt lat="46.70571" lon="5.6837">
        <ele>513.8</ele>
        <time>2022-03-08T09:14:47Z</time>
      </trkpt>
      <trkpt lat="46.70575" lon="5.68368">
        <ele>513.9</ele>
        <time>2022-03-08T09:14:50Z</time>
      </trkpt>
      <trkpt lat="46.7058" lon="5.68366">
        <ele>513.8</ele>
        <time>2022-03-08T09:14:54Z</time>
      </trkpt>
      <trkpt lat="46.70584" lon="5.68364">
        <ele>513.9</ele>
        <time>2022-03-08T09:14:58Z</time>
      </trkpt>
      <trkpt lat="46.70588" lon="5.6836">
        <ele>514.1</ele>
        <time>2022-03-08T09:15:02Z</time>
      </trkpt>
      <trkpt lat="46.70593" lon="5.68357">
        <ele>514.3</ele>
        <time>2022-03-08T09:15:06Z</time>
      </trkpt>
      <trkpt lat="46.70597" lon="5.68354">
        <ele>514.9</ele>
        <time>2022-03-08T09:15:11Z</time>
      </trkpt>
      <trkpt lat="46.706" lon="5.68348">
        <ele>515.1</ele>
        <time>2022-03-08T09:15:17Z</time>
      </trkpt>
      <trkpt lat="46.70604" lon="5.68342">
        <ele>515.1</ele>
        <time>2022-03-08T09:15:22Z</time>
      </trkpt>
      <trkpt lat="46.70608" lon="5.68341">
        <ele>515.1</ele>
        <time>2022-03-08T09:15:26Z</time>
      </trkpt>
      <trkpt lat="46.70613" lon="5.68339">
        <ele>515.3</ele>
        <time>2022-03-08T09:15:29Z</time>
      </trkpt>
      <trkpt lat="46.70619" lon="5.68338">
        <ele>515.5</ele>
        <time>2022-03-08T09:15:33Z</time>
      </trkpt>
      <trkpt lat="46.70624" lon="5.68338">
        <ele>515.9</ele>
        <time>2022-03-08T09:15:37Z</time>
      </trkpt>
      <trkpt lat="46.70628" lon="5.6834">
        <ele>516.6</ele>
        <time>2022-03-08T09:15:41Z</time>
      </trkpt>
      <trkpt lat="46.70634" lon="5.68343">
        <ele>517.2</ele>
        <time>2022-03-08T09:15:46Z</time>
      </trkpt>
      <trkpt lat="46.70638" lon="5.68346">
        <ele>517.7</ele>
        <time>2022-03-08T09:15:49Z</time>
      </trkpt>
      <trkpt lat="46.70643" lon="5.6835">
        <ele>518.3</ele>
        <time>2022-03-08T09:15:53Z</time>
      </trkpt>
      <trkpt lat="46.70647" lon="5.68353">
        <ele>518.7</ele>
        <time>2022-03-08T09:15:56Z</time>
      </trkpt>
      <trkpt lat="46.70652" lon="5.68357">
        <ele>518.9</ele>
        <time>2022-03-08T09:16:01Z</time>
      </trkpt>
      <trkpt lat="46.70656" lon="5.68361">
        <ele>519.7</ele>
        <time>2022-03-08T09:16:06Z</time>
      </trkpt>
      <trkpt lat="46.70659" lon="5.68367">
        <ele>520.7</ele>
        <time>2022-03-08T09:16:11Z</time>
      </trkpt>
      <trkpt lat="46.70663" lon="5.68372">
        <ele>521.4</ele>
        <time>2022-03-08T09:16:16Z</time>
      </trkpt>
      <trkpt lat="46.70667" lon="5.68373">
        <ele>521.4</ele>
        <time>2022-03-08T09:16:20Z</time>
      </trkpt>
      <trkpt lat="46.70671" lon="5.68375">
        <ele>521.3</ele>
        <time>2022-03-08T09:16:25Z</time>
      </trkpt>
      <trkpt lat="46.70675" lon="5.68379">
        <ele>521.4</ele>
        <time>2022-03-08T09:16:30Z</time>
      </trkpt>
      <trkpt lat="46.7068" lon="5.68383">
        <ele>521.4</ele>
        <time>2022-03-08T09:16:34Z</time>
      </trkpt>
      <trkpt lat="46.70684" lon="5.68386">
        <ele>521.4</ele>
        <time>2022-03-08T09:16:38Z</time>
      </trkpt>
      <trkpt lat="46.70688" lon="5.6839">
        <ele>521.7</ele>
        <time>2022-03-08T09:16:42Z</time>
      </trkpt>
      <trkpt lat="46.70693" lon="5.68394">
        <ele>521.8</ele>
        <time>2022-03-08T09:16:47Z</time>
      </trkpt>
      <trkpt lat="46.70698" lon="5.68397">
        <ele>521.9</ele>
        <time>2022-03-08T09:16:52Z</time>
      </trkpt>
      <trkpt lat="46.70703" lon="5.684">
        <ele>522.1</ele>
        <time>2022-03-08T09:16:56Z</time>
      </trkpt>
      <trkpt lat="46.70707" lon="5.68404">
        <ele>522.6</ele>
        <time>2022-03-08T09:17:00Z</time>
      </trkpt>
      <trkpt lat="46.7071" lon="5.68408">
        <ele>523.2</ele>
        <time>2022-03-08T09:17:05Z</time>
      </trkpt>
      <trkpt lat="46.70714" lon="5.68413">
        <ele>523.9</ele>
        <time>2022-03-08T09:17:10Z</time>
      </trkpt>
      <trkpt lat="46.70718" lon="5.68418">
        <ele>524.8</ele>
        <time>2022-03-08T09:17:16Z</time>
      </trkpt>
      <trkpt lat="46.70723" lon="5.68419">
        <ele>525.2</ele>
        <time>2022-03-08T09:17:22Z</time>
      </trkpt>
      <trkpt lat="46.70727" lon="5.68421">
        <ele>525.3</ele>
        <time>2022-03-08T09:17:26Z</time>
      </trkpt>
      <trkpt lat="46.70732" lon="5.68424">
        <ele>525.9</ele>
        <time>2022-03-08T09:17:31Z</time>
      </trkpt>
      <trkpt lat="46.70737" lon="5.68426">
        <ele>526.5</ele>
        <time>2022-03-08T09:17:36Z</time>
      </trkpt>
      <trkpt lat="46.70743" lon="5.68427">
        <ele>527</ele>
        <time>2022-03-08T09:17:41Z</time>
      </trkpt>
      <trkpt lat="46.70748" lon="5.68428">
        <ele>527.5</ele>
        <time>2022-03-08T09:17:46Z</time>
      </trkpt>
      <trkpt lat="46.70753" lon="5.68427">
        <ele>527.9</ele>
        <time>2022-03-08T09:17:51Z</time>
      </trkpt>
      <trkpt lat="46.70758" lon="5.68424">
        <ele>528</ele>
        <time>2022-03-08T09:17:56Z</time>
      </trkpt>
      <trkpt lat="46.70763" lon="5.68422">
        <ele>527.7</ele>
        <time>2022-03-08T09:18:01Z</time>
      </trkpt>
      <trkpt lat="46.70767" lon="5.68419">
        <ele>527.1</ele>
        <time>2022-03-08T09:18:08Z</time>
      </trkpt>
      <trkpt lat="46.70771" lon="5.68417">
        <ele>526.5</ele>
        <time>2022-03-08T09:18:14Z</time>
      </trkpt>
      <trkpt lat="46.70776" lon="5.68414">
        <ele>526.1</ele>
        <time>2022-03-08T09:18:18Z</time>
      </trkpt>
      <trkpt lat="46.70781" lon="5.68414">
        <ele>525.8</ele>
        <time>2022-03-08T09:18:22Z</time>
      </trkpt>
      <trkpt lat="46.70786" lon="5.68413">
        <ele>525.1</ele>
        <time>2022-03-08T09:18:26Z</time>
      </trkpt>
      <trkpt lat="46.70791" lon="5.68414">
        <ele>524.5</ele>
        <time>2022-03-08T09:18:30Z</time>
      </trkpt>
      <trkpt lat="46.70796" lon="5.68416">
        <ele>524.1</ele>
        <time>2022-03-08T09:18:33Z</time>
      </trkpt>
      <trkpt lat="46.708" lon="5.68419">
        <ele>523.4</ele>
        <time>2022-03-08T09:18:36Z</time>
      </trkpt>
      <trkpt lat="46.70804" lon="5.68423">
        <ele>522.9</ele>
        <time>2022-03-08T09:18:39Z</time>
      </trkpt>
      <trkpt lat="46.70808" lon="5.68428">
        <ele>523.1</ele>
        <time>2022-03-08T09:18:43Z</time>
      </trkpt>
      <trkpt lat="46.70811" lon="5.68435">
        <ele>523.5</ele>
        <time>2022-03-08T09:18:47Z</time>
      </trkpt>
      <trkpt lat="46.70812" lon="5.68441">
        <ele>524.3</ele>
        <time>2022-03-08T09:18:51Z</time>
      </trkpt>
      <trkpt lat="46.70813" lon="5.68448">
        <ele>525.7</ele>
        <time>2022-03-08T09:18:56Z</time>
      </trkpt>
      <trkpt lat="46.70815" lon="5.68455">
        <ele>526.8</ele>
        <time>2022-03-08T09:19:01Z</time>
      </trkpt>
      <trkpt lat="46.70817" lon="5.68461">
        <ele>527.5</ele>
        <time>2022-03-08T09:19:06Z</time>
      </trkpt>
      <trkpt lat="46.70817" lon="5.68469">
        <ele>527.8</ele>
        <time>2022-03-08T09:19:11Z</time>
      </trkpt>
      <trkpt lat="46.7082" lon="5.68475">
        <ele>528</ele>
        <time>2022-03-08T09:19:15Z</time>
      </trkpt>
      <trkpt lat="46.7082" lon="5.68483">
        <ele>528.3</ele>
        <time>2022-03-08T09:19:20Z</time>
      </trkpt>
      <trkpt lat="46.70819" lon="5.68489">
        <ele>528.9</ele>
        <time>2022-03-08T09:19:24Z</time>
      </trkpt>
      <trkpt lat="46.70818" lon="5.68496">
        <ele>529.8</ele>
        <time>2022-03-08T09:19:29Z</time>
      </trkpt>
      <trkpt lat="46.70818" lon="5.68503">
        <ele>530.4</ele>
        <time>2022-03-08T09:19:33Z</time>
      </trkpt>
      <trkpt lat="46.70818" lon="5.68512">
        <ele>531</ele>
        <time>2022-03-08T09:19:37Z</time>
      </trkpt>
      <trkpt lat="46.70819" lon="5.68519">
        <ele>531.9</ele>
        <time>2022-03-08T09:19:41Z</time>
      </trkpt>
      <trkpt lat="46.70819" lon="5.68527">
        <ele>532.9</ele>
        <time>2022-03-08T09:19:46Z</time>
      </trkpt>
      <trkpt lat="46.70819" lon="5.68534">
        <ele>533.6</ele>
        <time>2022-03-08T09:19:50Z</time>
      </trkpt>
      <trkpt lat="46.70819" lon="5.6854">
        <ele>534.7</ele>
        <time>2022-03-08T09:19:54Z</time>
      </trkpt>
      <trkpt lat="46.7082" lon="5.68547">
        <ele>535.7</ele>
        <time>2022-03-08T09:19:59Z</time>
      </trkpt>
      <trkpt lat="46.70821" lon="5.68555">
        <ele>536.2</ele>
        <time>2022-03-08T09:20:04Z</time>
      </trkpt>
      <trkpt lat="46.7082" lon="5.68562">
        <ele>535.9</ele>
        <time>2022-03-08T09:20:09Z</time>
      </trkpt>
      <trkpt lat="46.70822" lon="5.68569">
        <ele>535.6</ele>
        <time>2022-03-08T09:20:14Z</time>
      </trkpt>
      <trkpt lat="46.70823" lon="5.68576">
        <ele>535.2</ele>
        <time>2022-03-08T09:20:18Z</time>
      </trkpt>
      <trkpt lat="46.70825" lon="5.68583">
        <ele>534.7</ele>
        <time>2022-03-08T09:20:22Z</time>
      </trkpt>
      <trkpt lat="46.70828" lon="5.68589">
        <ele>534.3</ele>
        <time>2022-03-08T09:20:27Z</time>
      </trkpt>
      <trkpt lat="46.70831" lon="5.68594">
        <ele>534.5</ele>
        <time>2022-03-08T09:20:33Z</time>
      </trkpt>
      <trkpt lat="46.70834" lon="5.68601">
        <ele>534.3</ele>
        <time>2022-03-08T09:20:38Z</time>
      </trkpt>
      <trkpt lat="46.70836" lon="5.68608">
        <ele>534</ele>
        <time>2022-03-08T09:20:43Z</time>
      </trkpt>
      <trkpt lat="46.70837" lon="5.68615">
        <ele>533.6</ele>
        <time>2022-03-08T09:20:49Z</time>
      </trkpt>
      <trkpt lat="46.70837" lon="5.68623">
        <ele>533.5</ele>
        <time>2022-03-08T09:20:55Z</time>
      </trkpt>
      <trkpt lat="46.7084" lon="5.68629">
        <ele>533.7</ele>
        <time>2022-03-08T09:21:00Z</time>
      </trkpt>
      <trkpt lat="46.70842" lon="5.68634">
        <ele>533.9</ele>
        <time>2022-03-08T09:21:04Z</time>
      </trkpt>
      <trkpt lat="46.70846" lon="5.6864">
        <ele>534.3</ele>
        <time>2022-03-08T09:21:08Z</time>
      </trkpt>
      <trkpt lat="46.7085" lon="5.68645">
        <ele>534.6</ele>
        <time>2022-03-08T09:21:12Z</time>
      </trkpt>
      <trkpt lat="46.70852" lon="5.68651">
        <ele>534.3</ele>
        <time>2022-03-08T09:21:18Z</time>
      </trkpt>
      <trkpt lat="46.70854" lon="5.68658">
        <ele>533.5</ele>
        <time>2022-03-08T09:21:24Z</time>
      </trkpt>
      <trkpt lat="46.70857" lon="5.68663">
        <ele>532.9</ele>
        <time>2022-03-08T09:21:28Z</time>
      </trkpt>
      <trkpt lat="46.70858" lon="5.68669">
        <ele>532.3</ele>
        <time>2022-03-08T09:21:32Z</time>
      </trkpt>
      <trkpt lat="46.70859" lon="5.68677">
        <ele>532.1</ele>
        <time>2022-03-08T09:21:36Z</time>
      </trkpt>
      <trkpt lat="46.70862" lon="5.68684">
        <ele>532.3</ele>
        <time>2022-03-08T09:21:41Z</time>
      </trkpt>
      <trkpt lat="46.70865" lon="5.6869">
        <ele>532.3</ele>
        <time>2022-03-08T09:21:46Z</time>
      </trkpt>
      <trkpt lat="46.70869" lon="5.68696">
        <ele>531.5</ele>
        <time>2022-03-08T09:21:52Z</time>
      </trkpt>
      <trkpt lat="46.70873" lon="5.687">
        <ele>531</ele>
        <time>2022-03-08T09:21:57Z</time>
      </trkpt>
      <trkpt lat="46.70877" lon="5.68704">
        <ele>530.8</ele>
        <time>2022-03-08T09:22:02Z</time>
      </trkpt>
      <trkpt lat="46.70879" lon="5.6871">
        <ele>530.4</ele>
        <time>2022-03-08T09:22:07Z</time>
      </trkpt>
      <trkpt lat="46.70883" lon="5.68714">
        <ele>530</ele>
        <time>2022-03-08T09:22:11Z</time>
      </trkpt>
      <trkpt lat="46.70888" lon="5.68717">
        <ele>529.7</ele>
        <time>2022-03-08T09:22:15Z</time>
      </trkpt>
      <trkpt lat="46.70893" lon="5.6872">
        <ele>529.5</ele>
        <time>2022-03-08T09:22:19Z</time>
      </trkpt>
      <trkpt lat="46.70897" lon="5.68725">
        <ele>529.3</ele>
        <time>2022-03-08T09:22:24Z</time>
      </trkpt>
      <trkpt lat="46.70901" lon="5.6873">
        <ele>529.5</ele>
        <time>2022-03-08T09:22:30Z</time>
      </trkpt>
      <trkpt lat="46.70905" lon="5.68735">
        <ele>529.9</ele>
        <time>2022-03-08T09:22:35Z</time>
      </trkpt>
      <trkpt lat="46.70909" lon="5.6874">
        <ele>530.3</ele>
        <time>2022-03-08T09:22:40Z</time>
      </trkpt>
      <trkpt lat="46.70913" lon="5.68744">
        <ele>531</ele>
        <time>2022-03-08T09:22:44Z</time>
      </trkpt>
      <trkpt lat="46.70917" lon="5.68749">
        <ele>530.4</ele>
        <time>2022-03-08T09:22:49Z</time>
      </trkpt>
      <trkpt lat="46.7092" lon="5.68754">
        <ele>529</ele>
        <time>2022-03-08T09:22:54Z</time>
      </trkpt>
      <trkpt lat="46.70924" lon="5.68758">
        <ele>527.7</ele>
        <time>2022-03-08T09:22:59Z</time>
      </trkpt>
      <trkpt lat="46.70928" lon="5.68763">
        <ele>526.1</ele>
        <time>2022-03-08T09:23:04Z</time>
      </trkpt>
      <trkpt lat="46.70933" lon="5.68768">
        <ele>525.6</ele>
        <time>2022-03-08T09:23:09Z</time>
      </trkpt>
      <trkpt lat="46.70937" lon="5.68771">
        <ele>525.5</ele>
        <time>2022-03-08T09:23:12Z</time>
      </trkpt>
      <trkpt lat="46.70941" lon="5.68774">
        <ele>525.2</ele>
        <time>2022-03-08T09:23:16Z</time>
      </trkpt>
      <trkpt lat="46.70945" lon="5.68778">
        <ele>525.6</ele>
        <time>2022-03-08T09:23:21Z</time>
      </trkpt>
      <trkpt lat="46.70949" lon="5.68783">
        <ele>526.6</ele>
        <time>2022-03-08T09:23:26Z</time>
      </trkpt>
      <trkpt lat="46.70952" lon="5.68788">
        <ele>527.1</ele>
        <time>2022-03-08T09:23:31Z</time>
      </trkpt>
      <trkpt lat="46.70957" lon="5.68791">
        <ele>527.9</ele>
        <time>2022-03-08T09:23:36Z</time>
      </trkpt>
      <trkpt lat="46.70961" lon="5.68794">
        <ele>528.9</ele>
        <time>2022-03-08T09:23:41Z</time>
      </trkpt>
      <trkpt lat="46.70965" lon="5.68798">
        <ele>529.9</ele>
        <time>2022-03-08T09:23:46Z</time>
      </trkpt>
      <trkpt lat="46.7097" lon="5.688">
        <ele>530.6</ele>
        <time>2022-03-08T09:23:50Z</time>
      </trkpt>
      <trkpt lat="46.70974" lon="5.68803">
        <ele>531.3</ele>
        <time>2022-03-08T09:23:54Z</time>
      </trkpt>
      <trkpt lat="46.70978" lon="5.68807">
        <ele>532.3</ele>
        <time>2022-03-08T09:23:59Z</time>
      </trkpt>
      <trkpt lat="46.70983" lon="5.6881">
        <ele>532.9</ele>
        <time>2022-03-08T09:24:05Z</time>
      </trkpt>
      <trkpt lat="46.70988" lon="5.68814">
        <ele>533.3</ele>
        <time>2022-03-08T09:24:10Z</time>
      </trkpt>
      <trkpt lat="46.70993" lon="5.68817">
        <ele>533.7</ele>
        <time>2022-03-08T09:24:15Z</time>
      </trkpt>
      <trkpt lat="46.70998" lon="5.68819">
        <ele>534.2</ele>
        <time>2022-03-08T09:24:19Z</time>
      </trkpt>
      <trkpt lat="46.71002" lon="5.68821">
        <ele>534.5</ele>
        <time>2022-03-08T09:24:23Z</time>
      </trkpt>
      <trkpt lat="46.71007" lon="5.68825">
        <ele>534.2</ele>
        <time>2022-03-08T09:24:29Z</time>
      </trkpt>
      <trkpt lat="46.71012" lon="5.68828">
        <ele>534.2</ele>
        <time>2022-03-08T09:24:36Z</time>
      </trkpt>
      <trkpt lat="46.71017" lon="5.68829">
        <ele>534.4</ele>
        <time>2022-03-08T09:24:40Z</time>
      </trkpt>
      <trkpt lat="46.71021" lon="5.68832">
        <ele>534.4</ele>
        <time>2022-03-08T09:24:44Z</time>
      </trkpt>
      <trkpt lat="46.71025" lon="5.68836">
        <ele>534.3</ele>
        <time>2022-03-08T09:24:48Z</time>
      </trkpt>
      <trkpt lat="46.71029" lon="5.68842">
        <ele>534.2</ele>
        <time>2022-03-08T09:24:52Z</time>
      </trkpt>
      <trkpt lat="46.71032" lon="5.68848">
        <ele>534.3</ele>
        <time>2022-03-08T09:24:57Z</time>
      </trkpt>
      <trkpt lat="46.71037" lon="5.68851">
        <ele>534.3</ele>
        <time>2022-03-08T09:25:00Z</time>
      </trkpt>
      <trkpt lat="46.71042" lon="5.68854">
        <ele>534.1</ele>
        <time>2022-03-08T09:25:04Z</time>
      </trkpt>
      <trkpt lat="46.71047" lon="5.68857">
        <ele>533.9</ele>
        <time>2022-03-08T09:25:08Z</time>
      </trkpt>
      <trkpt lat="46.71051" lon="5.68862">
        <ele>533.2</ele>
        <time>2022-03-08T09:25:14Z</time>
      </trkpt>
      <trkpt lat="46.71055" lon="5.68866">
        <ele>533.1</ele>
        <time>2022-03-08T09:25:18Z</time>
      </trkpt>
      <trkpt lat="46.7106" lon="5.68869">
        <ele>533.2</ele>
        <time>2022-03-08T09:25:22Z</time>
      </trkpt>
      <trkpt lat="46.71064" lon="5.6887">
        <ele>533.3</ele>
        <time>2022-03-08T09:25:26Z</time>
      </trkpt>
      <trkpt lat="46.71069" lon="5.68871">
        <ele>532.9</ele>
        <time>2022-03-08T09:25:31Z</time>
      </trkpt>
      <trkpt lat="46.71074" lon="5.68873">
        <ele>532</ele>
        <time>2022-03-08T09:25:36Z</time>
      </trkpt>
      <trkpt lat="46.71079" lon="5.68874">
        <ele>531.1</ele>
        <time>2022-03-08T09:25:40Z</time>
      </trkpt>
      <trkpt lat="46.71084" lon="5.68874">
        <ele>530</ele>
        <time>2022-03-08T09:25:46Z</time>
      </trkpt>
      <trkpt lat="46.71089" lon="5.68874">
        <ele>529.3</ele>
        <time>2022-03-08T09:25:51Z</time>
      </trkpt>
      <trkpt lat="46.71094" lon="5.68873">
        <ele>528.9</ele>
        <time>2022-03-08T09:25:55Z</time>
      </trkpt>
      <trkpt lat="46.71099" lon="5.68871">
        <ele>528.5</ele>
        <time>2022-03-08T09:25:59Z</time>
      </trkpt>
      <trkpt lat="46.71103" lon="5.68867">
        <ele>528.1</ele>
        <time>2022-03-08T09:26:03Z</time>
      </trkpt>
      <trkpt lat="46.71107" lon="5.68862">
        <ele>527.8</ele>
        <time>2022-03-08T09:26:07Z</time>
      </trkpt>
      <trkpt lat="46.71113" lon="5.6886">
        <ele>528.4</ele>
        <time>2022-03-08T09:26:12Z</time>
      </trkpt>
      <trkpt lat="46.71117" lon="5.68857">
        <ele>529.2</ele>
        <time>2022-03-08T09:26:16Z</time>
      </trkpt>
      <trkpt lat="46.71123" lon="5.68855">
        <ele>530.2</ele>
        <time>2022-03-08T09:26:20Z</time>
      </trkpt>
      <trkpt lat="46.71128" lon="5.68854">
        <ele>531</ele>
        <time>2022-03-08T09:26:25Z</time>
      </trkpt>
      <trkpt lat="46.71132" lon="5.68855">
        <ele>531.3</ele>
        <time>2022-03-08T09:26:29Z</time>
      </trkpt>
      <trkpt lat="46.71137" lon="5.68858">
        <ele>531.1</ele>
        <time>2022-03-08T09:26:33Z</time>
      </trkpt>
      <trkpt lat="46.71141" lon="5.68862">
        <ele>530.5</ele>
        <time>2022-03-08T09:26:38Z</time>
      </trkpt>
      <trkpt lat="46.71145" lon="5.68866">
        <ele>529.4</ele>
        <time>2022-03-08T09:26:43Z</time>
      </trkpt>
      <trkpt lat="46.7115" lon="5.68869">
        <ele>528</ele>
        <time>2022-03-08T09:26:50Z</time>
      </trkpt>
      <trkpt lat="46.71154" lon="5.68873">
        <ele>527.7</ele>
        <time>2022-03-08T09:26:57Z</time>
      </trkpt>
      <trkpt lat="46.71158" lon="5.68879">
        <ele>527.8</ele>
        <time>2022-03-08T09:27:02Z</time>
      </trkpt>
      <trkpt lat="46.71162" lon="5.68882">
        <ele>528.1</ele>
        <time>2022-03-08T09:27:06Z</time>
      </trkpt>
      <trkpt lat="46.71166" lon="5.68886">
        <ele>528.4</ele>
        <time>2022-03-08T09:27:10Z</time>
      </trkpt>
      <trkpt lat="46.7117" lon="5.6889">
        <ele>528.7</ele>
        <time>2022-03-08T09:27:14Z</time>
      </trkpt>
      <trkpt lat="46.71173" lon="5.68895">
        <ele>528.3</ele>
        <time>2022-03-08T09:27:18Z</time>
      </trkpt>
      <trkpt lat="46.71177" lon="5.68898">
        <ele>527.6</ele>
        <time>2022-03-08T09:27:21Z</time>
      </trkpt>
      <trkpt lat="46.71182" lon="5.68901">
        <ele>526.9</ele>
        <time>2022-03-08T09:27:24Z</time>
      </trkpt>
      <trkpt lat="46.71187" lon="5.68906">
        <ele>526.1</ele>
        <time>2022-03-08T09:27:28Z</time>
      </trkpt>
      <trkpt lat="46.71191" lon="5.6891">
        <ele>525.3</ele>
        <time>2022-03-08T09:27:32Z</time>
      </trkpt>
      <trkpt lat="46.71194" lon="5.68915">
        <ele>524.9</ele>
        <time>2022-03-08T09:27:36Z</time>
      </trkpt>
      <trkpt lat="46.71198" lon="5.68921">
        <ele>525.1</ele>
        <time>2022-03-08T09:27:41Z</time>
      </trkpt>
      <trkpt lat="46.712" lon="5.68928">
        <ele>525.5</ele>
        <time>2022-03-08T09:27:46Z</time>
      </trkpt>
      <trkpt lat="46.71204" lon="5.68933">
        <ele>525.8</ele>
        <time>2022-03-08T09:27:51Z</time>
      </trkpt>
      <trkpt lat="46.71207" lon="5.68938">
        <ele>526.1</ele>
        <time>2022-03-08T09:27:56Z</time>
      </trkpt>
      <trkpt lat="46.71209" lon="5.68945">
        <ele>526</ele>
        <time>2022-03-08T09:28:01Z</time>
      </trkpt>
      <trkpt lat="46.71212" lon="5.68951">
        <ele>525.8</ele>
        <time>2022-03-08T09:28:06Z</time>
      </trkpt>
      <trkpt lat="46.71215" lon="5.68958">
        <ele>526.1</ele>
        <time>2022-03-08T09:28:11Z</time>
      </trkpt>
      <trkpt lat="46.71218" lon="5.68964">
        <ele>526.9</ele>
        <time>2022-03-08T09:28:15Z</time>
      </trkpt>
      <trkpt lat="46.71222" lon="5.68968">
        <ele>527.6</ele>
        <time>2022-03-08T09:28:19Z</time>
      </trkpt>
      <trkpt lat="46.71225" lon="5.68973">
        <ele>527.5</ele>
        <time>2022-03-08T09:28:23Z</time>
      </trkpt>
      <trkpt lat="46.71229" lon="5.68978">
        <ele>526.9</ele>
        <time>2022-03-08T09:28:29Z</time>
      </trkpt>
      <trkpt lat="46.71232" lon="5.68984">
        <ele>526.9</ele>
        <time>2022-03-08T09:28:34Z</time>
      </trkpt>
      <trkpt lat="46.71237" lon="5.68988">
        <ele>526.7</ele>
        <time>2022-03-08T09:28:39Z</time>
      </trkpt>
      <trkpt lat="46.71241" lon="5.68992">
        <ele>526.1</ele>
        <time>2022-03-08T09:28:43Z</time>
      </trkpt>
      <trkpt lat="46.71245" lon="5.68995">
        <ele>525.5</ele>
        <time>2022-03-08T09:28:48Z</time>
      </trkpt>
      <trkpt lat="46.71247" lon="5.69002">
        <ele>525.3</ele>
        <time>2022-03-08T09:28:53Z</time>
      </trkpt>
      <trkpt lat="46.71249" lon="5.6901">
        <ele>525.2</ele>
        <time>2022-03-08T09:28:58Z</time>
      </trkpt>
      <trkpt lat="46.71251" lon="5.69016">
        <ele>525</ele>
        <time>2022-03-08T09:29:02Z</time>
      </trkpt>
      <trkpt lat="46.71254" lon="5.69023">
        <ele>524.7</ele>
        <time>2022-03-08T09:29:07Z</time>
      </trkpt>
      <trkpt lat="46.71257" lon="5.69029">
        <ele>525.2</ele>
        <time>2022-03-08T09:29:12Z</time>
      </trkpt>
      <trkpt lat="46.71261" lon="5.69036">
        <ele>526.2</ele>
        <time>2022-03-08T09:29:17Z</time>
      </trkpt>
      <trkpt lat="46.71266" lon="5.69041">
        <ele>526.7</ele>
        <time>2022-03-08T09:29:21Z</time>
      </trkpt>
      <trkpt lat="46.7127" lon="5.69045">
        <ele>527.1</ele>
        <time>2022-03-08T09:29:25Z</time>
      </trkpt>
      <trkpt lat="46.71273" lon="5.6905">
        <ele>527.1</ele>
        <time>2022-03-08T09:29:29Z</time>
      </trkpt>
      <trkpt lat="46.71276" lon="5.69056">
        <ele>527.4</ele>
        <time>2022-03-08T09:29:34Z</time>
      </trkpt>
      <trkpt lat="46.7128" lon="5.69062">
        <ele>528</ele>
        <time>2022-03-08T09:29:39Z</time>
      </trkpt>
      <trkpt lat="46.71284" lon="5.69066">
        <ele>528.7</ele>
        <time>2022-03-08T09:29:44Z</time>
      </trkpt>
      <trkpt lat="46.71287" lon="5.69072">
        <ele>529.4</ele>
        <time>2022-03-08T09:29:49Z</time>
      </trkpt>
      <trkpt lat="46.71289" lon="5.69079">
        <ele>529.8</ele>
        <time>2022-03-08T09:29:54Z</time>
      </trkpt>
      <trkpt lat="46.7129" lon="5.69085">
        <ele>530.3</ele>
        <time>2022-03-08T09:29:58Z</time>
      </trkpt>
      <trkpt lat="46.71292" lon="5.69092">
        <ele>530.7</ele>
        <time>2022-03-08T09:30:02Z</time>
      </trkpt>
      <trkpt lat="46.71293" lon="5.691">
        <ele>531.5</ele>
        <time>2022-03-08T09:30:07Z</time>
      </trkpt>
      <trkpt lat="46.71295" lon="5.69107">
        <ele>531.9</ele>
        <time>2022-03-08T09:30:11Z</time>
      </trkpt>
      <trkpt lat="46.71298" lon="5.69113">
        <ele>532</ele>
        <time>2022-03-08T09:30:16Z</time>
      </trkpt>
      <trkpt lat="46.71301" lon="5.69118">
        <ele>531.7</ele>
        <time>2022-03-08T09:30:21Z</time>
      </trkpt>
      <trkpt lat="46.71303" lon="5.69124">
        <ele>530.9</ele>
        <time>2022-03-08T09:30:26Z</time>
      </trkpt>
      <trkpt lat="46.71305" lon="5.69131">
        <ele>529.6</ele>
        <time>2022-03-08T09:30:31Z</time>
      </trkpt>
      <trkpt lat="46.71307" lon="5.69138">
        <ele>528.7</ele>
        <time>2022-03-08T09:30:35Z</time>
      </trkpt>
      <trkpt lat="46.71308" lon="5.69144">
        <ele>528.1</ele>
        <time>2022-03-08T09:30:39Z</time>
      </trkpt>
      <trkpt lat="46.71309" lon="5.69152">
        <ele>528.2</ele>
        <time>2022-03-08T09:30:43Z</time>
      </trkpt>
      <trkpt lat="46.71312" lon="5.69159">
        <ele>528.3</ele>
        <time>2022-03-08T09:30:47Z</time>
      </trkpt>
      <trkpt lat="46.71315" lon="5.69165">
        <ele>528.3</ele>
        <time>2022-03-08T09:30:52Z</time>
      </trkpt>
      <trkpt lat="46.71317" lon="5.69172">
        <ele>528.2</ele>
        <time>2022-03-08T09:30:57Z</time>
      </trkpt>
      <trkpt lat="46.71319" lon="5.6918">
        <ele>528</ele>
        <time>2022-03-08T09:31:02Z</time>
      </trkpt>
      <trkpt lat="46.71321" lon="5.69187">
        <ele>528</ele>
        <time>2022-03-08T09:31:07Z</time>
      </trkpt>
      <trkpt lat="46.71323" lon="5.69193">
        <ele>528.1</ele>
        <time>2022-03-08T09:31:13Z</time>
      </trkpt>
      <trkpt lat="46.71326" lon="5.69199">
        <ele>528.3</ele>
        <time>2022-03-08T09:31:18Z</time>
      </trkpt>
      <trkpt lat="46.71331" lon="5.69203">
        <ele>528.2</ele>
        <time>2022-03-08T09:31:22Z</time>
      </trkpt>
      <trkpt lat="46.71335" lon="5.69208">
        <ele>528.1</ele>
        <time>2022-03-08T09:31:27Z</time>
      </trkpt>
      <trkpt lat="46.7134" lon="5.69211">
        <ele>528</ele>
        <time>2022-03-08T09:31:32Z</time>
      </trkpt>
      <trkpt lat="46.71345" lon="5.69213">
        <ele>527.9</ele>
        <time>2022-03-08T09:31:37Z</time>
      </trkpt>
      <trkpt lat="46.7135" lon="5.69215">
        <ele>528</ele>
        <time>2022-03-08T09:31:41Z</time>
      </trkpt>
      <trkpt lat="46.71355" lon="5.69218">
        <ele>528.2</ele>
        <time>2022-03-08T09:31:46Z</time>
      </trkpt>
      <trkpt lat="46.7136" lon="5.69221">
        <ele>528.5</ele>
        <time>2022-03-08T09:31:52Z</time>
      </trkpt>
      <trkpt lat="46.71364" lon="5.69223">
        <ele>528.7</ele>
        <time>2022-03-08T09:31:57Z</time>
      </trkpt>
      <trkpt lat="46.71369" lon="5.69227">
        <ele>529.2</ele>
        <time>2022-03-08T09:32:03Z</time>
      </trkpt>
      <trkpt lat="46.71374" lon="5.69229">
        <ele>529.3</ele>
        <time>2022-03-08T09:32:07Z</time>
      </trkpt>
      <trkpt lat="46.71379" lon="5.69231">
        <ele>529</ele>
        <time>2022-03-08T09:32:10Z</time>
      </trkpt>
      <trkpt lat="46.71385" lon="5.69233">
        <ele>528.4</ele>
        <time>2022-03-08T09:32:14Z</time>
      </trkpt>
      <trkpt lat="46.7139" lon="5.69235">
        <ele>528.2</ele>
        <time>2022-03-08T09:32:18Z</time>
      </trkpt>
      <trkpt lat="46.71395" lon="5.69238">
        <ele>528.5</ele>
        <time>2022-03-08T09:32:22Z</time>
      </trkpt>
      <trkpt lat="46.71399" lon="5.69241">
        <ele>529</ele>
        <time>2022-03-08T09:32:27Z</time>
      </trkpt>
      <trkpt lat="46.71404" lon="5.69244">
        <ele>529.2</ele>
        <time>2022-03-08T09:32:32Z</time>
      </trkpt>
      <trkpt lat="46.71409" lon="5.69246">
        <ele>529.2</ele>
        <time>2022-03-08T09:32:36Z</time>
      </trkpt>
      <trkpt lat="46.71414" lon="5.69248">
        <ele>528.1</ele>
        <time>2022-03-08T09:32:41Z</time>
      </trkpt>
      <trkpt lat="46.71419" lon="5.69248">
        <ele>526.9</ele>
        <time>2022-03-08T09:32:45Z</time>
      </trkpt>
      <trkpt lat="46.71423" lon="5.69251">
        <ele>526</ele>
        <time>2022-03-08T09:32:52Z</time>
      </trkpt>
      <trkpt lat="46.71428" lon="5.69254">
        <ele>526.2</ele>
        <time>2022-03-08T09:32:57Z</time>
      </trkpt>
      <trkpt lat="46.71432" lon="5.69256">
        <ele>526.4</ele>
        <time>2022-03-08T09:33:01Z</time>
      </trkpt>
      <trkpt lat="46.71437" lon="5.69258">
        <ele>526.7</ele>
        <time>2022-03-08T09:33:05Z</time>
      </trkpt>
      <trkpt lat="46.71441" lon="5.6926">
        <ele>527.2</ele>
        <time>2022-03-08T09:33:10Z</time>
      </trkpt>
      <trkpt lat="46.71446" lon="5.69263">
        <ele>526.7</ele>
        <time>2022-03-08T09:33:17Z</time>
      </trkpt>
      <trkpt lat="46.71451" lon="5.69265">
        <ele>526.3</ele>
        <time>2022-03-08T09:33:22Z</time>
      </trkpt>
      <trkpt lat="46.71456" lon="5.69267">
        <ele>525.6</ele>
        <time>2022-03-08T09:33:27Z</time>
      </trkpt>
      <trkpt lat="46.7146" lon="5.69268">
        <ele>525.2</ele>
        <time>2022-03-08T09:33:31Z</time>
      </trkpt>
      <trkpt lat="46.71465" lon="5.69269">
        <ele>525</ele>
        <time>2022-03-08T09:33:36Z</time>
      </trkpt>
      <trkpt lat="46.7147" lon="5.69273">
        <ele>524.4</ele>
        <time>2022-03-08T09:33:43Z</time>
      </trkpt>
      <trkpt lat="46.71474" lon="5.69276">
        <ele>524.3</ele>
        <time>2022-03-08T09:33:47Z</time>
      </trkpt>
      <trkpt lat="46.71479" lon="5.69277">
        <ele>524.2</ele>
        <time>2022-03-08T09:33:51Z</time>
      </trkpt>
      <trkpt lat="46.71484" lon="5.69279">
        <ele>524.4</ele>
        <time>2022-03-08T09:33:55Z</time>
      </trkpt>
      <trkpt lat="46.71488" lon="5.69281">
        <ele>524.6</ele>
        <time>2022-03-08T09:33:59Z</time>
      </trkpt>
      <trkpt lat="46.71492" lon="5.69284">
        <ele>524.8</ele>
        <time>2022-03-08T09:34:04Z</time>
      </trkpt>
      <trkpt lat="46.71497" lon="5.69287">
        <ele>525.5</ele>
        <time>2022-03-08T09:34:10Z</time>
      </trkpt>
      <trkpt lat="46.71501" lon="5.6929">
        <ele>526.2</ele>
        <time>2022-03-08T09:34:15Z</time>
      </trkpt>
      <trkpt lat="46.71506" lon="5.69291">
        <ele>526.8</ele>
        <time>2022-03-08T09:34:19Z</time>
      </trkpt>
      <trkpt lat="46.71511" lon="5.69291">
        <ele>527.9</ele>
        <time>2022-03-08T09:34:24Z</time>
      </trkpt>
      <trkpt lat="46.71515" lon="5.69291">
        <ele>528.5</ele>
        <time>2022-03-08T09:34:29Z</time>
      </trkpt>
      <trkpt lat="46.7152" lon="5.69292">
        <ele>529</ele>
        <time>2022-03-08T09:34:34Z</time>
      </trkpt>
      <trkpt lat="46.71525" lon="5.69291">
        <ele>529.3</ele>
        <time>2022-03-08T09:34:39Z</time>
      </trkpt>
      <trkpt lat="46.7153" lon="5.6929">
        <ele>529.9</ele>
        <time>2022-03-08T09:34:44Z</time>
      </trkpt>
      <trkpt lat="46.71535" lon="5.6929">
        <ele>530.2</ele>
        <time>2022-03-08T09:34:48Z</time>
      </trkpt>
      <trkpt lat="46.7154" lon="5.69291">
        <ele>530.8</ele>
        <time>2022-03-08T09:34:53Z</time>
      </trkpt>
      <trkpt lat="46.71545" lon="5.6929">
        <ele>531.5</ele>
        <time>2022-03-08T09:34:58Z</time>
      </trkpt>
      <trkpt lat="46.7155" lon="5.69289">
        <ele>532</ele>
        <time>2022-03-08T09:35:03Z</time>
      </trkpt>
      <trkpt lat="46.71555" lon="5.69289">
        <ele>532.3</ele>
        <time>2022-03-08T09:35:08Z</time>
      </trkpt>
      <trkpt lat="46.7156" lon="5.69287">
        <ele>532</ele>
        <time>2022-03-08T09:35:14Z</time>
      </trkpt>
      <trkpt lat="46.71564" lon="5.69287">
        <ele>531.8</ele>
        <time>2022-03-08T09:35:21Z</time>
      </trkpt>
      <trkpt lat="46.7157" lon="5.69288">
        <ele>531</ele>
        <time>2022-03-08T09:35:29Z</time>
      </trkpt>
      <trkpt lat="46.71576" lon="5.69289">
        <ele>530.6</ele>
        <time>2022-03-08T09:35:34Z</time>
      </trkpt>
      <trkpt lat="46.71581" lon="5.69289">
        <ele>530</ele>
        <time>2022-03-08T09:35:38Z</time>
      </trkpt>
      <trkpt lat="46.71585" lon="5.69291">
        <ele>529.3</ele>
        <time>2022-03-08T09:35:43Z</time>
      </trkpt>
      <trkpt lat="46.7159" lon="5.69294">
        <ele>527.6</ele>
        <time>2022-03-08T09:35:48Z</time>
      </trkpt>
      <trkpt lat="46.71595" lon="5.69296">
        <ele>526.2</ele>
        <time>2022-03-08T09:35:54Z</time>
      </trkpt>
      <trkpt lat="46.716" lon="5.69297">
        <ele>525.8</ele>
        <time>2022-03-08T09:35:58Z</time>
      </trkpt>
      <trkpt lat="46.71605" lon="5.69298">
        <ele>525.5</ele>
        <time>2022-03-08T09:36:02Z</time>
      </trkpt>
      <trkpt lat="46.7161" lon="5.69302">
        <ele>525.3</ele>
        <time>2022-03-08T09:36:09Z</time>
      </trkpt>
      <trkpt lat="46.71614" lon="5.69306">
        <ele>525.2</ele>
        <time>2022-03-08T09:36:13Z</time>
      </trkpt>
      <trkpt lat="46.71619" lon="5.69309">
        <ele>525.1</ele>
        <time>2022-03-08T09:36:17Z</time>
      </trkpt>
      <trkpt lat="46.71623" lon="5.69313">
        <ele>525.2</ele>
        <time>2022-03-08T09:36:21Z</time>
      </trkpt>
      <trkpt lat="46.71626" lon="5.69319">
        <ele>525.5</ele>
        <time>2022-03-08T09:36:25Z</time>
      </trkpt>
      <trkpt lat="46.71629" lon="5.69326">
        <ele>526.1</ele>
        <time>2022-03-08T09:36:30Z</time>
      </trkpt>
      <trkpt lat="46.71631" lon="5.69332">
        <ele>526.8</ele>
        <time>2022-03-08T09:36:34Z</time>
      </trkpt>
      <trkpt lat="46.71636" lon="5.69337">
        <ele>527.6</ele>
        <time>2022-03-08T09:36:39Z</time>
      </trkpt>
      <trkpt lat="46.7164" lon="5.69341">
        <ele>528.5</ele>
        <time>2022-03-08T09:36:43Z</time>
      </trkpt>
      <trkpt lat="46.71644" lon="5.69344">
        <ele>529.3</ele>
        <time>2022-03-08T09:36:46Z</time>
      </trkpt>
      <trkpt lat="46.71648" lon="5.69347">
        <ele>530</ele>
        <time>2022-03-08T09:36:50Z</time>
      </trkpt>
      <trkpt lat="46.71652" lon="5.69352">
        <ele>530.4</ele>
        <time>2022-03-08T09:36:55Z</time>
      </trkpt>
      <trkpt lat="46.71655" lon="5.69357">
        <ele>530.7</ele>
        <time>2022-03-08T09:37:00Z</time>
      </trkpt>
      <trkpt lat="46.71659" lon="5.69361">
        <ele>531.1</ele>
        <time>2022-03-08T09:37:04Z</time>
      </trkpt>
      <trkpt lat="46.71663" lon="5.69364">
        <ele>531.8</ele>
        <time>2022-03-08T09:37:08Z</time>
      </trkpt>
      <trkpt lat="46.71668" lon="5.69366">
        <ele>532.7</ele>
        <time>2022-03-08T09:37:12Z</time>
      </trkpt>
      <trkpt lat="46.71673" lon="5.69369">
        <ele>533.5</ele>
        <time>2022-03-08T09:37:16Z</time>
      </trkpt>
      <trkpt lat="46.71677" lon="5.69374">
        <ele>534</ele>
        <time>2022-03-08T09:37:21Z</time>
      </trkpt>
      <trkpt lat="46.7168" lon="5.69378">
        <ele>534.5</ele>
        <time>2022-03-08T09:37:25Z</time>
      </trkpt>
      <trkpt lat="46.71685" lon="5.69382">
        <ele>535.4</ele>
        <time>2022-03-08T09:37:30Z</time>
      </trkpt>
      <trkpt lat="46.71689" lon="5.69387">
        <ele>536.3</ele>
        <time>2022-03-08T09:37:34Z</time>
      </trkpt>
      <trkpt lat="46.71692" lon="5.69392">
        <ele>537</ele>
        <time>2022-03-08T09:37:38Z</time>
      </trkpt>
      <trkpt lat="46.71696" lon="5.69396">
        <ele>537</ele>
        <time>2022-03-08T09:37:43Z</time>
      </trkpt>
      <trkpt lat="46.717" lon="5.69402">
        <ele>536.7</ele>
        <time>2022-03-08T09:37:49Z</time>
      </trkpt>
      <trkpt lat="46.71703" lon="5.69407">
        <ele>535.8</ele>
        <time>2022-03-08T09:37:55Z</time>
      </trkpt>
      <trkpt lat="46.71706" lon="5.69413">
        <ele>535.4</ele>
        <time>2022-03-08T09:38:00Z</time>
      </trkpt>
      <trkpt lat="46.71709" lon="5.69419">
        <ele>535.3</ele>
        <time>2022-03-08T09:38:04Z</time>
      </trkpt>
      <trkpt lat="46.71711" lon="5.69424">
        <ele>535.3</ele>
        <time>2022-03-08T09:38:08Z</time>
      </trkpt>
      <trkpt lat="46.71715" lon="5.69431">
        <ele>534.6</ele>
        <time>2022-03-08T09:38:13Z</time>
      </trkpt>
      <trkpt lat="46.71718" lon="5.69436">
        <ele>533.7</ele>
        <time>2022-03-08T09:38:18Z</time>
      </trkpt>
      <trkpt lat="46.71722" lon="5.69441">
        <ele>533.1</ele>
        <time>2022-03-08T09:38:22Z</time>
      </trkpt>
      <trkpt lat="46.71725" lon="5.69445">
        <ele>531.8</ele>
        <time>2022-03-08T09:38:27Z</time>
      </trkpt>
      <trkpt lat="46.7173" lon="5.6945">
        <ele>531.1</ele>
        <time>2022-03-08T09:38:32Z</time>
      </trkpt>
      <trkpt lat="46.71734" lon="5.69455">
        <ele>531.4</ele>
        <time>2022-03-08T09:38:36Z</time>
      </trkpt>
      <trkpt lat="46.71739" lon="5.6946">
        <ele>531.7</ele>
        <time>2022-03-08T09:38:40Z</time>
      </trkpt>
      <trkpt lat="46.71743" lon="5.69465">
        <ele>531.9</ele>
        <time>2022-03-08T09:38:44Z</time>
      </trkpt>
      <trkpt lat="46.71746" lon="5.6947">
        <ele>532.2</ele>
        <time>2022-03-08T09:38:49Z</time>
      </trkpt>
      <trkpt lat="46.7175" lon="5.69474">
        <ele>532.6</ele>
        <time>2022-03-08T09:38:54Z</time>
      </trkpt>
      <trkpt lat="46.71755" lon="5.69478">
        <ele>533.1</ele>
        <time>2022-03-08T09:39:00Z</time>
      </trkpt>
      <trkpt lat="46.71759" lon="5.69482">
        <ele>533.4</ele>
        <time>2022-03-08T09:39:06Z</time>
      </trkpt>
      <trkpt lat="46.71763" lon="5.69487">
        <ele>533.4</ele>
        <time>2022-03-08T09:39:11Z</time>
      </trkpt>
      <trkpt lat="46.71767" lon="5.69493">
        <ele>533.7</ele>
        <time>2022-03-08T09:39:16Z</time>
      </trkpt>
      <trkpt lat="46.71771" lon="5.69497">
        <ele>533.7</ele>
        <time>2022-03-08T09:39:21Z</time>
      </trkpt>
      <trkpt lat="46.71775" lon="5.695">
        <ele>534.1</ele>
        <time>2022-03-08T09:39:25Z</time>
      </trkpt>
      <trkpt lat="46.7178" lon="5.69503">
        <ele>534.3</ele>
        <time>2022-03-08T09:39:29Z</time>
      </trkpt>
      <trkpt lat="46.71785" lon="5.69507">
        <ele>534.6</ele>
        <time>2022-03-08T09:39:33Z</time>
      </trkpt>
      <trkpt lat="46.71789" lon="5.6951">
        <ele>535.1</ele>
        <time>2022-03-08T09:39:37Z</time>
      </trkpt>
      <trkpt lat="46.71794" lon="5.69513">
        <ele>535.7</ele>
        <time>2022-03-08T09:39:41Z</time>
      </trkpt>
      <trkpt lat="46.71799" lon="5.69517">
        <ele>536.2</ele>
        <time>2022-03-08T09:39:46Z</time>
      </trkpt>
      <trkpt lat="46.71803" lon="5.69521">
        <ele>535.9</ele>
        <time>2022-03-08T09:39:51Z</time>
      </trkpt>
      <trkpt lat="46.71807" lon="5.69524">
        <ele>535.5</ele>
        <time>2022-03-08T09:39:55Z</time>
      </trkpt>
      <trkpt lat="46.71811" lon="5.69529">
        <ele>534.7</ele>
        <time>2022-03-08T09:40:00Z</time>
      </trkpt>
      <trkpt lat="46.71814" lon="5.69534">
        <ele>533</ele>
        <time>2022-03-08T09:40:05Z</time>
      </trkpt>
      <trkpt lat="46.71818" lon="5.6954">
        <ele>530.9</ele>
        <time>2022-03-08T09:40:11Z</time>
      </trkpt>
      <trkpt lat="46.71823" lon="5.69543">
        <ele>529.8</ele>
        <time>2022-03-08T09:40:15Z</time>
      </trkpt>
      <trkpt lat="46.71828" lon="5.69547">
        <ele>529.3</ele>
        <time>2022-03-08T09:40:19Z</time>
      </trkpt>
      <trkpt lat="46.71832" lon="5.6955">
        <ele>529</ele>
        <time>2022-03-08T09:40:22Z</time>
      </trkpt>
      <trkpt lat="46.71836" lon="5.69554">
        <ele>528.9</ele>
        <time>2022-03-08T09:40:26Z</time>
      </trkpt>
      <trkpt lat="46.7184" lon="5.69559">
        <ele>529.1</ele>
        <time>2022-03-08T09:40:31Z</time>
      </trkpt>
      <trkpt lat="46.71844" lon="5.69563">
        <ele>529</ele>
        <time>2022-03-08T09:40:35Z</time>
      </trkpt>
      <trkpt lat="46.71847" lon="5.69568">
        <ele>528.7</ele>
        <time>2022-03-08T09:40:40Z</time>
      </trkpt>
      <trkpt lat="46.71852" lon="5.69571">
        <ele>528.5</ele>
        <time>2022-03-08T09:40:44Z</time>
      </trkpt>
      <trkpt lat="46.71856" lon="5.69575">
        <ele>528.4</ele>
        <time>2022-03-08T09:40:49Z</time>
      </trkpt>
      <trkpt lat="46.71861" lon="5.69577">
        <ele>528.5</ele>
        <time>2022-03-08T09:40:53Z</time>
      </trkpt>
      <trkpt lat="46.71866" lon="5.69576">
        <ele>528.7</ele>
        <time>2022-03-08T09:40:57Z</time>
      </trkpt>
      <trkpt lat="46.7187" lon="5.69576">
        <ele>529</ele>
        <time>2022-03-08T09:41:01Z</time>
      </trkpt>
      <trkpt lat="46.71875" lon="5.69574">
        <ele>528.9</ele>
        <time>2022-03-08T09:41:07Z</time>
      </trkpt>
      <trkpt lat="46.7188" lon="5.69574">
        <ele>527.8</ele>
        <time>2022-03-08T09:41:14Z</time>
      </trkpt>
      <trkpt lat="46.71884" lon="5.69574">
        <ele>527.1</ele>
        <time>2022-03-08T09:41:19Z</time>
      </trkpt>
      <trkpt lat="46.71889" lon="5.69574">
        <ele>526.3</ele>
        <time>2022-03-08T09:41:24Z</time>
      </trkpt>
      <trkpt lat="46.71894" lon="5.69573">
        <ele>525.4</ele>
        <time>2022-03-08T09:41:29Z</time>
      </trkpt>
      <trkpt lat="46.71899" lon="5.69572">
        <ele>524.7</ele>
        <time>2022-03-08T09:41:33Z</time>
      </trkpt>
      <trkpt lat="46.71904" lon="5.69571">
        <ele>524.2</ele>
        <time>2022-03-08T09:41:37Z</time>
      </trkpt>
      <trkpt lat="46.71908" lon="5.69569">
        <ele>524</ele>
        <time>2022-03-08T09:41:41Z</time>
      </trkpt>
      <trkpt lat="46.71913" lon="5.69566">
        <ele>523.9</ele>
        <time>2022-03-08T09:41:46Z</time>
      </trkpt>
      <trkpt lat="46.71917" lon="5.69563">
        <ele>523.4</ele>
        <time>2022-03-08T09:41:51Z</time>
      </trkpt>
      <trkpt lat="46.71922" lon="5.69558">
        <ele>523.3</ele>
        <time>2022-03-08T09:41:55Z</time>
      </trkpt>
      <trkpt lat="46.71926" lon="5.69554">
        <ele>523.3</ele>
        <time>2022-03-08T09:41:59Z</time>
      </trkpt>
      <trkpt lat="46.7193" lon="5.6955">
        <ele>523.3</ele>
        <time>2022-03-08T09:42:03Z</time>
      </trkpt>
      <trkpt lat="46.71934" lon="5.69547">
        <ele>523.6</ele>
        <time>2022-03-08T09:42:07Z</time>
      </trkpt>
      <trkpt lat="46.71937" lon="5.69541">
        <ele>523.9</ele>
        <time>2022-03-08T09:42:12Z</time>
      </trkpt>
      <trkpt lat="46.7194" lon="5.69534">
        <ele>523.8</ele>
        <time>2022-03-08T09:42:17Z</time>
      </trkpt>
      <trkpt lat="46.71944" lon="5.69529">
        <ele>523.4</ele>
        <time>2022-03-08T09:42:21Z</time>
      </trkpt>
      <trkpt lat="46.71947" lon="5.69522">
        <ele>523</ele>
        <time>2022-03-08T09:42:25Z</time>
      </trkpt>
      <trkpt lat="46.71949" lon="5.69515">
        <ele>522.5</ele>
        <time>2022-03-08T09:42:30Z</time>
      </trkpt>
      <trkpt lat="46.71952" lon="5.6951">
        <ele>522.3</ele>
        <time>2022-03-08T09:42:35Z</time>
      </trkpt>
      <trkpt lat="46.71955" lon="5.69505">
        <ele>522.1</ele>
        <time>2022-03-08T09:42:39Z</time>
      </trkpt>
      <trkpt lat="46.7196" lon="5.69501">
        <ele>522</ele>
        <time>2022-03-08T09:42:43Z</time>
      </trkpt>
      <trkpt lat="46.71964" lon="5.69497">
        <ele>521.8</ele>
        <time>2022-03-08T09:42:47Z</time>
      </trkpt>
      <trkpt lat="46.71968" lon="5.69494">
        <ele>521.4</ele>
        <time>2022-03-08T09:42:51Z</time>
      </trkpt>
      <trkpt lat="46.71972" lon="5.69491">
        <ele>520.9</ele>
        <time>2022-03-08T09:42:56Z</time>
      </trkpt>
      <trkpt lat="46.71976" lon="5.69487">
        <ele>520.3</ele>
        <time>2022-03-08T09:43:01Z</time>
      </trkpt>
      <trkpt lat="46.71981" lon="5.69482">
        <ele>519.6</ele>
        <time>2022-03-08T09:43:06Z</time>
      </trkpt>
      <trkpt lat="46.71984" lon="5.69478">
        <ele>519</ele>
        <time>2022-03-08T09:43:10Z</time>
      </trkpt>
      <trkpt lat="46.71988" lon="5.69472">
        <ele>518.1</ele>
        <time>2022-03-08T09:43:15Z</time>
      </trkpt>
      <trkpt lat="46.71992" lon="5.69468">
        <ele>517.7</ele>
        <time>2022-03-08T09:43:19Z</time>
      </trkpt>
      <trkpt lat="46.71996" lon="5.69464">
        <ele>517.6</ele>
        <time>2022-03-08T09:43:24Z</time>
      </trkpt>
      <trkpt lat="46.71999" lon="5.6946">
        <ele>517.6</ele>
        <time>2022-03-08T09:43:29Z</time>
      </trkpt>
      <trkpt lat="46.72002" lon="5.69454">
        <ele>517.9</ele>
        <time>2022-03-08T09:43:33Z</time>
      </trkpt>
      <trkpt lat="46.72006" lon="5.69449">
        <ele>518</ele>
        <time>2022-03-08T09:43:38Z</time>
      </trkpt>
      <trkpt lat="46.7201" lon="5.69443">
        <ele>517.9</ele>
        <time>2022-03-08T09:43:43Z</time>
      </trkpt>
      <trkpt lat="46.72014" lon="5.69438">
        <ele>517.8</ele>
        <time>2022-03-08T09:43:48Z</time>
      </trkpt>
      <trkpt lat="46.72018" lon="5.69435">
        <ele>517.8</ele>
        <time>2022-03-08T09:43:52Z</time>
      </trkpt>
      <trkpt lat="46.72021" lon="5.69429">
        <ele>518</ele>
        <time>2022-03-08T09:43:57Z</time>
      </trkpt>
      <trkpt lat="46.72025" lon="5.69424">
        <ele>518.3</ele>
        <time>2022-03-08T09:44:02Z</time>
      </trkpt>
      <trkpt lat="46.72029" lon="5.69418">
        <ele>518.8</ele>
        <time>2022-03-08T09:44:07Z</time>
      </trkpt>
      <trkpt lat="46.72033" lon="5.69413">
        <ele>519.8</ele>
        <time>2022-03-08T09:44:12Z</time>
      </trkpt>
      <trkpt lat="46.72038" lon="5.69409">
        <ele>520.8</ele>
        <time>2022-03-08T09:44:16Z</time>
      </trkpt>
      <trkpt lat="46.72042" lon="5.69404">
        <ele>521.8</ele>
        <time>2022-03-08T09:44:19Z</time>
      </trkpt>
      <trkpt lat="46.72046" lon="5.69399">
        <ele>522.8</ele>
        <time>2022-03-08T09:44:23Z</time>
      </trkpt>
      <trkpt lat="46.7205" lon="5.69395">
        <ele>523.9</ele>
        <time>2022-03-08T09:44:28Z</time>
      </trkpt>
      <trkpt lat="46.72055" lon="5.69391">
        <ele>524.9</ele>
        <time>2022-03-08T09:44:32Z</time>
      </trkpt>
      <trkpt lat="46.72059" lon="5.69387">
        <ele>525.5</ele>
        <time>2022-03-08T09:44:36Z</time>
      </trkpt>
      <trkpt lat="46.72064" lon="5.69384">
        <ele>525.1</ele>
        <time>2022-03-08T09:44:41Z</time>
      </trkpt>
      <trkpt lat="46.72068" lon="5.69381">
        <ele>524.8</ele>
        <time>2022-03-08T09:44:46Z</time>
      </trkpt>
      <trkpt lat="46.72073" lon="5.6938">
        <ele>524.3</ele>
        <time>2022-03-08T09:44:51Z</time>
      </trkpt>
      <trkpt lat="46.72078" lon="5.69381">
        <ele>523.9</ele>
        <time>2022-03-08T09:44:56Z</time>
      </trkpt>
      <trkpt lat="46.72082" lon="5.69385">
        <ele>523.2</ele>
        <time>2022-03-08T09:45:01Z</time>
      </trkpt>
      <trkpt lat="46.72086" lon="5.69389">
        <ele>522.5</ele>
        <time>2022-03-08T09:45:06Z</time>
      </trkpt>
      <trkpt lat="46.7209" lon="5.69393">
        <ele>522.3</ele>
        <time>2022-03-08T09:45:12Z</time>
      </trkpt>
      <trkpt lat="46.72095" lon="5.69397">
        <ele>522.2</ele>
        <time>2022-03-08T09:45:17Z</time>
      </trkpt>
      <trkpt lat="46.721" lon="5.69397">
        <ele>522</ele>
        <time>2022-03-08T09:45:20Z</time>
      </trkpt>
      <trkpt lat="46.72104" lon="5.69398">
        <ele>521.5</ele>
        <time>2022-03-08T09:45:23Z</time>
      </trkpt>
      <trkpt lat="46.7211" lon="5.69398">
        <ele>520.9</ele>
        <time>2022-03-08T09:45:27Z</time>
      </trkpt>
      <trkpt lat="46.72116" lon="5.69398">
        <ele>520.3</ele>
        <time>2022-03-08T09:45:31Z</time>
      </trkpt>
      <trkpt lat="46.7212" lon="5.694">
        <ele>520.1</ele>
        <time>2022-03-08T09:45:36Z</time>
      </trkpt>
      <trkpt lat="46.72125" lon="5.69403">
        <ele>520</ele>
        <time>2022-03-08T09:45:41Z</time>
      </trkpt>
      <trkpt lat="46.72129" lon="5.69405">
        <ele>520</ele>
        <time>2022-03-08T09:45:46Z</time>
      </trkpt>
      <trkpt lat="46.72135" lon="5.69407">
        <ele>520.3</ele>
        <time>2022-03-08T09:45:52Z</time>
      </trkpt>
      <trkpt lat="46.72141" lon="5.69407">
        <ele>520.6</ele>
        <time>2022-03-08T09:45:56Z</time>
      </trkpt>
      <trkpt lat="46.72146" lon="5.69408">
        <ele>521</ele>
        <time>2022-03-08T09:46:00Z</time>
      </trkpt>
      <trkpt lat="46.72151" lon="5.69409">
        <ele>521.7</ele>
        <time>2022-03-08T09:46:05Z</time>
      </trkpt>
      <trkpt lat="46.72156" lon="5.69412">
        <ele>522.6</ele>
        <time>2022-03-08T09:46:11Z</time>
      </trkpt>
      <trkpt lat="46.7216" lon="5.69414">
        <ele>523.4</ele>
        <time>2022-03-08T09:46:16Z</time>
      </trkpt>
      <trkpt lat="46.72166" lon="5.69416">
        <ele>524</ele>
        <time>2022-03-08T09:46:21Z</time>
      </trkpt>
      <trkpt lat="46.72171" lon="5.69417">
        <ele>524.6</ele>
        <time>2022-03-08T09:46:25Z</time>
      </trkpt>
      <trkpt lat="46.72176" lon="5.69418">
        <ele>525.2</ele>
        <time>2022-03-08T09:46:29Z</time>
      </trkpt>
      <trkpt lat="46.72181" lon="5.6942">
        <ele>525.3</ele>
        <time>2022-03-08T09:46:34Z</time>
      </trkpt>
      <trkpt lat="46.72185" lon="5.69423">
        <ele>525</ele>
        <time>2022-03-08T09:46:39Z</time>
      </trkpt>
      <trkpt lat="46.7219" lon="5.69425">
        <ele>524.6</ele>
        <time>2022-03-08T09:46:44Z</time>
      </trkpt>
      <trkpt lat="46.72195" lon="5.69427">
        <ele>524.9</ele>
        <time>2022-03-08T09:46:48Z</time>
      </trkpt>
      <trkpt lat="46.722" lon="5.69429">
        <ele>525.3</ele>
        <time>2022-03-08T09:46:52Z</time>
      </trkpt>
      <trkpt lat="46.72204" lon="5.69431">
        <ele>525.6</ele>
        <time>2022-03-08T09:46:56Z</time>
      </trkpt>
      <trkpt lat="46.72209" lon="5.69434">
        <ele>525.4</ele>
        <time>2022-03-08T09:47:01Z</time>
      </trkpt>
      <trkpt lat="46.72214" lon="5.69437">
        <ele>525.5</ele>
        <time>2022-03-08T09:47:06Z</time>
      </trkpt>
      <trkpt lat="46.7222" lon="5.69439">
        <ele>525.4</ele>
        <time>2022-03-08T09:47:11Z</time>
      </trkpt>
      <trkpt lat="46.72224" lon="5.69441">
        <ele>524.7</ele>
        <time>2022-03-08T09:47:16Z</time>
      </trkpt>
      <trkpt lat="46.72229" lon="5.69444">
        <ele>523.8</ele>
        <time>2022-03-08T09:47:21Z</time>
      </trkpt>
      <trkpt lat="46.72234" lon="5.69448">
        <ele>522.8</ele>
        <time>2022-03-08T09:47:27Z</time>
      </trkpt>
      <trkpt lat="46.72239" lon="5.69451">
        <ele>522.4</ele>
        <time>2022-03-08T09:47:31Z</time>
      </trkpt>
      <trkpt lat="46.72243" lon="5.69454">
        <ele>521.9</ele>
        <time>2022-03-08T09:47:35Z</time>
      </trkpt>
      <trkpt lat="46.72248" lon="5.69458">
        <ele>521.8</ele>
        <time>2022-03-08T09:47:40Z</time>
      </trkpt>
      <trkpt lat="46.72252" lon="5.69461">
        <ele>522</ele>
        <time>2022-03-08T09:47:44Z</time>
      </trkpt>
      <trkpt lat="46.72256" lon="5.69463">
        <ele>522.2</ele>
        <time>2022-03-08T09:47:48Z</time>
      </trkpt>
      <trkpt lat="46.72261" lon="5.69465">
        <ele>522.2</ele>
        <time>2022-03-08T09:47:52Z</time>
      </trkpt>
      <trkpt lat="46.72266" lon="5.69467">
        <ele>522.5</ele>
        <time>2022-03-08T09:47:56Z</time>
      </trkpt>
      <trkpt lat="46.72271" lon="5.69469">
        <ele>523</ele>
        <time>2022-03-08T09:48:00Z</time>
      </trkpt>
      <trkpt lat="46.72275" lon="5.69471">
        <ele>523.3</ele>
        <time>2022-03-08T09:48:04Z</time>
      </trkpt>
      <trkpt lat="46.7228" lon="5.69474">
        <ele>523.8</ele>
        <time>2022-03-08T09:48:09Z</time>
      </trkpt>
      <trkpt lat="46.72285" lon="5.69476">
        <ele>523.9</ele>
        <time>2022-03-08T09:48:14Z</time>
      </trkpt>
      <trkpt lat="46.7229" lon="5.69478">
        <ele>523.6</ele>
        <time>2022-03-08T09:48:18Z</time>
      </trkpt>
      <trkpt lat="46.72295" lon="5.69479">
        <ele>523.2</ele>
        <time>2022-03-08T09:48:22Z</time>
      </trkpt>
      <trkpt lat="46.723" lon="5.6948">
        <ele>522.9</ele>
        <time>2022-03-08T09:48:27Z</time>
      </trkpt>
      <trkpt lat="46.72305" lon="5.69483">
        <ele>523.1</ele>
        <time>2022-03-08T09:48:32Z</time>
      </trkpt>
      <trkpt lat="46.7231" lon="5.69485">
        <ele>523.3</ele>
        <time>2022-03-08T09:48:37Z</time>
      </trkpt>
      <trkpt lat="46.72315" lon="5.69487">
        <ele>523.2</ele>
        <time>2022-03-08T09:48:42Z</time>
      </trkpt>
      <trkpt lat="46.7232" lon="5.69489">
        <ele>523.1</ele>
        <time>2022-03-08T09:48:47Z</time>
      </trkpt>
      <trkpt lat="46.72324" lon="5.69491">
        <ele>523.2</ele>
        <time>2022-03-08T09:48:51Z</time>
      </trkpt>
      <trkpt lat="46.72329" lon="5.69491">
        <ele>523.2</ele>
        <time>2022-03-08T09:48:55Z</time>
      </trkpt>
      <trkpt lat="46.72334" lon="5.69492">
        <ele>523.1</ele>
        <time>2022-03-08T09:48:59Z</time>
      </trkpt>
      <trkpt lat="46.72339" lon="5.69492">
        <ele>523.2</ele>
        <time>2022-03-08T09:49:03Z</time>
      </trkpt>
      <trkpt lat="46.72345" lon="5.69491">
        <ele>523.2</ele>
        <time>2022-03-08T09:49:07Z</time>
      </trkpt>
      <trkpt lat="46.7235" lon="5.69491">
        <ele>523.3</ele>
        <time>2022-03-08T09:49:11Z</time>
      </trkpt>
      <trkpt lat="46.72355" lon="5.6949">
        <ele>523.4</ele>
        <time>2022-03-08T09:49:17Z</time>
      </trkpt>
      <trkpt lat="46.7236" lon="5.69487">
        <ele>523</ele>
        <time>2022-03-08T09:49:22Z</time>
      </trkpt>
      <trkpt lat="46.72364" lon="5.69485">
        <ele>522.8</ele>
        <time>2022-03-08T09:49:26Z</time>
      </trkpt>
      <trkpt lat="46.72369" lon="5.69482">
        <ele>522.8</ele>
        <time>2022-03-08T09:49:31Z</time>
      </trkpt>
      <trkpt lat="46.72373" lon="5.69478">
        <ele>523.2</ele>
        <time>2022-03-08T09:49:36Z</time>
      </trkpt>
      <trkpt lat="46.72378" lon="5.69474">
        <ele>524.1</ele>
        <time>2022-03-08T09:49:41Z</time>
      </trkpt>
      <trkpt lat="46.72382" lon="5.69471">
        <ele>524.3</ele>
        <time>2022-03-08T09:49:46Z</time>
      </trkpt>
      <trkpt lat="46.72386" lon="5.69467">
        <ele>524</ele>
        <time>2022-03-08T09:49:50Z</time>
      </trkpt>
      <trkpt lat="46.72391" lon="5.69464">
        <ele>524.2</ele>
        <time>2022-03-08T09:49:55Z</time>
      </trkpt>
      <trkpt lat="46.72395" lon="5.69461">
        <ele>524.7</ele>
        <time>2022-03-08T09:49:59Z</time>
      </trkpt>
      <trkpt lat="46.72399" lon="5.69456">
        <ele>525.1</ele>
        <time>2022-03-08T09:50:04Z</time>
      </trkpt>
      <trkpt lat="46.72403" lon="5.69452">
        <ele>525.3</ele>
        <time>2022-03-08T09:50:08Z</time>
      </trkpt>
      <trkpt lat="46.72407" lon="5.69447">
        <ele>525.3</ele>
        <time>2022-03-08T09:50:13Z</time>
      </trkpt>
      <trkpt lat="46.7241" lon="5.69441">
        <ele>525.4</ele>
        <time>2022-03-08T09:50:18Z</time>
      </trkpt>
      <trkpt lat="46.72414" lon="5.69437">
        <ele>525.9</ele>
        <time>2022-03-08T09:50:22Z</time>
      </trkpt>
      <trkpt lat="46.72418" lon="5.69432">
        <ele>526</ele>
        <time>2022-03-08T09:50:27Z</time>
      </trkpt>
      <trkpt lat="46.72422" lon="5.69428">
        <ele>526</ele>
        <time>2022-03-08T09:50:31Z</time>
      </trkpt>
      <trkpt lat="46.72426" lon="5.69424">
        <ele>525.9</ele>
        <time>2022-03-08T09:50:36Z</time>
      </trkpt>
      <trkpt lat="46.72431" lon="5.6942">
        <ele>526</ele>
        <time>2022-03-08T09:50:42Z</time>
      </trkpt>
      <trkpt lat="46.72434" lon="5.69416">
        <ele>526.1</ele>
        <time>2022-03-08T09:50:46Z</time>
      </trkpt>
      <trkpt lat="46.72439" lon="5.69411">
        <ele>525.7</ele>
        <time>2022-03-08T09:50:51Z</time>
      </trkpt>
      <trkpt lat="46.72443" lon="5.69406">
        <ele>525.6</ele>
        <time>2022-03-08T09:50:56Z</time>
      </trkpt>
      <trkpt lat="46.72447" lon="5.69402">
        <ele>525.2</ele>
        <time>2022-03-08T09:51:00Z</time>
      </trkpt>
      <trkpt lat="46.72452" lon="5.69398">
        <ele>525.4</ele>
        <time>2022-03-08T09:51:05Z</time>
      </trkpt>
      <trkpt lat="46.72457" lon="5.69395">
        <ele>525.7</ele>
        <time>2022-03-08T09:51:10Z</time>
      </trkpt>
      <trkpt lat="46.72462" lon="5.69393">
        <ele>526</ele>
        <time>2022-03-08T09:51:15Z</time>
      </trkpt>
      <trkpt lat="46.72466" lon="5.69389">
        <ele>526.7</ele>
        <time>2022-03-08T09:51:19Z</time>
      </trkpt>
      <trkpt lat="46.72471" lon="5.69386">
        <ele>527.6</ele>
        <time>2022-03-08T09:51:23Z</time>
      </trkpt>
      <trkpt lat="46.72475" lon="5.69382">
        <ele>528.5</ele>
        <time>2022-03-08T09:51:27Z</time>
      </trkpt>
      <trkpt lat="46.7248" lon="5.6938">
        <ele>528.9</ele>
        <time>2022-03-08T09:51:31Z</time>
      </trkpt>
      <trkpt lat="46.72485" lon="5.69377">
        <ele>529.4</ele>
        <time>2022-03-08T09:51:36Z</time>
      </trkpt>
      <trkpt lat="46.72489" lon="5.69374">
        <ele>529.6</ele>
        <time>2022-03-08T09:51:41Z</time>
      </trkpt>
      <trkpt lat="46.72494" lon="5.69371">
        <ele>529.6</ele>
        <time>2022-03-08T09:51:46Z</time>
      </trkpt>
      <trkpt lat="46.72499" lon="5.69368">
        <ele>529.5</ele>
        <time>2022-03-08T09:51:51Z</time>
      </trkpt>
      <trkpt lat="46.72504" lon="5.69366">
        <ele>529.6</ele>
        <time>2022-03-08T09:51:56Z</time>
      </trkpt>
      <trkpt lat="46.72509" lon="5.69364">
        <ele>529.2</ele>
        <time>2022-03-08T09:52:01Z</time>
      </trkpt>
      <trkpt lat="46.72514" lon="5.69362">
        <ele>528.7</ele>
        <time>2022-03-08T09:52:06Z</time>
      </trkpt>
      <trkpt lat="46.72519" lon="5.6936">
        <ele>528.7</ele>
        <time>2022-03-08T09:52:11Z</time>
      </trkpt>
      <trkpt lat="46.72525" lon="5.69359">
        <ele>528.7</ele>
        <time>2022-03-08T09:52:16Z</time>
      </trkpt>
      <trkpt lat="46.7253" lon="5.69358">
        <ele>528.7</ele>
        <time>2022-03-08T09:52:20Z</time>
      </trkpt>
      <trkpt lat="46.72535" lon="5.69357">
        <ele>528.9</ele>
        <time>2022-03-08T09:52:24Z</time>
      </trkpt>
      <trkpt lat="46.7254" lon="5.69355">
        <ele>529.4</ele>
        <time>2022-03-08T09:52:28Z</time>
      </trkpt>
      <trkpt lat="46.72545" lon="5.69354">
        <ele>530.1</ele>
        <time>2022-03-08T09:52:33Z</time>
      </trkpt>
      <trkpt lat="46.72549" lon="5.6935">
        <ele>530.2</ele>
        <time>2022-03-08T09:52:39Z</time>
      </trkpt>
      <trkpt lat="46.72554" lon="5.69347">
        <ele>529.7</ele>
        <time>2022-03-08T09:52:44Z</time>
      </trkpt>
      <trkpt lat="46.72559" lon="5.69344">
        <ele>529.2</ele>
        <time>2022-03-08T09:52:49Z</time>
      </trkpt>
      <trkpt lat="46.72564" lon="5.69342">
        <ele>528.9</ele>
        <time>2022-03-08T09:52:53Z</time>
      </trkpt>
      <trkpt lat="46.72569" lon="5.69339">
        <ele>528.7</ele>
        <time>2022-03-08T09:52:57Z</time>
      </trkpt>
      <trkpt lat="46.72574" lon="5.69335">
        <ele>528.9</ele>
        <time>2022-03-08T09:53:02Z</time>
      </trkpt>
      <trkpt lat="46.72579" lon="5.69332">
        <ele>528.8</ele>
        <time>2022-03-08T09:53:07Z</time>
      </trkpt>
      <trkpt lat="46.72584" lon="5.69329">
        <ele>529</ele>
        <time>2022-03-08T09:53:12Z</time>
      </trkpt>
      <trkpt lat="46.72588" lon="5.69327">
        <ele>528.9</ele>
        <time>2022-03-08T09:53:16Z</time>
      </trkpt>
      <trkpt lat="46.72593" lon="5.69325">
        <ele>528.7</ele>
        <time>2022-03-08T09:53:21Z</time>
      </trkpt>
      <trkpt lat="46.72597" lon="5.69323">
        <ele>528.6</ele>
        <time>2022-03-08T09:53:26Z</time>
      </trkpt>
      <trkpt lat="46.72602" lon="5.69321">
        <ele>528.3</ele>
        <time>2022-03-08T09:53:31Z</time>
      </trkpt>
      <trkpt lat="46.72606" lon="5.6932">
        <ele>528.1</ele>
        <time>2022-03-08T09:53:35Z</time>
      </trkpt>
      <trkpt lat="46.72611" lon="5.6932">
        <ele>527.4</ele>
        <time>2022-03-08T09:53:40Z</time>
      </trkpt>
      <trkpt lat="46.72616" lon="5.69322">
        <ele>526.7</ele>
        <time>2022-03-08T09:53:45Z</time>
      </trkpt>
      <trkpt lat="46.7262" lon="5.69326">
        <ele>526.3</ele>
        <time>2022-03-08T09:53:49Z</time>
      </trkpt>
      <trkpt lat="46.72623" lon="5.69333">
        <ele>526</ele>
        <time>2022-03-08T09:53:54Z</time>
      </trkpt>
      <trkpt lat="46.72625" lon="5.69339">
        <ele>525.9</ele>
        <time>2022-03-08T09:53:59Z</time>
      </trkpt>
      <trkpt lat="46.72627" lon="5.69346">
        <ele>526.5</ele>
        <time>2022-03-08T09:54:05Z</time>
      </trkpt>
      <trkpt lat="46.72629" lon="5.69353">
        <ele>527.3</ele>
        <time>2022-03-08T09:54:10Z</time>
      </trkpt>
      <trkpt lat="46.72631" lon="5.69361">
        <ele>527.7</ele>
        <time>2022-03-08T09:54:15Z</time>
      </trkpt>
      <trkpt lat="46.72633" lon="5.69366">
        <ele>527.6</ele>
        <time>2022-03-08T09:54:19Z</time>
      </trkpt>
      <trkpt lat="46.72636" lon="5.69372">
        <ele>527.1</ele>
        <time>2022-03-08T09:54:24Z</time>
      </trkpt>
      <trkpt lat="46.72641" lon="5.69376">
        <ele>526.4</ele>
        <time>2022-03-08T09:54:29Z</time>
      </trkpt>
      <trkpt lat="46.72646" lon="5.6938">
        <ele>526</ele>
        <time>2022-03-08T09:54:34Z</time>
      </trkpt>
      <trkpt lat="46.72651" lon="5.69383">
        <ele>526.6</ele>
        <time>2022-03-08T09:54:39Z</time>
      </trkpt>
      <trkpt lat="46.72655" lon="5.69387">
        <ele>527.6</ele>
        <time>2022-03-08T09:54:44Z</time>
      </trkpt>
      <trkpt lat="46.7266" lon="5.69389">
        <ele>528.3</ele>
        <time>2022-03-08T09:54:50Z</time>
      </trkpt>
      <trkpt lat="46.72664" lon="5.69392">
        <ele>528.6</ele>
        <time>2022-03-08T09:54:55Z</time>
      </trkpt>
      <trkpt lat="46.7267" lon="5.69394">
        <ele>529.4</ele>
        <time>2022-03-08T09:55:00Z</time>
      </trkpt>
      <trkpt lat="46.72675" lon="5.69395">
        <ele>529.8</ele>
        <time>2022-03-08T09:55:05Z</time>
      </trkpt>
      <trkpt lat="46.7268" lon="5.69396">
        <ele>530.2</ele>
        <time>2022-03-08T09:55:10Z</time>
      </trkpt>
      <trkpt lat="46.72685" lon="5.69397">
        <ele>530.2</ele>
        <time>2022-03-08T09:55:14Z</time>
      </trkpt>
      <trkpt lat="46.72689" lon="5.69397">
        <ele>530.1</ele>
        <time>2022-03-08T09:55:18Z</time>
      </trkpt>
      <trkpt lat="46.72695" lon="5.69398">
        <ele>530.1</ele>
        <time>2022-03-08T09:55:23Z</time>
      </trkpt>
      <trkpt lat="46.727" lon="5.69398">
        <ele>530.1</ele>
        <time>2022-03-08T09:55:28Z</time>
      </trkpt>
      <trkpt lat="46.72705" lon="5.69398">
        <ele>530.3</ele>
        <time>2022-03-08T09:55:33Z</time>
      </trkpt>
      <trkpt lat="46.7271" lon="5.69398">
        <ele>530.5</ele>
        <time>2022-03-08T09:55:38Z</time>
      </trkpt>
      <trkpt lat="46.72715" lon="5.69398">
        <ele>530.4</ele>
        <time>2022-03-08T09:55:42Z</time>
      </trkpt>
      <trkpt lat="46.7272" lon="5.69399">
        <ele>530.4</ele>
        <time>2022-03-08T09:55:46Z</time>
      </trkpt>
      <trkpt lat="46.72725" lon="5.694">
        <ele>530.5</ele>
        <time>2022-03-08T09:55:51Z</time>
      </trkpt>
      <trkpt lat="46.7273" lon="5.694">
        <ele>530.6</ele>
        <time>2022-03-08T09:55:56Z</time>
      </trkpt>
      <trkpt lat="46.72735" lon="5.694">
        <ele>530.4</ele>
        <time>2022-03-08T09:56:01Z</time>
      </trkpt>
      <trkpt lat="46.7274" lon="5.69401">
        <ele>530.3</ele>
        <time>2022-03-08T09:56:06Z</time>
      </trkpt>
      <trkpt lat="46.72744" lon="5.69401">
        <ele>530</ele>
        <time>2022-03-08T09:56:10Z</time>
      </trkpt>
      <trkpt lat="46.72749" lon="5.69401">
        <ele>529.7</ele>
        <time>2022-03-08T09:56:14Z</time>
      </trkpt>
      <trkpt lat="46.72755" lon="5.69401">
        <ele>529.5</ele>
        <time>2022-03-08T09:56:19Z</time>
      </trkpt>
      <trkpt lat="46.72759" lon="5.69401">
        <ele>529.4</ele>
        <time>2022-03-08T09:56:23Z</time>
      </trkpt>
      <trkpt lat="46.72765" lon="5.69401">
        <ele>529.3</ele>
        <time>2022-03-08T09:56:27Z</time>
      </trkpt>
      <trkpt lat="46.7277" lon="5.694">
        <ele>528.8</ele>
        <time>2022-03-08T09:56:32Z</time>
      </trkpt>
      <trkpt lat="46.72775" lon="5.69401">
        <ele>528.2</ele>
        <time>2022-03-08T09:56:37Z</time>
      </trkpt>
      <trkpt lat="46.72781" lon="5.69403">
        <ele>527.9</ele>
        <time>2022-03-08T09:56:42Z</time>
      </trkpt>
      <trkpt lat="46.72785" lon="5.69404">
        <ele>527.4</ele>
        <time>2022-03-08T09:56:47Z</time>
      </trkpt>
      <trkpt lat="46.72791" lon="5.69406">
        <ele>527.1</ele>
        <time>2022-03-08T09:56:52Z</time>
      </trkpt>
      <trkpt lat="46.72795" lon="5.69411">
        <ele>526.9</ele>
        <time>2022-03-08T09:56:57Z</time>
      </trkpt>
      <trkpt lat="46.72799" lon="5.69416">
        <ele>527.2</ele>
        <time>2022-03-08T09:57:02Z</time>
      </trkpt>
      <trkpt lat="46.72802" lon="5.69422">
        <ele>527.9</ele>
        <time>2022-03-08T09:57:07Z</time>
      </trkpt>
      <trkpt lat="46.72805" lon="5.69429">
        <ele>528.5</ele>
        <time>2022-03-08T09:57:12Z</time>
      </trkpt>
      <trkpt lat="46.72808" lon="5.69434">
        <ele>528.7</ele>
        <time>2022-03-08T09:57:16Z</time>
      </trkpt>
      <trkpt lat="46.7281" lon="5.6944">
        <ele>529</ele>
        <time>2022-03-08T09:57:20Z</time>
      </trkpt>
      <trkpt lat="46.72813" lon="5.69445">
        <ele>528.9</ele>
        <time>2022-03-08T09:57:25Z</time>
      </trkpt>
      <trkpt lat="46.72816" lon="5.6945">
        <ele>528.5</ele>
        <time>2022-03-08T09:57:30Z</time>
      </trkpt>
      <trkpt lat="46.72818" lon="5.69457">
        <ele>528.3</ele>
        <time>2022-03-08T09:57:35Z</time>
      </trkpt>
      <trkpt lat="46.72821" lon="5.69463">
        <ele>528</ele>
        <time>2022-03-08T09:57:39Z</time>
      </trkpt>
      <trkpt lat="46.72825" lon="5.69469">
        <ele>527.3</ele>
        <time>2022-03-08T09:57:43Z</time>
      </trkpt>
      <trkpt lat="46.72828" lon="5.69474">
        <ele>526.5</ele>
        <time>2022-03-08T09:57:48Z</time>
      </trkpt>
      <trkpt lat="46.72832" lon="5.69478">
        <ele>526.3</ele>
        <time>2022-03-08T09:57:52Z</time>
      </trkpt>
      <trkpt lat="46.72836" lon="5.69482">
        <ele>526.1</ele>
        <time>2022-03-08T09:57:56Z</time>
      </trkpt>
      <trkpt lat="46.7284" lon="5.69487">
        <ele>525.7</ele>
        <time>2022-03-08T09:58:01Z</time>
      </trkpt>
      <trkpt lat="46.72845" lon="5.69489">
        <ele>525.4</ele>
        <time>2022-03-08T09:58:05Z</time>
      </trkpt>
      <trkpt lat="46.72849" lon="5.69493">
        <ele>525.7</ele>
        <time>2022-03-08T09:58:09Z</time>
      </trkpt>
      <trkpt lat="46.72853" lon="5.69495">
        <ele>526.4</ele>
        <time>2022-03-08T09:58:13Z</time>
      </trkpt>
      <trkpt lat="46.72857" lon="5.69498">
        <ele>527.6</ele>
        <time>2022-03-08T09:58:17Z</time>
      </trkpt>
      <trkpt lat="46.72862" lon="5.69501">
        <ele>528.9</ele>
        <time>2022-03-08T09:58:22Z</time>
      </trkpt>
      <trkpt lat="46.72866" lon="5.69505">
        <ele>529.3</ele>
        <time>2022-03-08T09:58:26Z</time>
      </trkpt>
      <trkpt lat="46.72869" lon="5.6951">
        <ele>529.6</ele>
        <time>2022-03-08T09:58:31Z</time>
      </trkpt>
      <trkpt lat="46.72874" lon="5.69514">
        <ele>529.6</ele>
        <time>2022-03-08T09:58:36Z</time>
      </trkpt>
      <trkpt lat="46.72878" lon="5.69517">
        <ele>529.2</ele>
        <time>2022-03-08T09:58:40Z</time>
      </trkpt>
      <trkpt lat="46.72881" lon="5.69521">
        <ele>529</ele>
        <time>2022-03-08T09:58:45Z</time>
      </trkpt>
      <trkpt lat="46.72885" lon="5.69527">
        <ele>529.3</ele>
        <time>2022-03-08T09:58:50Z</time>
      </trkpt>
      <trkpt lat="46.7289" lon="5.69532">
        <ele>529.5</ele>
        <time>2022-03-08T09:58:55Z</time>
      </trkpt>
      <trkpt lat="46.72893" lon="5.69537">
        <ele>529.8</ele>
        <time>2022-03-08T09:58:59Z</time>
      </trkpt>
      <trkpt lat="46.72896" lon="5.69542">
        <ele>530.1</ele>
        <time>2022-03-08T09:59:03Z</time>
      </trkpt>
      <trkpt lat="46.729" lon="5.69547">
        <ele>530</ele>
        <time>2022-03-08T09:59:07Z</time>
      </trkpt>
      <trkpt lat="46.72904" lon="5.69553">
        <ele>529.8</ele>
        <time>2022-03-08T09:59:12Z</time>
      </trkpt>
      <trkpt lat="46.72907" lon="5.69559">
        <ele>530</ele>
        <time>2022-03-08T09:59:17Z</time>
      </trkpt>
      <trkpt lat="46.72911" lon="5.69563">
        <ele>530.7</ele>
        <time>2022-03-08T09:59:21Z</time>
      </trkpt>
      <trkpt lat="46.72915" lon="5.69567">
        <ele>531.7</ele>
        <time>2022-03-08T09:59:26Z</time>
      </trkpt>
      <trkpt lat="46.7292" lon="5.69569">
        <ele>531.9</ele>
        <time>2022-03-08T09:59:31Z</time>
      </trkpt>
      <trkpt lat="46.72925" lon="5.69571">
        <ele>531.9</ele>
        <time>2022-03-08T09:59:36Z</time>
      </trkpt>
      <trkpt lat="46.7293" lon="5.69575">
        <ele>531.3</ele>
        <time>2022-03-08T09:59:41Z</time>
      </trkpt>
      <trkpt lat="46.72935" lon="5.69579">
        <ele>530.7</ele>
        <time>2022-03-08T09:59:45Z</time>
      </trkpt>
      <trkpt lat="46.72939" lon="5.69583">
        <ele>530.2</ele>
        <time>2022-03-08T09:59:49Z</time>
      </trkpt>
      <trkpt lat="46.72944" lon="5.69586">
        <ele>529.8</ele>
        <time>2022-03-08T09:59:54Z</time>
      </trkpt>
      <trkpt lat="46.72949" lon="5.69589">
        <ele>529.6</ele>
        <time>2022-03-08T09:59:59Z</time>
      </trkpt>
      <trkpt lat="46.72954" lon="5.69593">
        <ele>529.8</ele>
        <time>2022-03-08T10:00:04Z</time>
      </trkpt>
      <trkpt lat="46.72958" lon="5.69594">
        <ele>530.1</ele>
        <time>2022-03-08T10:00:08Z</time>
      </trkpt>
      <trkpt lat="46.72963" lon="5.69595">
        <ele>529.7</ele>
        <time>2022-03-08T10:00:13Z</time>
      </trkpt>
      <trkpt lat="46.72968" lon="5.69597">
        <ele>528.9</ele>
        <time>2022-03-08T10:00:17Z</time>
      </trkpt>
      <trkpt lat="46.72973" lon="5.696">
        <ele>528.1</ele>
        <time>2022-03-08T10:00:22Z</time>
      </trkpt>
      <trkpt lat="46.72977" lon="5.69603">
        <ele>526.8</ele>
        <time>2022-03-08T10:00:28Z</time>
      </trkpt>
      <trkpt lat="46.72982" lon="5.69607">
        <ele>525.9</ele>
        <time>2022-03-08T10:00:34Z</time>
      </trkpt>
      <trkpt lat="46.72987" lon="5.69609">
        <ele>525.5</ele>
        <time>2022-03-08T10:00:40Z</time>
      </trkpt>
      <trkpt lat="46.72993" lon="5.6961">
        <ele>525.9</ele>
        <time>2022-03-08T10:00:45Z</time>
      </trkpt>
      <trkpt lat="46.72997" lon="5.69612">
        <ele>526.2</ele>
        <time>2022-03-08T10:00:49Z</time>
      </trkpt>
      <trkpt lat="46.73001" lon="5.69614">
        <ele>526.6</ele>
        <time>2022-03-08T10:00:53Z</time>
      </trkpt>
      <trkpt lat="46.73006" lon="5.69617">
        <ele>527.2</ele>
        <time>2022-03-08T10:00:57Z</time>
      </trkpt>
      <trkpt lat="46.73011" lon="5.6962">
        <ele>527.5</ele>
        <time>2022-03-08T10:01:01Z</time>
      </trkpt>
      <trkpt lat="46.73016" lon="5.69622">
        <ele>527.6</ele>
        <time>2022-03-08T10:01:05Z</time>
      </trkpt>
      <trkpt lat="46.73021" lon="5.69624">
        <ele>527.9</ele>
        <time>2022-03-08T10:01:09Z</time>
      </trkpt>
      <trkpt lat="46.73025" lon="5.69625">
        <ele>528</ele>
        <time>2022-03-08T10:01:13Z</time>
      </trkpt>
      <trkpt lat="46.7303" lon="5.69629">
        <ele>528.2</ele>
        <time>2022-03-08T10:01:18Z</time>
      </trkpt>
      <trkpt lat="46.73034" lon="5.69632">
        <ele>528.2</ele>
        <time>2022-03-08T10:01:23Z</time>
      </trkpt>
      <trkpt lat="46.73039" lon="5.69634">
        <ele>527</ele>
        <time>2022-03-08T10:01:29Z</time>
      </trkpt>
      <trkpt lat="46.73044" lon="5.69637">
        <ele>526.1</ele>
        <time>2022-03-08T10:01:33Z</time>
      </trkpt>
      <trkpt lat="46.73049" lon="5.69639">
        <ele>525.3</ele>
        <time>2022-03-08T10:01:37Z</time>
      </trkpt>
      <trkpt lat="46.73054" lon="5.69641">
        <ele>524.5</ele>
        <time>2022-03-08T10:01:41Z</time>
      </trkpt>
      <trkpt lat="46.73059" lon="5.69643">
        <ele>523.8</ele>
        <time>2022-03-08T10:01:46Z</time>
      </trkpt>
      <trkpt lat="46.73064" lon="5.69644">
        <ele>524.2</ele>
        <time>2022-03-08T10:01:51Z</time>
      </trkpt>
      <trkpt lat="46.73068" lon="5.69646">
        <ele>524.4</ele>
        <time>2022-03-08T10:01:55Z</time>
      </trkpt>
      <trkpt lat="46.73073" lon="5.69649">
        <ele>525</ele>
        <time>2022-03-08T10:02:00Z</time>
      </trkpt>
      <trkpt lat="46.73078" lon="5.69652">
        <ele>525.3</ele>
        <time>2022-03-08T10:02:05Z</time>
      </trkpt>
      <trkpt lat="46.73082" lon="5.69655">
        <ele>525.5</ele>
        <time>2022-03-08T10:02:09Z</time>
      </trkpt>
      <trkpt lat="46.73088" lon="5.69656">
        <ele>526.1</ele>
        <time>2022-03-08T10:02:14Z</time>
      </trkpt>
      <trkpt lat="46.73093" lon="5.69659">
        <ele>526</ele>
        <time>2022-03-08T10:02:20Z</time>
      </trkpt>
      <trkpt lat="46.73097" lon="5.69662">
        <ele>525.4</ele>
        <time>2022-03-08T10:02:25Z</time>
      </trkpt>
      <trkpt lat="46.73103" lon="5.69663">
        <ele>524.5</ele>
        <time>2022-03-08T10:02:30Z</time>
      </trkpt>
      <trkpt lat="46.73108" lon="5.69664">
        <ele>523.3</ele>
        <time>2022-03-08T10:02:35Z</time>
      </trkpt>
      <trkpt lat="46.73113" lon="5.69664">
        <ele>522.3</ele>
        <time>2022-03-08T10:02:40Z</time>
      </trkpt>
      <trkpt lat="46.73118" lon="5.69664">
        <ele>521.9</ele>
        <time>2022-03-08T10:02:44Z</time>
      </trkpt>
      <trkpt lat="46.73124" lon="5.69663">
        <ele>521.8</ele>
        <time>2022-03-08T10:02:49Z</time>
      </trkpt>
      <trkpt lat="46.73129" lon="5.69663">
        <ele>522</ele>
        <time>2022-03-08T10:02:53Z</time>
      </trkpt>
      <trkpt lat="46.73133" lon="5.69663">
        <ele>522.1</ele>
        <time>2022-03-08T10:02:57Z</time>
      </trkpt>
      <trkpt lat="46.73138" lon="5.69662">
        <ele>521.8</ele>
        <time>2022-03-08T10:03:03Z</time>
      </trkpt>
      <trkpt lat="46.73143" lon="5.69662">
        <ele>522.2</ele>
        <time>2022-03-08T10:03:07Z</time>
      </trkpt>
      <trkpt lat="46.73148" lon="5.6966">
        <ele>522.7</ele>
        <time>2022-03-08T10:03:11Z</time>
      </trkpt>
      <trkpt lat="46.73153" lon="5.69658">
        <ele>522.9</ele>
        <time>2022-03-08T10:03:15Z</time>
      </trkpt>
      <trkpt lat="46.73157" lon="5.69657">
        <ele>522.9</ele>
        <time>2022-03-08T10:03:20Z</time>
      </trkpt>
      <trkpt lat="46.73162" lon="5.69657">
        <ele>523.2</ele>
        <time>2022-03-08T10:03:25Z</time>
      </trkpt>
      <trkpt lat="46.73167" lon="5.69657">
        <ele>523.4</ele>
        <time>2022-03-08T10:03:30Z</time>
      </trkpt>
      <trkpt lat="46.73172" lon="5.69658">
        <ele>523.2</ele>
        <time>2022-03-08T10:03:35Z</time>
      </trkpt>
      <trkpt lat="46.73177" lon="5.69657">
        <ele>522.7</ele>
        <time>2022-03-08T10:03:40Z</time>
      </trkpt>
      <trkpt lat="46.73182" lon="5.69655">
        <ele>522.8</ele>
        <time>2022-03-08T10:03:45Z</time>
      </trkpt>
      <trkpt lat="46.73187" lon="5.69653">
        <ele>523.4</ele>
        <time>2022-03-08T10:03:50Z</time>
      </trkpt>
      <trkpt lat="46.73192" lon="5.69652">
        <ele>524.1</ele>
        <time>2022-03-08T10:03:54Z</time>
      </trkpt>
      <trkpt lat="46.73198" lon="5.69652">
        <ele>524.4</ele>
        <time>2022-03-08T10:03:58Z</time>
      </trkpt>
      <trkpt lat="46.73203" lon="5.69652">
        <ele>524.7</ele>
        <time>2022-03-08T10:04:04Z</time>
      </trkpt>
      <trkpt lat="46.73207" lon="5.69653">
        <ele>524.8</ele>
        <time>2022-03-08T10:04:09Z</time>
      </trkpt>
      <trkpt lat="46.73212" lon="5.69653">
        <ele>524.9</ele>
        <time>2022-03-08T10:04:14Z</time>
      </trkpt>
      <trkpt lat="46.73216" lon="5.69654">
        <ele>525.4</ele>
        <time>2022-03-08T10:04:17Z</time>
      </trkpt>
      <trkpt lat="46.73222" lon="5.69656">
        <ele>526</ele>
        <time>2022-03-08T10:04:22Z</time>
      </trkpt>
      <trkpt lat="46.73227" lon="5.69659">
        <ele>526.6</ele>
        <time>2022-03-08T10:04:26Z</time>
      </trkpt>
      <trkpt lat="46.73232" lon="5.69662">
        <ele>527.6</ele>
        <time>2022-03-08T10:04:31Z</time>
      </trkpt>
      <trkpt lat="46.73236" lon="5.69665">
        <ele>528</ele>
        <time>2022-03-08T10:04:36Z</time>
      </trkpt>
      <trkpt lat="46.7324" lon="5.69667">
        <ele>527.2</ele>
        <time>2022-03-08T10:04:40Z</time>
      </trkpt>
      <trkpt lat="46.73245" lon="5.69669">
        <ele>525.2</ele>
        <time>2022-03-08T10:04:45Z</time>
      </trkpt>
      <trkpt lat="46.7325" lon="5.69671">
        <ele>523.7</ele>
        <time>2022-03-08T10:04:50Z</time>
      </trkpt>
      <trkpt lat="46.73255" lon="5.69671">
        <ele>522.6</ele>
        <time>2022-03-08T10:04:55Z</time>
      </trkpt>
      <trkpt lat="46.7326" lon="5.69671">
        <ele>522</ele>
        <time>2022-03-08T10:05:00Z</time>
      </trkpt>
      <trkpt lat="46.73266" lon="5.69672">
        <ele>522.1</ele>
        <time>2022-03-08T10:05:06Z</time>
      </trkpt>
      <trkpt lat="46.73271" lon="5.69669">
        <ele>522</ele>
        <time>2022-03-08T10:05:11Z</time>
      </trkpt>
      <trkpt lat="46.73275" lon="5.69666">
        <ele>522</ele>
        <time>2022-03-08T10:05:16Z</time>
      </trkpt>
      <trkpt lat="46.7328" lon="5.69661">
        <ele>522.5</ele>
        <time>2022-03-08T10:05:21Z</time>
      </trkpt>
      <trkpt lat="46.73285" lon="5.69658">
        <ele>523.3</ele>
        <time>2022-03-08T10:05:26Z</time>
      </trkpt>
      <trkpt lat="46.7329" lon="5.69657">
        <ele>523.8</ele>
        <time>2022-03-08T10:05:31Z</time>
      </trkpt>
      <trkpt lat="46.73294" lon="5.69654">
        <ele>524.2</ele>
        <time>2022-03-08T10:05:36Z</time>
      </trkpt>
      <trkpt lat="46.73299" lon="5.6965">
        <ele>525.1</ele>
        <time>2022-03-08T10:05:41Z</time>
      </trkpt>
      <trkpt lat="46.73304" lon="5.69648">
        <ele>526.1</ele>
        <time>2022-03-08T10:05:45Z</time>
      </trkpt>
      <trkpt lat="46.73308" lon="5.69648">
        <ele>527.1</ele>
        <time>2022-03-08T10:05:49Z</time>
      </trkpt>
      <trkpt lat="46.73314" lon="5.69649">
        <ele>527.4</ele>
        <time>2022-03-08T10:05:53Z</time>
      </trkpt>
      <trkpt lat="46.73319" lon="5.69652">
        <ele>527.6</ele>
        <time>2022-03-08T10:05:57Z</time>
      </trkpt>
      <trkpt lat="46.73324" lon="5.69653">
        <ele>527.5</ele>
        <time>2022-03-08T10:06:01Z</time>
      </trkpt>
      <trkpt lat="46.73328" lon="5.69657">
        <ele>527.1</ele>
        <time>2022-03-08T10:06:06Z</time>
      </trkpt>
      <trkpt lat="46.73332" lon="5.69661">
        <ele>526.8</ele>
        <time>2022-03-08T10:06:12Z</time>
      </trkpt>
      <trkpt lat="46.73337" lon="5.69664">
        <ele>526.2</ele>
        <time>2022-03-08T10:06:17Z</time>
      </trkpt>
      <trkpt lat="46.73341" lon="5.69669">
        <ele>525.4</ele>
        <time>2022-03-08T10:06:23Z</time>
      </trkpt>
      <trkpt lat="46.73343" lon="5.69675">
        <ele>524.2</ele>
        <time>2022-03-08T10:06:29Z</time>
      </trkpt>
      <trkpt lat="46.73346" lon="5.69681">
        <ele>522.9</ele>
        <time>2022-03-08T10:06:35Z</time>
      </trkpt>
      <trkpt lat="46.73351" lon="5.69683">
        <ele>522.3</ele>
        <time>2022-03-08T10:06:40Z</time>
      </trkpt>
      <trkpt lat="46.73355" lon="5.69687">
        <ele>522.2</ele>
        <time>2022-03-08T10:06:45Z</time>
      </trkpt>
      <trkpt lat="46.73359" lon="5.69691">
        <ele>522.5</ele>
        <time>2022-03-08T10:06:51Z</time>
      </trkpt>
      <trkpt lat="46.73363" lon="5.69694">
        <ele>522.6</ele>
        <time>2022-03-08T10:06:56Z</time>
      </trkpt>
      <trkpt lat="46.73368" lon="5.69698">
        <ele>522.7</ele>
        <time>2022-03-08T10:07:00Z</time>
      </trkpt>
      <trkpt lat="46.73373" lon="5.69699">
        <ele>522.7</ele>
        <time>2022-03-08T10:07:04Z</time>
      </trkpt>
      <trkpt lat="46.73378" lon="5.69701">
        <ele>522.9</ele>
        <time>2022-03-08T10:07:08Z</time>
      </trkpt>
      <trkpt lat="46.73384" lon="5.69703">
        <ele>522.9</ele>
        <time>2022-03-08T10:07:13Z</time>
      </trkpt>
      <trkpt lat="46.73388" lon="5.69706">
        <ele>522.6</ele>
        <time>2022-03-08T10:07:17Z</time>
      </trkpt>
      <trkpt lat="46.73393" lon="5.6971">
        <ele>522.3</ele>
        <time>2022-03-08T10:07:21Z</time>
      </trkpt>
      <trkpt lat="46.73398" lon="5.69713">
        <ele>522</ele>
        <time>2022-03-08T10:07:25Z</time>
      </trkpt>
      <trkpt lat="46.73402" lon="5.69717">
        <ele>522.2</ele>
        <time>2022-03-08T10:07:30Z</time>
      </trkpt>
      <trkpt lat="46.73407" lon="5.69716">
        <ele>522.8</ele>
        <time>2022-03-08T10:07:35Z</time>
      </trkpt>
      <trkpt lat="46.73412" lon="5.6972">
        <ele>523.9</ele>
        <time>2022-03-08T10:07:40Z</time>
      </trkpt>
      <trkpt lat="46.73417" lon="5.69724">
        <ele>525</ele>
        <time>2022-03-08T10:07:45Z</time>
      </trkpt>
      <trkpt lat="46.73421" lon="5.69728">
        <ele>525.8</ele>
        <time>2022-03-08T10:07:49Z</time>
      </trkpt>
      <trkpt lat="46.73424" lon="5.69732">
        <ele>526.3</ele>
        <time>2022-03-08T10:07:54Z</time>
      </trkpt>
      <trkpt lat="46.73429" lon="5.69736">
        <ele>526.3</ele>
        <time>2022-03-08T10:07:59Z</time>
      </trkpt>
      <trkpt lat="46.73433" lon="5.6974">
        <ele>525.9</ele>
        <time>2022-03-08T10:08:04Z</time>
      </trkpt>
      <trkpt lat="46.73438" lon="5.69743">
        <ele>526.1</ele>
        <time>2022-03-08T10:08:10Z</time>
      </trkpt>
      <trkpt lat="46.73442" lon="5.69747">
        <ele>526.5</ele>
        <time>2022-03-08T10:08:16Z</time>
      </trkpt>
      <trkpt lat="46.73446" lon="5.69752">
        <ele>526.3</ele>
        <time>2022-03-08T10:08:22Z</time>
      </trkpt>
      <trkpt lat="46.73451" lon="5.69756">
        <ele>526.3</ele>
        <time>2022-03-08T10:08:28Z</time>
      </trkpt>
      <trkpt lat="46.73456" lon="5.69757">
        <ele>526.3</ele>
        <time>2022-03-08T10:08:32Z</time>
      </trkpt>
      <trkpt lat="46.73461" lon="5.69758">
        <ele>526.6</ele>
        <time>2022-03-08T10:08:37Z</time>
      </trkpt>
      <trkpt lat="46.73464" lon="5.69763">
        <ele>528</ele>
        <time>2022-03-08T10:08:45Z</time>
      </trkpt>
      <trkpt lat="46.73469" lon="5.69767">
        <ele>529.1</ele>
        <time>2022-03-08T10:08:51Z</time>
      </trkpt>
      <trkpt lat="46.73474" lon="5.69769">
        <ele>529.4</ele>
        <time>2022-03-08T10:08:56Z</time>
      </trkpt>
      <trkpt lat="46.73476" lon="5.69775">
        <ele>527.9</ele>
        <time>2022-03-08T10:09:03Z</time>
      </trkpt>
      <trkpt lat="46.73481" lon="5.6978">
        <ele>526.1</ele>
        <time>2022-03-08T10:09:11Z</time>
      </trkpt>
      <trkpt lat="46.73486" lon="5.69783">
        <ele>524.8</ele>
        <time>2022-03-08T10:09:14Z</time>
      </trkpt>
      <trkpt lat="46.73491" lon="5.69785">
        <ele>523.9</ele>
        <time>2022-03-08T10:09:18Z</time>
      </trkpt>
      <trkpt lat="46.73494" lon="5.69792">
        <ele>521.7</ele>
        <time>2022-03-08T10:09:24Z</time>
      </trkpt>
      <trkpt lat="46.73495" lon="5.698">
        <ele>519.3</ele>
        <time>2022-03-08T10:09:29Z</time>
      </trkpt>
      <trkpt lat="46.73499" lon="5.69805">
        <ele>517.9</ele>
        <time>2022-03-08T10:09:34Z</time>
      </trkpt>
      <trkpt lat="46.73502" lon="5.69809">
        <ele>517.6</ele>
        <time>2022-03-08T10:09:39Z</time>
      </trkpt>
      <trkpt lat="46.73503" lon="5.69815">
        <ele>518.2</ele>
        <time>2022-03-08T10:09:44Z</time>
      </trkpt>
      <trkpt lat="46.73502" lon="5.69822">
        <ele>519.8</ele>
        <time>2022-03-08T10:09:49Z</time>
      </trkpt>
      <trkpt lat="46.73503" lon="5.6983">
        <ele>522.3</ele>
        <time>2022-03-08T10:09:54Z</time>
      </trkpt>
      <trkpt lat="46.73505" lon="5.69837">
        <ele>524.1</ele>
        <time>2022-03-08T10:09:59Z</time>
      </trkpt>
      <trkpt lat="46.73506" lon="5.69843">
        <ele>524.9</ele>
        <time>2022-03-08T10:10:03Z</time>
      </trkpt>
      <trkpt lat="46.73507" lon="5.69851">
        <ele>525.2</ele>
        <time>2022-03-08T10:10:07Z</time>
      </trkpt>
      <trkpt lat="46.73506" lon="5.69857">
        <ele>524.5</ele>
        <time>2022-03-08T10:10:12Z</time>
      </trkpt>
      <trkpt lat="46.73506" lon="5.69865">
        <ele>523.5</ele>
        <time>2022-03-08T10:10:17Z</time>
      </trkpt>
      <trkpt lat="46.73508" lon="5.69871">
        <ele>522.9</ele>
        <time>2022-03-08T10:10:22Z</time>
      </trkpt>
      <trkpt lat="46.73509" lon="5.69878">
        <ele>522.2</ele>
        <time>2022-03-08T10:10:28Z</time>
      </trkpt>
      <trkpt lat="46.73509" lon="5.69886">
        <ele>521.7</ele>
        <time>2022-03-08T10:10:34Z</time>
      </trkpt>
      <trkpt lat="46.73512" lon="5.69892">
        <ele>522.7</ele>
        <time>2022-03-08T10:10:40Z</time>
      </trkpt>
      <trkpt lat="46.73509" lon="5.69897">
        <ele>522.4</ele>
        <time>2022-03-08T10:10:52Z</time>
      </trkpt>
      <trkpt lat="46.73508" lon="5.69904">
        <ele>521.2</ele>
        <time>2022-03-08T10:10:59Z</time>
      </trkpt>
      <trkpt lat="46.73508" lon="5.69911">
        <ele>521.6</ele>
        <time>2022-03-08T10:11:03Z</time>
      </trkpt>
      <trkpt lat="46.73505" lon="5.69917">
        <ele>522.6</ele>
        <time>2022-03-08T10:11:09Z</time>
      </trkpt>
      <trkpt lat="46.73502" lon="5.69923">
        <ele>522.5</ele>
        <time>2022-03-08T10:11:16Z</time>
      </trkpt>
      <trkpt lat="46.735" lon="5.69929">
        <ele>522.6</ele>
        <time>2022-03-08T10:11:20Z</time>
      </trkpt>
      <trkpt lat="46.73499" lon="5.69937">
        <ele>522.9</ele>
        <time>2022-03-08T10:11:25Z</time>
      </trkpt>
      <trkpt lat="46.73499" lon="5.69944">
        <ele>523.8</ele>
        <time>2022-03-08T10:11:30Z</time>
      </trkpt>
      <trkpt lat="46.73496" lon="5.69949">
        <ele>524.6</ele>
        <time>2022-03-08T10:11:35Z</time>
      </trkpt>
      <trkpt lat="46.73491" lon="5.69951">
        <ele>524.9</ele>
        <time>2022-03-08T10:11:38Z</time>
      </trkpt>
      <trkpt lat="46.73487" lon="5.69956">
        <ele>525.2</ele>
        <time>2022-03-08T10:11:42Z</time>
      </trkpt>
      <trkpt lat="46.73483" lon="5.69961">
        <ele>525.3</ele>
        <time>2022-03-08T10:11:46Z</time>
      </trkpt>
      <trkpt lat="46.73481" lon="5.69969">
        <ele>525.6</ele>
        <time>2022-03-08T10:11:51Z</time>
      </trkpt>
      <trkpt lat="46.73479" lon="5.69976">
        <ele>525.9</ele>
        <time>2022-03-08T10:11:55Z</time>
      </trkpt>
      <trkpt lat="46.73477" lon="5.69982">
        <ele>526.7</ele>
        <time>2022-03-08T10:12:01Z</time>
      </trkpt>
      <trkpt lat="46.73474" lon="5.69987">
        <ele>526.7</ele>
        <time>2022-03-08T10:12:08Z</time>
      </trkpt>
      <trkpt lat="46.73474" lon="5.69994">
        <ele>526.2</ele>
        <time>2022-03-08T10:12:15Z</time>
      </trkpt>
      <trkpt lat="46.73471" lon="5.69999">
        <ele>525.9</ele>
        <time>2022-03-08T10:12:20Z</time>
      </trkpt>
      <trkpt lat="46.7347" lon="5.70007">
        <ele>525.4</ele>
        <time>2022-03-08T10:12:24Z</time>
      </trkpt>
      <trkpt lat="46.73468" lon="5.70014">
        <ele>524.8</ele>
        <time>2022-03-08T10:12:28Z</time>
      </trkpt>
      <trkpt lat="46.73466" lon="5.70022">
        <ele>525</ele>
        <time>2022-03-08T10:12:31Z</time>
      </trkpt>
      <trkpt lat="46.73465" lon="5.70028">
        <ele>525.3</ele>
        <time>2022-03-08T10:12:34Z</time>
      </trkpt>
      <trkpt lat="46.73464" lon="5.70036">
        <ele>525.8</ele>
        <time>2022-03-08T10:12:38Z</time>
      </trkpt>
      <trkpt lat="46.73463" lon="5.70043">
        <ele>526.7</ele>
        <time>2022-03-08T10:12:43Z</time>
      </trkpt>
      <trkpt lat="46.73459" lon="5.70048">
        <ele>527.3</ele>
        <time>2022-03-08T10:12:47Z</time>
      </trkpt>
      <trkpt lat="46.73455" lon="5.70052">
        <ele>528</ele>
        <time>2022-03-08T10:12:51Z</time>
      </trkpt>
      <trkpt lat="46.7345" lon="5.70055">
        <ele>529.2</ele>
        <time>2022-03-08T10:12:56Z</time>
      </trkpt>
      <trkpt lat="46.73445" lon="5.7006">
        <ele>530.7</ele>
        <time>2022-03-08T10:13:00Z</time>
      </trkpt>
      <trkpt lat="46.73441" lon="5.70066">
        <ele>531.9</ele>
        <time>2022-03-08T10:13:04Z</time>
      </trkpt>
      <trkpt lat="46.73437" lon="5.70072">
        <ele>532.8</ele>
        <time>2022-03-08T10:13:07Z</time>
      </trkpt>
      <trkpt lat="46.73432" lon="5.70071">
        <ele>534.1</ele>
        <time>2022-03-08T10:13:12Z</time>
      </trkpt>
      <trkpt lat="46.73428" lon="5.70073">
        <ele>534.4</ele>
        <time>2022-03-08T10:13:20Z</time>
      </trkpt>
      <trkpt lat="46.73424" lon="5.70078">
        <ele>533.8</ele>
        <time>2022-03-08T10:13:23Z</time>
      </trkpt>
      <trkpt lat="46.73425" lon="5.70086">
        <ele>532.6</ele>
        <time>2022-03-08T10:13:28Z</time>
      </trkpt>
      <trkpt lat="46.73427" lon="5.70093">
        <ele>531.8</ele>
        <time>2022-03-08T10:13:32Z</time>
      </trkpt>
      <trkpt lat="46.73423" lon="5.70097">
        <ele>530.5</ele>
        <time>2022-03-08T10:13:39Z</time>
      </trkpt>
      <trkpt lat="46.7342" lon="5.70103">
        <ele>530.1</ele>
        <time>2022-03-08T10:13:43Z</time>
      </trkpt>
      <trkpt lat="46.73418" lon="5.70108">
        <ele>530.2</ele>
        <time>2022-03-08T10:13:46Z</time>
      </trkpt>
      <trkpt lat="46.73415" lon="5.70114">
        <ele>530.1</ele>
        <time>2022-03-08T10:13:50Z</time>
      </trkpt>
      <trkpt lat="46.73413" lon="5.7012">
        <ele>529.4</ele>
        <time>2022-03-08T10:13:55Z</time>
      </trkpt>
      <trkpt lat="46.73413" lon="5.70127">
        <ele>529.2</ele>
        <time>2022-03-08T10:14:02Z</time>
      </trkpt>
      <trkpt lat="46.73412" lon="5.70135">
        <ele>529.2</ele>
        <time>2022-03-08T10:14:07Z</time>
      </trkpt>
      <trkpt lat="46.7341" lon="5.70142">
        <ele>529</ele>
        <time>2022-03-08T10:14:10Z</time>
      </trkpt>
      <trkpt lat="46.73407" lon="5.7015">
        <ele>528.9</ele>
        <time>2022-03-08T10:14:13Z</time>
      </trkpt>
      <trkpt lat="46.73404" lon="5.70156">
        <ele>528.7</ele>
        <time>2022-03-08T10:14:17Z</time>
      </trkpt>
      <trkpt lat="46.73401" lon="5.70162">
        <ele>528.6</ele>
        <time>2022-03-08T10:14:23Z</time>
      </trkpt>
      <trkpt lat="46.73399" lon="5.7017">
        <ele>527.6</ele>
        <time>2022-03-08T10:14:28Z</time>
      </trkpt>
      <trkpt lat="46.73398" lon="5.70177">
        <ele>527</ele>
        <time>2022-03-08T10:14:32Z</time>
      </trkpt>
      <trkpt lat="46.73396" lon="5.70184">
        <ele>526.6</ele>
        <time>2022-03-08T10:14:37Z</time>
      </trkpt>
      <trkpt lat="46.73394" lon="5.7019">
        <ele>526.5</ele>
        <time>2022-03-08T10:14:42Z</time>
      </trkpt>
      <trkpt lat="46.73392" lon="5.70197">
        <ele>526.4</ele>
        <time>2022-03-08T10:14:47Z</time>
      </trkpt>
      <trkpt lat="46.7339" lon="5.70204">
        <ele>527.1</ele>
        <time>2022-03-08T10:14:53Z</time>
      </trkpt>
      <trkpt lat="46.73389" lon="5.7021">
        <ele>528.1</ele>
        <time>2022-03-08T10:14:59Z</time>
      </trkpt>
      <trkpt lat="46.73387" lon="5.70218">
        <ele>528.2</ele>
        <time>2022-03-08T10:15:03Z</time>
      </trkpt>
      <trkpt lat="46.73385" lon="5.70224">
        <ele>527.9</ele>
        <time>2022-03-08T10:15:07Z</time>
      </trkpt>
      <trkpt lat="46.73381" lon="5.7023">
        <ele>527.5</ele>
        <time>2022-03-08T10:15:12Z</time>
      </trkpt>
      <trkpt lat="46.73379" lon="5.70236">
        <ele>526.9</ele>
        <time>2022-03-08T10:15:16Z</time>
      </trkpt>
      <trkpt lat="46.73377" lon="5.70242">
        <ele>527</ele>
        <time>2022-03-08T10:15:20Z</time>
      </trkpt>
      <trkpt lat="46.73375" lon="5.70249">
        <ele>526.9</ele>
        <time>2022-03-08T10:15:24Z</time>
      </trkpt>
      <trkpt lat="46.73374" lon="5.70256">
        <ele>526.7</ele>
        <time>2022-03-08T10:15:29Z</time>
      </trkpt>
      <trkpt lat="46.73372" lon="5.70263">
        <ele>526.4</ele>
        <time>2022-03-08T10:15:33Z</time>
      </trkpt>
      <trkpt lat="46.7337" lon="5.7027">
        <ele>525.4</ele>
        <time>2022-03-08T10:15:38Z</time>
      </trkpt>
      <trkpt lat="46.73368" lon="5.70277">
        <ele>525</ele>
        <time>2022-03-08T10:15:45Z</time>
      </trkpt>
      <trkpt lat="46.73365" lon="5.70284">
        <ele>523.9</ele>
        <time>2022-03-08T10:15:50Z</time>
      </trkpt>
      <trkpt lat="46.73363" lon="5.70291">
        <ele>523.5</ele>
        <time>2022-03-08T10:15:54Z</time>
      </trkpt>
      <trkpt lat="46.73361" lon="5.70299">
        <ele>523.2</ele>
        <time>2022-03-08T10:15:58Z</time>
      </trkpt>
      <trkpt lat="46.73361" lon="5.70306">
        <ele>523.1</ele>
        <time>2022-03-08T10:16:03Z</time>
      </trkpt>
      <trkpt lat="46.7336" lon="5.70313">
        <ele>523.8</ele>
        <time>2022-03-08T10:16:09Z</time>
      </trkpt>
      <trkpt lat="46.73359" lon="5.70321">
        <ele>523.4</ele>
        <time>2022-03-08T10:16:14Z</time>
      </trkpt>
      <trkpt lat="46.73359" lon="5.70328">
        <ele>521.8</ele>
        <time>2022-03-08T10:16:19Z</time>
      </trkpt>
      <trkpt lat="46.73357" lon="5.70335">
        <ele>520.3</ele>
        <time>2022-03-08T10:16:24Z</time>
      </trkpt>
      <trkpt lat="46.73355" lon="5.70342">
        <ele>519.7</ele>
        <time>2022-03-08T10:16:28Z</time>
      </trkpt>
      <trkpt lat="46.73354" lon="5.70349">
        <ele>519.5</ele>
        <time>2022-03-08T10:16:32Z</time>
      </trkpt>
      <trkpt lat="46.73354" lon="5.70356">
        <ele>519.6</ele>
        <time>2022-03-08T10:16:37Z</time>
      </trkpt>
      <trkpt lat="46.73353" lon="5.70363">
        <ele>519.6</ele>
        <time>2022-03-08T10:16:41Z</time>
      </trkpt>
      <trkpt lat="46.73352" lon="5.7037">
        <ele>519.5</ele>
        <time>2022-03-08T10:16:46Z</time>
      </trkpt>
      <trkpt lat="46.73351" lon="5.70377">
        <ele>519.9</ele>
        <time>2022-03-08T10:16:51Z</time>
      </trkpt>
      <trkpt lat="46.73349" lon="5.70383">
        <ele>520.7</ele>
        <time>2022-03-08T10:16:55Z</time>
      </trkpt>
      <trkpt lat="46.73347" lon="5.7039">
        <ele>521.8</ele>
        <time>2022-03-08T10:16:59Z</time>
      </trkpt>
      <trkpt lat="46.73346" lon="5.70397">
        <ele>522.7</ele>
        <time>2022-03-08T10:17:03Z</time>
      </trkpt>
      <trkpt lat="46.73346" lon="5.70405">
        <ele>523.4</ele>
        <time>2022-03-08T10:17:08Z</time>
      </trkpt>
      <trkpt lat="46.73344" lon="5.70412">
        <ele>523.6</ele>
        <time>2022-03-08T10:17:14Z</time>
      </trkpt>
      <trkpt lat="46.73343" lon="5.70419">
        <ele>523.9</ele>
        <time>2022-03-08T10:17:19Z</time>
      </trkpt>
      <trkpt lat="46.73342" lon="5.70426">
        <ele>523.8</ele>
        <time>2022-03-08T10:17:23Z</time>
      </trkpt>
      <trkpt lat="46.7334" lon="5.70432">
        <ele>523.5</ele>
        <time>2022-03-08T10:17:27Z</time>
      </trkpt>
      <trkpt lat="46.73339" lon="5.70439">
        <ele>523.3</ele>
        <time>2022-03-08T10:17:31Z</time>
      </trkpt>
      <trkpt lat="46.73338" lon="5.70446">
        <ele>523.2</ele>
        <time>2022-03-08T10:17:36Z</time>
      </trkpt>
      <trkpt lat="46.73336" lon="5.70453">
        <ele>523.1</ele>
        <time>2022-03-08T10:17:41Z</time>
      </trkpt>
      <trkpt lat="46.73335" lon="5.7046">
        <ele>523.1</ele>
        <time>2022-03-08T10:17:46Z</time>
      </trkpt>
      <trkpt lat="46.73333" lon="5.70467">
        <ele>523.1</ele>
        <time>2022-03-08T10:17:51Z</time>
      </trkpt>
      <trkpt lat="46.73332" lon="5.70474">
        <ele>522.7</ele>
        <time>2022-03-08T10:17:56Z</time>
      </trkpt>
      <trkpt lat="46.73331" lon="5.70481">
        <ele>522.4</ele>
        <time>2022-03-08T10:18:00Z</time>
      </trkpt>
      <trkpt lat="46.73329" lon="5.70489">
        <ele>521.9</ele>
        <time>2022-03-08T10:18:05Z</time>
      </trkpt>
      <trkpt lat="46.73328" lon="5.70496">
        <ele>521.5</ele>
        <time>2022-03-08T10:18:09Z</time>
      </trkpt>
      <trkpt lat="46.73326" lon="5.70504">
        <ele>521.6</ele>
        <time>2022-03-08T10:18:14Z</time>
      </trkpt>
      <trkpt lat="46.73324" lon="5.70511">
        <ele>522.4</ele>
        <time>2022-03-08T10:18:19Z</time>
      </trkpt>
      <trkpt lat="46.73323" lon="5.70517">
        <ele>522.7</ele>
        <time>2022-03-08T10:18:24Z</time>
      </trkpt>
      <trkpt lat="46.73321" lon="5.70523">
        <ele>522.5</ele>
        <time>2022-03-08T10:18:30Z</time>
      </trkpt>
      <trkpt lat="46.73319" lon="5.70531">
        <ele>522.6</ele>
        <time>2022-03-08T10:18:35Z</time>
      </trkpt>
      <trkpt lat="46.73318" lon="5.70537">
        <ele>523.2</ele>
        <time>2022-03-08T10:18:38Z</time>
      </trkpt>
      <trkpt lat="46.73315" lon="5.70543">
        <ele>524</ele>
        <time>2022-03-08T10:18:42Z</time>
      </trkpt>
      <trkpt lat="46.73313" lon="5.70549">
        <ele>524.9</ele>
        <time>2022-03-08T10:18:47Z</time>
      </trkpt>
      <trkpt lat="46.73312" lon="5.70557">
        <ele>525.2</ele>
        <time>2022-03-08T10:18:52Z</time>
      </trkpt>
      <trkpt lat="46.7331" lon="5.70564">
        <ele>524.6</ele>
        <time>2022-03-08T10:18:57Z</time>
      </trkpt>
      <trkpt lat="46.73309" lon="5.70571">
        <ele>523.6</ele>
        <time>2022-03-08T10:19:02Z</time>
      </trkpt>
      <trkpt lat="46.73307" lon="5.70577">
        <ele>523.1</ele>
        <time>2022-03-08T10:19:06Z</time>
      </trkpt>
      <trkpt lat="46.73305" lon="5.70584">
        <ele>522.6</ele>
        <time>2022-03-08T10:19:11Z</time>
      </trkpt>
      <trkpt lat="46.73304" lon="5.70591">
        <ele>522.2</ele>
        <time>2022-03-08T10:19:15Z</time>
      </trkpt>
      <trkpt lat="46.73302" lon="5.70598">
        <ele>522.7</ele>
        <time>2022-03-08T10:19:20Z</time>
      </trkpt>
      <trkpt lat="46.73302" lon="5.70605">
        <ele>523.4</ele>
        <time>2022-03-08T10:19:25Z</time>
      </trkpt>
      <trkpt lat="46.73301" lon="5.70612">
        <ele>523.4</ele>
        <time>2022-03-08T10:19:29Z</time>
      </trkpt>
      <trkpt lat="46.733" lon="5.70619">
        <ele>523.4</ele>
        <time>2022-03-08T10:19:33Z</time>
      </trkpt>
      <trkpt lat="46.733" lon="5.70626">
        <ele>523.1</ele>
        <time>2022-03-08T10:19:37Z</time>
      </trkpt>
      <trkpt lat="46.73299" lon="5.70633">
        <ele>522.8</ele>
        <time>2022-03-08T10:19:41Z</time>
      </trkpt>
      <trkpt lat="46.73298" lon="5.7064">
        <ele>522.4</ele>
        <time>2022-03-08T10:19:47Z</time>
      </trkpt>
      <trkpt lat="46.73299" lon="5.70648">
        <ele>521.5</ele>
        <time>2022-03-08T10:19:53Z</time>
      </trkpt>
      <trkpt lat="46.73299" lon="5.70656">
        <ele>521.2</ele>
        <time>2022-03-08T10:19:58Z</time>
      </trkpt>
      <trkpt lat="46.733" lon="5.70663">
        <ele>522.1</ele>
        <time>2022-03-08T10:20:03Z</time>
      </trkpt>
      <trkpt lat="46.73302" lon="5.70669">
        <ele>523.2</ele>
        <time>2022-03-08T10:20:07Z</time>
      </trkpt>
      <trkpt lat="46.73304" lon="5.70677">
        <ele>524.3</ele>
        <time>2022-03-08T10:20:11Z</time>
      </trkpt>
      <trkpt lat="46.73306" lon="5.70683">
        <ele>525.3</ele>
        <time>2022-03-08T10:20:15Z</time>
      </trkpt>
      <trkpt lat="46.73309" lon="5.70689">
        <ele>526</ele>
        <time>2022-03-08T10:20:20Z</time>
      </trkpt>
      <trkpt lat="46.73312" lon="5.70696">
        <ele>526</ele>
        <time>2022-03-08T10:20:25Z</time>
      </trkpt>
      <trkpt lat="46.73312" lon="5.70704">
        <ele>525.4</ele>
        <time>2022-03-08T10:20:30Z</time>
      </trkpt>
      <trkpt lat="46.73307" lon="5.70707">
        <ele>525</ele>
        <time>2022-03-08T10:20:36Z</time>
      </trkpt>
      <trkpt lat="46.73303" lon="5.7071">
        <ele>524.8</ele>
        <time>2022-03-08T10:20:40Z</time>
      </trkpt>
      <trkpt lat="46.73298" lon="5.70714">
        <ele>525</ele>
        <time>2022-03-08T10:20:46Z</time>
      </trkpt>
      <trkpt lat="46.73295" lon="5.70719">
        <ele>525.4</ele>
        <time>2022-03-08T10:20:52Z</time>
      </trkpt>
      <trkpt lat="46.73291" lon="5.70724">
        <ele>525.8</ele>
        <time>2022-03-08T10:20:57Z</time>
      </trkpt>
      <trkpt lat="46.73287" lon="5.70728">
        <ele>525.8</ele>
        <time>2022-03-08T10:21:02Z</time>
      </trkpt>
      <trkpt lat="46.73284" lon="5.70734">
        <ele>526.1</ele>
        <time>2022-03-08T10:21:06Z</time>
      </trkpt>
      <trkpt lat="46.7328" lon="5.70737">
        <ele>526.6</ele>
        <time>2022-03-08T10:21:11Z</time>
      </trkpt>
      <trkpt lat="46.73276" lon="5.70742">
        <ele>526.4</ele>
        <time>2022-03-08T10:21:17Z</time>
      </trkpt>
      <trkpt lat="46.73272" lon="5.70745">
        <ele>525.4</ele>
        <time>2022-03-08T10:21:23Z</time>
      </trkpt>
      <trkpt lat="46.73268" lon="5.70751">
        <ele>524.6</ele>
        <time>2022-03-08T10:21:28Z</time>
      </trkpt>
      <trkpt lat="46.73265" lon="5.70755">
        <ele>524.2</ele>
        <time>2022-03-08T10:21:32Z</time>
      </trkpt>
      <trkpt lat="46.7326" lon="5.7076">
        <ele>524.7</ele>
        <time>2022-03-08T10:21:37Z</time>
      </trkpt>
      <trkpt lat="46.73257" lon="5.70764">
        <ele>525.1</ele>
        <time>2022-03-08T10:21:42Z</time>
      </trkpt>
      <trkpt lat="46.73252" lon="5.70768">
        <ele>525.6</ele>
        <time>2022-03-08T10:21:48Z</time>
      </trkpt>
      <trkpt lat="46.73249" lon="5.70773">
        <ele>525.9</ele>
        <time>2022-03-08T10:21:54Z</time>
      </trkpt>
      <trkpt lat="46.73245" lon="5.70778">
        <ele>526.3</ele>
        <time>2022-03-08T10:22:00Z</time>
      </trkpt>
      <trkpt lat="46.73244" lon="5.70785">
        <ele>526.2</ele>
        <time>2022-03-08T10:22:05Z</time>
      </trkpt>
      <trkpt lat="46.73245" lon="5.70792">
        <ele>525.5</ele>
        <time>2022-03-08T10:22:09Z</time>
      </trkpt>
      <trkpt lat="46.73247" lon="5.70799">
        <ele>524.4</ele>
        <time>2022-03-08T10:22:14Z</time>
      </trkpt>
      <trkpt lat="46.73243" lon="5.70804">
        <ele>524.6</ele>
        <time>2022-03-08T10:22:28Z</time>
      </trkpt>
      <trkpt lat="46.73239" lon="5.70809">
        <ele>524.7</ele>
        <time>2022-03-08T10:22:33Z</time>
      </trkpt>
      <trkpt lat="46.73235" lon="5.70813">
        <ele>524.1</ele>
        <time>2022-03-08T10:22:46Z</time>
      </trkpt>
      <trkpt lat="46.73239" lon="5.70817">
        <ele>523</ele>
        <time>2022-03-08T10:23:14Z</time>
      </trkpt>
      <trkpt lat="46.73244" lon="5.70816">
        <ele>523.4</ele>
        <time>2022-03-08T10:23:19Z</time>
      </trkpt>
      <trkpt lat="46.73249" lon="5.70817">
        <ele>523.4</ele>
        <time>2022-03-08T10:23:24Z</time>
      </trkpt>
      <trkpt lat="46.73253" lon="5.70819">
        <ele>523.2</ele>
        <time>2022-03-08T10:23:29Z</time>
      </trkpt>
      <trkpt lat="46.73257" lon="5.70825">
        <ele>522.9</ele>
        <time>2022-03-08T10:23:34Z</time>
      </trkpt>
      <trkpt lat="46.7326" lon="5.7083">
        <ele>522.7</ele>
        <time>2022-03-08T10:23:40Z</time>
      </trkpt>
      <trkpt lat="46.73264" lon="5.70835">
        <ele>522.7</ele>
        <time>2022-03-08T10:23:46Z</time>
      </trkpt>
      <trkpt lat="46.73268" lon="5.70841">
        <ele>523.3</ele>
        <time>2022-03-08T10:23:51Z</time>
      </trkpt>
      <trkpt lat="46.73272" lon="5.70845">
        <ele>524.3</ele>
        <time>2022-03-08T10:23:56Z</time>
      </trkpt>
      <trkpt lat="46.73276" lon="5.7085">
        <ele>525.7</ele>
        <time>2022-03-08T10:24:02Z</time>
      </trkpt>
      <trkpt lat="46.73279" lon="5.70856">
        <ele>526.6</ele>
        <time>2022-03-08T10:24:08Z</time>
      </trkpt>
      <trkpt lat="46.73283" lon="5.70861">
        <ele>526.3</ele>
        <time>2022-03-08T10:24:13Z</time>
      </trkpt>
      <trkpt lat="46.73286" lon="5.70867">
        <ele>526</ele>
        <time>2022-03-08T10:24:18Z</time>
      </trkpt>
      <trkpt lat="46.73289" lon="5.70873">
        <ele>526.1</ele>
        <time>2022-03-08T10:24:24Z</time>
      </trkpt>
      <trkpt lat="46.73291" lon="5.70879">
        <ele>526.2</ele>
        <time>2022-03-08T10:24:29Z</time>
      </trkpt>
      <trkpt lat="46.73295" lon="5.70884">
        <ele>526.2</ele>
        <time>2022-03-08T10:24:34Z</time>
      </trkpt>
      <trkpt lat="46.73299" lon="5.7089">
        <ele>526.4</ele>
        <time>2022-03-08T10:24:39Z</time>
      </trkpt>
      <trkpt lat="46.73303" lon="5.70895">
        <ele>526.6</ele>
        <time>2022-03-08T10:24:46Z</time>
      </trkpt>
      <trkpt lat="46.73306" lon="5.709">
        <ele>526.7</ele>
        <time>2022-03-08T10:24:52Z</time>
      </trkpt>
      <trkpt lat="46.73308" lon="5.70906">
        <ele>526.4</ele>
        <time>2022-03-08T10:24:58Z</time>
      </trkpt>
      <trkpt lat="46.73309" lon="5.70912">
        <ele>524.7</ele>
        <time>2022-03-08T10:25:09Z</time>
      </trkpt>
      <trkpt lat="46.73313" lon="5.70918">
        <ele>525</ele>
        <time>2022-03-08T10:25:18Z</time>
      </trkpt>
      <trkpt lat="46.73315" lon="5.70923">
        <ele>526.1</ele>
        <time>2022-03-08T10:25:34Z</time>
      </trkpt>
      <trkpt lat="46.73318" lon="5.70928">
        <ele>526.7</ele>
        <time>2022-03-08T10:25:39Z</time>
      </trkpt>
      <trkpt lat="46.73321" lon="5.70933">
        <ele>526.8</ele>
        <time>2022-03-08T10:25:44Z</time>
      </trkpt>
      <trkpt lat="46.73323" lon="5.70939">
        <ele>526.4</ele>
        <time>2022-03-08T10:25:50Z</time>
      </trkpt>
      <trkpt lat="46.73327" lon="5.70944">
        <ele>525.8</ele>
        <time>2022-03-08T10:25:56Z</time>
      </trkpt>
      <trkpt lat="46.7333" lon="5.70938">
        <ele>525.8</ele>
        <time>2022-03-08T10:26:08Z</time>
      </trkpt>
      <trkpt lat="46.73331" lon="5.70931">
        <ele>525.7</ele>
        <time>2022-03-08T10:26:13Z</time>
      </trkpt>
      <trkpt lat="46.73332" lon="5.70924">
        <ele>526.1</ele>
        <time>2022-03-08T10:26:18Z</time>
      </trkpt>
      <trkpt lat="46.73334" lon="5.70917">
        <ele>526.5</ele>
        <time>2022-03-08T10:26:24Z</time>
      </trkpt>
      <trkpt lat="46.73336" lon="5.70911">
        <ele>526.4</ele>
        <time>2022-03-08T10:26:29Z</time>
      </trkpt>
      <trkpt lat="46.73339" lon="5.70905">
        <ele>525.3</ele>
        <time>2022-03-08T10:26:34Z</time>
      </trkpt>
      <trkpt lat="46.7334" lon="5.70899">
        <ele>524.5</ele>
        <time>2022-03-08T10:26:39Z</time>
      </trkpt>
      <trkpt lat="46.73343" lon="5.70892">
        <ele>524.4</ele>
        <time>2022-03-08T10:26:44Z</time>
      </trkpt>
      <trkpt lat="46.73345" lon="5.70886">
        <ele>525</ele>
        <time>2022-03-08T10:26:49Z</time>
      </trkpt>
      <trkpt lat="46.73347" lon="5.70879">
        <ele>525.9</ele>
        <time>2022-03-08T10:26:53Z</time>
      </trkpt>
      <trkpt lat="46.73348" lon="5.70873">
        <ele>526.7</ele>
        <time>2022-03-08T10:26:58Z</time>
      </trkpt>
      <trkpt lat="46.7335" lon="5.70867">
        <ele>527.2</ele>
        <time>2022-03-08T10:27:03Z</time>
      </trkpt>
      <trkpt lat="46.7335" lon="5.70859">
        <ele>527.6</ele>
        <time>2022-03-08T10:27:08Z</time>
      </trkpt>
      <trkpt lat="46.73351" lon="5.70852">
        <ele>528.1</ele>
        <time>2022-03-08T10:27:14Z</time>
      </trkpt>
      <trkpt lat="46.73352" lon="5.70846">
        <ele>528.2</ele>
        <time>2022-03-08T10:27:19Z</time>
      </trkpt>
      <trkpt lat="46.73353" lon="5.70839">
        <ele>528.1</ele>
        <time>2022-03-08T10:27:25Z</time>
      </trkpt>
      <trkpt lat="46.73354" lon="5.70832">
        <ele>528.5</ele>
        <time>2022-03-08T10:27:35Z</time>
      </trkpt>
      <trkpt lat="46.73359" lon="5.70831">
        <ele>529.1</ele>
        <time>2022-03-08T10:28:01Z</time>
      </trkpt>
      <trkpt lat="46.73358" lon="5.70837">
        <ele>528.9</ele>
        <time>2022-03-08T10:28:05Z</time>
      </trkpt>
      <trkpt lat="46.73362" lon="5.70837">
        <ele>528</ele>
        <time>2022-03-08T10:28:19Z</time>
      </trkpt>
      <trkpt lat="46.73364" lon="5.7083">
        <ele>528.1</ele>
        <time>2022-03-08T10:28:53Z</time>
      </trkpt>
      <trkpt lat="46.7336" lon="5.70825">
        <ele>528.3</ele>
        <time>2022-03-08T10:28:56Z</time>
      </trkpt>
      <trkpt lat="46.73365" lon="5.70826">
        <ele>529.1</ele>
        <time>2022-03-08T10:29:05Z</time>
      </trkpt>
      <trkpt lat="46.73363" lon="5.70819">
        <ele>528.7</ele>
        <time>2022-03-08T10:29:13Z</time>
      </trkpt>
      <trkpt lat="46.73361" lon="5.70813">
        <ele>527.2</ele>
        <time>2022-03-08T10:29:19Z</time>
      </trkpt>
      <trkpt lat="46.73356" lon="5.70813">
        <ele>525.7</ele>
        <time>2022-03-08T10:29:26Z</time>
      </trkpt>
      <trkpt lat="46.73351" lon="5.70815">
        <ele>525.6</ele>
        <time>2022-03-08T10:29:30Z</time>
      </trkpt>
      <trkpt lat="46.7335" lon="5.70822">
        <ele>525.9</ele>
        <time>2022-03-08T10:29:37Z</time>
      </trkpt>
      <trkpt lat="46.73353" lon="5.70827">
        <ele>524.1</ele>
        <time>2022-03-08T10:30:46Z</time>
      </trkpt>
      <trkpt lat="46.73356" lon="5.70823">
        <ele>524.8</ele>
        <time>2022-03-08T10:33:01Z</time>
      </trkpt>
      <trkpt lat="46.73298" lon="5.70793">
        <ele>437.1</ele>
        <time>2022-03-08T10:43:54Z</time>
      </trkpt>
      <trkpt lat="46.73341" lon="5.7078">
        <ele>453</ele>
        <time>2022-03-08T10:43:57Z</time>
      </trkpt>
      <trkpt lat="46.7336" lon="5.70774">
        <ele>460.9</ele>
        <time>2022-03-08T10:44:00Z</time>
      </trkpt>
      <trkpt lat="46.73364" lon="5.70773">
        <ele>467.3</ele>
        <time>2022-03-08T10:44:04Z</time>
      </trkpt>
      <trkpt lat="46.73362" lon="5.70788">
        <ele>483</ele>
        <time>2022-03-08T10:44:11Z</time>
      </trkpt>
      <trkpt lat="46.7336" lon="5.70799">
        <ele>491.7</ele>
        <time>2022-03-08T10:44:14Z</time>
      </trkpt>
      <trkpt lat="46.7336" lon="5.70809">
        <ele>513.9</ele>
        <time>2022-03-08T10:45:05Z</time>
      </trkpt>
      <trkpt lat="46.7336" lon="5.70808">
        <ele>519.6</ele>
        <time>2022-03-08T11:03:25Z</time>
      </trkpt>
      <trkpt lat="46.73357" lon="5.70815">
        <ele>520.3</ele>
        <time>2022-03-08T11:03:28Z</time>
      </trkpt>
      <trkpt lat="46.73352" lon="5.70816">
        <ele>519.4</ele>
        <time>2022-03-08T11:05:32Z</time>
      </trkpt>
      <trkpt lat="46.73349" lon="5.70827">
        <ele>522.3</ele>
        <time>2022-03-08T11:08:31Z</time>
      </trkpt>
      <trkpt lat="46.73354" lon="5.70826">
        <ele>522.6</ele>
        <time>2022-03-08T11:08:37Z</time>
      </trkpt>
      <trkpt lat="46.73356" lon="5.70819">
        <ele>522.8</ele>
        <time>2022-03-08T11:08:43Z</time>
      </trkpt>
      <trkpt lat="46.73357" lon="5.70826">
        <ele>521.4</ele>
        <time>2022-03-08T11:10:12Z</time>
      </trkpt>
      <trkpt lat="46.7336" lon="5.70832">
        <ele>520.4</ele>
        <time>2022-03-08T11:10:17Z</time>
      </trkpt>
      <trkpt lat="46.73364" lon="5.70835">
        <ele>520.1</ele>
        <time>2022-03-08T11:10:22Z</time>
      </trkpt>
      <trkpt lat="46.73369" lon="5.70835">
        <ele>520.3</ele>
        <time>2022-03-08T11:10:29Z</time>
      </trkpt>
      <trkpt lat="46.73374" lon="5.70835">
        <ele>521.1</ele>
        <time>2022-03-08T11:10:34Z</time>
      </trkpt>
      <trkpt lat="46.73378" lon="5.70836">
        <ele>521.5</ele>
        <time>2022-03-08T11:10:39Z</time>
      </trkpt>
      <trkpt lat="46.73383" lon="5.70838">
        <ele>522</ele>
        <time>2022-03-08T11:10:44Z</time>
      </trkpt>
      <trkpt lat="46.73387" lon="5.70842">
        <ele>522.4</ele>
        <time>2022-03-08T11:10:50Z</time>
      </trkpt>
      <trkpt lat="46.7339" lon="5.70847">
        <ele>522.7</ele>
        <time>2022-03-08T11:10:56Z</time>
      </trkpt>
      <trkpt lat="46.73393" lon="5.70853">
        <ele>522.8</ele>
        <time>2022-03-08T11:11:02Z</time>
      </trkpt>
      <trkpt lat="46.73396" lon="5.70858">
        <ele>523.2</ele>
        <time>2022-03-08T11:11:07Z</time>
      </trkpt>
      <trkpt lat="46.734" lon="5.70863">
        <ele>523.5</ele>
        <time>2022-03-08T11:11:13Z</time>
      </trkpt>
      <trkpt lat="46.73403" lon="5.70868">
        <ele>523.1</ele>
        <time>2022-03-08T11:11:17Z</time>
      </trkpt>
      <trkpt lat="46.73407" lon="5.70875">
        <ele>523</ele>
        <time>2022-03-08T11:11:22Z</time>
      </trkpt>
      <trkpt lat="46.73409" lon="5.70881">
        <ele>522.6</ele>
        <time>2022-03-08T11:11:27Z</time>
      </trkpt>
      <trkpt lat="46.73412" lon="5.70888">
        <ele>522.2</ele>
        <time>2022-03-08T11:11:32Z</time>
      </trkpt>
      <trkpt lat="46.73414" lon="5.70894">
        <ele>521.8</ele>
        <time>2022-03-08T11:11:38Z</time>
      </trkpt>
      <trkpt lat="46.73417" lon="5.709">
        <ele>521.9</ele>
        <time>2022-03-08T11:11:44Z</time>
      </trkpt>
      <trkpt lat="46.73418" lon="5.70907">
        <ele>522.8</ele>
        <time>2022-03-08T11:11:50Z</time>
      </trkpt>
      <trkpt lat="46.7342" lon="5.70913">
        <ele>524.1</ele>
        <time>2022-03-08T11:11:54Z</time>
      </trkpt>
      <trkpt lat="46.73421" lon="5.70921">
        <ele>525.3</ele>
        <time>2022-03-08T11:12:00Z</time>
      </trkpt>
      <trkpt lat="46.73423" lon="5.70928">
        <ele>526.2</ele>
        <time>2022-03-08T11:12:06Z</time>
      </trkpt>
      <trkpt lat="46.73425" lon="5.70933">
        <ele>526.2</ele>
        <time>2022-03-08T11:12:10Z</time>
      </trkpt>
      <trkpt lat="46.73427" lon="5.7094">
        <ele>526.1</ele>
        <time>2022-03-08T11:12:15Z</time>
      </trkpt>
      <trkpt lat="46.73429" lon="5.70946">
        <ele>526.1</ele>
        <time>2022-03-08T11:12:19Z</time>
      </trkpt>
      <trkpt lat="46.73431" lon="5.70952">
        <ele>526.3</ele>
        <time>2022-03-08T11:12:23Z</time>
      </trkpt>
      <trkpt lat="46.73433" lon="5.70958">
        <ele>526.4</ele>
        <time>2022-03-08T11:12:27Z</time>
      </trkpt>
      <trkpt lat="46.73434" lon="5.70965">
        <ele>525.8</ele>
        <time>2022-03-08T11:12:32Z</time>
      </trkpt>
      <trkpt lat="46.73436" lon="5.70972">
        <ele>524.6</ele>
        <time>2022-03-08T11:12:38Z</time>
      </trkpt>
      <trkpt lat="46.73439" lon="5.70978">
        <ele>524</ele>
        <time>2022-03-08T11:12:42Z</time>
      </trkpt>
      <trkpt lat="46.73441" lon="5.70984">
        <ele>523.3</ele>
        <time>2022-03-08T11:12:46Z</time>
      </trkpt>
      <trkpt lat="46.73443" lon="5.70992">
        <ele>522.6</ele>
        <time>2022-03-08T11:12:51Z</time>
      </trkpt>
      <trkpt lat="46.73443" lon="5.70999">
        <ele>522.1</ele>
        <time>2022-03-08T11:12:56Z</time>
      </trkpt>
      <trkpt lat="46.73445" lon="5.71005">
        <ele>522.2</ele>
        <time>2022-03-08T11:13:01Z</time>
      </trkpt>
      <trkpt lat="46.73447" lon="5.71012">
        <ele>523.1</ele>
        <time>2022-03-08T11:13:07Z</time>
      </trkpt>
      <trkpt lat="46.73449" lon="5.71019">
        <ele>523.7</ele>
        <time>2022-03-08T11:13:12Z</time>
      </trkpt>
      <trkpt lat="46.7345" lon="5.71026">
        <ele>524.3</ele>
        <time>2022-03-08T11:13:16Z</time>
      </trkpt>
      <trkpt lat="46.73452" lon="5.71032">
        <ele>524.7</ele>
        <time>2022-03-08T11:13:20Z</time>
      </trkpt>
      <trkpt lat="46.73455" lon="5.71037">
        <ele>524.9</ele>
        <time>2022-03-08T11:13:25Z</time>
      </trkpt>
      <trkpt lat="46.73458" lon="5.71043">
        <ele>525.4</ele>
        <time>2022-03-08T11:13:30Z</time>
      </trkpt>
      <trkpt lat="46.73461" lon="5.71049">
        <ele>526.2</ele>
        <time>2022-03-08T11:13:35Z</time>
      </trkpt>
      <trkpt lat="46.73464" lon="5.71054">
        <ele>527</ele>
        <time>2022-03-08T11:13:40Z</time>
      </trkpt>
      <trkpt lat="46.73467" lon="5.71059">
        <ele>527.3</ele>
        <time>2022-03-08T11:13:46Z</time>
      </trkpt>
      <trkpt lat="46.73471" lon="5.71064">
        <ele>527.4</ele>
        <time>2022-03-08T11:13:52Z</time>
      </trkpt>
      <trkpt lat="46.73475" lon="5.71068">
        <ele>526.9</ele>
        <time>2022-03-08T11:13:59Z</time>
      </trkpt>
      <trkpt lat="46.73477" lon="5.71074">
        <ele>526.8</ele>
        <time>2022-03-08T11:14:04Z</time>
      </trkpt>
      <trkpt lat="46.73481" lon="5.71079">
        <ele>528.2</ele>
        <time>2022-03-08T11:14:10Z</time>
      </trkpt>
      <trkpt lat="46.73485" lon="5.71083">
        <ele>529.2</ele>
        <time>2022-03-08T11:14:17Z</time>
      </trkpt>
      <trkpt lat="46.73489" lon="5.71087">
        <ele>529.3</ele>
        <time>2022-03-08T11:14:23Z</time>
      </trkpt>
      <trkpt lat="46.73493" lon="5.71092">
        <ele>527.9</ele>
        <time>2022-03-08T11:14:31Z</time>
      </trkpt>
      <trkpt lat="46.73496" lon="5.71096">
        <ele>527.1</ele>
        <time>2022-03-08T11:14:36Z</time>
      </trkpt>
      <trkpt lat="46.73499" lon="5.71102">
        <ele>526.9</ele>
        <time>2022-03-08T11:14:43Z</time>
      </trkpt>
      <trkpt lat="46.73504" lon="5.71106">
        <ele>527.6</ele>
        <time>2022-03-08T11:14:48Z</time>
      </trkpt>
      <trkpt lat="46.73507" lon="5.71111">
        <ele>528.1</ele>
        <time>2022-03-08T11:14:53Z</time>
      </trkpt>
      <trkpt lat="46.73511" lon="5.71115">
        <ele>529.2</ele>
        <time>2022-03-08T11:14:58Z</time>
      </trkpt>
      <trkpt lat="46.73515" lon="5.71119">
        <ele>530.6</ele>
        <time>2022-03-08T11:15:04Z</time>
      </trkpt>
      <trkpt lat="46.73519" lon="5.71124">
        <ele>530.9</ele>
        <time>2022-03-08T11:15:09Z</time>
      </trkpt>
      <trkpt lat="46.73522" lon="5.71128">
        <ele>530.8</ele>
        <time>2022-03-08T11:15:14Z</time>
      </trkpt>
      <trkpt lat="46.73526" lon="5.71133">
        <ele>530.3</ele>
        <time>2022-03-08T11:15:19Z</time>
      </trkpt>
      <trkpt lat="46.73529" lon="5.71138">
        <ele>529.5</ele>
        <time>2022-03-08T11:15:26Z</time>
      </trkpt>
      <trkpt lat="46.73533" lon="5.71143">
        <ele>529.1</ele>
        <time>2022-03-08T11:15:31Z</time>
      </trkpt>
      <trkpt lat="46.73537" lon="5.71147">
        <ele>528.7</ele>
        <time>2022-03-08T11:15:36Z</time>
      </trkpt>
      <trkpt lat="46.73542" lon="5.71151">
        <ele>528.3</ele>
        <time>2022-03-08T11:15:41Z</time>
      </trkpt>
      <trkpt lat="46.73546" lon="5.71156">
        <ele>528</ele>
        <time>2022-03-08T11:15:47Z</time>
      </trkpt>
      <trkpt lat="46.73549" lon="5.71162">
        <ele>527.6</ele>
        <time>2022-03-08T11:15:53Z</time>
      </trkpt>
      <trkpt lat="46.73553" lon="5.71168">
        <ele>527.4</ele>
        <time>2022-03-08T11:15:58Z</time>
      </trkpt>
      <trkpt lat="46.73555" lon="5.71173">
        <ele>527.2</ele>
        <time>2022-03-08T11:16:03Z</time>
      </trkpt>
      <trkpt lat="46.73557" lon="5.7118">
        <ele>527.3</ele>
        <time>2022-03-08T11:16:10Z</time>
      </trkpt>
      <trkpt lat="46.73559" lon="5.71187">
        <ele>526.9</ele>
        <time>2022-03-08T11:16:15Z</time>
      </trkpt>
      <trkpt lat="46.73561" lon="5.71194">
        <ele>526.1</ele>
        <time>2022-03-08T11:16:20Z</time>
      </trkpt>
      <trkpt lat="46.73561" lon="5.71202">
        <ele>525.2</ele>
        <time>2022-03-08T11:16:26Z</time>
      </trkpt>
      <trkpt lat="46.73561" lon="5.71209">
        <ele>524.4</ele>
        <time>2022-03-08T11:16:32Z</time>
      </trkpt>
      <trkpt lat="46.73562" lon="5.71216">
        <ele>523.7</ele>
        <time>2022-03-08T11:16:37Z</time>
      </trkpt>
      <trkpt lat="46.73562" lon="5.71223">
        <ele>523.1</ele>
        <time>2022-03-08T11:16:42Z</time>
      </trkpt>
      <trkpt lat="46.73562" lon="5.7123">
        <ele>523</ele>
        <time>2022-03-08T11:16:47Z</time>
      </trkpt>
      <trkpt lat="46.73563" lon="5.71238">
        <ele>522.9</ele>
        <time>2022-03-08T11:16:52Z</time>
      </trkpt>
      <trkpt lat="46.73563" lon="5.71244">
        <ele>522.9</ele>
        <time>2022-03-08T11:16:56Z</time>
      </trkpt>
      <trkpt lat="46.73563" lon="5.71251">
        <ele>523.1</ele>
        <time>2022-03-08T11:17:01Z</time>
      </trkpt>
      <trkpt lat="46.73563" lon="5.71259">
        <ele>523.3</ele>
        <time>2022-03-08T11:17:06Z</time>
      </trkpt>
      <trkpt lat="46.73564" lon="5.71265">
        <ele>523.5</ele>
        <time>2022-03-08T11:17:10Z</time>
      </trkpt>
      <trkpt lat="46.73565" lon="5.71273">
        <ele>524.1</ele>
        <time>2022-03-08T11:17:15Z</time>
      </trkpt>
      <trkpt lat="46.73566" lon="5.7128">
        <ele>524.6</ele>
        <time>2022-03-08T11:17:19Z</time>
      </trkpt>
      <trkpt lat="46.73567" lon="5.71287">
        <ele>525.5</ele>
        <time>2022-03-08T11:17:24Z</time>
      </trkpt>
      <trkpt lat="46.73567" lon="5.71294">
        <ele>526.1</ele>
        <time>2022-03-08T11:17:29Z</time>
      </trkpt>
      <trkpt lat="46.73567" lon="5.71302">
        <ele>526.5</ele>
        <time>2022-03-08T11:17:34Z</time>
      </trkpt>
      <trkpt lat="46.73568" lon="5.71309">
        <ele>526.9</ele>
        <time>2022-03-08T11:17:39Z</time>
      </trkpt>
      <trkpt lat="46.73568" lon="5.71316">
        <ele>527.6</ele>
        <time>2022-03-08T11:17:44Z</time>
      </trkpt>
      <trkpt lat="46.73568" lon="5.71324">
        <ele>528.3</ele>
        <time>2022-03-08T11:17:49Z</time>
      </trkpt>
      <trkpt lat="46.73568" lon="5.71332">
        <ele>528.5</ele>
        <time>2022-03-08T11:17:54Z</time>
      </trkpt>
      <trkpt lat="46.73569" lon="5.71339">
        <ele>528.5</ele>
        <time>2022-03-08T11:17:59Z</time>
      </trkpt>
      <trkpt lat="46.73569" lon="5.71346">
        <ele>528</ele>
        <time>2022-03-08T11:18:03Z</time>
      </trkpt>
      <trkpt lat="46.7357" lon="5.71354">
        <ele>527.5</ele>
        <time>2022-03-08T11:18:08Z</time>
      </trkpt>
      <trkpt lat="46.7357" lon="5.71361">
        <ele>527.1</ele>
        <time>2022-03-08T11:18:13Z</time>
      </trkpt>
      <trkpt lat="46.73571" lon="5.71369">
        <ele>527.4</ele>
        <time>2022-03-08T11:18:19Z</time>
      </trkpt>
      <trkpt lat="46.73572" lon="5.71376">
        <ele>528</ele>
        <time>2022-03-08T11:18:24Z</time>
      </trkpt>
      <trkpt lat="46.73573" lon="5.71383">
        <ele>528.3</ele>
        <time>2022-03-08T11:18:28Z</time>
      </trkpt>
      <trkpt lat="46.73573" lon="5.71391">
        <ele>528.5</ele>
        <time>2022-03-08T11:18:33Z</time>
      </trkpt>
      <trkpt lat="46.73573" lon="5.71398">
        <ele>528.7</ele>
        <time>2022-03-08T11:18:37Z</time>
      </trkpt>
      <trkpt lat="46.73574" lon="5.71405">
        <ele>528.7</ele>
        <time>2022-03-08T11:18:42Z</time>
      </trkpt>
      <trkpt lat="46.73573" lon="5.71411">
        <ele>528.9</ele>
        <time>2022-03-08T11:18:47Z</time>
      </trkpt>
      <trkpt lat="46.73574" lon="5.71418">
        <ele>528.3</ele>
        <time>2022-03-08T11:18:52Z</time>
      </trkpt>
      <trkpt lat="46.73574" lon="5.71425">
        <ele>528</ele>
        <time>2022-03-08T11:18:56Z</time>
      </trkpt>
      <trkpt lat="46.73574" lon="5.71432">
        <ele>527</ele>
        <time>2022-03-08T11:19:01Z</time>
      </trkpt>
      <trkpt lat="46.73575" lon="5.7144">
        <ele>526.3</ele>
        <time>2022-03-08T11:19:06Z</time>
      </trkpt>
      <trkpt lat="46.73575" lon="5.71446">
        <ele>526</ele>
        <time>2022-03-08T11:19:10Z</time>
      </trkpt>
      <trkpt lat="46.73575" lon="5.71453">
        <ele>526.1</ele>
        <time>2022-03-08T11:19:14Z</time>
      </trkpt>
      <trkpt lat="46.73576" lon="5.7146">
        <ele>526.2</ele>
        <time>2022-03-08T11:19:18Z</time>
      </trkpt>
      <trkpt lat="46.73575" lon="5.71467">
        <ele>526.3</ele>
        <time>2022-03-08T11:19:23Z</time>
      </trkpt>
      <trkpt lat="46.73574" lon="5.71475">
        <ele>526.3</ele>
        <time>2022-03-08T11:19:29Z</time>
      </trkpt>
      <trkpt lat="46.73574" lon="5.71482">
        <ele>526.8</ele>
        <time>2022-03-08T11:19:34Z</time>
      </trkpt>
      <trkpt lat="46.73574" lon="5.71488">
        <ele>527</ele>
        <time>2022-03-08T11:19:38Z</time>
      </trkpt>
      <trkpt lat="46.73573" lon="5.71495">
        <ele>527</ele>
        <time>2022-03-08T11:19:42Z</time>
      </trkpt>
      <trkpt lat="46.73573" lon="5.71502">
        <ele>527</ele>
        <time>2022-03-08T11:19:46Z</time>
      </trkpt>
      <trkpt lat="46.73573" lon="5.71508">
        <ele>527</ele>
        <time>2022-03-08T11:19:50Z</time>
      </trkpt>
      <trkpt lat="46.73572" lon="5.71516">
        <ele>526.3</ele>
        <time>2022-03-08T11:19:55Z</time>
      </trkpt>
      <trkpt lat="46.7357" lon="5.71523">
        <ele>525.6</ele>
        <time>2022-03-08T11:19:59Z</time>
      </trkpt>
      <trkpt lat="46.73568" lon="5.7153">
        <ele>525.1</ele>
        <time>2022-03-08T11:20:04Z</time>
      </trkpt>
      <trkpt lat="46.73567" lon="5.71536">
        <ele>524.7</ele>
        <time>2022-03-08T11:20:09Z</time>
      </trkpt>
      <trkpt lat="46.73566" lon="5.71543">
        <ele>524.4</ele>
        <time>2022-03-08T11:20:13Z</time>
      </trkpt>
      <trkpt lat="46.73565" lon="5.7155">
        <ele>523.9</ele>
        <time>2022-03-08T11:20:17Z</time>
      </trkpt>
      <trkpt lat="46.73565" lon="5.71556">
        <ele>523.8</ele>
        <time>2022-03-08T11:20:21Z</time>
      </trkpt>
      <trkpt lat="46.73565" lon="5.71564">
        <ele>524</ele>
        <time>2022-03-08T11:20:26Z</time>
      </trkpt>
      <trkpt lat="46.73564" lon="5.71571">
        <ele>524.2</ele>
        <time>2022-03-08T11:20:31Z</time>
      </trkpt>
      <trkpt lat="46.73563" lon="5.71579">
        <ele>524.5</ele>
        <time>2022-03-08T11:20:36Z</time>
      </trkpt>
      <trkpt lat="46.73562" lon="5.71586">
        <ele>524.7</ele>
        <time>2022-03-08T11:20:41Z</time>
      </trkpt>
      <trkpt lat="46.7356" lon="5.71594">
        <ele>524.8</ele>
        <time>2022-03-08T11:20:46Z</time>
      </trkpt>
      <trkpt lat="46.73559" lon="5.71601">
        <ele>524.4</ele>
        <time>2022-03-08T11:20:50Z</time>
      </trkpt>
      <trkpt lat="46.73557" lon="5.71607">
        <ele>524.1</ele>
        <time>2022-03-08T11:20:54Z</time>
      </trkpt>
      <trkpt lat="46.73556" lon="5.71614">
        <ele>523.7</ele>
        <time>2022-03-08T11:20:59Z</time>
      </trkpt>
      <trkpt lat="46.73555" lon="5.71621">
        <ele>523.3</ele>
        <time>2022-03-08T11:21:03Z</time>
      </trkpt>
      <trkpt lat="46.73554" lon="5.71628">
        <ele>523.4</ele>
        <time>2022-03-08T11:21:08Z</time>
      </trkpt>
      <trkpt lat="46.73553" lon="5.71636">
        <ele>523.2</ele>
        <time>2022-03-08T11:21:13Z</time>
      </trkpt>
      <trkpt lat="46.73552" lon="5.71642">
        <ele>523.2</ele>
        <time>2022-03-08T11:21:17Z</time>
      </trkpt>
      <trkpt lat="46.73551" lon="5.7165">
        <ele>523.4</ele>
        <time>2022-03-08T11:21:21Z</time>
      </trkpt>
      <trkpt lat="46.7355" lon="5.71658">
        <ele>523.8</ele>
        <time>2022-03-08T11:21:25Z</time>
      </trkpt>
      <trkpt lat="46.73549" lon="5.71665">
        <ele>524.5</ele>
        <time>2022-03-08T11:21:30Z</time>
      </trkpt>
      <trkpt lat="46.73548" lon="5.71671">
        <ele>525.3</ele>
        <time>2022-03-08T11:21:35Z</time>
      </trkpt>
      <trkpt lat="46.73547" lon="5.71679">
        <ele>525.5</ele>
        <time>2022-03-08T11:21:40Z</time>
      </trkpt>
      <trkpt lat="46.73546" lon="5.71687">
        <ele>525.5</ele>
        <time>2022-03-08T11:21:45Z</time>
      </trkpt>
      <trkpt lat="46.73545" lon="5.71693">
        <ele>525.8</ele>
        <time>2022-03-08T11:21:49Z</time>
      </trkpt>
      <trkpt lat="46.73544" lon="5.71701">
        <ele>526.6</ele>
        <time>2022-03-08T11:21:54Z</time>
      </trkpt>
      <trkpt lat="46.73543" lon="5.71708">
        <ele>527.3</ele>
        <time>2022-03-08T11:21:59Z</time>
      </trkpt>
      <trkpt lat="46.73542" lon="5.71715">
        <ele>527.7</ele>
        <time>2022-03-08T11:22:04Z</time>
      </trkpt>
      <trkpt lat="46.73541" lon="5.71722">
        <ele>528.2</ele>
        <time>2022-03-08T11:22:08Z</time>
      </trkpt>
      <trkpt lat="46.7354" lon="5.7173">
        <ele>528.8</ele>
        <time>2022-03-08T11:22:13Z</time>
      </trkpt>
      <trkpt lat="46.73539" lon="5.71737">
        <ele>528.8</ele>
        <time>2022-03-08T11:22:18Z</time>
      </trkpt>
      <trkpt lat="46.73536" lon="5.71744">
        <ele>528.6</ele>
        <time>2022-03-08T11:22:23Z</time>
      </trkpt>
      <trkpt lat="46.73535" lon="5.71751">
        <ele>528.3</ele>
        <time>2022-03-08T11:22:28Z</time>
      </trkpt>
      <trkpt lat="46.73533" lon="5.71758">
        <ele>528</ele>
        <time>2022-03-08T11:22:33Z</time>
      </trkpt>
      <trkpt lat="46.73531" lon="5.71764">
        <ele>528</ele>
        <time>2022-03-08T11:22:37Z</time>
      </trkpt>
      <trkpt lat="46.7353" lon="5.71771">
        <ele>528.3</ele>
        <time>2022-03-08T11:22:41Z</time>
      </trkpt>
      <trkpt lat="46.73529" lon="5.71778">
        <ele>528.7</ele>
        <time>2022-03-08T11:22:45Z</time>
      </trkpt>
      <trkpt lat="46.73528" lon="5.71784">
        <ele>528.8</ele>
        <time>2022-03-08T11:22:49Z</time>
      </trkpt>
      <trkpt lat="46.73526" lon="5.71792">
        <ele>528.4</ele>
        <time>2022-03-08T11:22:54Z</time>
      </trkpt>
      <trkpt lat="46.73525" lon="5.71798">
        <ele>528.2</ele>
        <time>2022-03-08T11:22:58Z</time>
      </trkpt>
      <trkpt lat="46.73523" lon="5.71805">
        <ele>528</ele>
        <time>2022-03-08T11:23:03Z</time>
      </trkpt>
      <trkpt lat="46.73522" lon="5.71811">
        <ele>528.3</ele>
        <time>2022-03-08T11:23:08Z</time>
      </trkpt>
      <trkpt lat="46.73519" lon="5.71818">
        <ele>528.7</ele>
        <time>2022-03-08T11:23:13Z</time>
      </trkpt>
      <trkpt lat="46.73518" lon="5.71825">
        <ele>528.6</ele>
        <time>2022-03-08T11:23:19Z</time>
      </trkpt>
      <trkpt lat="46.73515" lon="5.71833">
        <ele>528.8</ele>
        <time>2022-03-08T11:23:24Z</time>
      </trkpt>
      <trkpt lat="46.73513" lon="5.71839">
        <ele>529.2</ele>
        <time>2022-03-08T11:23:28Z</time>
      </trkpt>
      <trkpt lat="46.73511" lon="5.71845">
        <ele>529.5</ele>
        <time>2022-03-08T11:23:32Z</time>
      </trkpt>
      <trkpt lat="46.7351" lon="5.71851">
        <ele>530.1</ele>
        <time>2022-03-08T11:23:36Z</time>
      </trkpt>
      <trkpt lat="46.73508" lon="5.71857">
        <ele>531</ele>
        <time>2022-03-08T11:23:41Z</time>
      </trkpt>
      <trkpt lat="46.73505" lon="5.71864">
        <ele>530.7</ele>
        <time>2022-03-08T11:23:46Z</time>
      </trkpt>
      <trkpt lat="46.73504" lon="5.7187">
        <ele>530.5</ele>
        <time>2022-03-08T11:23:50Z</time>
      </trkpt>
      <trkpt lat="46.73502" lon="5.71876">
        <ele>530</ele>
        <time>2022-03-08T11:23:54Z</time>
      </trkpt>
      <trkpt lat="46.735" lon="5.71884">
        <ele>529.6</ele>
        <time>2022-03-08T11:23:58Z</time>
      </trkpt>
      <trkpt lat="46.73498" lon="5.71889">
        <ele>529.7</ele>
        <time>2022-03-08T11:24:02Z</time>
      </trkpt>
      <trkpt lat="46.73495" lon="5.71895">
        <ele>530.1</ele>
        <time>2022-03-08T11:24:07Z</time>
      </trkpt>
      <trkpt lat="46.73492" lon="5.71901">
        <ele>529.9</ele>
        <time>2022-03-08T11:24:12Z</time>
      </trkpt>
      <trkpt lat="46.73489" lon="5.71907">
        <ele>529.6</ele>
        <time>2022-03-08T11:24:17Z</time>
      </trkpt>
      <trkpt lat="46.73486" lon="5.71913">
        <ele>529.2</ele>
        <time>2022-03-08T11:24:23Z</time>
      </trkpt>
      <trkpt lat="46.73483" lon="5.71918">
        <ele>528.8</ele>
        <time>2022-03-08T11:24:27Z</time>
      </trkpt>
      <trkpt lat="46.7348" lon="5.71924">
        <ele>528.5</ele>
        <time>2022-03-08T11:24:32Z</time>
      </trkpt>
      <trkpt lat="46.73477" lon="5.7193">
        <ele>528.4</ele>
        <time>2022-03-08T11:24:37Z</time>
      </trkpt>
      <trkpt lat="46.73474" lon="5.71937">
        <ele>528.6</ele>
        <time>2022-03-08T11:24:41Z</time>
      </trkpt>
      <trkpt lat="46.73472" lon="5.71944">
        <ele>529.6</ele>
        <time>2022-03-08T11:24:45Z</time>
      </trkpt>
      <trkpt lat="46.73469" lon="5.71949">
        <ele>530.7</ele>
        <time>2022-03-08T11:24:51Z</time>
      </trkpt>
      <trkpt lat="46.73467" lon="5.71955">
        <ele>531.2</ele>
        <time>2022-03-08T11:24:55Z</time>
      </trkpt>
      <trkpt lat="46.73465" lon="5.71963">
        <ele>532</ele>
        <time>2022-03-08T11:24:59Z</time>
      </trkpt>
      <trkpt lat="46.73463" lon="5.71969">
        <ele>533.2</ele>
        <time>2022-03-08T11:25:03Z</time>
      </trkpt>
      <trkpt lat="46.7346" lon="5.71975">
        <ele>533.2</ele>
        <time>2022-03-08T11:25:08Z</time>
      </trkpt>
      <trkpt lat="46.73458" lon="5.71983">
        <ele>532.9</ele>
        <time>2022-03-08T11:25:13Z</time>
      </trkpt>
      <trkpt lat="46.73456" lon="5.7199">
        <ele>532.6</ele>
        <time>2022-03-08T11:25:17Z</time>
      </trkpt>
      <trkpt lat="46.73455" lon="5.71997">
        <ele>532</ele>
        <time>2022-03-08T11:25:21Z</time>
      </trkpt>
      <trkpt lat="46.73455" lon="5.72004">
        <ele>531.1</ele>
        <time>2022-03-08T11:25:25Z</time>
      </trkpt>
      <trkpt lat="46.73453" lon="5.72011">
        <ele>530.3</ele>
        <time>2022-03-08T11:25:30Z</time>
      </trkpt>
      <trkpt lat="46.73452" lon="5.72019">
        <ele>530.3</ele>
        <time>2022-03-08T11:25:35Z</time>
      </trkpt>
      <trkpt lat="46.7345" lon="5.72026">
        <ele>530.4</ele>
        <time>2022-03-08T11:25:40Z</time>
      </trkpt>
      <trkpt lat="46.73449" lon="5.72033">
        <ele>530.4</ele>
        <time>2022-03-08T11:25:45Z</time>
      </trkpt>
      <trkpt lat="46.73447" lon="5.7204">
        <ele>530.7</ele>
        <time>2022-03-08T11:25:50Z</time>
      </trkpt>
      <trkpt lat="46.73445" lon="5.72047">
        <ele>530.7</ele>
        <time>2022-03-08T11:25:55Z</time>
      </trkpt>
      <trkpt lat="46.73443" lon="5.72053">
        <ele>530.1</ele>
        <time>2022-03-08T11:26:00Z</time>
      </trkpt>
      <trkpt lat="46.73443" lon="5.7206">
        <ele>529.7</ele>
        <time>2022-03-08T11:26:04Z</time>
      </trkpt>
      <trkpt lat="46.73442" lon="5.72067">
        <ele>529.8</ele>
        <time>2022-03-08T11:26:08Z</time>
      </trkpt>
      <trkpt lat="46.73441" lon="5.72073">
        <ele>530.1</ele>
        <time>2022-03-08T11:26:12Z</time>
      </trkpt>
      <trkpt lat="46.73439" lon="5.72081">
        <ele>530.6</ele>
        <time>2022-03-08T11:26:17Z</time>
      </trkpt>
      <trkpt lat="46.73438" lon="5.72088">
        <ele>530.8</ele>
        <time>2022-03-08T11:26:21Z</time>
      </trkpt>
      <trkpt lat="46.73438" lon="5.72095">
        <ele>531</ele>
        <time>2022-03-08T11:26:25Z</time>
      </trkpt>
      <trkpt lat="46.73437" lon="5.72102">
        <ele>531</ele>
        <time>2022-03-08T11:26:29Z</time>
      </trkpt>
      <trkpt lat="46.73436" lon="5.72109">
        <ele>531.1</ele>
        <time>2022-03-08T11:26:33Z</time>
      </trkpt>
      <trkpt lat="46.73435" lon="5.72116">
        <ele>531.1</ele>
        <time>2022-03-08T11:26:37Z</time>
      </trkpt>
      <trkpt lat="46.73434" lon="5.72123">
        <ele>531.2</ele>
        <time>2022-03-08T11:26:42Z</time>
      </trkpt>
      <trkpt lat="46.73433" lon="5.72131">
        <ele>531.5</ele>
        <time>2022-03-08T11:26:46Z</time>
      </trkpt>
      <trkpt lat="46.73432" lon="5.72138">
        <ele>531.7</ele>
        <time>2022-03-08T11:26:50Z</time>
      </trkpt>
      <trkpt lat="46.7343" lon="5.72145">
        <ele>531.6</ele>
        <time>2022-03-08T11:26:55Z</time>
      </trkpt>
      <trkpt lat="46.73428" lon="5.72152">
        <ele>531.4</ele>
        <time>2022-03-08T11:27:00Z</time>
      </trkpt>
      <trkpt lat="46.73427" lon="5.7216">
        <ele>531.2</ele>
        <time>2022-03-08T11:27:05Z</time>
      </trkpt>
      <trkpt lat="46.73426" lon="5.72167">
        <ele>530.1</ele>
        <time>2022-03-08T11:27:10Z</time>
      </trkpt>
      <trkpt lat="46.73426" lon="5.72174">
        <ele>529.1</ele>
        <time>2022-03-08T11:27:15Z</time>
      </trkpt>
      <trkpt lat="46.73424" lon="5.72181">
        <ele>527.9</ele>
        <time>2022-03-08T11:27:20Z</time>
      </trkpt>
      <trkpt lat="46.73422" lon="5.72188">
        <ele>527.2</ele>
        <time>2022-03-08T11:27:25Z</time>
      </trkpt>
      <trkpt lat="46.73421" lon="5.72197">
        <ele>527.1</ele>
        <time>2022-03-08T11:27:30Z</time>
      </trkpt>
      <trkpt lat="46.7342" lon="5.72204">
        <ele>527.2</ele>
        <time>2022-03-08T11:27:34Z</time>
      </trkpt>
      <trkpt lat="46.73419" lon="5.72211">
        <ele>527.4</ele>
        <time>2022-03-08T11:27:38Z</time>
      </trkpt>
      <trkpt lat="46.73419" lon="5.72218">
        <ele>527.8</ele>
        <time>2022-03-08T11:27:42Z</time>
      </trkpt>
      <trkpt lat="46.7342" lon="5.72225">
        <ele>528.3</ele>
        <time>2022-03-08T11:27:46Z</time>
      </trkpt>
      <trkpt lat="46.73421" lon="5.72233">
        <ele>528.8</ele>
        <time>2022-03-08T11:27:50Z</time>
      </trkpt>
      <trkpt lat="46.7342" lon="5.7224">
        <ele>529.2</ele>
        <time>2022-03-08T11:27:54Z</time>
      </trkpt>
      <trkpt lat="46.73418" lon="5.72248">
        <ele>529</ele>
        <time>2022-03-08T11:27:58Z</time>
      </trkpt>
      <trkpt lat="46.73417" lon="5.72254">
        <ele>528.9</ele>
        <time>2022-03-08T11:28:02Z</time>
      </trkpt>
      <trkpt lat="46.73417" lon="5.72261">
        <ele>529.1</ele>
        <time>2022-03-08T11:28:07Z</time>
      </trkpt>
      <trkpt lat="46.73417" lon="5.72269">
        <ele>529.3</ele>
        <time>2022-03-08T11:28:12Z</time>
      </trkpt>
      <trkpt lat="46.73417" lon="5.72276">
        <ele>529.6</ele>
        <time>2022-03-08T11:28:17Z</time>
      </trkpt>
      <trkpt lat="46.73416" lon="5.72282">
        <ele>529.6</ele>
        <time>2022-03-08T11:28:21Z</time>
      </trkpt>
      <trkpt lat="46.73415" lon="5.72289">
        <ele>529.1</ele>
        <time>2022-03-08T11:28:25Z</time>
      </trkpt>
      <trkpt lat="46.73415" lon="5.72297">
        <ele>528.3</ele>
        <time>2022-03-08T11:28:30Z</time>
      </trkpt>
      <trkpt lat="46.73415" lon="5.72304">
        <ele>527.9</ele>
        <time>2022-03-08T11:28:34Z</time>
      </trkpt>
      <trkpt lat="46.73413" lon="5.72311">
        <ele>527.9</ele>
        <time>2022-03-08T11:28:38Z</time>
      </trkpt>
      <trkpt lat="46.73413" lon="5.7232">
        <ele>528.3</ele>
        <time>2022-03-08T11:28:42Z</time>
      </trkpt>
      <trkpt lat="46.73412" lon="5.72327">
        <ele>528.7</ele>
        <time>2022-03-08T11:28:46Z</time>
      </trkpt>
      <trkpt lat="46.73412" lon="5.72334">
        <ele>529</ele>
        <time>2022-03-08T11:28:50Z</time>
      </trkpt>
      <trkpt lat="46.73411" lon="5.72341">
        <ele>529.4</ele>
        <time>2022-03-08T11:28:55Z</time>
      </trkpt>
      <trkpt lat="46.7341" lon="5.72348">
        <ele>530.3</ele>
        <time>2022-03-08T11:29:00Z</time>
      </trkpt>
      <trkpt lat="46.73409" lon="5.72355">
        <ele>531.2</ele>
        <time>2022-03-08T11:29:04Z</time>
      </trkpt>
      <trkpt lat="46.73407" lon="5.72362">
        <ele>532.2</ele>
        <time>2022-03-08T11:29:08Z</time>
      </trkpt>
      <trkpt lat="46.73405" lon="5.7237">
        <ele>533.2</ele>
        <time>2022-03-08T11:29:13Z</time>
      </trkpt>
      <trkpt lat="46.73404" lon="5.72376">
        <ele>533.9</ele>
        <time>2022-03-08T11:29:17Z</time>
      </trkpt>
      <trkpt lat="46.73403" lon="5.72384">
        <ele>534.4</ele>
        <time>2022-03-08T11:29:22Z</time>
      </trkpt>
      <trkpt lat="46.73402" lon="5.72391">
        <ele>534.2</ele>
        <time>2022-03-08T11:29:28Z</time>
      </trkpt>
      <trkpt lat="46.73399" lon="5.72398">
        <ele>533.7</ele>
        <time>2022-03-08T11:29:33Z</time>
      </trkpt>
      <trkpt lat="46.73397" lon="5.72405">
        <ele>532.8</ele>
        <time>2022-03-08T11:29:38Z</time>
      </trkpt>
      <trkpt lat="46.73395" lon="5.72412">
        <ele>531.6</ele>
        <time>2022-03-08T11:29:43Z</time>
      </trkpt>
      <trkpt lat="46.73392" lon="5.72419">
        <ele>530.5</ele>
        <time>2022-03-08T11:29:48Z</time>
      </trkpt>
      <trkpt lat="46.7339" lon="5.72426">
        <ele>529.7</ele>
        <time>2022-03-08T11:29:53Z</time>
      </trkpt>
      <trkpt lat="46.73388" lon="5.72433">
        <ele>529.6</ele>
        <time>2022-03-08T11:29:58Z</time>
      </trkpt>
      <trkpt lat="46.73386" lon="5.72439">
        <ele>529.5</ele>
        <time>2022-03-08T11:30:02Z</time>
      </trkpt>
      <trkpt lat="46.73383" lon="5.72445">
        <ele>529.7</ele>
        <time>2022-03-08T11:30:07Z</time>
      </trkpt>
      <trkpt lat="46.7338" lon="5.72451">
        <ele>530.1</ele>
        <time>2022-03-08T11:30:11Z</time>
      </trkpt>
      <trkpt lat="46.73378" lon="5.72457">
        <ele>530.3</ele>
        <time>2022-03-08T11:30:15Z</time>
      </trkpt>
      <trkpt lat="46.73377" lon="5.72465">
        <ele>530.2</ele>
        <time>2022-03-08T11:30:20Z</time>
      </trkpt>
      <trkpt lat="46.73374" lon="5.7247">
        <ele>530.3</ele>
        <time>2022-03-08T11:30:24Z</time>
      </trkpt>
      <trkpt lat="46.73371" lon="5.72477">
        <ele>530.2</ele>
        <time>2022-03-08T11:30:29Z</time>
      </trkpt>
      <trkpt lat="46.73368" lon="5.72483">
        <ele>530.2</ele>
        <time>2022-03-08T11:30:34Z</time>
      </trkpt>
      <trkpt lat="46.73366" lon="5.7249">
        <ele>530</ele>
        <time>2022-03-08T11:30:39Z</time>
      </trkpt>
      <trkpt lat="46.73364" lon="5.72497">
        <ele>529.9</ele>
        <time>2022-03-08T11:30:43Z</time>
      </trkpt>
      <trkpt lat="46.73363" lon="5.72504">
        <ele>530.2</ele>
        <time>2022-03-08T11:30:47Z</time>
      </trkpt>
      <trkpt lat="46.73361" lon="5.72511">
        <ele>530.4</ele>
        <time>2022-03-08T11:30:52Z</time>
      </trkpt>
      <trkpt lat="46.73358" lon="5.72518">
        <ele>530.8</ele>
        <time>2022-03-08T11:30:57Z</time>
      </trkpt>
      <trkpt lat="46.73356" lon="5.72525">
        <ele>531.2</ele>
        <time>2022-03-08T11:31:01Z</time>
      </trkpt>
      <trkpt lat="46.73353" lon="5.72531">
        <ele>531.7</ele>
        <time>2022-03-08T11:31:05Z</time>
      </trkpt>
      <trkpt lat="46.73351" lon="5.72537">
        <ele>532.3</ele>
        <time>2022-03-08T11:31:09Z</time>
      </trkpt>
      <trkpt lat="46.7335" lon="5.72545">
        <ele>533.4</ele>
        <time>2022-03-08T11:31:14Z</time>
      </trkpt>
      <trkpt lat="46.73348" lon="5.72552">
        <ele>534.1</ele>
        <time>2022-03-08T11:31:18Z</time>
      </trkpt>
      <trkpt lat="46.73346" lon="5.72557">
        <ele>534.5</ele>
        <time>2022-03-08T11:31:22Z</time>
      </trkpt>
      <trkpt lat="46.73343" lon="5.72562">
        <ele>534.6</ele>
        <time>2022-03-08T11:31:26Z</time>
      </trkpt>
      <trkpt lat="46.7334" lon="5.72569">
        <ele>534.7</ele>
        <time>2022-03-08T11:31:30Z</time>
      </trkpt>
      <trkpt lat="46.73338" lon="5.72576">
        <ele>534.7</ele>
        <time>2022-03-08T11:31:34Z</time>
      </trkpt>
      <trkpt lat="46.73336" lon="5.72584">
        <ele>534.2</ele>
        <time>2022-03-08T11:31:39Z</time>
      </trkpt>
      <trkpt lat="46.73334" lon="5.72591">
        <ele>533.8</ele>
        <time>2022-03-08T11:31:43Z</time>
      </trkpt>
      <trkpt lat="46.73331" lon="5.72597">
        <ele>533</ele>
        <time>2022-03-08T11:31:49Z</time>
      </trkpt>
      <trkpt lat="46.73328" lon="5.72603">
        <ele>532.2</ele>
        <time>2022-03-08T11:31:54Z</time>
      </trkpt>
      <trkpt lat="46.73325" lon="5.72608">
        <ele>531.8</ele>
        <time>2022-03-08T11:31:58Z</time>
      </trkpt>
      <trkpt lat="46.73323" lon="5.72615">
        <ele>531.5</ele>
        <time>2022-03-08T11:32:03Z</time>
      </trkpt>
      <trkpt lat="46.7332" lon="5.72622">
        <ele>531.1</ele>
        <time>2022-03-08T11:32:08Z</time>
      </trkpt>
      <trkpt lat="46.73318" lon="5.72628">
        <ele>531.1</ele>
        <time>2022-03-08T11:32:13Z</time>
      </trkpt>
      <trkpt lat="46.73316" lon="5.72634">
        <ele>530.9</ele>
        <time>2022-03-08T11:32:17Z</time>
      </trkpt>
      <trkpt lat="46.73314" lon="5.72641">
        <ele>530.9</ele>
        <time>2022-03-08T11:32:22Z</time>
      </trkpt>
      <trkpt lat="46.73312" lon="5.72647">
        <ele>530.9</ele>
        <time>2022-03-08T11:32:26Z</time>
      </trkpt>
      <trkpt lat="46.73309" lon="5.72653">
        <ele>531</ele>
        <time>2022-03-08T11:32:30Z</time>
      </trkpt>
      <trkpt lat="46.73307" lon="5.72659">
        <ele>531.2</ele>
        <time>2022-03-08T11:32:34Z</time>
      </trkpt>
      <trkpt lat="46.73305" lon="5.72666">
        <ele>531.5</ele>
        <time>2022-03-08T11:32:38Z</time>
      </trkpt>
      <trkpt lat="46.73304" lon="5.72673">
        <ele>532</ele>
        <time>2022-03-08T11:32:42Z</time>
      </trkpt>
      <trkpt lat="46.73302" lon="5.72679">
        <ele>532.7</ele>
        <time>2022-03-08T11:32:46Z</time>
      </trkpt>
      <trkpt lat="46.73301" lon="5.72686">
        <ele>533.3</ele>
        <time>2022-03-08T11:32:50Z</time>
      </trkpt>
      <trkpt lat="46.733" lon="5.72694">
        <ele>533.8</ele>
        <time>2022-03-08T11:32:54Z</time>
      </trkpt>
      <trkpt lat="46.733" lon="5.72702">
        <ele>534.2</ele>
        <time>2022-03-08T11:32:58Z</time>
      </trkpt>
      <trkpt lat="46.733" lon="5.7271">
        <ele>534.6</ele>
        <time>2022-03-08T11:33:03Z</time>
      </trkpt>
      <trkpt lat="46.73299" lon="5.72717">
        <ele>534.6</ele>
        <time>2022-03-08T11:33:07Z</time>
      </trkpt>
      <trkpt lat="46.73299" lon="5.72724">
        <ele>534.5</ele>
        <time>2022-03-08T11:33:11Z</time>
      </trkpt>
      <trkpt lat="46.733" lon="5.7273">
        <ele>534.8</ele>
        <time>2022-03-08T11:33:15Z</time>
      </trkpt>
      <trkpt lat="46.73302" lon="5.72737">
        <ele>534.7</ele>
        <time>2022-03-08T11:33:20Z</time>
      </trkpt>
      <trkpt lat="46.73305" lon="5.72743">
        <ele>534.1</ele>
        <time>2022-03-08T11:33:25Z</time>
      </trkpt>
      <trkpt lat="46.73307" lon="5.72749">
        <ele>533.5</ele>
        <time>2022-03-08T11:33:30Z</time>
      </trkpt>
      <trkpt lat="46.73309" lon="5.72756">
        <ele>533</ele>
        <time>2022-03-08T11:33:35Z</time>
      </trkpt>
      <trkpt lat="46.7331" lon="5.72762">
        <ele>532.9</ele>
        <time>2022-03-08T11:33:39Z</time>
      </trkpt>
      <trkpt lat="46.73311" lon="5.72768">
        <ele>532.7</ele>
        <time>2022-03-08T11:33:43Z</time>
      </trkpt>
      <trkpt lat="46.73314" lon="5.72774">
        <ele>532.6</ele>
        <time>2022-03-08T11:33:47Z</time>
      </trkpt>
      <trkpt lat="46.73316" lon="5.7278">
        <ele>532.4</ele>
        <time>2022-03-08T11:33:52Z</time>
      </trkpt>
      <trkpt lat="46.73318" lon="5.72787">
        <ele>532.5</ele>
        <time>2022-03-08T11:33:56Z</time>
      </trkpt>
      <trkpt lat="46.7332" lon="5.72794">
        <ele>533</ele>
        <time>2022-03-08T11:34:00Z</time>
      </trkpt>
      <trkpt lat="46.73322" lon="5.72801">
        <ele>533.6</ele>
        <time>2022-03-08T11:34:04Z</time>
      </trkpt>
      <trkpt lat="46.73324" lon="5.72808">
        <ele>534.3</ele>
        <time>2022-03-08T11:34:08Z</time>
      </trkpt>
      <trkpt lat="46.73325" lon="5.72815">
        <ele>535</ele>
        <time>2022-03-08T11:34:12Z</time>
      </trkpt>
      <trkpt lat="46.73326" lon="5.72822">
        <ele>535.5</ele>
        <time>2022-03-08T11:34:16Z</time>
      </trkpt>
      <trkpt lat="46.73328" lon="5.72828">
        <ele>536</ele>
        <time>2022-03-08T11:34:20Z</time>
      </trkpt>
      <trkpt lat="46.73329" lon="5.72835">
        <ele>536.4</ele>
        <time>2022-03-08T11:34:24Z</time>
      </trkpt>
      <trkpt lat="46.73329" lon="5.72842">
        <ele>536.6</ele>
        <time>2022-03-08T11:34:28Z</time>
      </trkpt>
      <trkpt lat="46.7333" lon="5.72849">
        <ele>537</ele>
        <time>2022-03-08T11:34:32Z</time>
      </trkpt>
      <trkpt lat="46.73332" lon="5.72855">
        <ele>537.1</ele>
        <time>2022-03-08T11:34:36Z</time>
      </trkpt>
      <trkpt lat="46.73333" lon="5.72862">
        <ele>537</ele>
        <time>2022-03-08T11:34:40Z</time>
      </trkpt>
      <trkpt lat="46.73333" lon="5.7287">
        <ele>537</ele>
        <time>2022-03-08T11:34:45Z</time>
      </trkpt>
      <trkpt lat="46.73335" lon="5.72878">
        <ele>537.2</ele>
        <time>2022-03-08T11:34:50Z</time>
      </trkpt>
      <trkpt lat="46.73337" lon="5.72884">
        <ele>537.2</ele>
        <time>2022-03-08T11:34:55Z</time>
      </trkpt>
      <trkpt lat="46.73339" lon="5.72891">
        <ele>537.1</ele>
        <time>2022-03-08T11:35:00Z</time>
      </trkpt>
      <trkpt lat="46.73339" lon="5.72898">
        <ele>537</ele>
        <time>2022-03-08T11:35:04Z</time>
      </trkpt>
      <trkpt lat="46.73339" lon="5.72905">
        <ele>536.8</ele>
        <time>2022-03-08T11:35:08Z</time>
      </trkpt>
      <trkpt lat="46.73339" lon="5.72912">
        <ele>536.1</ele>
        <time>2022-03-08T11:35:12Z</time>
      </trkpt>
      <trkpt lat="46.73341" lon="5.7292">
        <ele>535.1</ele>
        <time>2022-03-08T11:35:17Z</time>
      </trkpt>
      <trkpt lat="46.73343" lon="5.72927">
        <ele>534.7</ele>
        <time>2022-03-08T11:35:21Z</time>
      </trkpt>
      <trkpt lat="46.73345" lon="5.72934">
        <ele>534.4</ele>
        <time>2022-03-08T11:35:25Z</time>
      </trkpt>
      <trkpt lat="46.73347" lon="5.72942">
        <ele>534.1</ele>
        <time>2022-03-08T11:35:30Z</time>
      </trkpt>
      <trkpt lat="46.73351" lon="5.72947">
        <ele>534.4</ele>
        <time>2022-03-08T11:35:34Z</time>
      </trkpt>
      <trkpt lat="46.73353" lon="5.72954">
        <ele>535</ele>
        <time>2022-03-08T11:35:38Z</time>
      </trkpt>
      <trkpt lat="46.73356" lon="5.72961">
        <ele>535.7</ele>
        <time>2022-03-08T11:35:43Z</time>
      </trkpt>
      <trkpt lat="46.73359" lon="5.72967">
        <ele>536.6</ele>
        <time>2022-03-08T11:35:47Z</time>
      </trkpt>
      <trkpt lat="46.73363" lon="5.72974">
        <ele>537.5</ele>
        <time>2022-03-08T11:35:52Z</time>
      </trkpt>
      <trkpt lat="46.73367" lon="5.72978">
        <ele>538.2</ele>
        <time>2022-03-08T11:35:56Z</time>
      </trkpt>
      <trkpt lat="46.73371" lon="5.72983">
        <ele>538.9</ele>
        <time>2022-03-08T11:36:00Z</time>
      </trkpt>
      <trkpt lat="46.73375" lon="5.72987">
        <ele>540.1</ele>
        <time>2022-03-08T11:36:04Z</time>
      </trkpt>
      <trkpt lat="46.73379" lon="5.72992">
        <ele>541.3</ele>
        <time>2022-03-08T11:36:08Z</time>
      </trkpt>
      <trkpt lat="46.73383" lon="5.72998">
        <ele>542.3</ele>
        <time>2022-03-08T11:36:13Z</time>
      </trkpt>
      <trkpt lat="46.73384" lon="5.73005">
        <ele>542.9</ele>
        <time>2022-03-08T11:36:18Z</time>
      </trkpt>
      <trkpt lat="46.73388" lon="5.73009">
        <ele>542.5</ele>
        <time>2022-03-08T11:36:29Z</time>
      </trkpt>
      <trkpt lat="46.73392" lon="5.73014">
        <ele>542.3</ele>
        <time>2022-03-08T11:36:34Z</time>
      </trkpt>
      <trkpt lat="46.73395" lon="5.73019">
        <ele>542</ele>
        <time>2022-03-08T11:36:39Z</time>
      </trkpt>
      <trkpt lat="46.73399" lon="5.73025">
        <ele>541.5</ele>
        <time>2022-03-08T11:36:44Z</time>
      </trkpt>
      <trkpt lat="46.73402" lon="5.73031">
        <ele>540.2</ele>
        <time>2022-03-08T11:36:50Z</time>
      </trkpt>
      <trkpt lat="46.73405" lon="5.73037">
        <ele>538.8</ele>
        <time>2022-03-08T11:36:56Z</time>
      </trkpt>
      <trkpt lat="46.73407" lon="5.73043">
        <ele>537.9</ele>
        <time>2022-03-08T11:37:00Z</time>
      </trkpt>
      <trkpt lat="46.7341" lon="5.73049">
        <ele>537.2</ele>
        <time>2022-03-08T11:37:04Z</time>
      </trkpt>
      <trkpt lat="46.73413" lon="5.73054">
        <ele>536.5</ele>
        <time>2022-03-08T11:37:09Z</time>
      </trkpt>
      <trkpt lat="46.73416" lon="5.73061">
        <ele>535.2</ele>
        <time>2022-03-08T11:37:14Z</time>
      </trkpt>
      <trkpt lat="46.73419" lon="5.73067">
        <ele>533.8</ele>
        <time>2022-03-08T11:37:19Z</time>
      </trkpt>
      <trkpt lat="46.73421" lon="5.73073">
        <ele>532.7</ele>
        <time>2022-03-08T11:37:23Z</time>
      </trkpt>
      <trkpt lat="46.73422" lon="5.7308">
        <ele>532.3</ele>
        <time>2022-03-08T11:37:28Z</time>
      </trkpt>
      <trkpt lat="46.73423" lon="5.73087">
        <ele>532.7</ele>
        <time>2022-03-08T11:37:33Z</time>
      </trkpt>
      <trkpt lat="46.73424" lon="5.73095">
        <ele>533.4</ele>
        <time>2022-03-08T11:37:38Z</time>
      </trkpt>
      <trkpt lat="46.73425" lon="5.73102">
        <ele>534</ele>
        <time>2022-03-08T11:37:42Z</time>
      </trkpt>
      <trkpt lat="46.73426" lon="5.73109">
        <ele>534.3</ele>
        <time>2022-03-08T11:37:47Z</time>
      </trkpt>
      <trkpt lat="46.73426" lon="5.73117">
        <ele>534.3</ele>
        <time>2022-03-08T11:37:52Z</time>
      </trkpt>
      <trkpt lat="46.73424" lon="5.73123">
        <ele>534.3</ele>
        <time>2022-03-08T11:37:57Z</time>
      </trkpt>
      <trkpt lat="46.73421" lon="5.73129">
        <ele>533.9</ele>
        <time>2022-03-08T11:38:02Z</time>
      </trkpt>
      <trkpt lat="46.73419" lon="5.73135">
        <ele>533.2</ele>
        <time>2022-03-08T11:38:06Z</time>
      </trkpt>
      <trkpt lat="46.73417" lon="5.73143">
        <ele>532.5</ele>
        <time>2022-03-08T11:38:10Z</time>
      </trkpt>
      <trkpt lat="46.73415" lon="5.73149">
        <ele>531.8</ele>
        <time>2022-03-08T11:38:15Z</time>
      </trkpt>
      <trkpt lat="46.73413" lon="5.73156">
        <ele>531.2</ele>
        <time>2022-03-08T11:38:21Z</time>
      </trkpt>
      <trkpt lat="46.73411" lon="5.73163">
        <ele>530.5</ele>
        <time>2022-03-08T11:38:26Z</time>
      </trkpt>
      <trkpt lat="46.73409" lon="5.73171">
        <ele>529.8</ele>
        <time>2022-03-08T11:38:31Z</time>
      </trkpt>
      <trkpt lat="46.73406" lon="5.73177">
        <ele>529.5</ele>
        <time>2022-03-08T11:38:36Z</time>
      </trkpt>
      <trkpt lat="46.73404" lon="5.73183">
        <ele>529.6</ele>
        <time>2022-03-08T11:38:41Z</time>
      </trkpt>
      <trkpt lat="46.73401" lon="5.73189">
        <ele>529.6</ele>
        <time>2022-03-08T11:38:46Z</time>
      </trkpt>
      <trkpt lat="46.73397" lon="5.73195">
        <ele>529.8</ele>
        <time>2022-03-08T11:38:51Z</time>
      </trkpt>
      <trkpt lat="46.73394" lon="5.73201">
        <ele>530.2</ele>
        <time>2022-03-08T11:38:55Z</time>
      </trkpt>
      <trkpt lat="46.73391" lon="5.73207">
        <ele>530.9</ele>
        <time>2022-03-08T11:38:59Z</time>
      </trkpt>
      <trkpt lat="46.73388" lon="5.73212">
        <ele>531.2</ele>
        <time>2022-03-08T11:39:04Z</time>
      </trkpt>
      <trkpt lat="46.73384" lon="5.73217">
        <ele>531.3</ele>
        <time>2022-03-08T11:39:09Z</time>
      </trkpt>
      <trkpt lat="46.7338" lon="5.73223">
        <ele>531.5</ele>
        <time>2022-03-08T11:39:14Z</time>
      </trkpt>
      <trkpt lat="46.73377" lon="5.73229">
        <ele>531.7</ele>
        <time>2022-03-08T11:39:19Z</time>
      </trkpt>
      <trkpt lat="46.73374" lon="5.73235">
        <ele>531.5</ele>
        <time>2022-03-08T11:39:23Z</time>
      </trkpt>
      <trkpt lat="46.73371" lon="5.73241">
        <ele>531.4</ele>
        <time>2022-03-08T11:39:27Z</time>
      </trkpt>
      <trkpt lat="46.73367" lon="5.73246">
        <ele>531.5</ele>
        <time>2022-03-08T11:39:32Z</time>
      </trkpt>
      <trkpt lat="46.73363" lon="5.7325">
        <ele>531.7</ele>
        <time>2022-03-08T11:39:37Z</time>
      </trkpt>
      <trkpt lat="46.7336" lon="5.73255">
        <ele>532.4</ele>
        <time>2022-03-08T11:39:42Z</time>
      </trkpt>
      <trkpt lat="46.73357" lon="5.73262">
        <ele>533.4</ele>
        <time>2022-03-08T11:39:47Z</time>
      </trkpt>
      <trkpt lat="46.73354" lon="5.73267">
        <ele>534.1</ele>
        <time>2022-03-08T11:39:51Z</time>
      </trkpt>
      <trkpt lat="46.73351" lon="5.73275">
        <ele>535</ele>
        <time>2022-03-08T11:39:56Z</time>
      </trkpt>
      <trkpt lat="46.73348" lon="5.73279">
        <ele>535.7</ele>
        <time>2022-03-08T11:40:02Z</time>
      </trkpt>
      <trkpt lat="46.73344" lon="5.73284">
        <ele>535.9</ele>
        <time>2022-03-08T11:40:07Z</time>
      </trkpt>
      <trkpt lat="46.73341" lon="5.73289">
        <ele>535.8</ele>
        <time>2022-03-08T11:40:13Z</time>
      </trkpt>
      <trkpt lat="46.73337" lon="5.73293">
        <ele>535.8</ele>
        <time>2022-03-08T11:40:18Z</time>
      </trkpt>
      <trkpt lat="46.73332" lon="5.73296">
        <ele>535.8</ele>
        <time>2022-03-08T11:40:21Z</time>
      </trkpt>
      <trkpt lat="46.73327" lon="5.73301">
        <ele>535.9</ele>
        <time>2022-03-08T11:40:24Z</time>
      </trkpt>
      <trkpt lat="46.73323" lon="5.73305">
        <ele>535.8</ele>
        <time>2022-03-08T11:40:27Z</time>
      </trkpt>
      <trkpt lat="46.73319" lon="5.7331">
        <ele>536.1</ele>
        <time>2022-03-08T11:40:31Z</time>
      </trkpt>
      <trkpt lat="46.73315" lon="5.73316">
        <ele>536.2</ele>
        <time>2022-03-08T11:40:35Z</time>
      </trkpt>
      <trkpt lat="46.73312" lon="5.73322">
        <ele>536</ele>
        <time>2022-03-08T11:40:39Z</time>
      </trkpt>
      <trkpt lat="46.73309" lon="5.73327">
        <ele>535.8</ele>
        <time>2022-03-08T11:40:43Z</time>
      </trkpt>
      <trkpt lat="46.73306" lon="5.73333">
        <ele>535.7</ele>
        <time>2022-03-08T11:40:48Z</time>
      </trkpt>
      <trkpt lat="46.73303" lon="5.73339">
        <ele>535.7</ele>
        <time>2022-03-08T11:40:53Z</time>
      </trkpt>
      <trkpt lat="46.733" lon="5.73345">
        <ele>535.8</ele>
        <time>2022-03-08T11:40:57Z</time>
      </trkpt>
      <trkpt lat="46.73296" lon="5.73351">
        <ele>535.9</ele>
        <time>2022-03-08T11:41:01Z</time>
      </trkpt>
      <trkpt lat="46.73294" lon="5.73358">
        <ele>535.9</ele>
        <time>2022-03-08T11:41:05Z</time>
      </trkpt>
      <trkpt lat="46.73293" lon="5.73364">
        <ele>536.2</ele>
        <time>2022-03-08T11:41:10Z</time>
      </trkpt>
      <trkpt lat="46.73291" lon="5.73371">
        <ele>536.4</ele>
        <time>2022-03-08T11:41:15Z</time>
      </trkpt>
      <trkpt lat="46.73289" lon="5.73377">
        <ele>536.5</ele>
        <time>2022-03-08T11:41:19Z</time>
      </trkpt>
      <trkpt lat="46.73286" lon="5.73383">
        <ele>536.6</ele>
        <time>2022-03-08T11:41:23Z</time>
      </trkpt>
      <trkpt lat="46.73282" lon="5.73387">
        <ele>536.6</ele>
        <time>2022-03-08T11:41:28Z</time>
      </trkpt>
      <trkpt lat="46.73279" lon="5.73392">
        <ele>536.5</ele>
        <time>2022-03-08T11:41:32Z</time>
      </trkpt>
      <trkpt lat="46.73274" lon="5.73394">
        <ele>535.8</ele>
        <time>2022-03-08T11:41:38Z</time>
      </trkpt>
      <trkpt lat="46.73271" lon="5.734">
        <ele>535.3</ele>
        <time>2022-03-08T11:41:42Z</time>
      </trkpt>
      <trkpt lat="46.73268" lon="5.73407">
        <ele>535.5</ele>
        <time>2022-03-08T11:41:45Z</time>
      </trkpt>
      <trkpt lat="46.73266" lon="5.73413">
        <ele>535.8</ele>
        <time>2022-03-08T11:41:48Z</time>
      </trkpt>
      <trkpt lat="46.73263" lon="5.73419">
        <ele>536.3</ele>
        <time>2022-03-08T11:41:52Z</time>
      </trkpt>
      <trkpt lat="46.73263" lon="5.73426">
        <ele>537.2</ele>
        <time>2022-03-08T11:41:56Z</time>
      </trkpt>
      <trkpt lat="46.7326" lon="5.73433">
        <ele>538.5</ele>
        <time>2022-03-08T11:42:00Z</time>
      </trkpt>
      <trkpt lat="46.73258" lon="5.7344">
        <ele>540.3</ele>
        <time>2022-03-08T11:42:05Z</time>
      </trkpt>
      <trkpt lat="46.73256" lon="5.73447">
        <ele>541.5</ele>
        <time>2022-03-08T11:42:09Z</time>
      </trkpt>
      <trkpt lat="46.73255" lon="5.73453">
        <ele>542.4</ele>
        <time>2022-03-08T11:42:12Z</time>
      </trkpt>
      <trkpt lat="46.73252" lon="5.7346">
        <ele>543.3</ele>
        <time>2022-03-08T11:42:16Z</time>
      </trkpt>
      <trkpt lat="46.7325" lon="5.73466">
        <ele>544.7</ele>
        <time>2022-03-08T11:42:21Z</time>
      </trkpt>
      <trkpt lat="46.73248" lon="5.73474">
        <ele>546.5</ele>
        <time>2022-03-08T11:42:26Z</time>
      </trkpt>
      <trkpt lat="46.73246" lon="5.73481">
        <ele>548.2</ele>
        <time>2022-03-08T11:42:31Z</time>
      </trkpt>
      <trkpt lat="46.73243" lon="5.73488">
        <ele>549.2</ele>
        <time>2022-03-08T11:42:36Z</time>
      </trkpt>
      <trkpt lat="46.73239" lon="5.73494">
        <ele>549.8</ele>
        <time>2022-03-08T11:42:40Z</time>
      </trkpt>
      <trkpt lat="46.73236" lon="5.73501">
        <ele>549.8</ele>
        <time>2022-03-08T11:42:44Z</time>
      </trkpt>
      <trkpt lat="46.73234" lon="5.73507">
        <ele>549.7</ele>
        <time>2022-03-08T11:42:49Z</time>
      </trkpt>
      <trkpt lat="46.73231" lon="5.73513">
        <ele>549.5</ele>
        <time>2022-03-08T11:42:55Z</time>
      </trkpt>
      <trkpt lat="46.73228" lon="5.7352">
        <ele>550.8</ele>
        <time>2022-03-08T11:43:03Z</time>
      </trkpt>
      <trkpt lat="46.73225" lon="5.73526">
        <ele>550.6</ele>
        <time>2022-03-08T11:43:07Z</time>
      </trkpt>
      <trkpt lat="46.73222" lon="5.73533">
        <ele>550.2</ele>
        <time>2022-03-08T11:43:11Z</time>
      </trkpt>
      <trkpt lat="46.73218" lon="5.73539">
        <ele>550.4</ele>
        <time>2022-03-08T11:43:15Z</time>
      </trkpt>
      <trkpt lat="46.73215" lon="5.73546">
        <ele>551.4</ele>
        <time>2022-03-08T11:43:19Z</time>
      </trkpt>
      <trkpt lat="46.73213" lon="5.73552">
        <ele>553.6</ele>
        <time>2022-03-08T11:43:27Z</time>
      </trkpt>
      <trkpt lat="46.73209" lon="5.73557">
        <ele>554.5</ele>
        <time>2022-03-08T11:43:34Z</time>
      </trkpt>
      <trkpt lat="46.73207" lon="5.73563">
        <ele>555.2</ele>
        <time>2022-03-08T11:43:41Z</time>
      </trkpt>
      <trkpt lat="46.73202" lon="5.73564">
        <ele>555.6</ele>
        <time>2022-03-08T11:43:49Z</time>
      </trkpt>
      <trkpt lat="46.73197" lon="5.73563">
        <ele>555.4</ele>
        <time>2022-03-08T11:44:05Z</time>
      </trkpt>
      <trkpt lat="46.73198" lon="5.73571">
        <ele>555.1</ele>
        <time>2022-03-08T11:45:17Z</time>
      </trkpt>
      <trkpt lat="46.73198" lon="5.73563">
        <ele>554.9</ele>
        <time>2022-03-08T11:45:52Z</time>
      </trkpt>
      <trkpt lat="46.732" lon="5.73556">
        <ele>554.7</ele>
        <time>2022-03-08T11:45:56Z</time>
      </trkpt>
      <trkpt lat="46.73201" lon="5.73548">
        <ele>554.2</ele>
        <time>2022-03-08T11:46:01Z</time>
      </trkpt>
      <trkpt lat="46.73201" lon="5.73541">
        <ele>553</ele>
        <time>2022-03-08T11:46:06Z</time>
      </trkpt>
      <trkpt lat="46.732" lon="5.73534">
        <ele>551.6</ele>
        <time>2022-03-08T11:46:11Z</time>
      </trkpt>
      <trkpt lat="46.73198" lon="5.73527">
        <ele>551.2</ele>
        <time>2022-03-08T11:46:15Z</time>
      </trkpt>
      <trkpt lat="46.73195" lon="5.7352">
        <ele>550.7</ele>
        <time>2022-03-08T11:46:19Z</time>
      </trkpt>
      <trkpt lat="46.73193" lon="5.73513">
        <ele>550.1</ele>
        <time>2022-03-08T11:46:23Z</time>
      </trkpt>
      <trkpt lat="46.73191" lon="5.73506">
        <ele>549.9</ele>
        <time>2022-03-08T11:46:27Z</time>
      </trkpt>
      <trkpt lat="46.73189" lon="5.73499">
        <ele>549.9</ele>
        <time>2022-03-08T11:46:33Z</time>
      </trkpt>
      <trkpt lat="46.73187" lon="5.73493">
        <ele>550.1</ele>
        <time>2022-03-08T11:46:38Z</time>
      </trkpt>
      <trkpt lat="46.73185" lon="5.73486">
        <ele>550.4</ele>
        <time>2022-03-08T11:46:44Z</time>
      </trkpt>
      <trkpt lat="46.73184" lon="5.7348">
        <ele>550.3</ele>
        <time>2022-03-08T11:46:48Z</time>
      </trkpt>
      <trkpt lat="46.73184" lon="5.73472">
        <ele>550.1</ele>
        <time>2022-03-08T11:46:53Z</time>
      </trkpt>
      <trkpt lat="46.73184" lon="5.73464">
        <ele>549.8</ele>
        <time>2022-03-08T11:46:57Z</time>
      </trkpt>
      <trkpt lat="46.73183" lon="5.73457">
        <ele>549.4</ele>
        <time>2022-03-08T11:47:01Z</time>
      </trkpt>
      <trkpt lat="46.73182" lon="5.7345">
        <ele>549.1</ele>
        <time>2022-03-08T11:47:05Z</time>
      </trkpt>
      <trkpt lat="46.73182" lon="5.73443">
        <ele>549.3</ele>
        <time>2022-03-08T11:47:10Z</time>
      </trkpt>
      <trkpt lat="46.73181" lon="5.73436">
        <ele>549.7</ele>
        <time>2022-03-08T11:47:15Z</time>
      </trkpt>
      <trkpt lat="46.73185" lon="5.73435">
        <ele>549.9</ele>
        <time>2022-03-08T11:47:27Z</time>
      </trkpt>
      <trkpt lat="46.7319" lon="5.73433">
        <ele>550.1</ele>
        <time>2022-03-08T11:47:35Z</time>
      </trkpt>
      <trkpt lat="46.73185" lon="5.73438">
        <ele>550.9</ele>
        <time>2022-03-08T11:48:23Z</time>
      </trkpt>
      <trkpt lat="46.7318" lon="5.73441">
        <ele>550.9</ele>
        <time>2022-03-08T11:48:27Z</time>
      </trkpt>
      <trkpt lat="46.73176" lon="5.73437">
        <ele>550.9</ele>
        <time>2022-03-08T11:48:32Z</time>
      </trkpt>
      <trkpt lat="46.73176" lon="5.7343">
        <ele>550.7</ele>
        <time>2022-03-08T11:48:38Z</time>
      </trkpt>
      <trkpt lat="46.73177" lon="5.73423">
        <ele>552.6</ele>
        <time>2022-03-08T11:48:58Z</time>
      </trkpt>
      <trkpt lat="46.73178" lon="5.73416">
        <ele>552</ele>
        <time>2022-03-08T11:49:03Z</time>
      </trkpt>
      <trkpt lat="46.73177" lon="5.73408">
        <ele>551.4</ele>
        <time>2022-03-08T11:49:07Z</time>
      </trkpt>
      <trkpt lat="46.73178" lon="5.73401">
        <ele>550.5</ele>
        <time>2022-03-08T11:49:12Z</time>
      </trkpt>
      <trkpt lat="46.73178" lon="5.73393">
        <ele>549.9</ele>
        <time>2022-03-08T11:49:17Z</time>
      </trkpt>
      <trkpt lat="46.73177" lon="5.73387">
        <ele>549.7</ele>
        <time>2022-03-08T11:49:21Z</time>
      </trkpt>
      <trkpt lat="46.73175" lon="5.7338">
        <ele>549.8</ele>
        <time>2022-03-08T11:49:25Z</time>
      </trkpt>
      <trkpt lat="46.73173" lon="5.73374">
        <ele>550.2</ele>
        <time>2022-03-08T11:49:29Z</time>
      </trkpt>
      <trkpt lat="46.73172" lon="5.73366">
        <ele>550.3</ele>
        <time>2022-03-08T11:49:34Z</time>
      </trkpt>
      <trkpt lat="46.73171" lon="5.7336">
        <ele>550.1</ele>
        <time>2022-03-08T11:49:38Z</time>
      </trkpt>
      <trkpt lat="46.7317" lon="5.73353">
        <ele>550.8</ele>
        <time>2022-03-08T11:49:44Z</time>
      </trkpt>
      <trkpt lat="46.73169" lon="5.73346">
        <ele>551.9</ele>
        <time>2022-03-08T11:49:53Z</time>
      </trkpt>
      <trkpt lat="46.73167" lon="5.7334">
        <ele>551.3</ele>
        <time>2022-03-08T11:50:00Z</time>
      </trkpt>
      <trkpt lat="46.73166" lon="5.73333">
        <ele>549.5</ele>
        <time>2022-03-08T11:50:07Z</time>
      </trkpt>
      <trkpt lat="46.73164" lon="5.73325">
        <ele>549.1</ele>
        <time>2022-03-08T11:50:12Z</time>
      </trkpt>
      <trkpt lat="46.73162" lon="5.73319">
        <ele>549</ele>
        <time>2022-03-08T11:50:16Z</time>
      </trkpt>
      <trkpt lat="46.7316" lon="5.73313">
        <ele>549.6</ele>
        <time>2022-03-08T11:50:20Z</time>
      </trkpt>
      <trkpt lat="46.73158" lon="5.73307">
        <ele>550.9</ele>
        <time>2022-03-08T11:50:25Z</time>
      </trkpt>
      <trkpt lat="46.73157" lon="5.733">
        <ele>551.8</ele>
        <time>2022-03-08T11:50:30Z</time>
      </trkpt>
      <trkpt lat="46.73155" lon="5.73294">
        <ele>552.5</ele>
        <time>2022-03-08T11:50:35Z</time>
      </trkpt>
      <trkpt lat="46.73152" lon="5.73287">
        <ele>553</ele>
        <time>2022-03-08T11:50:40Z</time>
      </trkpt>
      <trkpt lat="46.7315" lon="5.7328">
        <ele>553.9</ele>
        <time>2022-03-08T11:50:45Z</time>
      </trkpt>
      <trkpt lat="46.73147" lon="5.73274">
        <ele>554.7</ele>
        <time>2022-03-08T11:50:50Z</time>
      </trkpt>
      <trkpt lat="46.73145" lon="5.73267">
        <ele>555.5</ele>
        <time>2022-03-08T11:50:55Z</time>
      </trkpt>
      <trkpt lat="46.73144" lon="5.7326">
        <ele>555.8</ele>
        <time>2022-03-08T11:50:59Z</time>
      </trkpt>
      <trkpt lat="46.73142" lon="5.73254">
        <ele>555.5</ele>
        <time>2022-03-08T11:51:03Z</time>
      </trkpt>
      <trkpt lat="46.73141" lon="5.73248">
        <ele>555.8</ele>
        <time>2022-03-08T11:51:09Z</time>
      </trkpt>
      <trkpt lat="46.73137" lon="5.73243">
        <ele>556.7</ele>
        <time>2022-03-08T11:51:16Z</time>
      </trkpt>
      <trkpt lat="46.73132" lon="5.73241">
        <ele>557.1</ele>
        <time>2022-03-08T11:51:24Z</time>
      </trkpt>
      <trkpt lat="46.73129" lon="5.73236">
        <ele>557</ele>
        <time>2022-03-08T11:51:30Z</time>
      </trkpt>
      <trkpt lat="46.73126" lon="5.73229">
        <ele>556.9</ele>
        <time>2022-03-08T11:51:35Z</time>
      </trkpt>
      <trkpt lat="46.73122" lon="5.73225">
        <ele>556.8</ele>
        <time>2022-03-08T11:51:41Z</time>
      </trkpt>
      <trkpt lat="46.73118" lon="5.7322">
        <ele>556.3</ele>
        <time>2022-03-08T11:51:46Z</time>
      </trkpt>
      <trkpt lat="46.73115" lon="5.73214">
        <ele>555.6</ele>
        <time>2022-03-08T11:51:51Z</time>
      </trkpt>
      <trkpt lat="46.73112" lon="5.73208">
        <ele>555</ele>
        <time>2022-03-08T11:51:56Z</time>
      </trkpt>
      <trkpt lat="46.73109" lon="5.73202">
        <ele>554.1</ele>
        <time>2022-03-08T11:52:01Z</time>
      </trkpt>
      <trkpt lat="46.73108" lon="5.73196">
        <ele>553.5</ele>
        <time>2022-03-08T11:52:06Z</time>
      </trkpt>
      <trkpt lat="46.73106" lon="5.73189">
        <ele>553.2</ele>
        <time>2022-03-08T11:52:11Z</time>
      </trkpt>
      <trkpt lat="46.73104" lon="5.73181">
        <ele>553.2</ele>
        <time>2022-03-08T11:52:16Z</time>
      </trkpt>
      <trkpt lat="46.73101" lon="5.73175">
        <ele>553.5</ele>
        <time>2022-03-08T11:52:20Z</time>
      </trkpt>
      <trkpt lat="46.73097" lon="5.73171">
        <ele>554.1</ele>
        <time>2022-03-08T11:52:24Z</time>
      </trkpt>
      <trkpt lat="46.73094" lon="5.73166">
        <ele>554.7</ele>
        <time>2022-03-08T11:52:28Z</time>
      </trkpt>
      <trkpt lat="46.7309" lon="5.73161">
        <ele>554.9</ele>
        <time>2022-03-08T11:52:33Z</time>
      </trkpt>
      <trkpt lat="46.73087" lon="5.73155">
        <ele>555</ele>
        <time>2022-03-08T11:52:38Z</time>
      </trkpt>
      <trkpt lat="46.73083" lon="5.73151">
        <ele>555.2</ele>
        <time>2022-03-08T11:52:43Z</time>
      </trkpt>
      <trkpt lat="46.73078" lon="5.73147">
        <ele>555.3</ele>
        <time>2022-03-08T11:52:48Z</time>
      </trkpt>
      <trkpt lat="46.73074" lon="5.73144">
        <ele>554.6</ele>
        <time>2022-03-08T11:52:54Z</time>
      </trkpt>
      <trkpt lat="46.7307" lon="5.7314">
        <ele>554.5</ele>
        <time>2022-03-08T11:52:59Z</time>
      </trkpt>
      <trkpt lat="46.73066" lon="5.73136">
        <ele>554.3</ele>
        <time>2022-03-08T11:53:04Z</time>
      </trkpt>
      <trkpt lat="46.73061" lon="5.73132">
        <ele>553.8</ele>
        <time>2022-03-08T11:53:09Z</time>
      </trkpt>
      <trkpt lat="46.73057" lon="5.73127">
        <ele>553.5</ele>
        <time>2022-03-08T11:53:14Z</time>
      </trkpt>
      <trkpt lat="46.73052" lon="5.73124">
        <ele>553.6</ele>
        <time>2022-03-08T11:53:19Z</time>
      </trkpt>
      <trkpt lat="46.73048" lon="5.73121">
        <ele>555.1</ele>
        <time>2022-03-08T11:53:25Z</time>
      </trkpt>
      <trkpt lat="46.73044" lon="5.73117">
        <ele>555.7</ele>
        <time>2022-03-08T11:53:29Z</time>
      </trkpt>
      <trkpt lat="46.7304" lon="5.73115">
        <ele>555.7</ele>
        <time>2022-03-08T11:53:33Z</time>
      </trkpt>
      <trkpt lat="46.73035" lon="5.73112">
        <ele>555.3</ele>
        <time>2022-03-08T11:53:37Z</time>
      </trkpt>
      <trkpt lat="46.7303" lon="5.73109">
        <ele>554.5</ele>
        <time>2022-03-08T11:53:42Z</time>
      </trkpt>
      <trkpt lat="46.73025" lon="5.73107">
        <ele>554.1</ele>
        <time>2022-03-08T11:53:46Z</time>
      </trkpt>
      <trkpt lat="46.73021" lon="5.73104">
        <ele>554</ele>
        <time>2022-03-08T11:53:49Z</time>
      </trkpt>
      <trkpt lat="46.73016" lon="5.73102">
        <ele>553.9</ele>
        <time>2022-03-08T11:53:53Z</time>
      </trkpt>
      <trkpt lat="46.73011" lon="5.73099">
        <ele>553.7</ele>
        <time>2022-03-08T11:53:57Z</time>
      </trkpt>
      <trkpt lat="46.73006" lon="5.73097">
        <ele>554</ele>
        <time>2022-03-08T11:54:01Z</time>
      </trkpt>
      <trkpt lat="46.73002" lon="5.73096">
        <ele>553.9</ele>
        <time>2022-03-08T11:54:05Z</time>
      </trkpt>
      <trkpt lat="46.72997" lon="5.73093">
        <ele>553.8</ele>
        <time>2022-03-08T11:54:10Z</time>
      </trkpt>
      <trkpt lat="46.72992" lon="5.7309">
        <ele>553.8</ele>
        <time>2022-03-08T11:54:15Z</time>
      </trkpt>
      <trkpt lat="46.72987" lon="5.73088">
        <ele>553.7</ele>
        <time>2022-03-08T11:54:19Z</time>
      </trkpt>
      <trkpt lat="46.72983" lon="5.73086">
        <ele>554</ele>
        <time>2022-03-08T11:54:23Z</time>
      </trkpt>
      <trkpt lat="46.72979" lon="5.73082">
        <ele>554.3</ele>
        <time>2022-03-08T11:54:27Z</time>
      </trkpt>
      <trkpt lat="46.72975" lon="5.73079">
        <ele>554.9</ele>
        <time>2022-03-08T11:54:31Z</time>
      </trkpt>
      <trkpt lat="46.72971" lon="5.73074">
        <ele>555.6</ele>
        <time>2022-03-08T11:54:42Z</time>
      </trkpt>
      <trkpt lat="46.72966" lon="5.73071">
        <ele>554.7</ele>
        <time>2022-03-08T11:54:47Z</time>
      </trkpt>
      <trkpt lat="46.72961" lon="5.73068">
        <ele>553.7</ele>
        <time>2022-03-08T11:54:52Z</time>
      </trkpt>
      <trkpt lat="46.72956" lon="5.73065">
        <ele>552.2</ele>
        <time>2022-03-08T11:54:58Z</time>
      </trkpt>
      <trkpt lat="46.72952" lon="5.73062">
        <ele>550</ele>
        <time>2022-03-08T11:55:03Z</time>
      </trkpt>
      <trkpt lat="46.72947" lon="5.73062">
        <ele>548.1</ele>
        <time>2022-03-08T11:55:07Z</time>
      </trkpt>
      <trkpt lat="46.72941" lon="5.73062">
        <ele>546.4</ele>
        <time>2022-03-08T11:55:11Z</time>
      </trkpt>
      <trkpt lat="46.72936" lon="5.73061">
        <ele>545.1</ele>
        <time>2022-03-08T11:55:16Z</time>
      </trkpt>
      <trkpt lat="46.72932" lon="5.73057">
        <ele>544.5</ele>
        <time>2022-03-08T11:55:21Z</time>
      </trkpt>
      <trkpt lat="46.72927" lon="5.73055">
        <ele>544.4</ele>
        <time>2022-03-08T11:55:25Z</time>
      </trkpt>
      <trkpt lat="46.72923" lon="5.73052">
        <ele>544.2</ele>
        <time>2022-03-08T11:55:29Z</time>
      </trkpt>
      <trkpt lat="46.72918" lon="5.7305">
        <ele>544.4</ele>
        <time>2022-03-08T11:55:33Z</time>
      </trkpt>
      <trkpt lat="46.72914" lon="5.73048">
        <ele>544.8</ele>
        <time>2022-03-08T11:55:37Z</time>
      </trkpt>
      <trkpt lat="46.72909" lon="5.73046">
        <ele>545.5</ele>
        <time>2022-03-08T11:55:41Z</time>
      </trkpt>
      <trkpt lat="46.72904" lon="5.73042">
        <ele>546.2</ele>
        <time>2022-03-08T11:55:45Z</time>
      </trkpt>
      <trkpt lat="46.729" lon="5.73038">
        <ele>546.2</ele>
        <time>2022-03-08T11:55:50Z</time>
      </trkpt>
      <trkpt lat="46.72896" lon="5.73037">
        <ele>546.2</ele>
        <time>2022-03-08T11:55:54Z</time>
      </trkpt>
      <trkpt lat="46.72891" lon="5.73035">
        <ele>546.3</ele>
        <time>2022-03-08T11:55:58Z</time>
      </trkpt>
      <trkpt lat="46.72887" lon="5.7303">
        <ele>546.5</ele>
        <time>2022-03-08T11:56:02Z</time>
      </trkpt>
      <trkpt lat="46.72882" lon="5.73028">
        <ele>546.7</ele>
        <time>2022-03-08T11:56:07Z</time>
      </trkpt>
      <trkpt lat="46.72877" lon="5.73025">
        <ele>546.6</ele>
        <time>2022-03-08T11:56:12Z</time>
      </trkpt>
      <trkpt lat="46.72872" lon="5.73022">
        <ele>546.4</ele>
        <time>2022-03-08T11:56:17Z</time>
      </trkpt>
      <trkpt lat="46.72868" lon="5.73021">
        <ele>546.4</ele>
        <time>2022-03-08T11:56:21Z</time>
      </trkpt>
      <trkpt lat="46.72863" lon="5.73019">
        <ele>545.7</ele>
        <time>2022-03-08T11:56:27Z</time>
      </trkpt>
      <trkpt lat="46.72858" lon="5.73016">
        <ele>545.1</ele>
        <time>2022-03-08T11:56:31Z</time>
      </trkpt>
      <trkpt lat="46.72854" lon="5.73014">
        <ele>544.7</ele>
        <time>2022-03-08T11:56:35Z</time>
      </trkpt>
      <trkpt lat="46.7285" lon="5.73012">
        <ele>544.7</ele>
        <time>2022-03-08T11:56:39Z</time>
      </trkpt>
      <trkpt lat="46.72846" lon="5.73008">
        <ele>544.8</ele>
        <time>2022-03-08T11:56:43Z</time>
      </trkpt>
      <trkpt lat="46.72841" lon="5.73005">
        <ele>544.9</ele>
        <time>2022-03-08T11:56:48Z</time>
      </trkpt>
      <trkpt lat="46.72836" lon="5.73003">
        <ele>544.6</ele>
        <time>2022-03-08T11:56:52Z</time>
      </trkpt>
      <trkpt lat="46.72831" lon="5.73001">
        <ele>544.2</ele>
        <time>2022-03-08T11:56:56Z</time>
      </trkpt>
      <trkpt lat="46.72827" lon="5.72996">
        <ele>543.3</ele>
        <time>2022-03-08T11:57:02Z</time>
      </trkpt>
      <trkpt lat="46.72823" lon="5.72993">
        <ele>542.3</ele>
        <time>2022-03-08T11:57:07Z</time>
      </trkpt>
      <trkpt lat="46.72817" lon="5.72991">
        <ele>541.7</ele>
        <time>2022-03-08T11:57:11Z</time>
      </trkpt>
      <trkpt lat="46.72812" lon="5.72989">
        <ele>541.7</ele>
        <time>2022-03-08T11:57:15Z</time>
      </trkpt>
      <trkpt lat="46.72807" lon="5.72987">
        <ele>541.7</ele>
        <time>2022-03-08T11:57:19Z</time>
      </trkpt>
      <trkpt lat="46.72803" lon="5.72984">
        <ele>542.1</ele>
        <time>2022-03-08T11:57:23Z</time>
      </trkpt>
      <trkpt lat="46.72799" lon="5.72979">
        <ele>542.5</ele>
        <time>2022-03-08T11:57:28Z</time>
      </trkpt>
      <trkpt lat="46.72795" lon="5.72976">
        <ele>542.7</ele>
        <time>2022-03-08T11:57:32Z</time>
      </trkpt>
      <trkpt lat="46.7279" lon="5.72973">
        <ele>543.3</ele>
        <time>2022-03-08T11:57:37Z</time>
      </trkpt>
      <trkpt lat="46.72785" lon="5.72971">
        <ele>543.9</ele>
        <time>2022-03-08T11:57:42Z</time>
      </trkpt>
      <trkpt lat="46.7278" lon="5.72969">
        <ele>545.3</ele>
        <time>2022-03-08T11:57:46Z</time>
      </trkpt>
      <trkpt lat="46.72775" lon="5.72967">
        <ele>546.7</ele>
        <time>2022-03-08T11:57:50Z</time>
      </trkpt>
      <trkpt lat="46.72771" lon="5.72965">
        <ele>547.6</ele>
        <time>2022-03-08T11:57:54Z</time>
      </trkpt>
      <trkpt lat="46.72767" lon="5.72961">
        <ele>547.6</ele>
        <time>2022-03-08T11:57:59Z</time>
      </trkpt>
      <trkpt lat="46.72762" lon="5.7296">
        <ele>547.3</ele>
        <time>2022-03-08T11:58:04Z</time>
      </trkpt>
      <trkpt lat="46.72758" lon="5.72956">
        <ele>546.2</ele>
        <time>2022-03-08T11:58:09Z</time>
      </trkpt>
      <trkpt lat="46.72753" lon="5.72955">
        <ele>544.7</ele>
        <time>2022-03-08T11:58:13Z</time>
      </trkpt>
      <trkpt lat="46.72748" lon="5.72953">
        <ele>543.6</ele>
        <time>2022-03-08T11:58:17Z</time>
      </trkpt>
      <trkpt lat="46.72743" lon="5.72953">
        <ele>542.9</ele>
        <time>2022-03-08T11:58:20Z</time>
      </trkpt>
      <trkpt lat="46.72738" lon="5.72952">
        <ele>542.2</ele>
        <time>2022-03-08T11:58:24Z</time>
      </trkpt>
      <trkpt lat="46.72733" lon="5.72949">
        <ele>542</ele>
        <time>2022-03-08T11:58:28Z</time>
      </trkpt>
      <trkpt lat="46.72728" lon="5.72946">
        <ele>542</ele>
        <time>2022-03-08T11:58:32Z</time>
      </trkpt>
      <trkpt lat="46.72723" lon="5.72943">
        <ele>541.6</ele>
        <time>2022-03-08T11:58:36Z</time>
      </trkpt>
      <trkpt lat="46.72718" lon="5.7294">
        <ele>541.3</ele>
        <time>2022-03-08T11:58:41Z</time>
      </trkpt>
      <trkpt lat="46.72714" lon="5.72937">
        <ele>541.3</ele>
        <time>2022-03-08T11:58:45Z</time>
      </trkpt>
      <trkpt lat="46.72709" lon="5.72935">
        <ele>541.6</ele>
        <time>2022-03-08T11:58:49Z</time>
      </trkpt>
      <trkpt lat="46.72705" lon="5.72934">
        <ele>542.1</ele>
        <time>2022-03-08T11:58:53Z</time>
      </trkpt>
      <trkpt lat="46.727" lon="5.72932">
        <ele>542.3</ele>
        <time>2022-03-08T11:58:57Z</time>
      </trkpt>
      <trkpt lat="46.72695" lon="5.72931">
        <ele>542.7</ele>
        <time>2022-03-08T11:59:01Z</time>
      </trkpt>
      <trkpt lat="46.7269" lon="5.72929">
        <ele>543.6</ele>
        <time>2022-03-08T11:59:06Z</time>
      </trkpt>
      <trkpt lat="46.72686" lon="5.72925">
        <ele>544.1</ele>
        <time>2022-03-08T11:59:11Z</time>
      </trkpt>
      <trkpt lat="46.72682" lon="5.72922">
        <ele>544.6</ele>
        <time>2022-03-08T11:59:17Z</time>
      </trkpt>
      <trkpt lat="46.72677" lon="5.72921">
        <ele>545.1</ele>
        <time>2022-03-08T11:59:22Z</time>
      </trkpt>
      <trkpt lat="46.72671" lon="5.7292">
        <ele>545.7</ele>
        <time>2022-03-08T11:59:27Z</time>
      </trkpt>
      <trkpt lat="46.72667" lon="5.72916">
        <ele>546.1</ele>
        <time>2022-03-08T11:59:31Z</time>
      </trkpt>
      <trkpt lat="46.72665" lon="5.72909">
        <ele>547.3</ele>
        <time>2022-03-08T11:59:37Z</time>
      </trkpt>
      <trkpt lat="46.7266" lon="5.72906">
        <ele>548.3</ele>
        <time>2022-03-08T11:59:42Z</time>
      </trkpt>
      <trkpt lat="46.72655" lon="5.72905">
        <ele>548.6</ele>
        <time>2022-03-08T11:59:46Z</time>
      </trkpt>
      <trkpt lat="46.7265" lon="5.72904">
        <ele>548.9</ele>
        <time>2022-03-08T11:59:51Z</time>
      </trkpt>
      <trkpt lat="46.72645" lon="5.72902">
        <ele>549.9</ele>
        <time>2022-03-08T11:59:55Z</time>
      </trkpt>
      <trkpt lat="46.72641" lon="5.72899">
        <ele>551.1</ele>
        <time>2022-03-08T11:59:59Z</time>
      </trkpt>
      <trkpt lat="46.72636" lon="5.72896">
        <ele>552.4</ele>
        <time>2022-03-08T12:00:04Z</time>
      </trkpt>
      <trkpt lat="46.72631" lon="5.72892">
        <ele>553.1</ele>
        <time>2022-03-08T12:00:08Z</time>
      </trkpt>
      <trkpt lat="46.72626" lon="5.72889">
        <ele>553.4</ele>
        <time>2022-03-08T12:00:12Z</time>
      </trkpt>
      <trkpt lat="46.72622" lon="5.72884">
        <ele>553</ele>
        <time>2022-03-08T12:00:18Z</time>
      </trkpt>
      <trkpt lat="46.72617" lon="5.72882">
        <ele>553.6</ele>
        <time>2022-03-08T12:00:23Z</time>
      </trkpt>
      <trkpt lat="46.72612" lon="5.72881">
        <ele>553.6</ele>
        <time>2022-03-08T12:00:27Z</time>
      </trkpt>
      <trkpt lat="46.72607" lon="5.72878">
        <ele>553.7</ele>
        <time>2022-03-08T12:00:32Z</time>
      </trkpt>
      <trkpt lat="46.72603" lon="5.72874">
        <ele>553.8</ele>
        <time>2022-03-08T12:00:36Z</time>
      </trkpt>
      <trkpt lat="46.72599" lon="5.7287">
        <ele>553.9</ele>
        <time>2022-03-08T12:00:42Z</time>
      </trkpt>
      <trkpt lat="46.72593" lon="5.72867">
        <ele>553</ele>
        <time>2022-03-08T12:00:47Z</time>
      </trkpt>
      <trkpt lat="46.72588" lon="5.72865">
        <ele>551.9</ele>
        <time>2022-03-08T12:00:51Z</time>
      </trkpt>
      <trkpt lat="46.72582" lon="5.72863">
        <ele>551.2</ele>
        <time>2022-03-08T12:00:56Z</time>
      </trkpt>
      <trkpt lat="46.72578" lon="5.7286">
        <ele>550.8</ele>
        <time>2022-03-08T12:01:01Z</time>
      </trkpt>
      <trkpt lat="46.72573" lon="5.72857">
        <ele>550.7</ele>
        <time>2022-03-08T12:01:05Z</time>
      </trkpt>
      <trkpt lat="46.72569" lon="5.72854">
        <ele>550.2</ele>
        <time>2022-03-08T12:01:09Z</time>
      </trkpt>
      <trkpt lat="46.72565" lon="5.72851">
        <ele>549.4</ele>
        <time>2022-03-08T12:01:13Z</time>
      </trkpt>
      <trkpt lat="46.7256" lon="5.72848">
        <ele>548.7</ele>
        <time>2022-03-08T12:01:18Z</time>
      </trkpt>
      <trkpt lat="46.72556" lon="5.72845">
        <ele>548.6</ele>
        <time>2022-03-08T12:01:23Z</time>
      </trkpt>
      <trkpt lat="46.7255" lon="5.72843">
        <ele>548.8</ele>
        <time>2022-03-08T12:01:28Z</time>
      </trkpt>
      <trkpt lat="46.72546" lon="5.72841">
        <ele>549.6</ele>
        <time>2022-03-08T12:01:32Z</time>
      </trkpt>
      <trkpt lat="46.72541" lon="5.72838">
        <ele>551</ele>
        <time>2022-03-08T12:01:36Z</time>
      </trkpt>
      <trkpt lat="46.72536" lon="5.72835">
        <ele>552.1</ele>
        <time>2022-03-08T12:01:40Z</time>
      </trkpt>
      <trkpt lat="46.72532" lon="5.72831">
        <ele>553.3</ele>
        <time>2022-03-08T12:01:44Z</time>
      </trkpt>
      <trkpt lat="46.72528" lon="5.72829">
        <ele>553.6</ele>
        <time>2022-03-08T12:01:48Z</time>
      </trkpt>
      <trkpt lat="46.72523" lon="5.72828">
        <ele>553.5</ele>
        <time>2022-03-08T12:01:52Z</time>
      </trkpt>
      <trkpt lat="46.72519" lon="5.72826">
        <ele>553.3</ele>
        <time>2022-03-08T12:01:57Z</time>
      </trkpt>
      <trkpt lat="46.72515" lon="5.72822">
        <ele>553.7</ele>
        <time>2022-03-08T12:02:05Z</time>
      </trkpt>
      <trkpt lat="46.72518" lon="5.72827">
        <ele>559.4</ele>
        <time>2022-03-08T12:02:55Z</time>
      </trkpt>
      <trkpt lat="46.72514" lon="5.7283">
        <ele>560.7</ele>
        <time>2022-03-08T12:03:21Z</time>
      </trkpt>
      <trkpt lat="46.7251" lon="5.72827">
        <ele>560.2</ele>
        <time>2022-03-08T12:03:44Z</time>
      </trkpt>
      <trkpt lat="46.72507" lon="5.72822">
        <ele>559.9</ele>
        <time>2022-03-08T12:03:47Z</time>
      </trkpt>
      <trkpt lat="46.72503" lon="5.72817">
        <ele>559.2</ele>
        <time>2022-03-08T12:03:52Z</time>
      </trkpt>
      <trkpt lat="46.72499" lon="5.72814">
        <ele>558.6</ele>
        <time>2022-03-08T12:03:58Z</time>
      </trkpt>
      <trkpt lat="46.72494" lon="5.72811">
        <ele>557.1</ele>
        <time>2022-03-08T12:04:03Z</time>
      </trkpt>
      <trkpt lat="46.7249" lon="5.72808">
        <ele>556.2</ele>
        <time>2022-03-08T12:04:07Z</time>
      </trkpt>
      <trkpt lat="46.72485" lon="5.72805">
        <ele>556.3</ele>
        <time>2022-03-08T12:04:11Z</time>
      </trkpt>
      <trkpt lat="46.7248" lon="5.72802">
        <ele>556.2</ele>
        <time>2022-03-08T12:04:15Z</time>
      </trkpt>
      <trkpt lat="46.72475" lon="5.72802">
        <ele>555.1</ele>
        <time>2022-03-08T12:04:20Z</time>
      </trkpt>
      <trkpt lat="46.7247" lon="5.72804">
        <ele>553.3</ele>
        <time>2022-03-08T12:04:25Z</time>
      </trkpt>
      <trkpt lat="46.72466" lon="5.72807">
        <ele>551.8</ele>
        <time>2022-03-08T12:04:29Z</time>
      </trkpt>
      <trkpt lat="46.72462" lon="5.72812">
        <ele>550.3</ele>
        <time>2022-03-08T12:04:34Z</time>
      </trkpt>
      <trkpt lat="46.72459" lon="5.72818">
        <ele>550.2</ele>
        <time>2022-03-08T12:04:38Z</time>
      </trkpt>
      <trkpt lat="46.72456" lon="5.72823">
        <ele>550.7</ele>
        <time>2022-03-08T12:04:42Z</time>
      </trkpt>
      <trkpt lat="46.72451" lon="5.72826">
        <ele>552</ele>
        <time>2022-03-08T12:04:47Z</time>
      </trkpt>
      <trkpt lat="46.72447" lon="5.72829">
        <ele>553.1</ele>
        <time>2022-03-08T12:04:54Z</time>
      </trkpt>
      <trkpt lat="46.72445" lon="5.72836">
        <ele>553.2</ele>
        <time>2022-03-08T12:04:59Z</time>
      </trkpt>
      <trkpt lat="46.72442" lon="5.72841">
        <ele>552.7</ele>
        <time>2022-03-08T12:05:03Z</time>
      </trkpt>
      <trkpt lat="46.72438" lon="5.72846">
        <ele>552.3</ele>
        <time>2022-03-08T12:05:07Z</time>
      </trkpt>
      <trkpt lat="46.72435" lon="5.72852">
        <ele>551.9</ele>
        <time>2022-03-08T12:05:12Z</time>
      </trkpt>
      <trkpt lat="46.72433" lon="5.72858">
        <ele>552.1</ele>
        <time>2022-03-08T12:05:16Z</time>
      </trkpt>
      <trkpt lat="46.7243" lon="5.72864">
        <ele>552.6</ele>
        <time>2022-03-08T12:05:21Z</time>
      </trkpt>
      <trkpt lat="46.72427" lon="5.7287">
        <ele>553.6</ele>
        <time>2022-03-08T12:05:26Z</time>
      </trkpt>
      <trkpt lat="46.72424" lon="5.72876">
        <ele>554.5</ele>
        <time>2022-03-08T12:05:30Z</time>
      </trkpt>
      <trkpt lat="46.72421" lon="5.72881">
        <ele>555.4</ele>
        <time>2022-03-08T12:05:35Z</time>
      </trkpt>
      <trkpt lat="46.72417" lon="5.72886">
        <ele>556</ele>
        <time>2022-03-08T12:05:40Z</time>
      </trkpt>
      <trkpt lat="46.72414" lon="5.72892">
        <ele>556.8</ele>
        <time>2022-03-08T12:05:46Z</time>
      </trkpt>
      <trkpt lat="46.72411" lon="5.72898">
        <ele>557.3</ele>
        <time>2022-03-08T12:05:50Z</time>
      </trkpt>
      <trkpt lat="46.72409" lon="5.72905">
        <ele>557.6</ele>
        <time>2022-03-08T12:05:54Z</time>
      </trkpt>
      <trkpt lat="46.72408" lon="5.72911">
        <ele>558</ele>
        <time>2022-03-08T12:05:58Z</time>
      </trkpt>
      <trkpt lat="46.72406" lon="5.72919">
        <ele>558.6</ele>
        <time>2022-03-08T12:06:03Z</time>
      </trkpt>
      <trkpt lat="46.72404" lon="5.72925">
        <ele>559</ele>
        <time>2022-03-08T12:06:07Z</time>
      </trkpt>
      <trkpt lat="46.72401" lon="5.72931">
        <ele>558.9</ele>
        <time>2022-03-08T12:06:11Z</time>
      </trkpt>
      <trkpt lat="46.72398" lon="5.72936">
        <ele>558</ele>
        <time>2022-03-08T12:06:16Z</time>
      </trkpt>
      <trkpt lat="46.72396" lon="5.72942">
        <ele>557.3</ele>
        <time>2022-03-08T12:06:21Z</time>
      </trkpt>
      <trkpt lat="46.72395" lon="5.7295">
        <ele>557.4</ele>
        <time>2022-03-08T12:06:26Z</time>
      </trkpt>
      <trkpt lat="46.72395" lon="5.72958">
        <ele>557.6</ele>
        <time>2022-03-08T12:06:31Z</time>
      </trkpt>
      <trkpt lat="46.72395" lon="5.72965">
        <ele>557.9</ele>
        <time>2022-03-08T12:06:37Z</time>
      </trkpt>
      <trkpt lat="46.72394" lon="5.72972">
        <ele>558.8</ele>
        <time>2022-03-08T12:06:42Z</time>
      </trkpt>
      <trkpt lat="46.72393" lon="5.72978">
        <ele>559.4</ele>
        <time>2022-03-08T12:06:46Z</time>
      </trkpt>
      <trkpt lat="46.72392" lon="5.72986">
        <ele>559.9</ele>
        <time>2022-03-08T12:06:51Z</time>
      </trkpt>
      <trkpt lat="46.72389" lon="5.72991">
        <ele>560.6</ele>
        <time>2022-03-08T12:06:55Z</time>
      </trkpt>
      <trkpt lat="46.72384" lon="5.72995">
        <ele>561.2</ele>
        <time>2022-03-08T12:06:59Z</time>
      </trkpt>
      <trkpt lat="46.72381" lon="5.73001">
        <ele>561.7</ele>
        <time>2022-03-08T12:07:04Z</time>
      </trkpt>
      <trkpt lat="46.72379" lon="5.73007">
        <ele>562</ele>
        <time>2022-03-08T12:07:10Z</time>
      </trkpt>
      <trkpt lat="46.72376" lon="5.73013">
        <ele>562.1</ele>
        <time>2022-03-08T12:07:15Z</time>
      </trkpt>
      <trkpt lat="46.72372" lon="5.73017">
        <ele>561.9</ele>
        <time>2022-03-08T12:07:20Z</time>
      </trkpt>
      <trkpt lat="46.72369" lon="5.73021">
        <ele>562</ele>
        <time>2022-03-08T12:07:24Z</time>
      </trkpt>
      <trkpt lat="46.72366" lon="5.73026">
        <ele>562</ele>
        <time>2022-03-08T12:07:28Z</time>
      </trkpt>
      <trkpt lat="46.72362" lon="5.73031">
        <ele>562</ele>
        <time>2022-03-08T12:07:33Z</time>
      </trkpt>
      <trkpt lat="46.72358" lon="5.73037">
        <ele>562.1</ele>
        <time>2022-03-08T12:07:38Z</time>
      </trkpt>
      <trkpt lat="46.72356" lon="5.73043">
        <ele>561.5</ele>
        <time>2022-03-08T12:07:43Z</time>
      </trkpt>
      <trkpt lat="46.72353" lon="5.73049">
        <ele>561.1</ele>
        <time>2022-03-08T12:07:48Z</time>
      </trkpt>
      <trkpt lat="46.7235" lon="5.73055">
        <ele>560.6</ele>
        <time>2022-03-08T12:07:53Z</time>
      </trkpt>
      <trkpt lat="46.72347" lon="5.73059">
        <ele>560.1</ele>
        <time>2022-03-08T12:07:58Z</time>
      </trkpt>
      <trkpt lat="46.72343" lon="5.73064">
        <ele>560.1</ele>
        <time>2022-03-08T12:08:02Z</time>
      </trkpt>
      <trkpt lat="46.72339" lon="5.73068">
        <ele>560.4</ele>
        <time>2022-03-08T12:08:07Z</time>
      </trkpt>
      <trkpt lat="46.72335" lon="5.73072">
        <ele>561.2</ele>
        <time>2022-03-08T12:08:11Z</time>
      </trkpt>
      <trkpt lat="46.72332" lon="5.73077">
        <ele>562.4</ele>
        <time>2022-03-08T12:08:15Z</time>
      </trkpt>
      <trkpt lat="46.72331" lon="5.73084">
        <ele>564.3</ele>
        <time>2022-03-08T12:08:21Z</time>
      </trkpt>
      <trkpt lat="46.72328" lon="5.7309">
        <ele>565.1</ele>
        <time>2022-03-08T12:08:25Z</time>
      </trkpt>
      <trkpt lat="46.72327" lon="5.73098">
        <ele>565.1</ele>
        <time>2022-03-08T12:08:30Z</time>
      </trkpt>
      <trkpt lat="46.72325" lon="5.73104">
        <ele>564.9</ele>
        <time>2022-03-08T12:08:34Z</time>
      </trkpt>
      <trkpt lat="46.72322" lon="5.7311">
        <ele>564.4</ele>
        <time>2022-03-08T12:08:39Z</time>
      </trkpt>
      <trkpt lat="46.72319" lon="5.73116">
        <ele>564</ele>
        <time>2022-03-08T12:08:44Z</time>
      </trkpt>
      <trkpt lat="46.72316" lon="5.73121">
        <ele>563.7</ele>
        <time>2022-03-08T12:08:49Z</time>
      </trkpt>
      <trkpt lat="46.72313" lon="5.73126">
        <ele>563.6</ele>
        <time>2022-03-08T12:08:54Z</time>
      </trkpt>
      <trkpt lat="46.72309" lon="5.73131">
        <ele>563.4</ele>
        <time>2022-03-08T12:08:58Z</time>
      </trkpt>
      <trkpt lat="46.72306" lon="5.73136">
        <ele>563.3</ele>
        <time>2022-03-08T12:09:02Z</time>
      </trkpt>
      <trkpt lat="46.72302" lon="5.73142">
        <ele>563.3</ele>
        <time>2022-03-08T12:09:07Z</time>
      </trkpt>
      <trkpt lat="46.723" lon="5.73148">
        <ele>563.2</ele>
        <time>2022-03-08T12:09:12Z</time>
      </trkpt>
      <trkpt lat="46.72298" lon="5.73155">
        <ele>563.1</ele>
        <time>2022-03-08T12:09:17Z</time>
      </trkpt>
      <trkpt lat="46.72298" lon="5.73163">
        <ele>562.9</ele>
        <time>2022-03-08T12:09:21Z</time>
      </trkpt>
      <trkpt lat="46.72296" lon="5.7317">
        <ele>562.9</ele>
        <time>2022-03-08T12:09:25Z</time>
      </trkpt>
      <trkpt lat="46.72294" lon="5.73176">
        <ele>563.1</ele>
        <time>2022-03-08T12:09:29Z</time>
      </trkpt>
      <trkpt lat="46.72292" lon="5.73182">
        <ele>563.7</ele>
        <time>2022-03-08T12:09:33Z</time>
      </trkpt>
      <trkpt lat="46.7229" lon="5.73189">
        <ele>564.5</ele>
        <time>2022-03-08T12:09:37Z</time>
      </trkpt>
      <trkpt lat="46.72288" lon="5.73195">
        <ele>565.6</ele>
        <time>2022-03-08T12:09:42Z</time>
      </trkpt>
      <trkpt lat="46.72285" lon="5.73202">
        <ele>566.2</ele>
        <time>2022-03-08T12:09:47Z</time>
      </trkpt>
      <trkpt lat="46.72283" lon="5.73208">
        <ele>566</ele>
        <time>2022-03-08T12:09:52Z</time>
      </trkpt>
      <trkpt lat="46.72279" lon="5.73213">
        <ele>566.2</ele>
        <time>2022-03-08T12:09:56Z</time>
      </trkpt>
      <trkpt lat="46.72276" lon="5.73218">
        <ele>565.9</ele>
        <time>2022-03-08T12:10:01Z</time>
      </trkpt>
      <trkpt lat="46.72272" lon="5.73223">
        <ele>565.9</ele>
        <time>2022-03-08T12:10:06Z</time>
      </trkpt>
      <trkpt lat="46.72269" lon="5.73229">
        <ele>566.3</ele>
        <time>2022-03-08T12:10:12Z</time>
      </trkpt>
      <trkpt lat="46.72265" lon="5.73233">
        <ele>566.9</ele>
        <time>2022-03-08T12:10:17Z</time>
      </trkpt>
      <trkpt lat="46.72262" lon="5.73239">
        <ele>567.8</ele>
        <time>2022-03-08T12:10:22Z</time>
      </trkpt>
      <trkpt lat="46.7226" lon="5.73245">
        <ele>568.7</ele>
        <time>2022-03-08T12:10:27Z</time>
      </trkpt>
      <trkpt lat="46.72257" lon="5.7325">
        <ele>569.6</ele>
        <time>2022-03-08T12:10:33Z</time>
      </trkpt>
      <trkpt lat="46.72253" lon="5.73256">
        <ele>569.8</ele>
        <time>2022-03-08T12:10:39Z</time>
      </trkpt>
      <trkpt lat="46.72251" lon="5.73261">
        <ele>569.9</ele>
        <time>2022-03-08T12:10:42Z</time>
      </trkpt>
      <trkpt lat="46.72248" lon="5.73267">
        <ele>569.9</ele>
        <time>2022-03-08T12:10:45Z</time>
      </trkpt>
      <trkpt lat="46.72245" lon="5.73273">
        <ele>569.8</ele>
        <time>2022-03-08T12:10:50Z</time>
      </trkpt>
      <trkpt lat="46.72242" lon="5.7328">
        <ele>569.5</ele>
        <time>2022-03-08T12:10:54Z</time>
      </trkpt>
      <trkpt lat="46.72239" lon="5.73286">
        <ele>569.1</ele>
        <time>2022-03-08T12:10:58Z</time>
      </trkpt>
      <trkpt lat="46.72237" lon="5.73292">
        <ele>568.3</ele>
        <time>2022-03-08T12:11:02Z</time>
      </trkpt>
      <trkpt lat="46.72236" lon="5.73299">
        <ele>567.8</ele>
        <time>2022-03-08T12:11:06Z</time>
      </trkpt>
      <trkpt lat="46.72234" lon="5.73305">
        <ele>567.6</ele>
        <time>2022-03-08T12:11:10Z</time>
      </trkpt>
      <trkpt lat="46.72234" lon="5.73313">
        <ele>567.9</ele>
        <time>2022-03-08T12:11:15Z</time>
      </trkpt>
      <trkpt lat="46.72233" lon="5.7332">
        <ele>568.5</ele>
        <time>2022-03-08T12:11:20Z</time>
      </trkpt>
      <trkpt lat="46.72232" lon="5.73328">
        <ele>568.9</ele>
        <time>2022-03-08T12:11:25Z</time>
      </trkpt>
      <trkpt lat="46.72231" lon="5.73336">
        <ele>569.2</ele>
        <time>2022-03-08T12:11:30Z</time>
      </trkpt>
      <trkpt lat="46.72231" lon="5.73342">
        <ele>568.9</ele>
        <time>2022-03-08T12:11:35Z</time>
      </trkpt>
      <trkpt lat="46.72232" lon="5.73349">
        <ele>568.3</ele>
        <time>2022-03-08T12:11:40Z</time>
      </trkpt>
      <trkpt lat="46.72233" lon="5.73356">
        <ele>567.8</ele>
        <time>2022-03-08T12:11:44Z</time>
      </trkpt>
      <trkpt lat="46.72234" lon="5.73364">
        <ele>567.3</ele>
        <time>2022-03-08T12:11:50Z</time>
      </trkpt>
      <trkpt lat="46.72234" lon="5.73373">
        <ele>567.7</ele>
        <time>2022-03-08T12:11:54Z</time>
      </trkpt>
      <trkpt lat="46.72232" lon="5.73381">
        <ele>568.9</ele>
        <time>2022-03-08T12:11:58Z</time>
      </trkpt>
      <trkpt lat="46.72231" lon="5.73388">
        <ele>570.3</ele>
        <time>2022-03-08T12:12:02Z</time>
      </trkpt>
      <trkpt lat="46.7223" lon="5.73396">
        <ele>571.7</ele>
        <time>2022-03-08T12:12:07Z</time>
      </trkpt>
      <trkpt lat="46.72229" lon="5.73403">
        <ele>572.7</ele>
        <time>2022-03-08T12:12:12Z</time>
      </trkpt>
      <trkpt lat="46.72227" lon="5.7341">
        <ele>573.2</ele>
        <time>2022-03-08T12:12:18Z</time>
      </trkpt>
      <trkpt lat="46.72226" lon="5.73416">
        <ele>573.7</ele>
        <time>2022-03-08T12:12:23Z</time>
      </trkpt>
      <trkpt lat="46.72226" lon="5.73424">
        <ele>573.9</ele>
        <time>2022-03-08T12:12:29Z</time>
      </trkpt>
      <trkpt lat="46.72224" lon="5.7343">
        <ele>573.4</ele>
        <time>2022-03-08T12:12:35Z</time>
      </trkpt>
      <trkpt lat="46.72219" lon="5.73434">
        <ele>572.7</ele>
        <time>2022-03-08T12:12:39Z</time>
      </trkpt>
      <trkpt lat="46.72216" lon="5.73439">
        <ele>572.4</ele>
        <time>2022-03-08T12:12:45Z</time>
      </trkpt>
      <trkpt lat="46.72213" lon="5.73443">
        <ele>572.4</ele>
        <time>2022-03-08T12:12:50Z</time>
      </trkpt>
      <trkpt lat="46.72208" lon="5.73446">
        <ele>572.8</ele>
        <time>2022-03-08T12:12:56Z</time>
      </trkpt>
      <trkpt lat="46.72203" lon="5.7345">
        <ele>572.1</ele>
        <time>2022-03-08T12:13:01Z</time>
      </trkpt>
      <trkpt lat="46.722" lon="5.73454">
        <ele>571.4</ele>
        <time>2022-03-08T12:13:05Z</time>
      </trkpt>
      <trkpt lat="46.72196" lon="5.73457">
        <ele>570.9</ele>
        <time>2022-03-08T12:13:08Z</time>
      </trkpt>
      <trkpt lat="46.72192" lon="5.73463">
        <ele>570.5</ele>
        <time>2022-03-08T12:13:12Z</time>
      </trkpt>
      <trkpt lat="46.7219" lon="5.73469">
        <ele>570.5</ele>
        <time>2022-03-08T12:13:16Z</time>
      </trkpt>
      <trkpt lat="46.72187" lon="5.73475">
        <ele>570.2</ele>
        <time>2022-03-08T12:13:20Z</time>
      </trkpt>
      <trkpt lat="46.72183" lon="5.73481">
        <ele>570.6</ele>
        <time>2022-03-08T12:13:24Z</time>
      </trkpt>
      <trkpt lat="46.72182" lon="5.73487">
        <ele>570.4</ele>
        <time>2022-03-08T12:13:30Z</time>
      </trkpt>
      <trkpt lat="46.72179" lon="5.73494">
        <ele>569</ele>
        <time>2022-03-08T12:13:35Z</time>
      </trkpt>
      <trkpt lat="46.72177" lon="5.73503">
        <ele>568.3</ele>
        <time>2022-03-08T12:13:39Z</time>
      </trkpt>
      <trkpt lat="46.72176" lon="5.7351">
        <ele>568</ele>
        <time>2022-03-08T12:13:43Z</time>
      </trkpt>
      <trkpt lat="46.72174" lon="5.73516">
        <ele>568.4</ele>
        <time>2022-03-08T12:13:47Z</time>
      </trkpt>
      <trkpt lat="46.72172" lon="5.73522">
        <ele>569.1</ele>
        <time>2022-03-08T12:13:51Z</time>
      </trkpt>
      <trkpt lat="46.72172" lon="5.73529">
        <ele>569.9</ele>
        <time>2022-03-08T12:13:56Z</time>
      </trkpt>
      <trkpt lat="46.72172" lon="5.73537">
        <ele>570.3</ele>
        <time>2022-03-08T12:14:00Z</time>
      </trkpt>
      <trkpt lat="46.72173" lon="5.73544">
        <ele>570.9</ele>
        <time>2022-03-08T12:14:04Z</time>
      </trkpt>
      <trkpt lat="46.72176" lon="5.7355">
        <ele>571.6</ele>
        <time>2022-03-08T12:14:08Z</time>
      </trkpt>
      <trkpt lat="46.72178" lon="5.73556">
        <ele>572.2</ele>
        <time>2022-03-08T12:14:13Z</time>
      </trkpt>
      <trkpt lat="46.72178" lon="5.73564">
        <ele>572.1</ele>
        <time>2022-03-08T12:14:18Z</time>
      </trkpt>
      <trkpt lat="46.72179" lon="5.73571">
        <ele>571.3</ele>
        <time>2022-03-08T12:14:23Z</time>
      </trkpt>
      <trkpt lat="46.72177" lon="5.73578">
        <ele>569.8</ele>
        <time>2022-03-08T12:14:29Z</time>
      </trkpt>
      <trkpt lat="46.72175" lon="5.73584">
        <ele>569.5</ele>
        <time>2022-03-08T12:14:33Z</time>
      </trkpt>
      <trkpt lat="46.72174" lon="5.73591">
        <ele>570.3</ele>
        <time>2022-03-08T12:14:38Z</time>
      </trkpt>
      <trkpt lat="46.72172" lon="5.73598">
        <ele>571.6</ele>
        <time>2022-03-08T12:14:44Z</time>
      </trkpt>
      <trkpt lat="46.72168" lon="5.73603">
        <ele>572.7</ele>
        <time>2022-03-08T12:14:49Z</time>
      </trkpt>
      <trkpt lat="46.72164" lon="5.73609">
        <ele>572</ele>
        <time>2022-03-08T12:14:55Z</time>
      </trkpt>
      <trkpt lat="46.7216" lon="5.73614">
        <ele>570.9</ele>
        <time>2022-03-08T12:15:00Z</time>
      </trkpt>
      <trkpt lat="46.72157" lon="5.7362">
        <ele>569.8</ele>
        <time>2022-03-08T12:15:05Z</time>
      </trkpt>
      <trkpt lat="46.72153" lon="5.73625">
        <ele>569.1</ele>
        <time>2022-03-08T12:15:09Z</time>
      </trkpt>
      <trkpt lat="46.7215" lon="5.7363">
        <ele>568.3</ele>
        <time>2022-03-08T12:15:13Z</time>
      </trkpt>
      <trkpt lat="46.72147" lon="5.73637">
        <ele>567.7</ele>
        <time>2022-03-08T12:15:18Z</time>
      </trkpt>
      <trkpt lat="46.72143" lon="5.73643">
        <ele>567.6</ele>
        <time>2022-03-08T12:15:23Z</time>
      </trkpt>
      <trkpt lat="46.72142" lon="5.73649">
        <ele>567.6</ele>
        <time>2022-03-08T12:15:27Z</time>
      </trkpt>
      <trkpt lat="46.7214" lon="5.73656">
        <ele>567.6</ele>
        <time>2022-03-08T12:15:31Z</time>
      </trkpt>
      <trkpt lat="46.72138" lon="5.73663">
        <ele>567.3</ele>
        <time>2022-03-08T12:15:35Z</time>
      </trkpt>
      <trkpt lat="46.72139" lon="5.7367">
        <ele>567.8</ele>
        <time>2022-03-08T12:15:40Z</time>
      </trkpt>
      <trkpt lat="46.72139" lon="5.73678">
        <ele>569.2</ele>
        <time>2022-03-08T12:15:46Z</time>
      </trkpt>
      <trkpt lat="46.72137" lon="5.73685">
        <ele>569.8</ele>
        <time>2022-03-08T12:15:51Z</time>
      </trkpt>
      <trkpt lat="46.72134" lon="5.7369">
        <ele>569.9</ele>
        <time>2022-03-08T12:15:56Z</time>
      </trkpt>
      <trkpt lat="46.7213" lon="5.73695">
        <ele>570.5</ele>
        <time>2022-03-08T12:16:00Z</time>
      </trkpt>
      <trkpt lat="46.72127" lon="5.73702">
        <ele>570.8</ele>
        <time>2022-03-08T12:16:05Z</time>
      </trkpt>
      <trkpt lat="46.72126" lon="5.73709">
        <ele>571.2</ele>
        <time>2022-03-08T12:16:09Z</time>
      </trkpt>
      <trkpt lat="46.72124" lon="5.73715">
        <ele>571.3</ele>
        <time>2022-03-08T12:16:13Z</time>
      </trkpt>
      <trkpt lat="46.72124" lon="5.73722">
        <ele>571.6</ele>
        <time>2022-03-08T12:16:17Z</time>
      </trkpt>
      <trkpt lat="46.72123" lon="5.73729">
        <ele>572</ele>
        <time>2022-03-08T12:16:22Z</time>
      </trkpt>
      <trkpt lat="46.72121" lon="5.73736">
        <ele>572.4</ele>
        <time>2022-03-08T12:16:27Z</time>
      </trkpt>
      <trkpt lat="46.7212" lon="5.73744">
        <ele>573.1</ele>
        <time>2022-03-08T12:16:32Z</time>
      </trkpt>
      <trkpt lat="46.72118" lon="5.73751">
        <ele>574.4</ele>
        <time>2022-03-08T12:16:37Z</time>
      </trkpt>
      <trkpt lat="46.72118" lon="5.73759">
        <ele>575.5</ele>
        <time>2022-03-08T12:16:42Z</time>
      </trkpt>
      <trkpt lat="46.72116" lon="5.73765">
        <ele>576</ele>
        <time>2022-03-08T12:16:47Z</time>
      </trkpt>
      <trkpt lat="46.72114" lon="5.73772">
        <ele>576.2</ele>
        <time>2022-03-08T12:16:52Z</time>
      </trkpt>
      <trkpt lat="46.72113" lon="5.73779">
        <ele>576.4</ele>
        <time>2022-03-08T12:16:57Z</time>
      </trkpt>
      <trkpt lat="46.72113" lon="5.73786">
        <ele>576.2</ele>
        <time>2022-03-08T12:17:02Z</time>
      </trkpt>
      <trkpt lat="46.72111" lon="5.73792">
        <ele>576</ele>
        <time>2022-03-08T12:17:06Z</time>
      </trkpt>
      <trkpt lat="46.7211" lon="5.73799">
        <ele>575.9</ele>
        <time>2022-03-08T12:17:10Z</time>
      </trkpt>
      <trkpt lat="46.72109" lon="5.73805">
        <ele>576.2</ele>
        <time>2022-03-08T12:17:14Z</time>
      </trkpt>
      <trkpt lat="46.72108" lon="5.73813">
        <ele>576.7</ele>
        <time>2022-03-08T12:17:19Z</time>
      </trkpt>
      <trkpt lat="46.72108" lon="5.73821">
        <ele>576.7</ele>
        <time>2022-03-08T12:17:24Z</time>
      </trkpt>
      <trkpt lat="46.72108" lon="5.73828">
        <ele>576</ele>
        <time>2022-03-08T12:17:30Z</time>
      </trkpt>
      <trkpt lat="46.72108" lon="5.73837">
        <ele>574.9</ele>
        <time>2022-03-08T12:17:35Z</time>
      </trkpt>
      <trkpt lat="46.72106" lon="5.73843">
        <ele>574.5</ele>
        <time>2022-03-08T12:17:39Z</time>
      </trkpt>
      <trkpt lat="46.72103" lon="5.7385">
        <ele>575</ele>
        <time>2022-03-08T12:17:43Z</time>
      </trkpt>
      <trkpt lat="46.72102" lon="5.73857">
        <ele>575.4</ele>
        <time>2022-03-08T12:17:47Z</time>
      </trkpt>
      <trkpt lat="46.72101" lon="5.73863">
        <ele>575.5</ele>
        <time>2022-03-08T12:17:51Z</time>
      </trkpt>
      <trkpt lat="46.721" lon="5.7387">
        <ele>576.1</ele>
        <time>2022-03-08T12:17:55Z</time>
      </trkpt>
      <trkpt lat="46.72099" lon="5.73876">
        <ele>576.6</ele>
        <time>2022-03-08T12:17:59Z</time>
      </trkpt>
      <trkpt lat="46.72098" lon="5.73884">
        <ele>576.4</ele>
        <time>2022-03-08T12:18:04Z</time>
      </trkpt>
      <trkpt lat="46.72098" lon="5.73891">
        <ele>576.3</ele>
        <time>2022-03-08T12:18:10Z</time>
      </trkpt>
      <trkpt lat="46.72096" lon="5.73898">
        <ele>576.7</ele>
        <time>2022-03-08T12:18:15Z</time>
      </trkpt>
      <trkpt lat="46.72096" lon="5.73905">
        <ele>577.3</ele>
        <time>2022-03-08T12:18:21Z</time>
      </trkpt>
      <trkpt lat="46.72095" lon="5.73912">
        <ele>577.9</ele>
        <time>2022-03-08T12:18:26Z</time>
      </trkpt>
      <trkpt lat="46.72092" lon="5.73918">
        <ele>579</ele>
        <time>2022-03-08T12:18:31Z</time>
      </trkpt>
      <trkpt lat="46.7209" lon="5.73925">
        <ele>579.7</ele>
        <time>2022-03-08T12:18:36Z</time>
      </trkpt>
      <trkpt lat="46.72089" lon="5.73932">
        <ele>580</ele>
        <time>2022-03-08T12:18:40Z</time>
      </trkpt>
      <trkpt lat="46.72091" lon="5.73938">
        <ele>579.6</ele>
        <time>2022-03-08T12:18:47Z</time>
      </trkpt>
      <trkpt lat="46.72096" lon="5.7394">
        <ele>578.5</ele>
        <time>2022-03-08T12:18:54Z</time>
      </trkpt>
      <trkpt lat="46.72101" lon="5.7394">
        <ele>577.7</ele>
        <time>2022-03-08T12:18:59Z</time>
      </trkpt>
      <trkpt lat="46.72106" lon="5.73938">
        <ele>577</ele>
        <time>2022-03-08T12:19:03Z</time>
      </trkpt>
      <trkpt lat="46.72111" lon="5.73937">
        <ele>576.1</ele>
        <time>2022-03-08T12:19:09Z</time>
      </trkpt>
      <trkpt lat="46.72116" lon="5.73935">
        <ele>575</ele>
        <time>2022-03-08T12:19:14Z</time>
      </trkpt>
      <trkpt lat="46.72121" lon="5.73933">
        <ele>573.7</ele>
        <time>2022-03-08T12:19:20Z</time>
      </trkpt>
      <trkpt lat="46.72125" lon="5.73932">
        <ele>573.5</ele>
        <time>2022-03-08T12:19:25Z</time>
      </trkpt>
      <trkpt lat="46.7213" lon="5.73932">
        <ele>573.3</ele>
        <time>2022-03-08T12:19:32Z</time>
      </trkpt>
      <trkpt lat="46.72136" lon="5.73934">
        <ele>572.7</ele>
        <time>2022-03-08T12:19:38Z</time>
      </trkpt>
      <trkpt lat="46.7214" lon="5.73936">
        <ele>572.4</ele>
        <time>2022-03-08T12:19:42Z</time>
      </trkpt>
      <trkpt lat="46.72145" lon="5.73939">
        <ele>572.2</ele>
        <time>2022-03-08T12:19:46Z</time>
      </trkpt>
      <trkpt lat="46.72149" lon="5.73941">
        <ele>571.8</ele>
        <time>2022-03-08T12:19:50Z</time>
      </trkpt>
      <trkpt lat="46.72154" lon="5.73944">
        <ele>571.9</ele>
        <time>2022-03-08T12:19:56Z</time>
      </trkpt>
      <trkpt lat="46.72158" lon="5.73946">
        <ele>571.9</ele>
        <time>2022-03-08T12:20:02Z</time>
      </trkpt>
      <trkpt lat="46.72163" lon="5.73949">
        <ele>571.5</ele>
        <time>2022-03-08T12:20:06Z</time>
      </trkpt>
      <trkpt lat="46.72167" lon="5.73952">
        <ele>571.1</ele>
        <time>2022-03-08T12:20:10Z</time>
      </trkpt>
      <trkpt lat="46.72171" lon="5.73954">
        <ele>570.3</ele>
        <time>2022-03-08T12:20:15Z</time>
      </trkpt>
      <trkpt lat="46.72176" lon="5.73954">
        <ele>569.4</ele>
        <time>2022-03-08T12:20:20Z</time>
      </trkpt>
      <trkpt lat="46.72182" lon="5.73953">
        <ele>568.2</ele>
        <time>2022-03-08T12:20:25Z</time>
      </trkpt>
      <trkpt lat="46.72186" lon="5.73952">
        <ele>566.9</ele>
        <time>2022-03-08T12:20:32Z</time>
      </trkpt>
      <trkpt lat="46.7219" lon="5.73948">
        <ele>565.9</ele>
        <time>2022-03-08T12:20:38Z</time>
      </trkpt>
      <trkpt lat="46.72195" lon="5.73944">
        <ele>565.3</ele>
        <time>2022-03-08T12:20:43Z</time>
      </trkpt>
      <trkpt lat="46.72199" lon="5.73942">
        <ele>565</ele>
        <time>2022-03-08T12:20:47Z</time>
      </trkpt>
      <trkpt lat="46.72204" lon="5.7394">
        <ele>564.8</ele>
        <time>2022-03-08T12:20:51Z</time>
      </trkpt>
      <trkpt lat="46.7221" lon="5.73938">
        <ele>564.6</ele>
        <time>2022-03-08T12:20:55Z</time>
      </trkpt>
      <trkpt lat="46.72215" lon="5.73937">
        <ele>564.8</ele>
        <time>2022-03-08T12:21:01Z</time>
      </trkpt>
      <trkpt lat="46.72219" lon="5.73941">
        <ele>565.3</ele>
        <time>2022-03-08T12:21:06Z</time>
      </trkpt>
      <trkpt lat="46.72223" lon="5.73945">
        <ele>565.8</ele>
        <time>2022-03-08T12:21:12Z</time>
      </trkpt>
      <trkpt lat="46.72228" lon="5.73948">
        <ele>566.2</ele>
        <time>2022-03-08T12:21:19Z</time>
      </trkpt>
      <trkpt lat="46.72232" lon="5.73952">
        <ele>566.6</ele>
        <time>2022-03-08T12:21:24Z</time>
      </trkpt>
      <trkpt lat="46.72237" lon="5.73956">
        <ele>567</ele>
        <time>2022-03-08T12:21:28Z</time>
      </trkpt>
      <trkpt lat="46.72241" lon="5.7396">
        <ele>567.2</ele>
        <time>2022-03-08T12:21:32Z</time>
      </trkpt>
      <trkpt lat="46.72245" lon="5.73962">
        <ele>566.9</ele>
        <time>2022-03-08T12:21:37Z</time>
      </trkpt>
      <trkpt lat="46.7225" lon="5.73964">
        <ele>566.4</ele>
        <time>2022-03-08T12:21:42Z</time>
      </trkpt>
      <trkpt lat="46.72256" lon="5.73966">
        <ele>565.9</ele>
        <time>2022-03-08T12:21:48Z</time>
      </trkpt>
      <trkpt lat="46.72261" lon="5.73967">
        <ele>565.5</ele>
        <time>2022-03-08T12:21:53Z</time>
      </trkpt>
      <trkpt lat="46.72266" lon="5.73968">
        <ele>565.3</ele>
        <time>2022-03-08T12:21:58Z</time>
      </trkpt>
      <trkpt lat="46.72271" lon="5.73969">
        <ele>565.1</ele>
        <time>2022-03-08T12:22:02Z</time>
      </trkpt>
      <trkpt lat="46.72276" lon="5.73969">
        <ele>564.7</ele>
        <time>2022-03-08T12:22:07Z</time>
      </trkpt>
      <trkpt lat="46.7228" lon="5.7397">
        <ele>563.9</ele>
        <time>2022-03-08T12:22:12Z</time>
      </trkpt>
      <trkpt lat="46.72286" lon="5.73971">
        <ele>563.6</ele>
        <time>2022-03-08T12:22:17Z</time>
      </trkpt>
      <trkpt lat="46.72291" lon="5.73974">
        <ele>564.2</ele>
        <time>2022-03-08T12:22:22Z</time>
      </trkpt>
      <trkpt lat="46.72294" lon="5.73978">
        <ele>564.8</ele>
        <time>2022-03-08T12:22:26Z</time>
      </trkpt>
      <trkpt lat="46.72299" lon="5.73982">
        <ele>565.5</ele>
        <time>2022-03-08T12:22:30Z</time>
      </trkpt>
      <trkpt lat="46.72304" lon="5.73983">
        <ele>565.8</ele>
        <time>2022-03-08T12:22:34Z</time>
      </trkpt>
      <trkpt lat="46.72307" lon="5.73989">
        <ele>566.5</ele>
        <time>2022-03-08T12:22:40Z</time>
      </trkpt>
      <trkpt lat="46.72309" lon="5.73995">
        <ele>567.6</ele>
        <time>2022-03-08T12:22:46Z</time>
      </trkpt>
      <trkpt lat="46.72312" lon="5.74">
        <ele>568.2</ele>
        <time>2022-03-08T12:22:51Z</time>
      </trkpt>
      <trkpt lat="46.72316" lon="5.74005">
        <ele>568.2</ele>
        <time>2022-03-08T12:22:56Z</time>
      </trkpt>
      <trkpt lat="46.7232" lon="5.74009">
        <ele>568.1</ele>
        <time>2022-03-08T12:23:00Z</time>
      </trkpt>
      <trkpt lat="46.72323" lon="5.74015">
        <ele>567.9</ele>
        <time>2022-03-08T12:23:05Z</time>
      </trkpt>
      <trkpt lat="46.72325" lon="5.7402">
        <ele>568.1</ele>
        <time>2022-03-08T12:23:10Z</time>
      </trkpt>
      <trkpt lat="46.72328" lon="5.74028">
        <ele>567.7</ele>
        <time>2022-03-08T12:23:18Z</time>
      </trkpt>
      <trkpt lat="46.72331" lon="5.74033">
        <ele>567.6</ele>
        <time>2022-03-08T12:23:23Z</time>
      </trkpt>
      <trkpt lat="46.72334" lon="5.74038">
        <ele>567.4</ele>
        <time>2022-03-08T12:23:28Z</time>
      </trkpt>
      <trkpt lat="46.72337" lon="5.74043">
        <ele>567.5</ele>
        <time>2022-03-08T12:23:33Z</time>
      </trkpt>
      <trkpt lat="46.7234" lon="5.74049">
        <ele>567.9</ele>
        <time>2022-03-08T12:23:39Z</time>
      </trkpt>
      <trkpt lat="46.72343" lon="5.74055">
        <ele>568.6</ele>
        <time>2022-03-08T12:23:44Z</time>
      </trkpt>
      <trkpt lat="46.72346" lon="5.74061">
        <ele>569.3</ele>
        <time>2022-03-08T12:23:49Z</time>
      </trkpt>
      <trkpt lat="46.72349" lon="5.74066">
        <ele>569.5</ele>
        <time>2022-03-08T12:23:54Z</time>
      </trkpt>
      <trkpt lat="46.72353" lon="5.7407">
        <ele>569.1</ele>
        <time>2022-03-08T12:23:59Z</time>
      </trkpt>
      <trkpt lat="46.72356" lon="5.74076">
        <ele>568.2</ele>
        <time>2022-03-08T12:24:04Z</time>
      </trkpt>
      <trkpt lat="46.72359" lon="5.74082">
        <ele>567.7</ele>
        <time>2022-03-08T12:24:09Z</time>
      </trkpt>
      <trkpt lat="46.72363" lon="5.74086">
        <ele>567.6</ele>
        <time>2022-03-08T12:24:14Z</time>
      </trkpt>
      <trkpt lat="46.72366" lon="5.74091">
        <ele>567.8</ele>
        <time>2022-03-08T12:24:19Z</time>
      </trkpt>
      <trkpt lat="46.7237" lon="5.74096">
        <ele>568</ele>
        <time>2022-03-08T12:24:24Z</time>
      </trkpt>
      <trkpt lat="46.72373" lon="5.741">
        <ele>568.1</ele>
        <time>2022-03-08T12:24:29Z</time>
      </trkpt>
      <trkpt lat="46.72378" lon="5.74104">
        <ele>568.6</ele>
        <time>2022-03-08T12:24:34Z</time>
      </trkpt>
      <trkpt lat="46.72381" lon="5.74108">
        <ele>568.9</ele>
        <time>2022-03-08T12:24:39Z</time>
      </trkpt>
      <trkpt lat="46.72385" lon="5.74114">
        <ele>568.8</ele>
        <time>2022-03-08T12:24:44Z</time>
      </trkpt>
      <trkpt lat="46.72389" lon="5.74118">
        <ele>568.9</ele>
        <time>2022-03-08T12:24:48Z</time>
      </trkpt>
      <trkpt lat="46.72392" lon="5.74122">
        <ele>568.8</ele>
        <time>2022-03-08T12:24:53Z</time>
      </trkpt>
      <trkpt lat="46.72396" lon="5.74126">
        <ele>569.2</ele>
        <time>2022-03-08T12:24:59Z</time>
      </trkpt>
      <trkpt lat="46.72399" lon="5.74131">
        <ele>569.4</ele>
        <time>2022-03-08T12:25:03Z</time>
      </trkpt>
      <trkpt lat="46.72404" lon="5.74136">
        <ele>569.9</ele>
        <time>2022-03-08T12:25:07Z</time>
      </trkpt>
      <trkpt lat="46.72407" lon="5.7414">
        <ele>570.1</ele>
        <time>2022-03-08T12:25:11Z</time>
      </trkpt>
      <trkpt lat="46.72411" lon="5.74143">
        <ele>569.7</ele>
        <time>2022-03-08T12:25:15Z</time>
      </trkpt>
      <trkpt lat="46.72416" lon="5.74148">
        <ele>569.1</ele>
        <time>2022-03-08T12:25:20Z</time>
      </trkpt>
      <trkpt lat="46.7242" lon="5.74151">
        <ele>569.2</ele>
        <time>2022-03-08T12:25:25Z</time>
      </trkpt>
      <trkpt lat="46.72425" lon="5.74153">
        <ele>569.8</ele>
        <time>2022-03-08T12:25:30Z</time>
      </trkpt>
      <trkpt lat="46.72429" lon="5.74158">
        <ele>570.3</ele>
        <time>2022-03-08T12:25:36Z</time>
      </trkpt>
      <trkpt lat="46.72433" lon="5.74163">
        <ele>571.1</ele>
        <time>2022-03-08T12:25:41Z</time>
      </trkpt>
      <trkpt lat="46.72438" lon="5.74165">
        <ele>572</ele>
        <time>2022-03-08T12:25:45Z</time>
      </trkpt>
      <trkpt lat="46.72442" lon="5.7417">
        <ele>573.4</ele>
        <time>2022-03-08T12:25:50Z</time>
      </trkpt>
      <trkpt lat="46.72444" lon="5.74176">
        <ele>574.9</ele>
        <time>2022-03-08T12:25:56Z</time>
      </trkpt>
      <trkpt lat="46.72448" lon="5.74181">
        <ele>575.6</ele>
        <time>2022-03-08T12:26:02Z</time>
      </trkpt>
      <trkpt lat="46.72452" lon="5.74186">
        <ele>575.5</ele>
        <time>2022-03-08T12:26:06Z</time>
      </trkpt>
      <trkpt lat="46.72457" lon="5.74191">
        <ele>574.5</ele>
        <time>2022-03-08T12:26:11Z</time>
      </trkpt>
      <trkpt lat="46.72461" lon="5.74195">
        <ele>573.9</ele>
        <time>2022-03-08T12:26:16Z</time>
      </trkpt>
      <trkpt lat="46.72464" lon="5.74201">
        <ele>573.8</ele>
        <time>2022-03-08T12:26:22Z</time>
      </trkpt>
      <trkpt lat="46.72467" lon="5.74207">
        <ele>573.6</ele>
        <time>2022-03-08T12:26:27Z</time>
      </trkpt>
      <trkpt lat="46.72469" lon="5.74212">
        <ele>573.7</ele>
        <time>2022-03-08T12:26:32Z</time>
      </trkpt>
      <trkpt lat="46.72473" lon="5.74217">
        <ele>573.8</ele>
        <time>2022-03-08T12:26:36Z</time>
      </trkpt>
      <trkpt lat="46.72477" lon="5.7422">
        <ele>573.7</ele>
        <time>2022-03-08T12:26:41Z</time>
      </trkpt>
      <trkpt lat="46.72481" lon="5.74224">
        <ele>573.2</ele>
        <time>2022-03-08T12:26:45Z</time>
      </trkpt>
      <trkpt lat="46.72484" lon="5.74229">
        <ele>572.2</ele>
        <time>2022-03-08T12:26:51Z</time>
      </trkpt>
      <trkpt lat="46.72488" lon="5.74232">
        <ele>571.5</ele>
        <time>2022-03-08T12:26:55Z</time>
      </trkpt>
      <trkpt lat="46.72492" lon="5.74237">
        <ele>570.8</ele>
        <time>2022-03-08T12:27:00Z</time>
      </trkpt>
      <trkpt lat="46.72496" lon="5.74242">
        <ele>570.6</ele>
        <time>2022-03-08T12:27:06Z</time>
      </trkpt>
      <trkpt lat="46.72499" lon="5.74247">
        <ele>571.1</ele>
        <time>2022-03-08T12:27:12Z</time>
      </trkpt>
      <trkpt lat="46.72504" lon="5.74252">
        <ele>571.5</ele>
        <time>2022-03-08T12:27:17Z</time>
      </trkpt>
      <trkpt lat="46.72507" lon="5.74258">
        <ele>571.9</ele>
        <time>2022-03-08T12:27:23Z</time>
      </trkpt>
      <trkpt lat="46.72509" lon="5.74265">
        <ele>572.5</ele>
        <time>2022-03-08T12:27:28Z</time>
      </trkpt>
      <trkpt lat="46.72511" lon="5.74272">
        <ele>573.5</ele>
        <time>2022-03-08T12:27:34Z</time>
      </trkpt>
      <trkpt lat="46.72515" lon="5.74276">
        <ele>574.3</ele>
        <time>2022-03-08T12:27:38Z</time>
      </trkpt>
      <trkpt lat="46.72518" lon="5.7428">
        <ele>574.9</ele>
        <time>2022-03-08T12:27:42Z</time>
      </trkpt>
      <trkpt lat="46.72522" lon="5.74286">
        <ele>575.1</ele>
        <time>2022-03-08T12:27:46Z</time>
      </trkpt>
      <trkpt lat="46.72524" lon="5.74292">
        <ele>575.2</ele>
        <time>2022-03-08T12:27:51Z</time>
      </trkpt>
      <trkpt lat="46.72528" lon="5.74298">
        <ele>575.3</ele>
        <time>2022-03-08T12:27:56Z</time>
      </trkpt>
      <trkpt lat="46.72531" lon="5.74302">
        <ele>574.9</ele>
        <time>2022-03-08T12:28:01Z</time>
      </trkpt>
      <trkpt lat="46.72535" lon="5.74306">
        <ele>574.9</ele>
        <time>2022-03-08T12:28:05Z</time>
      </trkpt>
      <trkpt lat="46.72539" lon="5.7431">
        <ele>574.6</ele>
        <time>2022-03-08T12:28:09Z</time>
      </trkpt>
      <trkpt lat="46.72543" lon="5.74315">
        <ele>574.1</ele>
        <time>2022-03-08T12:28:15Z</time>
      </trkpt>
      <trkpt lat="46.72547" lon="5.74319">
        <ele>573.8</ele>
        <time>2022-03-08T12:28:20Z</time>
      </trkpt>
      <trkpt lat="46.72551" lon="5.74323">
        <ele>573.7</ele>
        <time>2022-03-08T12:28:25Z</time>
      </trkpt>
      <trkpt lat="46.72555" lon="5.74328">
        <ele>573.5</ele>
        <time>2022-03-08T12:28:30Z</time>
      </trkpt>
      <trkpt lat="46.72558" lon="5.74332">
        <ele>572.6</ele>
        <time>2022-03-08T12:28:35Z</time>
      </trkpt>
      <trkpt lat="46.72562" lon="5.74337">
        <ele>572</ele>
        <time>2022-03-08T12:28:40Z</time>
      </trkpt>
      <trkpt lat="46.72566" lon="5.74339">
        <ele>571.7</ele>
        <time>2022-03-08T12:28:43Z</time>
      </trkpt>
      <trkpt lat="46.72571" lon="5.74342">
        <ele>571.3</ele>
        <time>2022-03-08T12:28:46Z</time>
      </trkpt>
      <trkpt lat="46.72575" lon="5.74346">
        <ele>570.9</ele>
        <time>2022-03-08T12:28:50Z</time>
      </trkpt>
      <trkpt lat="46.72579" lon="5.74351">
        <ele>571.1</ele>
        <time>2022-03-08T12:28:54Z</time>
      </trkpt>
      <trkpt lat="46.72583" lon="5.74355">
        <ele>571.5</ele>
        <time>2022-03-08T12:28:59Z</time>
      </trkpt>
      <trkpt lat="46.72587" lon="5.74358">
        <ele>572.2</ele>
        <time>2022-03-08T12:29:04Z</time>
      </trkpt>
      <trkpt lat="46.7259" lon="5.74365">
        <ele>572.9</ele>
        <time>2022-03-08T12:29:11Z</time>
      </trkpt>
      <trkpt lat="46.72593" lon="5.7437">
        <ele>573.8</ele>
        <time>2022-03-08T12:29:16Z</time>
      </trkpt>
      <trkpt lat="46.72597" lon="5.74375">
        <ele>574.8</ele>
        <time>2022-03-08T12:29:21Z</time>
      </trkpt>
      <trkpt lat="46.726" lon="5.74379">
        <ele>575.4</ele>
        <time>2022-03-08T12:29:25Z</time>
      </trkpt>
      <trkpt lat="46.72606" lon="5.74382">
        <ele>575.7</ele>
        <time>2022-03-08T12:29:30Z</time>
      </trkpt>
      <trkpt lat="46.7261" lon="5.74382">
        <ele>575.8</ele>
        <time>2022-03-08T12:29:34Z</time>
      </trkpt>
      <trkpt lat="46.72615" lon="5.74382">
        <ele>576</ele>
        <time>2022-03-08T12:29:38Z</time>
      </trkpt>
      <trkpt lat="46.7262" lon="5.74383">
        <ele>576.1</ele>
        <time>2022-03-08T12:29:43Z</time>
      </trkpt>
      <trkpt lat="46.72625" lon="5.74383">
        <ele>575.9</ele>
        <time>2022-03-08T12:29:48Z</time>
      </trkpt>
      <trkpt lat="46.7263" lon="5.74385">
        <ele>575.2</ele>
        <time>2022-03-08T12:29:53Z</time>
      </trkpt>
      <trkpt lat="46.72635" lon="5.74386">
        <ele>574.7</ele>
        <time>2022-03-08T12:29:57Z</time>
      </trkpt>
      <trkpt lat="46.7264" lon="5.74387">
        <ele>574</ele>
        <time>2022-03-08T12:30:01Z</time>
      </trkpt>
      <trkpt lat="46.72645" lon="5.7439">
        <ele>573.2</ele>
        <time>2022-03-08T12:30:05Z</time>
      </trkpt>
      <trkpt lat="46.7265" lon="5.74392">
        <ele>572.1</ele>
        <time>2022-03-08T12:30:10Z</time>
      </trkpt>
      <trkpt lat="46.72655" lon="5.74394">
        <ele>571.6</ele>
        <time>2022-03-08T12:30:16Z</time>
      </trkpt>
      <trkpt lat="46.7266" lon="5.74397">
        <ele>571.7</ele>
        <time>2022-03-08T12:30:21Z</time>
      </trkpt>
      <trkpt lat="46.72664" lon="5.744">
        <ele>571.7</ele>
        <time>2022-03-08T12:30:25Z</time>
      </trkpt>
      <trkpt lat="46.72669" lon="5.74404">
        <ele>572</ele>
        <time>2022-03-08T12:30:30Z</time>
      </trkpt>
      <trkpt lat="46.72674" lon="5.74408">
        <ele>572</ele>
        <time>2022-03-08T12:30:35Z</time>
      </trkpt>
      <trkpt lat="46.72679" lon="5.74409">
        <ele>571.8</ele>
        <time>2022-03-08T12:30:40Z</time>
      </trkpt>
      <trkpt lat="46.72685" lon="5.74409">
        <ele>571.6</ele>
        <time>2022-03-08T12:30:44Z</time>
      </trkpt>
      <trkpt lat="46.7269" lon="5.74409">
        <ele>571.6</ele>
        <time>2022-03-08T12:30:48Z</time>
      </trkpt>
      <trkpt lat="46.72694" lon="5.7441">
        <ele>571.8</ele>
        <time>2022-03-08T12:30:52Z</time>
      </trkpt>
      <trkpt lat="46.727" lon="5.74412">
        <ele>572.4</ele>
        <time>2022-03-08T12:30:57Z</time>
      </trkpt>
      <trkpt lat="46.72704" lon="5.74412">
        <ele>572.6</ele>
        <time>2022-03-08T12:31:02Z</time>
      </trkpt>
      <trkpt lat="46.72709" lon="5.74414">
        <ele>572.6</ele>
        <time>2022-03-08T12:31:07Z</time>
      </trkpt>
      <trkpt lat="46.72714" lon="5.74414">
        <ele>573.8</ele>
        <time>2022-03-08T12:31:13Z</time>
      </trkpt>
      <trkpt lat="46.72719" lon="5.74414">
        <ele>575.2</ele>
        <time>2022-03-08T12:31:18Z</time>
      </trkpt>
      <trkpt lat="46.72724" lon="5.74416">
        <ele>576.7</ele>
        <time>2022-03-08T12:31:24Z</time>
      </trkpt>
      <trkpt lat="46.72728" lon="5.74417">
        <ele>577.7</ele>
        <time>2022-03-08T12:31:30Z</time>
      </trkpt>
      <trkpt lat="46.72733" lon="5.74418">
        <ele>577.7</ele>
        <time>2022-03-08T12:31:35Z</time>
      </trkpt>
      <trkpt lat="46.72738" lon="5.74421">
        <ele>577.3</ele>
        <time>2022-03-08T12:31:39Z</time>
      </trkpt>
      <trkpt lat="46.72743" lon="5.74423">
        <ele>576.8</ele>
        <time>2022-03-08T12:31:43Z</time>
      </trkpt>
      <trkpt lat="46.72747" lon="5.74424">
        <ele>576.1</ele>
        <time>2022-03-08T12:31:47Z</time>
      </trkpt>
      <trkpt lat="46.72752" lon="5.74426">
        <ele>575.8</ele>
        <time>2022-03-08T12:31:53Z</time>
      </trkpt>
      <trkpt lat="46.72758" lon="5.74428">
        <ele>575.6</ele>
        <time>2022-03-08T12:31:59Z</time>
      </trkpt>
      <trkpt lat="46.72763" lon="5.74429">
        <ele>575.6</ele>
        <time>2022-03-08T12:32:03Z</time>
      </trkpt>
      <trkpt lat="46.72769" lon="5.7443">
        <ele>575.6</ele>
        <time>2022-03-08T12:32:09Z</time>
      </trkpt>
      <trkpt lat="46.72774" lon="5.74431">
        <ele>575.3</ele>
        <time>2022-03-08T12:32:13Z</time>
      </trkpt>
      <trkpt lat="46.72778" lon="5.74435">
        <ele>574.8</ele>
        <time>2022-03-08T12:32:20Z</time>
      </trkpt>
      <trkpt lat="46.72782" lon="5.74441">
        <ele>575.3</ele>
        <time>2022-03-08T12:32:25Z</time>
      </trkpt>
      <trkpt lat="46.72785" lon="5.74445">
        <ele>575.7</ele>
        <time>2022-03-08T12:32:29Z</time>
      </trkpt>
      <trkpt lat="46.72787" lon="5.74452">
        <ele>575.9</ele>
        <time>2022-03-08T12:32:35Z</time>
      </trkpt>
      <trkpt lat="46.72787" lon="5.7446">
        <ele>575.7</ele>
        <time>2022-03-08T12:32:40Z</time>
      </trkpt>
      <trkpt lat="46.72786" lon="5.74467">
        <ele>575.6</ele>
        <time>2022-03-08T12:32:45Z</time>
      </trkpt>
      <trkpt lat="46.72785" lon="5.74475">
        <ele>575.7</ele>
        <time>2022-03-08T12:32:50Z</time>
      </trkpt>
      <trkpt lat="46.72784" lon="5.74482">
        <ele>576</ele>
        <time>2022-03-08T12:32:54Z</time>
      </trkpt>
      <trkpt lat="46.72784" lon="5.7449">
        <ele>576.9</ele>
        <time>2022-03-08T12:32:59Z</time>
      </trkpt>
      <trkpt lat="46.72783" lon="5.74497">
        <ele>577.4</ele>
        <time>2022-03-08T12:33:05Z</time>
      </trkpt>
      <trkpt lat="46.72782" lon="5.74505">
        <ele>577.4</ele>
        <time>2022-03-08T12:33:10Z</time>
      </trkpt>
      <trkpt lat="46.7278" lon="5.74513">
        <ele>577.7</ele>
        <time>2022-03-08T12:33:15Z</time>
      </trkpt>
      <trkpt lat="46.72779" lon="5.74521">
        <ele>578.1</ele>
        <time>2022-03-08T12:33:20Z</time>
      </trkpt>
      <trkpt lat="46.72777" lon="5.74528">
        <ele>578.8</ele>
        <time>2022-03-08T12:33:25Z</time>
      </trkpt>
      <trkpt lat="46.72774" lon="5.74535">
        <ele>579.1</ele>
        <time>2022-03-08T12:33:28Z</time>
      </trkpt>
      <trkpt lat="46.72772" lon="5.74541">
        <ele>579.4</ele>
        <time>2022-03-08T12:33:32Z</time>
      </trkpt>
      <trkpt lat="46.72772" lon="5.74548">
        <ele>579.5</ele>
        <time>2022-03-08T12:33:36Z</time>
      </trkpt>
      <trkpt lat="46.7277" lon="5.74555">
        <ele>578.3</ele>
        <time>2022-03-08T12:33:42Z</time>
      </trkpt>
      <trkpt lat="46.72769" lon="5.74562">
        <ele>576.9</ele>
        <time>2022-03-08T12:33:49Z</time>
      </trkpt>
      <trkpt lat="46.7277" lon="5.74569">
        <ele>576</ele>
        <time>2022-03-08T12:33:55Z</time>
      </trkpt>
      <trkpt lat="46.7277" lon="5.74577">
        <ele>575.9</ele>
        <time>2022-03-08T12:34:00Z</time>
      </trkpt>
      <trkpt lat="46.7277" lon="5.74584">
        <ele>576.1</ele>
        <time>2022-03-08T12:34:05Z</time>
      </trkpt>
      <trkpt lat="46.72769" lon="5.7459">
        <ele>575.6</ele>
        <time>2022-03-08T12:34:10Z</time>
      </trkpt>
      <trkpt lat="46.72768" lon="5.74598">
        <ele>575.1</ele>
        <time>2022-03-08T12:34:14Z</time>
      </trkpt>
      <trkpt lat="46.72767" lon="5.74606">
        <ele>574.5</ele>
        <time>2022-03-08T12:34:19Z</time>
      </trkpt>
      <trkpt lat="46.72765" lon="5.74613">
        <ele>572</ele>
        <time>2022-03-08T12:34:25Z</time>
      </trkpt>
      <trkpt lat="46.72764" lon="5.74619">
        <ele>570.1</ele>
        <time>2022-03-08T12:34:30Z</time>
      </trkpt>
      <trkpt lat="46.72763" lon="5.74627">
        <ele>568.5</ele>
        <time>2022-03-08T12:34:35Z</time>
      </trkpt>
      <trkpt lat="46.72762" lon="5.74633">
        <ele>567.5</ele>
        <time>2022-03-08T12:34:39Z</time>
      </trkpt>
      <trkpt lat="46.72761" lon="5.7464">
        <ele>567.1</ele>
        <time>2022-03-08T12:34:43Z</time>
      </trkpt>
      <trkpt lat="46.72761" lon="5.74647">
        <ele>568.1</ele>
        <time>2022-03-08T12:34:47Z</time>
      </trkpt>
      <trkpt lat="46.72763" lon="5.74654">
        <ele>570</ele>
        <time>2022-03-08T12:34:52Z</time>
      </trkpt>
      <trkpt lat="46.72768" lon="5.74658">
        <ele>571.5</ele>
        <time>2022-03-08T12:34:57Z</time>
      </trkpt>
      <trkpt lat="46.72772" lon="5.74662">
        <ele>572.1</ele>
        <time>2022-03-08T12:35:02Z</time>
      </trkpt>
      <trkpt lat="46.72775" lon="5.74668">
        <ele>572.2</ele>
        <time>2022-03-08T12:35:08Z</time>
      </trkpt>
      <trkpt lat="46.72779" lon="5.74674">
        <ele>572.1</ele>
        <time>2022-03-08T12:35:14Z</time>
      </trkpt>
      <trkpt lat="46.72782" lon="5.74679">
        <ele>572</ele>
        <time>2022-03-08T12:35:20Z</time>
      </trkpt>
      <trkpt lat="46.72787" lon="5.74681">
        <ele>572.2</ele>
        <time>2022-03-08T12:35:25Z</time>
      </trkpt>
      <trkpt lat="46.72791" lon="5.74686">
        <ele>572.4</ele>
        <time>2022-03-08T12:35:31Z</time>
      </trkpt>
      <trkpt lat="46.72796" lon="5.74687">
        <ele>573.1</ele>
        <time>2022-03-08T12:35:35Z</time>
      </trkpt>
      <trkpt lat="46.72802" lon="5.74686">
        <ele>573.7</ele>
        <time>2022-03-08T12:35:39Z</time>
      </trkpt>
      <trkpt lat="46.72807" lon="5.74687">
        <ele>573.6</ele>
        <time>2022-03-08T12:35:43Z</time>
      </trkpt>
      <trkpt lat="46.72808" lon="5.74694">
        <ele>570.6</ele>
        <time>2022-03-08T12:35:49Z</time>
      </trkpt>
      <trkpt lat="46.72812" lon="5.74699">
        <ele>568.3</ele>
        <time>2022-03-08T12:35:53Z</time>
      </trkpt>
      <trkpt lat="46.72816" lon="5.74702">
        <ele>567.3</ele>
        <time>2022-03-08T12:35:57Z</time>
      </trkpt>
      <trkpt lat="46.72821" lon="5.74704">
        <ele>567.7</ele>
        <time>2022-03-08T12:36:01Z</time>
      </trkpt>
      <trkpt lat="46.72826" lon="5.74704">
        <ele>568</ele>
        <time>2022-03-08T12:36:05Z</time>
      </trkpt>
      <trkpt lat="46.72831" lon="5.74704">
        <ele>568.3</ele>
        <time>2022-03-08T12:36:09Z</time>
      </trkpt>
      <trkpt lat="46.72836" lon="5.74703">
        <ele>568.4</ele>
        <time>2022-03-08T12:36:13Z</time>
      </trkpt>
      <trkpt lat="46.72841" lon="5.74703">
        <ele>568.5</ele>
        <time>2022-03-08T12:36:18Z</time>
      </trkpt>
      <trkpt lat="46.72846" lon="5.74705">
        <ele>568.3</ele>
        <time>2022-03-08T12:36:22Z</time>
      </trkpt>
      <trkpt lat="46.72851" lon="5.74705">
        <ele>567.9</ele>
        <time>2022-03-08T12:36:25Z</time>
      </trkpt>
      <trkpt lat="46.72855" lon="5.74703">
        <ele>567.5</ele>
        <time>2022-03-08T12:36:29Z</time>
      </trkpt>
      <trkpt lat="46.72859" lon="5.74699">
        <ele>567.8</ele>
        <time>2022-03-08T12:36:33Z</time>
      </trkpt>
      <trkpt lat="46.72863" lon="5.74694">
        <ele>568.8</ele>
        <time>2022-03-08T12:36:37Z</time>
      </trkpt>
      <trkpt lat="46.72867" lon="5.74689">
        <ele>570.5</ele>
        <time>2022-03-08T12:36:41Z</time>
      </trkpt>
      <trkpt lat="46.72872" lon="5.74684">
        <ele>572.4</ele>
        <time>2022-03-08T12:36:45Z</time>
      </trkpt>
      <trkpt lat="46.72875" lon="5.74678">
        <ele>574.7</ele>
        <time>2022-03-08T12:36:49Z</time>
      </trkpt>
      <trkpt lat="46.72877" lon="5.74672">
        <ele>577.3</ele>
        <time>2022-03-08T12:36:54Z</time>
      </trkpt>
      <trkpt lat="46.72878" lon="5.74665">
        <ele>580.2</ele>
        <time>2022-03-08T12:37:01Z</time>
      </trkpt>
      <trkpt lat="46.72881" lon="5.7466">
        <ele>581.9</ele>
        <time>2022-03-08T12:37:06Z</time>
      </trkpt>
      <trkpt lat="46.72883" lon="5.74654">
        <ele>582.6</ele>
        <time>2022-03-08T12:37:10Z</time>
      </trkpt>
      <trkpt lat="46.72888" lon="5.74652">
        <ele>582.7</ele>
        <time>2022-03-08T12:37:15Z</time>
      </trkpt>
      <trkpt lat="46.72893" lon="5.74649">
        <ele>582.9</ele>
        <time>2022-03-08T12:37:18Z</time>
      </trkpt>
      <trkpt lat="46.72896" lon="5.74644">
        <ele>583.1</ele>
        <time>2022-03-08T12:37:22Z</time>
      </trkpt>
      <trkpt lat="46.72899" lon="5.74637">
        <ele>583.2</ele>
        <time>2022-03-08T12:37:27Z</time>
      </trkpt>
      <trkpt lat="46.72901" lon="5.7463">
        <ele>583.3</ele>
        <time>2022-03-08T12:37:33Z</time>
      </trkpt>
      <trkpt lat="46.72904" lon="5.74623">
        <ele>583.3</ele>
        <time>2022-03-08T12:37:36Z</time>
      </trkpt>
      <trkpt lat="46.72908" lon="5.74617">
        <ele>583.6</ele>
        <time>2022-03-08T12:37:39Z</time>
      </trkpt>
      <trkpt lat="46.72911" lon="5.74612">
        <ele>583.7</ele>
        <time>2022-03-08T12:37:44Z</time>
      </trkpt>
      <trkpt lat="46.7291" lon="5.74606">
        <ele>583.2</ele>
        <time>2022-03-08T12:37:50Z</time>
      </trkpt>
      <trkpt lat="46.72915" lon="5.74605">
        <ele>583.2</ele>
        <time>2022-03-08T12:37:57Z</time>
      </trkpt>
      <trkpt lat="46.7292" lon="5.74605">
        <ele>582.7</ele>
        <time>2022-03-08T12:38:04Z</time>
      </trkpt>
      <trkpt lat="46.72926" lon="5.74605">
        <ele>583</ele>
        <time>2022-03-08T12:38:08Z</time>
      </trkpt>
      <trkpt lat="46.7293" lon="5.74602">
        <ele>583.1</ele>
        <time>2022-03-08T12:38:12Z</time>
      </trkpt>
      <trkpt lat="46.72935" lon="5.746">
        <ele>582.9</ele>
        <time>2022-03-08T12:38:18Z</time>
      </trkpt>
      <trkpt lat="46.7294" lon="5.74598">
        <ele>583.1</ele>
        <time>2022-03-08T12:38:25Z</time>
      </trkpt>
      <trkpt lat="46.72945" lon="5.74597">
        <ele>582.3</ele>
        <time>2022-03-08T12:38:31Z</time>
      </trkpt>
      <trkpt lat="46.7294" lon="5.74597">
        <ele>576.4</ele>
        <time>2022-03-08T12:39:49Z</time>
      </trkpt>
      <trkpt lat="46.72935" lon="5.74598">
        <ele>576.5</ele>
        <time>2022-03-08T12:39:56Z</time>
      </trkpt>
      <trkpt lat="46.7293" lon="5.746">
        <ele>577</ele>
        <time>2022-03-08T12:40:00Z</time>
      </trkpt>
      <trkpt lat="46.72925" lon="5.74603">
        <ele>576.9</ele>
        <time>2022-03-08T12:40:04Z</time>
      </trkpt>
      <trkpt lat="46.7292" lon="5.74608">
        <ele>576.8</ele>
        <time>2022-03-08T12:40:08Z</time>
      </trkpt>
      <trkpt lat="46.72917" lon="5.74614">
        <ele>577.2</ele>
        <time>2022-03-08T12:40:11Z</time>
      </trkpt>
      <trkpt lat="46.72914" lon="5.74619">
        <ele>578.4</ele>
        <time>2022-03-08T12:40:15Z</time>
      </trkpt>
      <trkpt lat="46.7291" lon="5.74624">
        <ele>580.9</ele>
        <time>2022-03-08T12:40:22Z</time>
      </trkpt>
      <trkpt lat="46.72905" lon="5.74626">
        <ele>582.3</ele>
        <time>2022-03-08T12:40:28Z</time>
      </trkpt>
      <trkpt lat="46.729" lon="5.74624">
        <ele>583.1</ele>
        <time>2022-03-08T12:40:33Z</time>
      </trkpt>
      <trkpt lat="46.72896" lon="5.74628">
        <ele>581.7</ele>
        <time>2022-03-08T12:40:43Z</time>
      </trkpt>
      <trkpt lat="46.72893" lon="5.74633">
        <ele>580.5</ele>
        <time>2022-03-08T12:40:49Z</time>
      </trkpt>
      <trkpt lat="46.7289" lon="5.74639">
        <ele>579.4</ele>
        <time>2022-03-08T12:40:56Z</time>
      </trkpt>
      <trkpt lat="46.7289" lon="5.74646">
        <ele>578.8</ele>
        <time>2022-03-08T12:41:01Z</time>
      </trkpt>
      <trkpt lat="46.72887" lon="5.74651">
        <ele>578.4</ele>
        <time>2022-03-08T12:41:06Z</time>
      </trkpt>
      <trkpt lat="46.72883" lon="5.74657">
        <ele>578.5</ele>
        <time>2022-03-08T12:41:11Z</time>
      </trkpt>
      <trkpt lat="46.7288" lon="5.74662">
        <ele>579</ele>
        <time>2022-03-08T12:41:16Z</time>
      </trkpt>
      <trkpt lat="46.72876" lon="5.74669">
        <ele>579.3</ele>
        <time>2022-03-08T12:41:21Z</time>
      </trkpt>
      <trkpt lat="46.72874" lon="5.74675">
        <ele>579.3</ele>
        <time>2022-03-08T12:41:25Z</time>
      </trkpt>
      <trkpt lat="46.7287" lon="5.7468">
        <ele>579.4</ele>
        <time>2022-03-08T12:41:30Z</time>
      </trkpt>
      <trkpt lat="46.72866" lon="5.74682">
        <ele>579.8</ele>
        <time>2022-03-08T12:41:34Z</time>
      </trkpt>
      <trkpt lat="46.72862" lon="5.74685">
        <ele>580.5</ele>
        <time>2022-03-08T12:41:37Z</time>
      </trkpt>
      <trkpt lat="46.72858" lon="5.74689">
        <ele>581.4</ele>
        <time>2022-03-08T12:41:40Z</time>
      </trkpt>
      <trkpt lat="46.72854" lon="5.74693">
        <ele>582.8</ele>
        <time>2022-03-08T12:41:44Z</time>
      </trkpt>
      <trkpt lat="46.7285" lon="5.74697">
        <ele>583.9</ele>
        <time>2022-03-08T12:41:48Z</time>
      </trkpt>
      <trkpt lat="46.72847" lon="5.74701">
        <ele>585.2</ele>
        <time>2022-03-08T12:41:53Z</time>
      </trkpt>
      <trkpt lat="46.72843" lon="5.74705">
        <ele>586.1</ele>
        <time>2022-03-08T12:41:57Z</time>
      </trkpt>
      <trkpt lat="46.72838" lon="5.74707">
        <ele>586.6</ele>
        <time>2022-03-08T12:42:02Z</time>
      </trkpt>
      <trkpt lat="46.72834" lon="5.7471">
        <ele>585.8</ele>
        <time>2022-03-08T12:42:09Z</time>
      </trkpt>
      <trkpt lat="46.72831" lon="5.74715">
        <ele>583.9</ele>
        <time>2022-03-08T12:42:15Z</time>
      </trkpt>
      <trkpt lat="46.72827" lon="5.74719">
        <ele>582.4</ele>
        <time>2022-03-08T12:42:20Z</time>
      </trkpt>
      <trkpt lat="46.72824" lon="5.74725">
        <ele>580.4</ele>
        <time>2022-03-08T12:42:26Z</time>
      </trkpt>
      <trkpt lat="46.72822" lon="5.74731">
        <ele>579.7</ele>
        <time>2022-03-08T12:42:31Z</time>
      </trkpt>
      <trkpt lat="46.72819" lon="5.74738">
        <ele>580.7</ele>
        <time>2022-03-08T12:42:36Z</time>
      </trkpt>
      <trkpt lat="46.72817" lon="5.74744">
        <ele>582.5</ele>
        <time>2022-03-08T12:42:41Z</time>
      </trkpt>
      <trkpt lat="46.72813" lon="5.74749">
        <ele>584.3</ele>
        <time>2022-03-08T12:42:46Z</time>
      </trkpt>
      <trkpt lat="46.72811" lon="5.74755">
        <ele>585.1</ele>
        <time>2022-03-08T12:42:50Z</time>
      </trkpt>
      <trkpt lat="46.72808" lon="5.74762">
        <ele>585.1</ele>
        <time>2022-03-08T12:42:54Z</time>
      </trkpt>
      <trkpt lat="46.72805" lon="5.74768">
        <ele>585.7</ele>
        <time>2022-03-08T12:42:59Z</time>
      </trkpt>
      <trkpt lat="46.72803" lon="5.74775">
        <ele>585.9</ele>
        <time>2022-03-08T12:43:05Z</time>
      </trkpt>
      <trkpt lat="46.72801" lon="5.74782">
        <ele>585.9</ele>
        <time>2022-03-08T12:43:09Z</time>
      </trkpt>
      <trkpt lat="46.72799" lon="5.74787">
        <ele>585.9</ele>
        <time>2022-03-08T12:43:13Z</time>
      </trkpt>
      <trkpt lat="46.72795" lon="5.74792">
        <ele>585.8</ele>
        <time>2022-03-08T12:43:17Z</time>
      </trkpt>
      <trkpt lat="46.72792" lon="5.74799">
        <ele>585.5</ele>
        <time>2022-03-08T12:43:22Z</time>
      </trkpt>
      <trkpt lat="46.72789" lon="5.74806">
        <ele>585.4</ele>
        <time>2022-03-08T12:43:27Z</time>
      </trkpt>
      <trkpt lat="46.72786" lon="5.74811">
        <ele>585.1</ele>
        <time>2022-03-08T12:43:31Z</time>
      </trkpt>
      <trkpt lat="46.72783" lon="5.74817">
        <ele>585</ele>
        <time>2022-03-08T12:43:36Z</time>
      </trkpt>
      <trkpt lat="46.72781" lon="5.74823">
        <ele>585.3</ele>
        <time>2022-03-08T12:43:41Z</time>
      </trkpt>
      <trkpt lat="46.72778" lon="5.74829">
        <ele>586.7</ele>
        <time>2022-03-08T12:43:47Z</time>
      </trkpt>
      <trkpt lat="46.72774" lon="5.74835">
        <ele>587.9</ele>
        <time>2022-03-08T12:43:52Z</time>
      </trkpt>
      <trkpt lat="46.72772" lon="5.74841">
        <ele>589.3</ele>
        <time>2022-03-08T12:43:57Z</time>
      </trkpt>
      <trkpt lat="46.72769" lon="5.74848">
        <ele>590.3</ele>
        <time>2022-03-08T12:44:03Z</time>
      </trkpt>
      <trkpt lat="46.72765" lon="5.74854">
        <ele>590.2</ele>
        <time>2022-03-08T12:44:08Z</time>
      </trkpt>
      <trkpt lat="46.72762" lon="5.74858">
        <ele>590.2</ele>
        <time>2022-03-08T12:44:12Z</time>
      </trkpt>
      <trkpt lat="46.72758" lon="5.74863">
        <ele>590.2</ele>
        <time>2022-03-08T12:44:16Z</time>
      </trkpt>
      <trkpt lat="46.72755" lon="5.74869">
        <ele>590.2</ele>
        <time>2022-03-08T12:44:21Z</time>
      </trkpt>
      <trkpt lat="46.72753" lon="5.74876">
        <ele>589.7</ele>
        <time>2022-03-08T12:44:26Z</time>
      </trkpt>
      <trkpt lat="46.72751" lon="5.74882">
        <ele>589</ele>
        <time>2022-03-08T12:44:30Z</time>
      </trkpt>
      <trkpt lat="46.72748" lon="5.74888">
        <ele>588.4</ele>
        <time>2022-03-08T12:44:34Z</time>
      </trkpt>
      <trkpt lat="46.72745" lon="5.74893">
        <ele>587.3</ele>
        <time>2022-03-08T12:44:39Z</time>
      </trkpt>
      <trkpt lat="46.72741" lon="5.74897">
        <ele>585.7</ele>
        <time>2022-03-08T12:44:46Z</time>
      </trkpt>
      <trkpt lat="46.72737" lon="5.749">
        <ele>584.6</ele>
        <time>2022-03-08T12:44:53Z</time>
      </trkpt>
      <trkpt lat="46.72731" lon="5.74902">
        <ele>584.5</ele>
        <time>2022-03-08T12:45:00Z</time>
      </trkpt>
      <trkpt lat="46.72726" lon="5.74901">
        <ele>584.7</ele>
        <time>2022-03-08T12:45:05Z</time>
      </trkpt>
      <trkpt lat="46.72722" lon="5.74901">
        <ele>584.9</ele>
        <time>2022-03-08T12:45:09Z</time>
      </trkpt>
      <trkpt lat="46.72717" lon="5.74902">
        <ele>584.9</ele>
        <time>2022-03-08T12:45:13Z</time>
      </trkpt>
      <trkpt lat="46.72712" lon="5.74905">
        <ele>584.8</ele>
        <time>2022-03-08T12:45:20Z</time>
      </trkpt>
      <trkpt lat="46.72708" lon="5.74908">
        <ele>584</ele>
        <time>2022-03-08T12:45:26Z</time>
      </trkpt>
      <trkpt lat="46.72704" lon="5.7491">
        <ele>583.4</ele>
        <time>2022-03-08T12:45:31Z</time>
      </trkpt>
      <trkpt lat="46.727" lon="5.74913">
        <ele>582.7</ele>
        <time>2022-03-08T12:45:35Z</time>
      </trkpt>
      <trkpt lat="46.72696" lon="5.74918">
        <ele>582.1</ele>
        <time>2022-03-08T12:45:39Z</time>
      </trkpt>
      <trkpt lat="46.72693" lon="5.74924">
        <ele>581.7</ele>
        <time>2022-03-08T12:45:44Z</time>
      </trkpt>
      <trkpt lat="46.72689" lon="5.74928">
        <ele>581.4</ele>
        <time>2022-03-08T12:45:49Z</time>
      </trkpt>
      <trkpt lat="46.72686" lon="5.74933">
        <ele>581.5</ele>
        <time>2022-03-08T12:45:54Z</time>
      </trkpt>
      <trkpt lat="46.72682" lon="5.74937">
        <ele>581.7</ele>
        <time>2022-03-08T12:45:59Z</time>
      </trkpt>
      <trkpt lat="46.72678" lon="5.74943">
        <ele>581.8</ele>
        <time>2022-03-08T12:46:04Z</time>
      </trkpt>
      <trkpt lat="46.72675" lon="5.74949">
        <ele>582.3</ele>
        <time>2022-03-08T12:46:09Z</time>
      </trkpt>
      <trkpt lat="46.72671" lon="5.74953">
        <ele>582.7</ele>
        <time>2022-03-08T12:46:14Z</time>
      </trkpt>
      <trkpt lat="46.72666" lon="5.74957">
        <ele>583.1</ele>
        <time>2022-03-08T12:46:19Z</time>
      </trkpt>
      <trkpt lat="46.72662" lon="5.74962">
        <ele>583.1</ele>
        <time>2022-03-08T12:46:24Z</time>
      </trkpt>
      <trkpt lat="46.72659" lon="5.74966">
        <ele>583.6</ele>
        <time>2022-03-08T12:46:29Z</time>
      </trkpt>
      <trkpt lat="46.72655" lon="5.74971">
        <ele>584</ele>
        <time>2022-03-08T12:46:34Z</time>
      </trkpt>
      <trkpt lat="46.72651" lon="5.74976">
        <ele>584.9</ele>
        <time>2022-03-08T12:46:39Z</time>
      </trkpt>
      <trkpt lat="46.72647" lon="5.74981">
        <ele>586.2</ele>
        <time>2022-03-08T12:46:44Z</time>
      </trkpt>
      <trkpt lat="46.72644" lon="5.74986">
        <ele>587.5</ele>
        <time>2022-03-08T12:46:49Z</time>
      </trkpt>
      <trkpt lat="46.72641" lon="5.74991">
        <ele>588.2</ele>
        <time>2022-03-08T12:46:53Z</time>
      </trkpt>
      <trkpt lat="46.72637" lon="5.74997">
        <ele>588.4</ele>
        <time>2022-03-08T12:46:58Z</time>
      </trkpt>
      <trkpt lat="46.72633" lon="5.75003">
        <ele>588.8</ele>
        <time>2022-03-08T12:47:03Z</time>
      </trkpt>
      <trkpt lat="46.7263" lon="5.75008">
        <ele>589</ele>
        <time>2022-03-08T12:47:08Z</time>
      </trkpt>
      <trkpt lat="46.72626" lon="5.75013">
        <ele>588.9</ele>
        <time>2022-03-08T12:47:14Z</time>
      </trkpt>
      <trkpt lat="46.72623" lon="5.75019">
        <ele>588.6</ele>
        <time>2022-03-08T12:47:19Z</time>
      </trkpt>
      <trkpt lat="46.72621" lon="5.75025">
        <ele>587.8</ele>
        <time>2022-03-08T12:47:23Z</time>
      </trkpt>
      <trkpt lat="46.72617" lon="5.75031">
        <ele>587.2</ele>
        <time>2022-03-08T12:47:27Z</time>
      </trkpt>
      <trkpt lat="46.72613" lon="5.75036">
        <ele>586.7</ele>
        <time>2022-03-08T12:47:31Z</time>
      </trkpt>
      <trkpt lat="46.7261" lon="5.75042">
        <ele>586.2</ele>
        <time>2022-03-08T12:47:36Z</time>
      </trkpt>
      <trkpt lat="46.72606" lon="5.75047">
        <ele>585.4</ele>
        <time>2022-03-08T12:47:41Z</time>
      </trkpt>
      <trkpt lat="46.72603" lon="5.75052">
        <ele>584.5</ele>
        <time>2022-03-08T12:47:45Z</time>
      </trkpt>
      <trkpt lat="46.726" lon="5.75057">
        <ele>583.2</ele>
        <time>2022-03-08T12:47:49Z</time>
      </trkpt>
      <trkpt lat="46.72597" lon="5.75063">
        <ele>581.4</ele>
        <time>2022-03-08T12:47:53Z</time>
      </trkpt>
      <trkpt lat="46.72594" lon="5.75068">
        <ele>579.5</ele>
        <time>2022-03-08T12:47:57Z</time>
      </trkpt>
      <trkpt lat="46.7259" lon="5.75073">
        <ele>577.6</ele>
        <time>2022-03-08T12:48:01Z</time>
      </trkpt>
      <trkpt lat="46.72587" lon="5.75077">
        <ele>575.9</ele>
        <time>2022-03-08T12:48:05Z</time>
      </trkpt>
      <trkpt lat="46.72584" lon="5.75082">
        <ele>574.5</ele>
        <time>2022-03-08T12:48:09Z</time>
      </trkpt>
      <trkpt lat="46.72581" lon="5.75088">
        <ele>573.4</ele>
        <time>2022-03-08T12:48:13Z</time>
      </trkpt>
      <trkpt lat="46.72576" lon="5.75093">
        <ele>572.7</ele>
        <time>2022-03-08T12:48:18Z</time>
      </trkpt>
      <trkpt lat="46.72573" lon="5.75099">
        <ele>572.6</ele>
        <time>2022-03-08T12:48:23Z</time>
      </trkpt>
      <trkpt lat="46.72569" lon="5.75104">
        <ele>572.7</ele>
        <time>2022-03-08T12:48:28Z</time>
      </trkpt>
      <trkpt lat="46.72565" lon="5.7511">
        <ele>573.1</ele>
        <time>2022-03-08T12:48:33Z</time>
      </trkpt>
      <trkpt lat="46.72562" lon="5.75115">
        <ele>573.9</ele>
        <time>2022-03-08T12:48:38Z</time>
      </trkpt>
      <trkpt lat="46.72559" lon="5.75121">
        <ele>574.9</ele>
        <time>2022-03-08T12:48:42Z</time>
      </trkpt>
      <trkpt lat="46.72555" lon="5.75127">
        <ele>575.5</ele>
        <time>2022-03-08T12:48:46Z</time>
      </trkpt>
      <trkpt lat="46.72552" lon="5.75133">
        <ele>575.7</ele>
        <time>2022-03-08T12:48:50Z</time>
      </trkpt>
      <trkpt lat="46.7255" lon="5.75139">
        <ele>576.1</ele>
        <time>2022-03-08T12:48:55Z</time>
      </trkpt>
      <trkpt lat="46.72547" lon="5.75145">
        <ele>577.2</ele>
        <time>2022-03-08T12:49:01Z</time>
      </trkpt>
      <trkpt lat="46.72544" lon="5.75152">
        <ele>581.4</ele>
        <time>2022-03-08T12:49:09Z</time>
      </trkpt>
      <trkpt lat="46.72542" lon="5.75158">
        <ele>583</ele>
        <time>2022-03-08T12:49:13Z</time>
      </trkpt>
      <trkpt lat="46.72538" lon="5.75164">
        <ele>584.7</ele>
        <time>2022-03-08T12:49:18Z</time>
      </trkpt>
      <trkpt lat="46.72535" lon="5.75169">
        <ele>586.3</ele>
        <time>2022-03-08T12:49:23Z</time>
      </trkpt>
      <trkpt lat="46.72532" lon="5.75174">
        <ele>586.6</ele>
        <time>2022-03-08T12:49:28Z</time>
      </trkpt>
      <trkpt lat="46.72529" lon="5.75181">
        <ele>587.8</ele>
        <time>2022-03-08T12:49:33Z</time>
      </trkpt>
      <trkpt lat="46.72527" lon="5.75188">
        <ele>589</ele>
        <time>2022-03-08T12:49:38Z</time>
      </trkpt>
      <trkpt lat="46.72527" lon="5.75195">
        <ele>590</ele>
        <time>2022-03-08T12:49:44Z</time>
      </trkpt>
      <trkpt lat="46.72527" lon="5.75202">
        <ele>591.7</ele>
        <time>2022-03-08T12:49:50Z</time>
      </trkpt>
      <trkpt lat="46.72526" lon="5.75209">
        <ele>593.7</ele>
        <time>2022-03-08T12:49:58Z</time>
      </trkpt>
      <trkpt lat="46.72526" lon="5.75216">
        <ele>594.2</ele>
        <time>2022-03-08T12:50:05Z</time>
      </trkpt>
      <trkpt lat="46.72529" lon="5.75222">
        <ele>594.5</ele>
        <time>2022-03-08T12:50:10Z</time>
      </trkpt>
      <trkpt lat="46.72527" lon="5.75229">
        <ele>595</ele>
        <time>2022-03-08T12:50:16Z</time>
      </trkpt>
      <trkpt lat="46.72522" lon="5.7523">
        <ele>596.8</ele>
        <time>2022-03-08T12:50:31Z</time>
      </trkpt>
      <trkpt lat="46.72526" lon="5.75235">
        <ele>596.4</ele>
        <time>2022-03-08T12:50:40Z</time>
      </trkpt>
      <trkpt lat="46.72529" lon="5.75239">
        <ele>596.3</ele>
        <time>2022-03-08T12:50:46Z</time>
      </trkpt>
      <trkpt lat="46.72534" lon="5.75242">
        <ele>596.9</ele>
        <time>2022-03-08T12:50:52Z</time>
      </trkpt>
      <trkpt lat="46.72537" lon="5.75246">
        <ele>597.3</ele>
        <time>2022-03-08T12:50:58Z</time>
      </trkpt>
      <trkpt lat="46.72541" lon="5.75251">
        <ele>597.2</ele>
        <time>2022-03-08T12:51:03Z</time>
      </trkpt>
      <trkpt lat="46.72544" lon="5.75256">
        <ele>597</ele>
        <time>2022-03-08T12:51:07Z</time>
      </trkpt>
      <trkpt lat="46.72547" lon="5.75263">
        <ele>596.9</ele>
        <time>2022-03-08T12:51:11Z</time>
      </trkpt>
      <trkpt lat="46.7255" lon="5.75268">
        <ele>597.2</ele>
        <time>2022-03-08T12:51:15Z</time>
      </trkpt>
      <trkpt lat="46.72552" lon="5.75276">
        <ele>597.9</ele>
        <time>2022-03-08T12:51:21Z</time>
      </trkpt>
      <trkpt lat="46.72555" lon="5.75281">
        <ele>599</ele>
        <time>2022-03-08T12:51:26Z</time>
      </trkpt>
      <trkpt lat="46.7256" lon="5.75285">
        <ele>600.8</ele>
        <time>2022-03-08T12:51:33Z</time>
      </trkpt>
      <trkpt lat="46.72563" lon="5.7529">
        <ele>602.8</ele>
        <time>2022-03-08T12:51:39Z</time>
      </trkpt>
      <trkpt lat="46.72567" lon="5.75295">
        <ele>604.4</ele>
        <time>2022-03-08T12:51:46Z</time>
      </trkpt>
      <trkpt lat="46.72571" lon="5.753">
        <ele>604.8</ele>
        <time>2022-03-08T12:51:51Z</time>
      </trkpt>
      <trkpt lat="46.72576" lon="5.75304">
        <ele>605.1</ele>
        <time>2022-03-08T12:51:56Z</time>
      </trkpt>
      <trkpt lat="46.72581" lon="5.75306">
        <ele>605.4</ele>
        <time>2022-03-08T12:52:01Z</time>
      </trkpt>
      <trkpt lat="46.72585" lon="5.7531">
        <ele>605.1</ele>
        <time>2022-03-08T12:52:06Z</time>
      </trkpt>
      <trkpt lat="46.72589" lon="5.75314">
        <ele>604.9</ele>
        <time>2022-03-08T12:52:10Z</time>
      </trkpt>
      <trkpt lat="46.72594" lon="5.75314">
        <ele>604.5</ele>
        <time>2022-03-08T12:52:14Z</time>
      </trkpt>
      <trkpt lat="46.72599" lon="5.75317">
        <ele>604</ele>
        <time>2022-03-08T12:52:19Z</time>
      </trkpt>
      <trkpt lat="46.72602" lon="5.75322">
        <ele>603.6</ele>
        <time>2022-03-08T12:52:27Z</time>
      </trkpt>
      <trkpt lat="46.72607" lon="5.75324">
        <ele>604.1</ele>
        <time>2022-03-08T12:52:33Z</time>
      </trkpt>
      <trkpt lat="46.72611" lon="5.75329">
        <ele>604.9</ele>
        <time>2022-03-08T12:52:39Z</time>
      </trkpt>
      <trkpt lat="46.72615" lon="5.75333">
        <ele>605.5</ele>
        <time>2022-03-08T12:52:43Z</time>
      </trkpt>
      <trkpt lat="46.72619" lon="5.75337">
        <ele>605.3</ele>
        <time>2022-03-08T12:52:48Z</time>
      </trkpt>
      <trkpt lat="46.72622" lon="5.75342">
        <ele>604.7</ele>
        <time>2022-03-08T12:52:53Z</time>
      </trkpt>
      <trkpt lat="46.72627" lon="5.75347">
        <ele>604.1</ele>
        <time>2022-03-08T12:52:59Z</time>
      </trkpt>
      <trkpt lat="46.7263" lon="5.75352">
        <ele>604</ele>
        <time>2022-03-08T12:53:05Z</time>
      </trkpt>
      <trkpt lat="46.72634" lon="5.75356">
        <ele>604</ele>
        <time>2022-03-08T12:53:09Z</time>
      </trkpt>
      <trkpt lat="46.72638" lon="5.7536">
        <ele>603.8</ele>
        <time>2022-03-08T12:53:13Z</time>
      </trkpt>
      <trkpt lat="46.72642" lon="5.75363">
        <ele>603.4</ele>
        <time>2022-03-08T12:53:18Z</time>
      </trkpt>
      <trkpt lat="46.72645" lon="5.75369">
        <ele>603.2</ele>
        <time>2022-03-08T12:53:23Z</time>
      </trkpt>
      <trkpt lat="46.72648" lon="5.75374">
        <ele>603.5</ele>
        <time>2022-03-08T12:53:28Z</time>
      </trkpt>
      <trkpt lat="46.72652" lon="5.75379">
        <ele>604.1</ele>
        <time>2022-03-08T12:53:33Z</time>
      </trkpt>
      <trkpt lat="46.72654" lon="5.75385">
        <ele>604.8</ele>
        <time>2022-03-08T12:53:37Z</time>
      </trkpt>
      <trkpt lat="46.72657" lon="5.75391">
        <ele>606.2</ele>
        <time>2022-03-08T12:53:43Z</time>
      </trkpt>
      <trkpt lat="46.72659" lon="5.75398">
        <ele>607.3</ele>
        <time>2022-03-08T12:53:48Z</time>
      </trkpt>
      <trkpt lat="46.72662" lon="5.75403">
        <ele>608.1</ele>
        <time>2022-03-08T12:53:53Z</time>
      </trkpt>
      <trkpt lat="46.72665" lon="5.75408">
        <ele>609.2</ele>
        <time>2022-03-08T12:53:58Z</time>
      </trkpt>
      <trkpt lat="46.72668" lon="5.75413">
        <ele>610</ele>
        <time>2022-03-08T12:54:03Z</time>
      </trkpt>
      <trkpt lat="46.72672" lon="5.75419">
        <ele>610.8</ele>
        <time>2022-03-08T12:54:09Z</time>
      </trkpt>
      <trkpt lat="46.72674" lon="5.75424">
        <ele>611.4</ele>
        <time>2022-03-08T12:54:15Z</time>
      </trkpt>
      <trkpt lat="46.72675" lon="5.75431">
        <ele>611.9</ele>
        <time>2022-03-08T12:54:21Z</time>
      </trkpt>
      <trkpt lat="46.72675" lon="5.75438">
        <ele>612.7</ele>
        <time>2022-03-08T12:54:27Z</time>
      </trkpt>
      <trkpt lat="46.72675" lon="5.75445">
        <ele>614.6</ele>
        <time>2022-03-08T12:54:34Z</time>
      </trkpt>
      <trkpt lat="46.72676" lon="5.75452">
        <ele>617</ele>
        <time>2022-03-08T12:54:41Z</time>
      </trkpt>
      <trkpt lat="46.72671" lon="5.75452">
        <ele>619.8</ele>
        <time>2022-03-08T12:54:49Z</time>
      </trkpt>
      <trkpt lat="46.72667" lon="5.75447">
        <ele>622.3</ele>
        <time>2022-03-08T12:55:00Z</time>
      </trkpt>
      <trkpt lat="46.72663" lon="5.75443">
        <ele>623</ele>
        <time>2022-03-08T12:55:04Z</time>
      </trkpt>
      <trkpt lat="46.72659" lon="5.7544">
        <ele>624</ele>
        <time>2022-03-08T12:55:09Z</time>
      </trkpt>
      <trkpt lat="46.72657" lon="5.75447">
        <ele>627.5</ele>
        <time>2022-03-08T12:56:07Z</time>
      </trkpt>
      <trkpt lat="46.72652" lon="5.75447">
        <ele>624.5</ele>
        <time>2022-03-08T12:56:52Z</time>
      </trkpt>
      <trkpt lat="46.72647" lon="5.75447">
        <ele>622.2</ele>
        <time>2022-03-08T12:56:56Z</time>
      </trkpt>
      <trkpt lat="46.72643" lon="5.75453">
        <ele>619.4</ele>
        <time>2022-03-08T12:57:21Z</time>
      </trkpt>
      <trkpt lat="46.7264" lon="5.75458">
        <ele>619.7</ele>
        <time>2022-03-08T12:57:24Z</time>
      </trkpt>
      <trkpt lat="46.72642" lon="5.75452">
        <ele>621.1</ele>
        <time>2022-03-08T12:57:43Z</time>
      </trkpt>
      <trkpt lat="46.72645" lon="5.75447">
        <ele>622.1</ele>
        <time>2022-03-08T12:57:48Z</time>
      </trkpt>
      <trkpt lat="46.7265" lon="5.75446">
        <ele>623.9</ele>
        <time>2022-03-08T12:59:27Z</time>
      </trkpt>
      <trkpt lat="46.72654" lon="5.75446">
        <ele>625.6</ele>
        <time>2022-03-08T12:59:33Z</time>
      </trkpt>
      <trkpt lat="46.7265" lon="5.75442">
        <ele>628.1</ele>
        <time>2022-03-08T13:00:27Z</time>
      </trkpt>
      <trkpt lat="46.72645" lon="5.75438">
        <ele>629</ele>
        <time>2022-03-08T13:00:32Z</time>
      </trkpt>
      <trkpt lat="46.72641" lon="5.75435">
        <ele>629.5</ele>
        <time>2022-03-08T13:00:37Z</time>
      </trkpt>
      <trkpt lat="46.72637" lon="5.75431">
        <ele>630</ele>
        <time>2022-03-08T13:00:42Z</time>
      </trkpt>
      <trkpt lat="46.72632" lon="5.75429">
        <ele>631</ele>
        <time>2022-03-08T13:00:49Z</time>
      </trkpt>
      <trkpt lat="46.72629" lon="5.75424">
        <ele>630.9</ele>
        <time>2022-03-08T13:00:57Z</time>
      </trkpt>
      <trkpt lat="46.72625" lon="5.7542">
        <ele>629.3</ele>
        <time>2022-03-08T13:01:05Z</time>
      </trkpt>
      <trkpt lat="46.72621" lon="5.75417">
        <ele>628.4</ele>
        <time>2022-03-08T13:01:12Z</time>
      </trkpt>
      <trkpt lat="46.72616" lon="5.75416">
        <ele>628.2</ele>
        <time>2022-03-08T13:01:17Z</time>
      </trkpt>
      <trkpt lat="46.72611" lon="5.75413">
        <ele>628</ele>
        <time>2022-03-08T13:01:23Z</time>
      </trkpt>
      <trkpt lat="46.72606" lon="5.75409">
        <ele>627.8</ele>
        <time>2022-03-08T13:01:29Z</time>
      </trkpt>
      <trkpt lat="46.72601" lon="5.75408">
        <ele>627.4</ele>
        <time>2022-03-08T13:01:34Z</time>
      </trkpt>
      <trkpt lat="46.72597" lon="5.75407">
        <ele>627.1</ele>
        <time>2022-03-08T13:01:38Z</time>
      </trkpt>
      <trkpt lat="46.72592" lon="5.75404">
        <ele>626.7</ele>
        <time>2022-03-08T13:01:42Z</time>
      </trkpt>
      <trkpt lat="46.72587" lon="5.75399">
        <ele>626.2</ele>
        <time>2022-03-08T13:01:46Z</time>
      </trkpt>
      <trkpt lat="46.72582" lon="5.75399">
        <ele>626</ele>
        <time>2022-03-08T13:01:51Z</time>
      </trkpt>
      <trkpt lat="46.72577" lon="5.75399">
        <ele>625.9</ele>
        <time>2022-03-08T13:01:56Z</time>
      </trkpt>
      <trkpt lat="46.72574" lon="5.75394">
        <ele>625.9</ele>
        <time>2022-03-08T13:02:01Z</time>
      </trkpt>
      <trkpt lat="46.7257" lon="5.75389">
        <ele>625.8</ele>
        <time>2022-03-08T13:02:07Z</time>
      </trkpt>
      <trkpt lat="46.72566" lon="5.75384">
        <ele>625.5</ele>
        <time>2022-03-08T13:02:15Z</time>
      </trkpt>
      <trkpt lat="46.72561" lon="5.75379">
        <ele>625.9</ele>
        <time>2022-03-08T13:02:18Z</time>
      </trkpt>
      <trkpt lat="46.72556" lon="5.75373">
        <ele>626.2</ele>
        <time>2022-03-08T13:02:21Z</time>
      </trkpt>
      <trkpt lat="46.72552" lon="5.75368">
        <ele>626.4</ele>
        <time>2022-03-08T13:02:25Z</time>
      </trkpt>
      <trkpt lat="46.72548" lon="5.75365">
        <ele>626.4</ele>
        <time>2022-03-08T13:02:28Z</time>
      </trkpt>
      <trkpt lat="46.72543" lon="5.75361">
        <ele>626.8</ele>
        <time>2022-03-08T13:02:32Z</time>
      </trkpt>
      <trkpt lat="46.72539" lon="5.75358">
        <ele>626.9</ele>
        <time>2022-03-08T13:02:36Z</time>
      </trkpt>
      <trkpt lat="46.72534" lon="5.75355">
        <ele>626.4</ele>
        <time>2022-03-08T13:02:43Z</time>
      </trkpt>
      <trkpt lat="46.72529" lon="5.75352">
        <ele>626.1</ele>
        <time>2022-03-08T13:02:47Z</time>
      </trkpt>
      <trkpt lat="46.72526" lon="5.75348">
        <ele>626.4</ele>
        <time>2022-03-08T13:02:51Z</time>
      </trkpt>
      <trkpt lat="46.72521" lon="5.75345">
        <ele>627.5</ele>
        <time>2022-03-08T13:02:56Z</time>
      </trkpt>
      <trkpt lat="46.72517" lon="5.75341">
        <ele>629</ele>
        <time>2022-03-08T13:03:02Z</time>
      </trkpt>
      <trkpt lat="46.72513" lon="5.75337">
        <ele>630</ele>
        <time>2022-03-08T13:03:08Z</time>
      </trkpt>
      <trkpt lat="46.72509" lon="5.75333">
        <ele>630.4</ele>
        <time>2022-03-08T13:03:14Z</time>
      </trkpt>
      <trkpt lat="46.72506" lon="5.75328">
        <ele>630.8</ele>
        <time>2022-03-08T13:03:19Z</time>
      </trkpt>
      <trkpt lat="46.72501" lon="5.75323">
        <ele>630.8</ele>
        <time>2022-03-08T13:03:25Z</time>
      </trkpt>
      <trkpt lat="46.72497" lon="5.7532">
        <ele>629.9</ele>
        <time>2022-03-08T13:03:32Z</time>
      </trkpt>
      <trkpt lat="46.72492" lon="5.75315">
        <ele>629.1</ele>
        <time>2022-03-08T13:03:37Z</time>
      </trkpt>
      <trkpt lat="46.72488" lon="5.75309">
        <ele>628.7</ele>
        <time>2022-03-08T13:03:41Z</time>
      </trkpt>
      <trkpt lat="46.72483" lon="5.75305">
        <ele>628.3</ele>
        <time>2022-03-08T13:03:46Z</time>
      </trkpt>
      <trkpt lat="46.72478" lon="5.75304">
        <ele>628</ele>
        <time>2022-03-08T13:03:52Z</time>
      </trkpt>
      <trkpt lat="46.72474" lon="5.75304">
        <ele>627.9</ele>
        <time>2022-03-08T13:03:58Z</time>
      </trkpt>
      <trkpt lat="46.72468" lon="5.75303">
        <ele>628.3</ele>
        <time>2022-03-08T13:04:05Z</time>
      </trkpt>
      <trkpt lat="46.72464" lon="5.75304">
        <ele>628.2</ele>
        <time>2022-03-08T13:04:12Z</time>
      </trkpt>
      <trkpt lat="46.72459" lon="5.75303">
        <ele>628.4</ele>
        <time>2022-03-08T13:04:19Z</time>
      </trkpt>
      <trkpt lat="46.72454" lon="5.75299">
        <ele>628.4</ele>
        <time>2022-03-08T13:04:24Z</time>
      </trkpt>
      <trkpt lat="46.7245" lon="5.75294">
        <ele>629</ele>
        <time>2022-03-08T13:04:28Z</time>
      </trkpt>
      <trkpt lat="46.72446" lon="5.75289">
        <ele>629.7</ele>
        <time>2022-03-08T13:04:32Z</time>
      </trkpt>
      <trkpt lat="46.72442" lon="5.75284">
        <ele>630.3</ele>
        <time>2022-03-08T13:04:36Z</time>
      </trkpt>
      <trkpt lat="46.72438" lon="5.75279">
        <ele>631.1</ele>
        <time>2022-03-08T13:04:41Z</time>
      </trkpt>
      <trkpt lat="46.72434" lon="5.75277">
        <ele>631</ele>
        <time>2022-03-08T13:04:48Z</time>
      </trkpt>
      <trkpt lat="46.72429" lon="5.75274">
        <ele>631.1</ele>
        <time>2022-03-08T13:04:54Z</time>
      </trkpt>
      <trkpt lat="46.72424" lon="5.75271">
        <ele>630.8</ele>
        <time>2022-03-08T13:05:00Z</time>
      </trkpt>
      <trkpt lat="46.72419" lon="5.75271">
        <ele>630.2</ele>
        <time>2022-03-08T13:05:07Z</time>
      </trkpt>
      <trkpt lat="46.72415" lon="5.7527">
        <ele>630.2</ele>
        <time>2022-03-08T13:05:13Z</time>
      </trkpt>
      <trkpt lat="46.7241" lon="5.75271">
        <ele>630</ele>
        <time>2022-03-08T13:05:19Z</time>
      </trkpt>
      <trkpt lat="46.72405" lon="5.75273">
        <ele>630</ele>
        <time>2022-03-08T13:05:28Z</time>
      </trkpt>
      <trkpt lat="46.724" lon="5.75274">
        <ele>630.2</ele>
        <time>2022-03-08T13:05:34Z</time>
      </trkpt>
      <trkpt lat="46.72395" lon="5.75274">
        <ele>630.4</ele>
        <time>2022-03-08T13:05:40Z</time>
      </trkpt>
      <trkpt lat="46.7239" lon="5.75274">
        <ele>630.5</ele>
        <time>2022-03-08T13:05:47Z</time>
      </trkpt>
      <trkpt lat="46.72385" lon="5.75277">
        <ele>630.6</ele>
        <time>2022-03-08T13:05:52Z</time>
      </trkpt>
      <trkpt lat="46.7238" lon="5.75279">
        <ele>630.5</ele>
        <time>2022-03-08T13:05:56Z</time>
      </trkpt>
      <trkpt lat="46.72384" lon="5.75275">
        <ele>632.3</ele>
        <time>2022-03-08T13:06:09Z</time>
      </trkpt>
      <trkpt lat="46.7238" lon="5.75272">
        <ele>633.4</ele>
        <time>2022-03-08T13:06:18Z</time>
      </trkpt>
      <trkpt lat="46.72374" lon="5.75271">
        <ele>634.2</ele>
        <time>2022-03-08T13:06:22Z</time>
      </trkpt>
      <trkpt lat="46.72369" lon="5.75273">
        <ele>635</ele>
        <time>2022-03-08T13:06:26Z</time>
      </trkpt>
      <trkpt lat="46.72364" lon="5.75276">
        <ele>635.6</ele>
        <time>2022-03-08T13:06:31Z</time>
      </trkpt>
      <trkpt lat="46.7236" lon="5.75279">
        <ele>636.2</ele>
        <time>2022-03-08T13:06:36Z</time>
      </trkpt>
      <trkpt lat="46.72356" lon="5.75283">
        <ele>636.6</ele>
        <time>2022-03-08T13:06:43Z</time>
      </trkpt>
      <trkpt lat="46.72352" lon="5.75286">
        <ele>636.7</ele>
        <time>2022-03-08T13:06:48Z</time>
      </trkpt>
      <trkpt lat="46.72348" lon="5.75289">
        <ele>637.7</ele>
        <time>2022-03-08T13:06:55Z</time>
      </trkpt>
      <trkpt lat="46.72347" lon="5.75283">
        <ele>647</ele>
        <time>2022-03-08T13:07:51Z</time>
      </trkpt>
      <trkpt lat="46.72346" lon="5.75289">
        <ele>648.5</ele>
        <time>2022-03-08T13:09:04Z</time>
      </trkpt>
      <trkpt lat="46.72351" lon="5.7529">
        <ele>648.7</ele>
        <time>2022-03-08T13:09:15Z</time>
      </trkpt>
      <trkpt lat="46.72352" lon="5.75283">
        <ele>652</ele>
        <time>2022-03-08T13:09:57Z</time>
      </trkpt>
      <trkpt lat="46.72347" lon="5.75276">
        <ele>656.2</ele>
        <time>2022-03-08T13:11:17Z</time>
      </trkpt>
      <trkpt lat="46.72343" lon="5.75273">
        <ele>654.4</ele>
        <time>2022-03-08T13:11:21Z</time>
      </trkpt>
      <trkpt lat="46.72343" lon="5.75282">
        <ele>651.3</ele>
        <time>2022-03-08T13:11:39Z</time>
      </trkpt>
      <trkpt lat="46.7234" lon="5.7529">
        <ele>650.6</ele>
        <time>2022-03-08T13:11:44Z</time>
      </trkpt>
      <trkpt lat="46.72343" lon="5.75295">
        <ele>652</ele>
        <time>2022-03-08T13:12:00Z</time>
      </trkpt>
      <trkpt lat="46.72343" lon="5.75288">
        <ele>652.9</ele>
        <time>2022-03-08T13:12:13Z</time>
      </trkpt>
      <trkpt lat="46.72345" lon="5.75281">
        <ele>653</ele>
        <time>2022-03-08T13:12:18Z</time>
      </trkpt>
      <trkpt lat="46.72341" lon="5.75277">
        <ele>653.6</ele>
        <time>2022-03-08T13:14:03Z</time>
      </trkpt>
      <trkpt lat="46.72336" lon="5.75277">
        <ele>652.6</ele>
        <time>2022-03-08T13:14:07Z</time>
      </trkpt>
      <trkpt lat="46.72331" lon="5.75275">
        <ele>652.1</ele>
        <time>2022-03-08T13:14:12Z</time>
      </trkpt>
      <trkpt lat="46.72327" lon="5.75273">
        <ele>652.2</ele>
        <time>2022-03-08T13:14:17Z</time>
      </trkpt>
      <trkpt lat="46.72322" lon="5.75272">
        <ele>652.9</ele>
        <time>2022-03-08T13:14:28Z</time>
      </trkpt>
      <trkpt lat="46.72317" lon="5.75272">
        <ele>653.7</ele>
        <time>2022-03-08T13:14:36Z</time>
      </trkpt>
      <trkpt lat="46.72313" lon="5.7527">
        <ele>653.8</ele>
        <time>2022-03-08T13:14:47Z</time>
      </trkpt>
      <trkpt lat="46.72308" lon="5.75268">
        <ele>654</ele>
        <time>2022-03-08T13:14:51Z</time>
      </trkpt>
      <trkpt lat="46.72303" lon="5.75266">
        <ele>654.5</ele>
        <time>2022-03-08T13:14:56Z</time>
      </trkpt>
      <trkpt lat="46.72299" lon="5.75265">
        <ele>655.2</ele>
        <time>2022-03-08T13:15:00Z</time>
      </trkpt>
      <trkpt lat="46.72294" lon="5.75265">
        <ele>655.9</ele>
        <time>2022-03-08T13:15:05Z</time>
      </trkpt>
      <trkpt lat="46.72288" lon="5.75262">
        <ele>656.6</ele>
        <time>2022-03-08T13:15:10Z</time>
      </trkpt>
      <trkpt lat="46.72284" lon="5.75258">
        <ele>657.5</ele>
        <time>2022-03-08T13:15:17Z</time>
      </trkpt>
      <trkpt lat="46.72281" lon="5.75252">
        <ele>658.1</ele>
        <time>2022-03-08T13:15:21Z</time>
      </trkpt>
      <trkpt lat="46.72278" lon="5.75246">
        <ele>658.5</ele>
        <time>2022-03-08T13:15:26Z</time>
      </trkpt>
      <trkpt lat="46.72273" lon="5.75241">
        <ele>658.4</ele>
        <time>2022-03-08T13:15:36Z</time>
      </trkpt>
      <trkpt lat="46.7227" lon="5.75236">
        <ele>658.5</ele>
        <time>2022-03-08T13:15:41Z</time>
      </trkpt>
      <trkpt lat="46.72266" lon="5.75231">
        <ele>659</ele>
        <time>2022-03-08T13:15:44Z</time>
      </trkpt>
      <trkpt lat="46.72263" lon="5.75226">
        <ele>659.4</ele>
        <time>2022-03-08T13:15:47Z</time>
      </trkpt>
      <trkpt lat="46.7226" lon="5.75221">
        <ele>659.6</ele>
        <time>2022-03-08T13:15:51Z</time>
      </trkpt>
      <trkpt lat="46.72254" lon="5.75218">
        <ele>659.4</ele>
        <time>2022-03-08T13:15:55Z</time>
      </trkpt>
      <trkpt lat="46.72251" lon="5.75214">
        <ele>659</ele>
        <time>2022-03-08T13:15:59Z</time>
      </trkpt>
      <trkpt lat="46.72246" lon="5.75211">
        <ele>658.6</ele>
        <time>2022-03-08T13:16:04Z</time>
      </trkpt>
      <trkpt lat="46.72241" lon="5.75208">
        <ele>658.4</ele>
        <time>2022-03-08T13:16:09Z</time>
      </trkpt>
      <trkpt lat="46.72236" lon="5.75205">
        <ele>658.1</ele>
        <time>2022-03-08T13:16:13Z</time>
      </trkpt>
      <trkpt lat="46.72231" lon="5.75201">
        <ele>657.7</ele>
        <time>2022-03-08T13:16:18Z</time>
      </trkpt>
      <trkpt lat="46.72227" lon="5.75198">
        <ele>657.8</ele>
        <time>2022-03-08T13:16:24Z</time>
      </trkpt>
      <trkpt lat="46.72221" lon="5.75197">
        <ele>658</ele>
        <time>2022-03-08T13:16:30Z</time>
      </trkpt>
      <trkpt lat="46.72217" lon="5.75193">
        <ele>658.3</ele>
        <time>2022-03-08T13:16:35Z</time>
      </trkpt>
      <trkpt lat="46.72213" lon="5.75188">
        <ele>658.5</ele>
        <time>2022-03-08T13:16:40Z</time>
      </trkpt>
      <trkpt lat="46.7221" lon="5.75184">
        <ele>658</ele>
        <time>2022-03-08T13:16:47Z</time>
      </trkpt>
      <trkpt lat="46.72206" lon="5.7518">
        <ele>658</ele>
        <time>2022-03-08T13:16:53Z</time>
      </trkpt>
      <trkpt lat="46.72201" lon="5.75177">
        <ele>657.1</ele>
        <time>2022-03-08T13:16:58Z</time>
      </trkpt>
      <trkpt lat="46.72197" lon="5.75172">
        <ele>655.8</ele>
        <time>2022-03-08T13:17:03Z</time>
      </trkpt>
      <trkpt lat="46.72193" lon="5.75167">
        <ele>654.5</ele>
        <time>2022-03-08T13:17:10Z</time>
      </trkpt>
      <trkpt lat="46.72188" lon="5.75164">
        <ele>653.7</ele>
        <time>2022-03-08T13:17:16Z</time>
      </trkpt>
      <trkpt lat="46.72183" lon="5.7516">
        <ele>653.3</ele>
        <time>2022-03-08T13:17:19Z</time>
      </trkpt>
      <trkpt lat="46.72178" lon="5.75156">
        <ele>652.6</ele>
        <time>2022-03-08T13:17:23Z</time>
      </trkpt>
      <trkpt lat="46.72173" lon="5.75151">
        <ele>651.7</ele>
        <time>2022-03-08T13:17:27Z</time>
      </trkpt>
      <trkpt lat="46.72168" lon="5.75149">
        <ele>650.8</ele>
        <time>2022-03-08T13:17:31Z</time>
      </trkpt>
      <trkpt lat="46.72164" lon="5.75146">
        <ele>650.4</ele>
        <time>2022-03-08T13:17:34Z</time>
      </trkpt>
      <trkpt lat="46.72159" lon="5.75143">
        <ele>650.5</ele>
        <time>2022-03-08T13:17:38Z</time>
      </trkpt>
      <trkpt lat="46.72154" lon="5.75141">
        <ele>650.8</ele>
        <time>2022-03-08T13:17:42Z</time>
      </trkpt>
      <trkpt lat="46.7215" lon="5.75139">
        <ele>651</ele>
        <time>2022-03-08T13:17:47Z</time>
      </trkpt>
      <trkpt lat="46.72146" lon="5.75136">
        <ele>650.8</ele>
        <time>2022-03-08T13:17:54Z</time>
      </trkpt>
      <trkpt lat="46.72141" lon="5.75131">
        <ele>650.2</ele>
        <time>2022-03-08T13:18:01Z</time>
      </trkpt>
      <trkpt lat="46.72137" lon="5.75128">
        <ele>649.5</ele>
        <time>2022-03-08T13:18:06Z</time>
      </trkpt>
      <trkpt lat="46.72132" lon="5.75126">
        <ele>649.1</ele>
        <time>2022-03-08T13:18:10Z</time>
      </trkpt>
      <trkpt lat="46.72127" lon="5.75122">
        <ele>648.8</ele>
        <time>2022-03-08T13:18:14Z</time>
      </trkpt>
      <trkpt lat="46.72124" lon="5.75115">
        <ele>648.9</ele>
        <time>2022-03-08T13:18:18Z</time>
      </trkpt>
      <trkpt lat="46.72121" lon="5.7511">
        <ele>649.2</ele>
        <time>2022-03-08T13:18:22Z</time>
      </trkpt>
      <trkpt lat="46.72116" lon="5.75106">
        <ele>649.6</ele>
        <time>2022-03-08T13:18:30Z</time>
      </trkpt>
      <trkpt lat="46.72111" lon="5.75105">
        <ele>650</ele>
        <time>2022-03-08T13:18:36Z</time>
      </trkpt>
      <trkpt lat="46.72106" lon="5.75105">
        <ele>650</ele>
        <time>2022-03-08T13:18:41Z</time>
      </trkpt>
      <trkpt lat="46.72101" lon="5.75103">
        <ele>649.9</ele>
        <time>2022-03-08T13:18:47Z</time>
      </trkpt>
      <trkpt lat="46.72096" lon="5.75101">
        <ele>649.9</ele>
        <time>2022-03-08T13:18:52Z</time>
      </trkpt>
      <trkpt lat="46.72091" lon="5.75096">
        <ele>650.2</ele>
        <time>2022-03-08T13:18:56Z</time>
      </trkpt>
      <trkpt lat="46.72086" lon="5.75092">
        <ele>650.5</ele>
        <time>2022-03-08T13:19:00Z</time>
      </trkpt>
      <trkpt lat="46.72082" lon="5.7509">
        <ele>650.4</ele>
        <time>2022-03-08T13:19:05Z</time>
      </trkpt>
      <trkpt lat="46.72078" lon="5.75083">
        <ele>650.4</ele>
        <time>2022-03-08T13:19:10Z</time>
      </trkpt>
      <trkpt lat="46.72074" lon="5.75079">
        <ele>650.5</ele>
        <time>2022-03-08T13:19:14Z</time>
      </trkpt>
      <trkpt lat="46.72069" lon="5.75075">
        <ele>650.8</ele>
        <time>2022-03-08T13:19:18Z</time>
      </trkpt>
      <trkpt lat="46.72065" lon="5.75073">
        <ele>651.4</ele>
        <time>2022-03-08T13:19:26Z</time>
      </trkpt>
      <trkpt lat="46.72061" lon="5.7507">
        <ele>651.9</ele>
        <time>2022-03-08T13:19:30Z</time>
      </trkpt>
      <trkpt lat="46.72056" lon="5.75065">
        <ele>652.5</ele>
        <time>2022-03-08T13:19:33Z</time>
      </trkpt>
      <trkpt lat="46.72052" lon="5.75059">
        <ele>653.7</ele>
        <time>2022-03-08T13:19:37Z</time>
      </trkpt>
      <trkpt lat="46.72048" lon="5.75054">
        <ele>654.9</ele>
        <time>2022-03-08T13:19:42Z</time>
      </trkpt>
      <trkpt lat="46.72045" lon="5.75049">
        <ele>656</ele>
        <time>2022-03-08T13:19:47Z</time>
      </trkpt>
      <trkpt lat="46.7204" lon="5.75043">
        <ele>656.7</ele>
        <time>2022-03-08T13:19:53Z</time>
      </trkpt>
      <trkpt lat="46.72036" lon="5.7504">
        <ele>656.7</ele>
        <time>2022-03-08T13:19:57Z</time>
      </trkpt>
      <trkpt lat="46.72032" lon="5.75036">
        <ele>656.8</ele>
        <time>2022-03-08T13:20:01Z</time>
      </trkpt>
      <trkpt lat="46.72028" lon="5.75031">
        <ele>656.9</ele>
        <time>2022-03-08T13:20:05Z</time>
      </trkpt>
      <trkpt lat="46.72023" lon="5.75029">
        <ele>656</ele>
        <time>2022-03-08T13:20:10Z</time>
      </trkpt>
      <trkpt lat="46.72018" lon="5.75026">
        <ele>653.7</ele>
        <time>2022-03-08T13:20:17Z</time>
      </trkpt>
      <trkpt lat="46.72015" lon="5.7502">
        <ele>652.2</ele>
        <time>2022-03-08T13:20:22Z</time>
      </trkpt>
      <trkpt lat="46.7201" lon="5.75016">
        <ele>651.2</ele>
        <time>2022-03-08T13:20:26Z</time>
      </trkpt>
      <trkpt lat="46.72004" lon="5.75014">
        <ele>650.2</ele>
        <time>2022-03-08T13:20:30Z</time>
      </trkpt>
      <trkpt lat="46.72" lon="5.75011">
        <ele>649.5</ele>
        <time>2022-03-08T13:20:34Z</time>
      </trkpt>
      <trkpt lat="46.71995" lon="5.75009">
        <ele>648.8</ele>
        <time>2022-03-08T13:20:38Z</time>
      </trkpt>
      <trkpt lat="46.7199" lon="5.75007">
        <ele>647.6</ele>
        <time>2022-03-08T13:20:43Z</time>
      </trkpt>
      <trkpt lat="46.71985" lon="5.75005">
        <ele>646.7</ele>
        <time>2022-03-08T13:20:48Z</time>
      </trkpt>
      <trkpt lat="46.71981" lon="5.75001">
        <ele>646.2</ele>
        <time>2022-03-08T13:20:53Z</time>
      </trkpt>
      <trkpt lat="46.71978" lon="5.74997">
        <ele>646.1</ele>
        <time>2022-03-08T13:20:58Z</time>
      </trkpt>
      <trkpt lat="46.71975" lon="5.74991">
        <ele>645.9</ele>
        <time>2022-03-08T13:21:03Z</time>
      </trkpt>
      <trkpt lat="46.71971" lon="5.74988">
        <ele>645.9</ele>
        <time>2022-03-08T13:21:07Z</time>
      </trkpt>
      <trkpt lat="46.71967" lon="5.74982">
        <ele>646.1</ele>
        <time>2022-03-08T13:21:11Z</time>
      </trkpt>
      <trkpt lat="46.71963" lon="5.74977">
        <ele>646.1</ele>
        <time>2022-03-08T13:21:15Z</time>
      </trkpt>
      <trkpt lat="46.71958" lon="5.74973">
        <ele>647.1</ele>
        <time>2022-03-08T13:21:21Z</time>
      </trkpt>
      <trkpt lat="46.71953" lon="5.7497">
        <ele>647.9</ele>
        <time>2022-03-08T13:21:25Z</time>
      </trkpt>
      <trkpt lat="46.71949" lon="5.74965">
        <ele>648.5</ele>
        <time>2022-03-08T13:21:29Z</time>
      </trkpt>
      <trkpt lat="46.71945" lon="5.7496">
        <ele>648.9</ele>
        <time>2022-03-08T13:21:33Z</time>
      </trkpt>
      <trkpt lat="46.7194" lon="5.74957">
        <ele>649.1</ele>
        <time>2022-03-08T13:21:37Z</time>
      </trkpt>
      <trkpt lat="46.71936" lon="5.74953">
        <ele>648.9</ele>
        <time>2022-03-08T13:21:43Z</time>
      </trkpt>
      <trkpt lat="46.71931" lon="5.7495">
        <ele>647.6</ele>
        <time>2022-03-08T13:21:50Z</time>
      </trkpt>
      <trkpt lat="46.71928" lon="5.74946">
        <ele>646.8</ele>
        <time>2022-03-08T13:21:56Z</time>
      </trkpt>
      <trkpt lat="46.71924" lon="5.74942">
        <ele>645.6</ele>
        <time>2022-03-08T13:22:01Z</time>
      </trkpt>
      <trkpt lat="46.71922" lon="5.74935">
        <ele>643.4</ele>
        <time>2022-03-08T13:22:11Z</time>
      </trkpt>
      <trkpt lat="46.71918" lon="5.74932">
        <ele>642.6</ele>
        <time>2022-03-08T13:22:20Z</time>
      </trkpt>
      <trkpt lat="46.71914" lon="5.74928">
        <ele>641</ele>
        <time>2022-03-08T13:22:26Z</time>
      </trkpt>
      <trkpt lat="46.71909" lon="5.74924">
        <ele>639.3</ele>
        <time>2022-03-08T13:22:32Z</time>
      </trkpt>
      <trkpt lat="46.71906" lon="5.74918">
        <ele>639.2</ele>
        <time>2022-03-08T13:22:35Z</time>
      </trkpt>
      <trkpt lat="46.71903" lon="5.74914">
        <ele>639.2</ele>
        <time>2022-03-08T13:22:38Z</time>
      </trkpt>
      <trkpt lat="46.71899" lon="5.74907">
        <ele>639.9</ele>
        <time>2022-03-08T13:22:42Z</time>
      </trkpt>
      <trkpt lat="46.71896" lon="5.74902">
        <ele>640.9</ele>
        <time>2022-03-08T13:22:45Z</time>
      </trkpt>
      <trkpt lat="46.71893" lon="5.74895">
        <ele>642.5</ele>
        <time>2022-03-08T13:22:48Z</time>
      </trkpt>
      <trkpt lat="46.7189" lon="5.74887">
        <ele>644.6</ele>
        <time>2022-03-08T13:22:51Z</time>
      </trkpt>
      <trkpt lat="46.71887" lon="5.7488">
        <ele>646.6</ele>
        <time>2022-03-08T13:22:54Z</time>
      </trkpt>
      <trkpt lat="46.71884" lon="5.74874">
        <ele>648.5</ele>
        <time>2022-03-08T13:22:57Z</time>
      </trkpt>
      <trkpt lat="46.7188" lon="5.7487">
        <ele>650.5</ele>
        <time>2022-03-08T13:23:01Z</time>
      </trkpt>
      <trkpt lat="46.71875" lon="5.74867">
        <ele>652</ele>
        <time>2022-03-08T13:23:05Z</time>
      </trkpt>
      <trkpt lat="46.71871" lon="5.74862">
        <ele>654.7</ele>
        <time>2022-03-08T13:23:12Z</time>
      </trkpt>
      <trkpt lat="46.71867" lon="5.74857">
        <ele>656.4</ele>
        <time>2022-03-08T13:23:17Z</time>
      </trkpt>
      <trkpt lat="46.71862" lon="5.74854">
        <ele>657.4</ele>
        <time>2022-03-08T13:23:22Z</time>
      </trkpt>
      <trkpt lat="46.71857" lon="5.74852">
        <ele>656.9</ele>
        <time>2022-03-08T13:23:27Z</time>
      </trkpt>
      <trkpt lat="46.71853" lon="5.74852">
        <ele>655.8</ele>
        <time>2022-03-08T13:23:34Z</time>
      </trkpt>
      <trkpt lat="46.71848" lon="5.7485">
        <ele>655.5</ele>
        <time>2022-03-08T13:23:40Z</time>
      </trkpt>
      <trkpt lat="46.71843" lon="5.74849">
        <ele>653.9</ele>
        <time>2022-03-08T13:23:44Z</time>
      </trkpt>
      <trkpt lat="46.71838" lon="5.74848">
        <ele>651.8</ele>
        <time>2022-03-08T13:23:49Z</time>
      </trkpt>
      <trkpt lat="46.71833" lon="5.74846">
        <ele>649.6</ele>
        <time>2022-03-08T13:23:54Z</time>
      </trkpt>
      <trkpt lat="46.71829" lon="5.74842">
        <ele>647.4</ele>
        <time>2022-03-08T13:23:59Z</time>
      </trkpt>
      <trkpt lat="46.71825" lon="5.74838">
        <ele>645.6</ele>
        <time>2022-03-08T13:24:03Z</time>
      </trkpt>
      <trkpt lat="46.71821" lon="5.74834">
        <ele>643.8</ele>
        <time>2022-03-08T13:24:08Z</time>
      </trkpt>
      <trkpt lat="46.71816" lon="5.74831">
        <ele>642.5</ele>
        <time>2022-03-08T13:24:12Z</time>
      </trkpt>
      <trkpt lat="46.71813" lon="5.74824">
        <ele>640.6</ele>
        <time>2022-03-08T13:24:18Z</time>
      </trkpt>
      <trkpt lat="46.71809" lon="5.74821">
        <ele>639.3</ele>
        <time>2022-03-08T13:24:22Z</time>
      </trkpt>
      <trkpt lat="46.71803" lon="5.74817">
        <ele>637.5</ele>
        <time>2022-03-08T13:24:26Z</time>
      </trkpt>
      <trkpt lat="46.71798" lon="5.74814">
        <ele>635.5</ele>
        <time>2022-03-08T13:24:31Z</time>
      </trkpt>
      <trkpt lat="46.71797" lon="5.74808">
        <ele>633.1</ele>
        <time>2022-03-08T13:24:38Z</time>
      </trkpt>
      <trkpt lat="46.71793" lon="5.74803">
        <ele>630.7</ele>
        <time>2022-03-08T13:24:46Z</time>
      </trkpt>
      <trkpt lat="46.71789" lon="5.74799">
        <ele>629.6</ele>
        <time>2022-03-08T13:24:51Z</time>
      </trkpt>
      <trkpt lat="46.71786" lon="5.74795">
        <ele>628.9</ele>
        <time>2022-03-08T13:24:56Z</time>
      </trkpt>
      <trkpt lat="46.71781" lon="5.74791">
        <ele>628.3</ele>
        <time>2022-03-08T13:25:00Z</time>
      </trkpt>
      <trkpt lat="46.71777" lon="5.74789">
        <ele>627.6</ele>
        <time>2022-03-08T13:25:04Z</time>
      </trkpt>
      <trkpt lat="46.71772" lon="5.74788">
        <ele>626.6</ele>
        <time>2022-03-08T13:25:09Z</time>
      </trkpt>
      <trkpt lat="46.71768" lon="5.74785">
        <ele>625.3</ele>
        <time>2022-03-08T13:25:14Z</time>
      </trkpt>
      <trkpt lat="46.71764" lon="5.7478">
        <ele>624.5</ele>
        <time>2022-03-08T13:25:18Z</time>
      </trkpt>
      <trkpt lat="46.7176" lon="5.74774">
        <ele>623.9</ele>
        <time>2022-03-08T13:25:22Z</time>
      </trkpt>
      <trkpt lat="46.71757" lon="5.74769">
        <ele>623.8</ele>
        <time>2022-03-08T13:25:25Z</time>
      </trkpt>
      <trkpt lat="46.71752" lon="5.74767">
        <ele>623.8</ele>
        <time>2022-03-08T13:25:29Z</time>
      </trkpt>
      <trkpt lat="46.71747" lon="5.74766">
        <ele>624.2</ele>
        <time>2022-03-08T13:25:34Z</time>
      </trkpt>
      <trkpt lat="46.71741" lon="5.74767">
        <ele>624.7</ele>
        <time>2022-03-08T13:25:38Z</time>
      </trkpt>
      <trkpt lat="46.71736" lon="5.74767">
        <ele>625.3</ele>
        <time>2022-03-08T13:25:41Z</time>
      </trkpt>
      <trkpt lat="46.71731" lon="5.74767">
        <ele>625.9</ele>
        <time>2022-03-08T13:25:45Z</time>
      </trkpt>
      <trkpt lat="46.71726" lon="5.74767">
        <ele>626.5</ele>
        <time>2022-03-08T13:25:49Z</time>
      </trkpt>
      <trkpt lat="46.71721" lon="5.74766">
        <ele>626.9</ele>
        <time>2022-03-08T13:25:53Z</time>
      </trkpt>
      <trkpt lat="46.71717" lon="5.74765">
        <ele>627.4</ele>
        <time>2022-03-08T13:25:59Z</time>
      </trkpt>
      <trkpt lat="46.71712" lon="5.74764">
        <ele>628.2</ele>
        <time>2022-03-08T13:26:05Z</time>
      </trkpt>
      <trkpt lat="46.71708" lon="5.74762">
        <ele>628.7</ele>
        <time>2022-03-08T13:26:11Z</time>
      </trkpt>
      <trkpt lat="46.71703" lon="5.74761">
        <ele>628.9</ele>
        <time>2022-03-08T13:26:16Z</time>
      </trkpt>
      <trkpt lat="46.71698" lon="5.7476">
        <ele>629.3</ele>
        <time>2022-03-08T13:26:21Z</time>
      </trkpt>
      <trkpt lat="46.71693" lon="5.7476">
        <ele>629.3</ele>
        <time>2022-03-08T13:26:28Z</time>
      </trkpt>
      <trkpt lat="46.71688" lon="5.74759">
        <ele>629.4</ele>
        <time>2022-03-08T13:26:32Z</time>
      </trkpt>
      <trkpt lat="46.71683" lon="5.74757">
        <ele>629.3</ele>
        <time>2022-03-08T13:26:35Z</time>
      </trkpt>
      <trkpt lat="46.71678" lon="5.74755">
        <ele>629.2</ele>
        <time>2022-03-08T13:26:39Z</time>
      </trkpt>
      <trkpt lat="46.71674" lon="5.74752">
        <ele>629.2</ele>
        <time>2022-03-08T13:26:43Z</time>
      </trkpt>
      <trkpt lat="46.71669" lon="5.7475">
        <ele>628.8</ele>
        <time>2022-03-08T13:26:49Z</time>
      </trkpt>
      <trkpt lat="46.71663" lon="5.74748">
        <ele>628.3</ele>
        <time>2022-03-08T13:26:53Z</time>
      </trkpt>
      <trkpt lat="46.71658" lon="5.74749">
        <ele>627.8</ele>
        <time>2022-03-08T13:26:57Z</time>
      </trkpt>
      <trkpt lat="46.71653" lon="5.7475">
        <ele>627</ele>
        <time>2022-03-08T13:27:02Z</time>
      </trkpt>
      <trkpt lat="46.71648" lon="5.7475">
        <ele>625.9</ele>
        <time>2022-03-08T13:27:09Z</time>
      </trkpt>
      <trkpt lat="46.71643" lon="5.74749">
        <ele>625.3</ele>
        <time>2022-03-08T13:27:14Z</time>
      </trkpt>
      <trkpt lat="46.71638" lon="5.74748">
        <ele>624.4</ele>
        <time>2022-03-08T13:27:20Z</time>
      </trkpt>
      <trkpt lat="46.71633" lon="5.74746">
        <ele>624.1</ele>
        <time>2022-03-08T13:27:24Z</time>
      </trkpt>
      <trkpt lat="46.71628" lon="5.74744">
        <ele>624</ele>
        <time>2022-03-08T13:27:28Z</time>
      </trkpt>
      <trkpt lat="46.71623" lon="5.7474">
        <ele>624.5</ele>
        <time>2022-03-08T13:27:32Z</time>
      </trkpt>
      <trkpt lat="46.71618" lon="5.74737">
        <ele>625.9</ele>
        <time>2022-03-08T13:27:36Z</time>
      </trkpt>
      <trkpt lat="46.71614" lon="5.74732">
        <ele>627.8</ele>
        <time>2022-03-08T13:27:40Z</time>
      </trkpt>
      <trkpt lat="46.7161" lon="5.74727">
        <ele>629.6</ele>
        <time>2022-03-08T13:27:44Z</time>
      </trkpt>
      <trkpt lat="46.71606" lon="5.74722">
        <ele>631.7</ele>
        <time>2022-03-08T13:27:49Z</time>
      </trkpt>
      <trkpt lat="46.71602" lon="5.74718">
        <ele>633.8</ele>
        <time>2022-03-08T13:27:56Z</time>
      </trkpt>
      <trkpt lat="46.71597" lon="5.74716">
        <ele>634.8</ele>
        <time>2022-03-08T13:28:00Z</time>
      </trkpt>
      <trkpt lat="46.71593" lon="5.74714">
        <ele>635.4</ele>
        <time>2022-03-08T13:28:04Z</time>
      </trkpt>
      <trkpt lat="46.71588" lon="5.74714">
        <ele>635.6</ele>
        <time>2022-03-08T13:28:08Z</time>
      </trkpt>
      <trkpt lat="46.71583" lon="5.74715">
        <ele>635.6</ele>
        <time>2022-03-08T13:28:13Z</time>
      </trkpt>
      <trkpt lat="46.71578" lon="5.74713">
        <ele>635.7</ele>
        <time>2022-03-08T13:28:18Z</time>
      </trkpt>
      <trkpt lat="46.71572" lon="5.7471">
        <ele>635.7</ele>
        <time>2022-03-08T13:28:22Z</time>
      </trkpt>
      <trkpt lat="46.71567" lon="5.74709">
        <ele>634.8</ele>
        <time>2022-03-08T13:28:30Z</time>
      </trkpt>
      <trkpt lat="46.71562" lon="5.74708">
        <ele>634.7</ele>
        <time>2022-03-08T13:28:35Z</time>
      </trkpt>
      <trkpt lat="46.71556" lon="5.74706">
        <ele>634.7</ele>
        <time>2022-03-08T13:28:41Z</time>
      </trkpt>
      <trkpt lat="46.71553" lon="5.74702">
        <ele>634.4</ele>
        <time>2022-03-08T13:28:44Z</time>
      </trkpt>
      <trkpt lat="46.71549" lon="5.74697">
        <ele>634</ele>
        <time>2022-03-08T13:28:47Z</time>
      </trkpt>
      <trkpt lat="46.71544" lon="5.74692">
        <ele>633.1</ele>
        <time>2022-03-08T13:28:51Z</time>
      </trkpt>
      <trkpt lat="46.7154" lon="5.74689">
        <ele>632.6</ele>
        <time>2022-03-08T13:28:55Z</time>
      </trkpt>
      <trkpt lat="46.71536" lon="5.74686">
        <ele>632.4</ele>
        <time>2022-03-08T13:28:59Z</time>
      </trkpt>
      <trkpt lat="46.71532" lon="5.74681">
        <ele>632.4</ele>
        <time>2022-03-08T13:29:03Z</time>
      </trkpt>
      <trkpt lat="46.71528" lon="5.74676">
        <ele>632.4</ele>
        <time>2022-03-08T13:29:06Z</time>
      </trkpt>
      <trkpt lat="46.71524" lon="5.74671">
        <ele>632.5</ele>
        <time>2022-03-08T13:29:10Z</time>
      </trkpt>
      <trkpt lat="46.71519" lon="5.74668">
        <ele>632.6</ele>
        <time>2022-03-08T13:29:14Z</time>
      </trkpt>
      <trkpt lat="46.71515" lon="5.74665">
        <ele>632.4</ele>
        <time>2022-03-08T13:29:18Z</time>
      </trkpt>
      <trkpt lat="46.7151" lon="5.74663">
        <ele>631.9</ele>
        <time>2022-03-08T13:29:23Z</time>
      </trkpt>
      <trkpt lat="46.71505" lon="5.74661">
        <ele>631.2</ele>
        <time>2022-03-08T13:29:29Z</time>
      </trkpt>
      <trkpt lat="46.715" lon="5.74658">
        <ele>630.6</ele>
        <time>2022-03-08T13:29:34Z</time>
      </trkpt>
      <trkpt lat="46.71495" lon="5.74655">
        <ele>630.1</ele>
        <time>2022-03-08T13:29:39Z</time>
      </trkpt>
      <trkpt lat="46.71491" lon="5.74652">
        <ele>630</ele>
        <time>2022-03-08T13:29:43Z</time>
      </trkpt>
      <trkpt lat="46.71486" lon="5.74649">
        <ele>630</ele>
        <time>2022-03-08T13:29:48Z</time>
      </trkpt>
      <trkpt lat="46.71482" lon="5.74645">
        <ele>630.5</ele>
        <time>2022-03-08T13:29:54Z</time>
      </trkpt>
      <trkpt lat="46.71477" lon="5.74642">
        <ele>631</ele>
        <time>2022-03-08T13:29:58Z</time>
      </trkpt>
      <trkpt lat="46.71472" lon="5.74641">
        <ele>631.3</ele>
        <time>2022-03-08T13:30:03Z</time>
      </trkpt>
      <trkpt lat="46.71467" lon="5.74638">
        <ele>630.9</ele>
        <time>2022-03-08T13:30:08Z</time>
      </trkpt>
      <trkpt lat="46.71462" lon="5.74636">
        <ele>630.5</ele>
        <time>2022-03-08T13:30:14Z</time>
      </trkpt>
      <trkpt lat="46.71457" lon="5.74634">
        <ele>630</ele>
        <time>2022-03-08T13:30:20Z</time>
      </trkpt>
      <trkpt lat="46.71453" lon="5.74629">
        <ele>628.9</ele>
        <time>2022-03-08T13:30:26Z</time>
      </trkpt>
      <trkpt lat="46.71449" lon="5.74626">
        <ele>627.1</ele>
        <time>2022-03-08T13:30:32Z</time>
      </trkpt>
      <trkpt lat="46.71444" lon="5.74623">
        <ele>626.1</ele>
        <time>2022-03-08T13:30:36Z</time>
      </trkpt>
      <trkpt lat="46.7144" lon="5.7462">
        <ele>625.4</ele>
        <time>2022-03-08T13:30:40Z</time>
      </trkpt>
      <trkpt lat="46.71435" lon="5.74616">
        <ele>624.8</ele>
        <time>2022-03-08T13:30:45Z</time>
      </trkpt>
      <trkpt lat="46.71431" lon="5.74612">
        <ele>624.3</ele>
        <time>2022-03-08T13:30:49Z</time>
      </trkpt>
      <trkpt lat="46.71427" lon="5.74608">
        <ele>624.1</ele>
        <time>2022-03-08T13:30:53Z</time>
      </trkpt>
      <trkpt lat="46.71422" lon="5.74603">
        <ele>624.2</ele>
        <time>2022-03-08T13:30:58Z</time>
      </trkpt>
      <trkpt lat="46.71418" lon="5.74598">
        <ele>624.7</ele>
        <time>2022-03-08T13:31:03Z</time>
      </trkpt>
      <trkpt lat="46.71414" lon="5.74593">
        <ele>625.4</ele>
        <time>2022-03-08T13:31:08Z</time>
      </trkpt>
      <trkpt lat="46.71411" lon="5.74587">
        <ele>626.5</ele>
        <time>2022-03-08T13:31:14Z</time>
      </trkpt>
      <trkpt lat="46.71409" lon="5.74581">
        <ele>627.2</ele>
        <time>2022-03-08T13:31:18Z</time>
      </trkpt>
      <trkpt lat="46.71405" lon="5.74576">
        <ele>627.5</ele>
        <time>2022-03-08T13:31:22Z</time>
      </trkpt>
      <trkpt lat="46.71402" lon="5.74571">
        <ele>627.6</ele>
        <time>2022-03-08T13:31:26Z</time>
      </trkpt>
      <trkpt lat="46.71398" lon="5.74567">
        <ele>627.4</ele>
        <time>2022-03-08T13:31:30Z</time>
      </trkpt>
      <trkpt lat="46.71394" lon="5.74562">
        <ele>627</ele>
        <time>2022-03-08T13:31:35Z</time>
      </trkpt>
      <trkpt lat="46.71389" lon="5.74559">
        <ele>626.6</ele>
        <time>2022-03-08T13:31:40Z</time>
      </trkpt>
      <trkpt lat="46.71387" lon="5.74553">
        <ele>625.4</ele>
        <time>2022-03-08T13:31:47Z</time>
      </trkpt>
      <trkpt lat="46.71383" lon="5.74549">
        <ele>624.5</ele>
        <time>2022-03-08T13:31:51Z</time>
      </trkpt>
      <trkpt lat="46.71379" lon="5.74544">
        <ele>623.6</ele>
        <time>2022-03-08T13:31:55Z</time>
      </trkpt>
      <trkpt lat="46.71377" lon="5.74538">
        <ele>622.5</ele>
        <time>2022-03-08T13:32:00Z</time>
      </trkpt>
      <trkpt lat="46.71375" lon="5.74531">
        <ele>621.2</ele>
        <time>2022-03-08T13:32:06Z</time>
      </trkpt>
      <trkpt lat="46.71376" lon="5.74524">
        <ele>619.2</ele>
        <time>2022-03-08T13:32:12Z</time>
      </trkpt>
      <trkpt lat="46.71375" lon="5.74517">
        <ele>618.4</ele>
        <time>2022-03-08T13:32:16Z</time>
      </trkpt>
      <trkpt lat="46.71373" lon="5.7451">
        <ele>618.2</ele>
        <time>2022-03-08T13:32:20Z</time>
      </trkpt>
      <trkpt lat="46.7137" lon="5.74504">
        <ele>618.3</ele>
        <time>2022-03-08T13:32:23Z</time>
      </trkpt>
      <trkpt lat="46.71367" lon="5.74498">
        <ele>618.7</ele>
        <time>2022-03-08T13:32:26Z</time>
      </trkpt>
      <trkpt lat="46.71364" lon="5.74493">
        <ele>619.5</ele>
        <time>2022-03-08T13:32:29Z</time>
      </trkpt>
      <trkpt lat="46.7136" lon="5.74491">
        <ele>620.2</ele>
        <time>2022-03-08T13:32:34Z</time>
      </trkpt>
      <trkpt lat="46.71358" lon="5.74496">
        <ele>620.1</ele>
        <time>2022-03-08T13:32:40Z</time>
      </trkpt>
      <trkpt lat="46.71356" lon="5.74503">
        <ele>619.1</ele>
        <time>2022-03-08T13:32:45Z</time>
      </trkpt>
      <trkpt lat="46.71355" lon="5.7451">
        <ele>617.9</ele>
        <time>2022-03-08T13:32:52Z</time>
      </trkpt>
      <trkpt lat="46.71355" lon="5.74516">
        <ele>617.2</ele>
        <time>2022-03-08T13:32:58Z</time>
      </trkpt>
      <trkpt lat="46.71351" lon="5.74526">
        <ele>617</ele>
        <time>2022-03-08T13:33:15Z</time>
      </trkpt>
      <trkpt lat="46.71346" lon="5.7453">
        <ele>617</ele>
        <time>2022-03-08T13:33:18Z</time>
      </trkpt>
      <trkpt lat="46.71347" lon="5.74523">
        <ele>618.6</ele>
        <time>2022-03-08T13:33:48Z</time>
      </trkpt>
      <trkpt lat="46.71351" lon="5.74516">
        <ele>618.8</ele>
        <time>2022-03-08T13:33:51Z</time>
      </trkpt>
      <trkpt lat="46.71354" lon="5.74508">
        <ele>619</ele>
        <time>2022-03-08T13:33:54Z</time>
      </trkpt>
      <trkpt lat="46.71352" lon="5.74498">
        <ele>619.5</ele>
        <time>2022-03-08T13:33:57Z</time>
      </trkpt>
      <trkpt lat="46.71349" lon="5.74489">
        <ele>620.7</ele>
        <time>2022-03-08T13:34:00Z</time>
      </trkpt>
      <trkpt lat="46.71347" lon="5.74479">
        <ele>622.2</ele>
        <time>2022-03-08T13:34:03Z</time>
      </trkpt>
      <trkpt lat="46.71344" lon="5.74473">
        <ele>623.4</ele>
        <time>2022-03-08T13:34:06Z</time>
      </trkpt>
      <trkpt lat="46.7134" lon="5.74476">
        <ele>623.1</ele>
        <time>2022-03-08T13:34:14Z</time>
      </trkpt>
      <trkpt lat="46.71339" lon="5.74483">
        <ele>621.4</ele>
        <time>2022-03-08T13:34:18Z</time>
      </trkpt>
      <trkpt lat="46.71341" lon="5.74489">
        <ele>617.8</ele>
        <time>2022-03-08T13:34:26Z</time>
      </trkpt>
      <trkpt lat="46.71339" lon="5.74482">
        <ele>607.8</ele>
        <time>2022-03-08T13:35:42Z</time>
      </trkpt>
      <trkpt lat="46.71335" lon="5.74479">
        <ele>608.4</ele>
        <time>2022-03-08T13:35:48Z</time>
      </trkpt>
      <trkpt lat="46.7133" lon="5.74477">
        <ele>609.2</ele>
        <time>2022-03-08T13:35:55Z</time>
      </trkpt>
      <trkpt lat="46.71326" lon="5.74472">
        <ele>610</ele>
        <time>2022-03-08T13:36:02Z</time>
      </trkpt>
      <trkpt lat="46.71321" lon="5.74468">
        <ele>610.5</ele>
        <time>2022-03-08T13:36:08Z</time>
      </trkpt>
      <trkpt lat="46.71316" lon="5.74466">
        <ele>610.9</ele>
        <time>2022-03-08T13:36:12Z</time>
      </trkpt>
      <trkpt lat="46.71311" lon="5.74464">
        <ele>610.7</ele>
        <time>2022-03-08T13:36:15Z</time>
      </trkpt>
      <trkpt lat="46.71306" lon="5.7446">
        <ele>610.1</ele>
        <time>2022-03-08T13:36:19Z</time>
      </trkpt>
      <trkpt lat="46.71302" lon="5.74457">
        <ele>609.3</ele>
        <time>2022-03-08T13:36:23Z</time>
      </trkpt>
      <trkpt lat="46.71299" lon="5.74451">
        <ele>608.6</ele>
        <time>2022-03-08T13:36:29Z</time>
      </trkpt>
      <trkpt lat="46.71296" lon="5.74446">
        <ele>608.7</ele>
        <time>2022-03-08T13:36:35Z</time>
      </trkpt>
      <trkpt lat="46.71292" lon="5.74442">
        <ele>609.4</ele>
        <time>2022-03-08T13:36:40Z</time>
      </trkpt>
      <trkpt lat="46.71287" lon="5.7444">
        <ele>610.6</ele>
        <time>2022-03-08T13:36:46Z</time>
      </trkpt>
      <trkpt lat="46.71281" lon="5.7444">
        <ele>611.6</ele>
        <time>2022-03-08T13:36:51Z</time>
      </trkpt>
      <trkpt lat="46.71277" lon="5.74435">
        <ele>613</ele>
        <time>2022-03-08T13:36:56Z</time>
      </trkpt>
      <trkpt lat="46.71273" lon="5.74429">
        <ele>614</ele>
        <time>2022-03-08T13:37:00Z</time>
      </trkpt>
      <trkpt lat="46.71269" lon="5.74424">
        <ele>615.1</ele>
        <time>2022-03-08T13:37:05Z</time>
      </trkpt>
      <trkpt lat="46.71266" lon="5.74418">
        <ele>615.9</ele>
        <time>2022-03-08T13:37:10Z</time>
      </trkpt>
      <trkpt lat="46.71263" lon="5.74411">
        <ele>616.6</ele>
        <time>2022-03-08T13:37:14Z</time>
      </trkpt>
      <trkpt lat="46.71261" lon="5.74405">
        <ele>617.5</ele>
        <time>2022-03-08T13:37:18Z</time>
      </trkpt>
      <trkpt lat="46.71259" lon="5.74399">
        <ele>618.1</ele>
        <time>2022-03-08T13:37:23Z</time>
      </trkpt>
      <trkpt lat="46.71257" lon="5.74393">
        <ele>618.3</ele>
        <time>2022-03-08T13:37:28Z</time>
      </trkpt>
      <trkpt lat="46.71253" lon="5.74389">
        <ele>618.6</ele>
        <time>2022-03-08T13:37:33Z</time>
      </trkpt>
      <trkpt lat="46.7125" lon="5.74385">
        <ele>618.6</ele>
        <time>2022-03-08T13:37:39Z</time>
      </trkpt>
      <trkpt lat="46.71246" lon="5.74381">
        <ele>619.2</ele>
        <time>2022-03-08T13:37:45Z</time>
      </trkpt>
      <trkpt lat="46.71242" lon="5.74375">
        <ele>619.6</ele>
        <time>2022-03-08T13:37:51Z</time>
      </trkpt>
      <trkpt lat="46.71239" lon="5.74369">
        <ele>619.5</ele>
        <time>2022-03-08T13:37:55Z</time>
      </trkpt>
      <trkpt lat="46.71237" lon="5.74364">
        <ele>619.4</ele>
        <time>2022-03-08T13:37:59Z</time>
      </trkpt>
      <trkpt lat="46.71232" lon="5.7436">
        <ele>619.3</ele>
        <time>2022-03-08T13:38:04Z</time>
      </trkpt>
      <trkpt lat="46.71227" lon="5.74357">
        <ele>619.7</ele>
        <time>2022-03-08T13:38:09Z</time>
      </trkpt>
      <trkpt lat="46.71223" lon="5.74354">
        <ele>621.1</ele>
        <time>2022-03-08T13:38:16Z</time>
      </trkpt>
      <trkpt lat="46.71218" lon="5.74351">
        <ele>621.9</ele>
        <time>2022-03-08T13:38:27Z</time>
      </trkpt>
      <trkpt lat="46.71213" lon="5.74349">
        <ele>622</ele>
        <time>2022-03-08T13:38:31Z</time>
      </trkpt>
      <trkpt lat="46.71209" lon="5.74345">
        <ele>622.4</ele>
        <time>2022-03-08T13:38:36Z</time>
      </trkpt>
      <trkpt lat="46.71204" lon="5.74344">
        <ele>622.3</ele>
        <time>2022-03-08T13:38:42Z</time>
      </trkpt>
      <trkpt lat="46.71199" lon="5.74345">
        <ele>622</ele>
        <time>2022-03-08T13:38:48Z</time>
      </trkpt>
      <trkpt lat="46.71194" lon="5.74343">
        <ele>622.1</ele>
        <time>2022-03-08T13:38:55Z</time>
      </trkpt>
      <trkpt lat="46.71188" lon="5.74343">
        <ele>621.7</ele>
        <time>2022-03-08T13:39:00Z</time>
      </trkpt>
      <trkpt lat="46.71183" lon="5.74343">
        <ele>621.3</ele>
        <time>2022-03-08T13:39:04Z</time>
      </trkpt>
      <trkpt lat="46.71178" lon="5.74342">
        <ele>621.2</ele>
        <time>2022-03-08T13:39:10Z</time>
      </trkpt>
      <trkpt lat="46.71173" lon="5.7434">
        <ele>621</ele>
        <time>2022-03-08T13:39:14Z</time>
      </trkpt>
      <trkpt lat="46.71168" lon="5.74337">
        <ele>620.3</ele>
        <time>2022-03-08T13:39:21Z</time>
      </trkpt>
      <trkpt lat="46.71164" lon="5.74336">
        <ele>619.9</ele>
        <time>2022-03-08T13:39:25Z</time>
      </trkpt>
      <trkpt lat="46.71158" lon="5.74334">
        <ele>619.7</ele>
        <time>2022-03-08T13:39:29Z</time>
      </trkpt>
      <trkpt lat="46.71153" lon="5.74331">
        <ele>619.3</ele>
        <time>2022-03-08T13:39:33Z</time>
      </trkpt>
      <trkpt lat="46.71149" lon="5.74329">
        <ele>619.3</ele>
        <time>2022-03-08T13:39:37Z</time>
      </trkpt>
      <trkpt lat="46.71144" lon="5.74327">
        <ele>619.4</ele>
        <time>2022-03-08T13:39:42Z</time>
      </trkpt>
      <trkpt lat="46.7114" lon="5.74329">
        <ele>619.9</ele>
        <time>2022-03-08T13:39:47Z</time>
      </trkpt>
      <trkpt lat="46.71135" lon="5.74331">
        <ele>620.3</ele>
        <time>2022-03-08T13:39:52Z</time>
      </trkpt>
      <trkpt lat="46.7113" lon="5.74331">
        <ele>620.6</ele>
        <time>2022-03-08T13:39:58Z</time>
      </trkpt>
      <trkpt lat="46.71125" lon="5.7433">
        <ele>620.5</ele>
        <time>2022-03-08T13:40:03Z</time>
      </trkpt>
      <trkpt lat="46.7112" lon="5.7433">
        <ele>620.5</ele>
        <time>2022-03-08T13:40:07Z</time>
      </trkpt>
      <trkpt lat="46.71114" lon="5.7433">
        <ele>621.1</ele>
        <time>2022-03-08T13:40:11Z</time>
      </trkpt>
      <trkpt lat="46.71109" lon="5.7433">
        <ele>622.2</ele>
        <time>2022-03-08T13:40:15Z</time>
      </trkpt>
      <trkpt lat="46.71103" lon="5.74331">
        <ele>623.3</ele>
        <time>2022-03-08T13:40:19Z</time>
      </trkpt>
      <trkpt lat="46.71098" lon="5.74331">
        <ele>624.7</ele>
        <time>2022-03-08T13:40:24Z</time>
      </trkpt>
      <trkpt lat="46.71093" lon="5.74329">
        <ele>625.9</ele>
        <time>2022-03-08T13:40:30Z</time>
      </trkpt>
      <trkpt lat="46.71089" lon="5.74328">
        <ele>626.7</ele>
        <time>2022-03-08T13:40:36Z</time>
      </trkpt>
      <trkpt lat="46.71084" lon="5.74325">
        <ele>627.2</ele>
        <time>2022-03-08T13:40:42Z</time>
      </trkpt>
      <trkpt lat="46.71079" lon="5.74323">
        <ele>627.2</ele>
        <time>2022-03-08T13:40:48Z</time>
      </trkpt>
      <trkpt lat="46.71073" lon="5.74322">
        <ele>626.9</ele>
        <time>2022-03-08T13:40:53Z</time>
      </trkpt>
      <trkpt lat="46.71068" lon="5.74321">
        <ele>626.6</ele>
        <time>2022-03-08T13:40:58Z</time>
      </trkpt>
      <trkpt lat="46.71064" lon="5.74319">
        <ele>626.6</ele>
        <time>2022-03-08T13:41:03Z</time>
      </trkpt>
      <trkpt lat="46.71059" lon="5.74319">
        <ele>627.1</ele>
        <time>2022-03-08T13:41:08Z</time>
      </trkpt>
      <trkpt lat="46.71054" lon="5.74317">
        <ele>627.4</ele>
        <time>2022-03-08T13:41:15Z</time>
      </trkpt>
      <trkpt lat="46.71049" lon="5.74317">
        <ele>627.8</ele>
        <time>2022-03-08T13:41:20Z</time>
      </trkpt>
      <trkpt lat="46.71044" lon="5.74317">
        <ele>628.7</ele>
        <time>2022-03-08T13:41:25Z</time>
      </trkpt>
      <trkpt lat="46.71039" lon="5.74316">
        <ele>629.5</ele>
        <time>2022-03-08T13:41:30Z</time>
      </trkpt>
      <trkpt lat="46.71034" lon="5.74315">
        <ele>629.9</ele>
        <time>2022-03-08T13:41:34Z</time>
      </trkpt>
      <trkpt lat="46.71029" lon="5.74316">
        <ele>630.4</ele>
        <time>2022-03-08T13:41:38Z</time>
      </trkpt>
      <trkpt lat="46.71024" lon="5.74315">
        <ele>630.9</ele>
        <time>2022-03-08T13:41:43Z</time>
      </trkpt>
      <trkpt lat="46.71019" lon="5.74316">
        <ele>630.7</ele>
        <time>2022-03-08T13:41:49Z</time>
      </trkpt>
      <trkpt lat="46.71014" lon="5.74316">
        <ele>630.4</ele>
        <time>2022-03-08T13:41:53Z</time>
      </trkpt>
      <trkpt lat="46.71009" lon="5.74313">
        <ele>630.2</ele>
        <time>2022-03-08T13:41:57Z</time>
      </trkpt>
      <trkpt lat="46.71005" lon="5.7431">
        <ele>629.8</ele>
        <time>2022-03-08T13:42:02Z</time>
      </trkpt>
      <trkpt lat="46.71" lon="5.74311">
        <ele>629.7</ele>
        <time>2022-03-08T13:42:07Z</time>
      </trkpt>
      <trkpt lat="46.70995" lon="5.7431">
        <ele>629.8</ele>
        <time>2022-03-08T13:42:12Z</time>
      </trkpt>
      <trkpt lat="46.7099" lon="5.74307">
        <ele>630</ele>
        <time>2022-03-08T13:42:19Z</time>
      </trkpt>
      <trkpt lat="46.70985" lon="5.74307">
        <ele>629.5</ele>
        <time>2022-03-08T13:42:24Z</time>
      </trkpt>
      <trkpt lat="46.70979" lon="5.74304">
        <ele>628.9</ele>
        <time>2022-03-08T13:42:29Z</time>
      </trkpt>
      <trkpt lat="46.70975" lon="5.74303">
        <ele>628.7</ele>
        <time>2022-03-08T13:42:34Z</time>
      </trkpt>
      <trkpt lat="46.7097" lon="5.74304">
        <ele>628.8</ele>
        <time>2022-03-08T13:42:41Z</time>
      </trkpt>
      <trkpt lat="46.70966" lon="5.743">
        <ele>629.1</ele>
        <time>2022-03-08T13:42:47Z</time>
      </trkpt>
      <trkpt lat="46.7096" lon="5.74298">
        <ele>629.1</ele>
        <time>2022-03-08T13:42:51Z</time>
      </trkpt>
      <trkpt lat="46.70956" lon="5.74296">
        <ele>629.1</ele>
        <time>2022-03-08T13:42:56Z</time>
      </trkpt>
      <trkpt lat="46.70951" lon="5.74293">
        <ele>628.8</ele>
        <time>2022-03-08T13:43:03Z</time>
      </trkpt>
      <trkpt lat="46.70946" lon="5.74288">
        <ele>628.6</ele>
        <time>2022-03-08T13:43:07Z</time>
      </trkpt>
      <trkpt lat="46.70943" lon="5.74283">
        <ele>627.9</ele>
        <time>2022-03-08T13:43:12Z</time>
      </trkpt>
      <trkpt lat="46.70939" lon="5.74279">
        <ele>627.5</ele>
        <time>2022-03-08T13:43:17Z</time>
      </trkpt>
      <trkpt lat="46.70935" lon="5.74276">
        <ele>628.2</ele>
        <time>2022-03-08T13:43:22Z</time>
      </trkpt>
      <trkpt lat="46.7093" lon="5.74273">
        <ele>628.7</ele>
        <time>2022-03-08T13:43:29Z</time>
      </trkpt>
      <trkpt lat="46.70927" lon="5.74268">
        <ele>629.2</ele>
        <time>2022-03-08T13:43:33Z</time>
      </trkpt>
      <trkpt lat="46.70922" lon="5.74263">
        <ele>629.8</ele>
        <time>2022-03-08T13:43:37Z</time>
      </trkpt>
      <trkpt lat="46.70918" lon="5.74261">
        <ele>630.3</ele>
        <time>2022-03-08T13:43:42Z</time>
      </trkpt>
      <trkpt lat="46.70913" lon="5.74258">
        <ele>629.8</ele>
        <time>2022-03-08T13:43:47Z</time>
      </trkpt>
      <trkpt lat="46.70909" lon="5.74254">
        <ele>628.5</ele>
        <time>2022-03-08T13:43:53Z</time>
      </trkpt>
      <trkpt lat="46.70904" lon="5.74251">
        <ele>627.5</ele>
        <time>2022-03-08T13:43:58Z</time>
      </trkpt>
      <trkpt lat="46.70901" lon="5.74247">
        <ele>627</ele>
        <time>2022-03-08T13:44:03Z</time>
      </trkpt>
      <trkpt lat="46.70897" lon="5.74242">
        <ele>626.8</ele>
        <time>2022-03-08T13:44:07Z</time>
      </trkpt>
      <trkpt lat="46.70894" lon="5.74236">
        <ele>627.8</ele>
        <time>2022-03-08T13:44:11Z</time>
      </trkpt>
      <trkpt lat="46.7089" lon="5.74231">
        <ele>629.2</ele>
        <time>2022-03-08T13:44:16Z</time>
      </trkpt>
      <trkpt lat="46.70887" lon="5.74225">
        <ele>630.9</ele>
        <time>2022-03-08T13:44:20Z</time>
      </trkpt>
      <trkpt lat="46.70883" lon="5.7422">
        <ele>632.4</ele>
        <time>2022-03-08T13:44:24Z</time>
      </trkpt>
      <trkpt lat="46.70878" lon="5.74216">
        <ele>634</ele>
        <time>2022-03-08T13:44:29Z</time>
      </trkpt>
      <trkpt lat="46.70874" lon="5.74213">
        <ele>634.8</ele>
        <time>2022-03-08T13:44:33Z</time>
      </trkpt>
      <trkpt lat="46.7087" lon="5.74209">
        <ele>635.6</ele>
        <time>2022-03-08T13:44:38Z</time>
      </trkpt>
      <trkpt lat="46.70866" lon="5.74206">
        <ele>636.4</ele>
        <time>2022-03-08T13:44:44Z</time>
      </trkpt>
      <trkpt lat="46.70861" lon="5.74204">
        <ele>638</ele>
        <time>2022-03-08T13:44:50Z</time>
      </trkpt>
      <trkpt lat="46.70857" lon="5.742">
        <ele>639.1</ele>
        <time>2022-03-08T13:44:55Z</time>
      </trkpt>
      <trkpt lat="46.70853" lon="5.74195">
        <ele>640</ele>
        <time>2022-03-08T13:45:00Z</time>
      </trkpt>
      <trkpt lat="46.7085" lon="5.74191">
        <ele>640.5</ele>
        <time>2022-03-08T13:45:04Z</time>
      </trkpt>
      <trkpt lat="46.70846" lon="5.74185">
        <ele>641.1</ele>
        <time>2022-03-08T13:45:09Z</time>
      </trkpt>
      <trkpt lat="46.70843" lon="5.7418">
        <ele>641.1</ele>
        <time>2022-03-08T13:45:13Z</time>
      </trkpt>
      <trkpt lat="46.70839" lon="5.74176">
        <ele>640.9</ele>
        <time>2022-03-08T13:45:17Z</time>
      </trkpt>
      <trkpt lat="46.70835" lon="5.7417">
        <ele>640.9</ele>
        <time>2022-03-08T13:45:22Z</time>
      </trkpt>
      <trkpt lat="46.70831" lon="5.74166">
        <ele>641.2</ele>
        <time>2022-03-08T13:45:27Z</time>
      </trkpt>
      <trkpt lat="46.70828" lon="5.74161">
        <ele>640.9</ele>
        <time>2022-03-08T13:45:32Z</time>
      </trkpt>
      <trkpt lat="46.70823" lon="5.74159">
        <ele>640.4</ele>
        <time>2022-03-08T13:45:37Z</time>
      </trkpt>
      <trkpt lat="46.70819" lon="5.74156">
        <ele>639.7</ele>
        <time>2022-03-08T13:45:42Z</time>
      </trkpt>
      <trkpt lat="46.70814" lon="5.74154">
        <ele>638.5</ele>
        <time>2022-03-08T13:45:49Z</time>
      </trkpt>
      <trkpt lat="46.7081" lon="5.74153">
        <ele>638.1</ele>
        <time>2022-03-08T13:45:53Z</time>
      </trkpt>
      <trkpt lat="46.70805" lon="5.74151">
        <ele>637.6</ele>
        <time>2022-03-08T13:45:57Z</time>
      </trkpt>
      <trkpt lat="46.70802" lon="5.74145">
        <ele>637.2</ele>
        <time>2022-03-08T13:46:02Z</time>
      </trkpt>
      <trkpt lat="46.70797" lon="5.7414">
        <ele>636.8</ele>
        <time>2022-03-08T13:46:08Z</time>
      </trkpt>
      <trkpt lat="46.70793" lon="5.74135">
        <ele>635.6</ele>
        <time>2022-03-08T13:46:13Z</time>
      </trkpt>
      <trkpt lat="46.70788" lon="5.74133">
        <ele>634.3</ele>
        <time>2022-03-08T13:46:19Z</time>
      </trkpt>
      <trkpt lat="46.70784" lon="5.7413">
        <ele>633.4</ele>
        <time>2022-03-08T13:46:26Z</time>
      </trkpt>
      <trkpt lat="46.7078" lon="5.74125">
        <ele>633.8</ele>
        <time>2022-03-08T13:46:31Z</time>
      </trkpt>
      <trkpt lat="46.70775" lon="5.74123">
        <ele>634.6</ele>
        <time>2022-03-08T13:46:35Z</time>
      </trkpt>
      <trkpt lat="46.7077" lon="5.74123">
        <ele>635.2</ele>
        <time>2022-03-08T13:46:40Z</time>
      </trkpt>
      <trkpt lat="46.70766" lon="5.74119">
        <ele>635.8</ele>
        <time>2022-03-08T13:46:45Z</time>
      </trkpt>
      <trkpt lat="46.70762" lon="5.74114">
        <ele>636.4</ele>
        <time>2022-03-08T13:46:49Z</time>
      </trkpt>
      <trkpt lat="46.70758" lon="5.7411">
        <ele>637.4</ele>
        <time>2022-03-08T13:46:52Z</time>
      </trkpt>
      <trkpt lat="46.70754" lon="5.74105">
        <ele>638.7</ele>
        <time>2022-03-08T13:46:56Z</time>
      </trkpt>
      <trkpt lat="46.7075" lon="5.741">
        <ele>639.7</ele>
        <time>2022-03-08T13:47:00Z</time>
      </trkpt>
      <trkpt lat="46.70746" lon="5.74096">
        <ele>640.7</ele>
        <time>2022-03-08T13:47:05Z</time>
      </trkpt>
      <trkpt lat="46.70741" lon="5.74095">
        <ele>641.7</ele>
        <time>2022-03-08T13:47:10Z</time>
      </trkpt>
      <trkpt lat="46.70738" lon="5.74091">
        <ele>642.5</ele>
        <time>2022-03-08T13:47:15Z</time>
      </trkpt>
      <trkpt lat="46.70734" lon="5.74085">
        <ele>643.1</ele>
        <time>2022-03-08T13:47:20Z</time>
      </trkpt>
      <trkpt lat="46.70729" lon="5.74081">
        <ele>643.5</ele>
        <time>2022-03-08T13:47:24Z</time>
      </trkpt>
      <trkpt lat="46.70727" lon="5.74074">
        <ele>643.7</ele>
        <time>2022-03-08T13:47:28Z</time>
      </trkpt>
      <trkpt lat="46.70724" lon="5.74069">
        <ele>643.9</ele>
        <time>2022-03-08T13:47:33Z</time>
      </trkpt>
      <trkpt lat="46.70719" lon="5.74067">
        <ele>643.9</ele>
        <time>2022-03-08T13:47:38Z</time>
      </trkpt>
      <trkpt lat="46.70715" lon="5.74066">
        <ele>643.6</ele>
        <time>2022-03-08T13:47:42Z</time>
      </trkpt>
      <trkpt lat="46.70713" lon="5.74059">
        <ele>643.6</ele>
        <time>2022-03-08T13:47:48Z</time>
      </trkpt>
      <trkpt lat="46.7071" lon="5.74055">
        <ele>643.4</ele>
        <time>2022-03-08T13:47:53Z</time>
      </trkpt>
      <trkpt lat="46.70706" lon="5.74049">
        <ele>643.3</ele>
        <time>2022-03-08T13:47:58Z</time>
      </trkpt>
      <trkpt lat="46.70702" lon="5.74046">
        <ele>642.8</ele>
        <time>2022-03-08T13:48:04Z</time>
      </trkpt>
      <trkpt lat="46.70699" lon="5.74042">
        <ele>642.2</ele>
        <time>2022-03-08T13:48:09Z</time>
      </trkpt>
      <trkpt lat="46.70695" lon="5.74035">
        <ele>641.2</ele>
        <time>2022-03-08T13:48:15Z</time>
      </trkpt>
      <trkpt lat="46.70691" lon="5.74032">
        <ele>641.1</ele>
        <time>2022-03-08T13:48:19Z</time>
      </trkpt>
      <trkpt lat="46.70686" lon="5.74029">
        <ele>641.2</ele>
        <time>2022-03-08T13:48:24Z</time>
      </trkpt>
      <trkpt lat="46.70682" lon="5.74024">
        <ele>641.3</ele>
        <time>2022-03-08T13:48:29Z</time>
      </trkpt>
      <trkpt lat="46.70678" lon="5.74019">
        <ele>641.4</ele>
        <time>2022-03-08T13:48:34Z</time>
      </trkpt>
      <trkpt lat="46.70674" lon="5.74017">
        <ele>641.5</ele>
        <time>2022-03-08T13:48:39Z</time>
      </trkpt>
      <trkpt lat="46.70669" lon="5.74014">
        <ele>641.9</ele>
        <time>2022-03-08T13:48:44Z</time>
      </trkpt>
      <trkpt lat="46.70665" lon="5.7401">
        <ele>642.5</ele>
        <time>2022-03-08T13:48:49Z</time>
      </trkpt>
      <trkpt lat="46.70661" lon="5.74006">
        <ele>642.8</ele>
        <time>2022-03-08T13:48:53Z</time>
      </trkpt>
      <trkpt lat="46.70655" lon="5.74005">
        <ele>643.3</ele>
        <time>2022-03-08T13:48:58Z</time>
      </trkpt>
      <trkpt lat="46.7065" lon="5.74004">
        <ele>644.3</ele>
        <time>2022-03-08T13:49:02Z</time>
      </trkpt>
      <trkpt lat="46.70646" lon="5.74001">
        <ele>645.1</ele>
        <time>2022-03-08T13:49:07Z</time>
      </trkpt>
      <trkpt lat="46.70642" lon="5.73998">
        <ele>645.4</ele>
        <time>2022-03-08T13:49:11Z</time>
      </trkpt>
      <trkpt lat="46.70638" lon="5.73992">
        <ele>645.8</ele>
        <time>2022-03-08T13:49:16Z</time>
      </trkpt>
      <trkpt lat="46.70635" lon="5.73986">
        <ele>646.2</ele>
        <time>2022-03-08T13:49:21Z</time>
      </trkpt>
      <trkpt lat="46.70632" lon="5.73982">
        <ele>647.2</ele>
        <time>2022-03-08T13:49:25Z</time>
      </trkpt>
      <trkpt lat="46.70627" lon="5.7398">
        <ele>648.2</ele>
        <time>2022-03-08T13:49:29Z</time>
      </trkpt>
      <trkpt lat="46.70621" lon="5.7398">
        <ele>648.7</ele>
        <time>2022-03-08T13:49:32Z</time>
      </trkpt>
      <trkpt lat="46.70616" lon="5.73976">
        <ele>649.2</ele>
        <time>2022-03-08T13:49:36Z</time>
      </trkpt>
      <trkpt lat="46.70612" lon="5.73973">
        <ele>650.3</ele>
        <time>2022-03-08T13:49:41Z</time>
      </trkpt>
      <trkpt lat="46.70608" lon="5.73968">
        <ele>650.6</ele>
        <time>2022-03-08T13:49:47Z</time>
      </trkpt>
      <trkpt lat="46.70604" lon="5.73965">
        <ele>650.7</ele>
        <time>2022-03-08T13:49:53Z</time>
      </trkpt>
      <trkpt lat="46.706" lon="5.73962">
        <ele>651.2</ele>
        <time>2022-03-08T13:50:00Z</time>
      </trkpt>
      <trkpt lat="46.70595" lon="5.7396">
        <ele>651.7</ele>
        <time>2022-03-08T13:50:05Z</time>
      </trkpt>
      <trkpt lat="46.7059" lon="5.73957">
        <ele>652.3</ele>
        <time>2022-03-08T13:50:10Z</time>
      </trkpt>
      <trkpt lat="46.70586" lon="5.73953">
        <ele>652.7</ele>
        <time>2022-03-08T13:50:16Z</time>
      </trkpt>
      <trkpt lat="46.7058" lon="5.73951">
        <ele>653</ele>
        <time>2022-03-08T13:50:21Z</time>
      </trkpt>
      <trkpt lat="46.70575" lon="5.73948">
        <ele>653</ele>
        <time>2022-03-08T13:50:26Z</time>
      </trkpt>
      <trkpt lat="46.7057" lon="5.73946">
        <ele>652.9</ele>
        <time>2022-03-08T13:50:30Z</time>
      </trkpt>
      <trkpt lat="46.70566" lon="5.73943">
        <ele>652.5</ele>
        <time>2022-03-08T13:50:36Z</time>
      </trkpt>
      <trkpt lat="46.70562" lon="5.73939">
        <ele>651.4</ele>
        <time>2022-03-08T13:50:43Z</time>
      </trkpt>
      <trkpt lat="46.70557" lon="5.73937">
        <ele>650.3</ele>
        <time>2022-03-08T13:50:49Z</time>
      </trkpt>
      <trkpt lat="46.70551" lon="5.73935">
        <ele>649</ele>
        <time>2022-03-08T13:50:54Z</time>
      </trkpt>
      <trkpt lat="46.70546" lon="5.73933">
        <ele>647.8</ele>
        <time>2022-03-08T13:50:59Z</time>
      </trkpt>
      <trkpt lat="46.70541" lon="5.73929">
        <ele>645.5</ele>
        <time>2022-03-08T13:51:06Z</time>
      </trkpt>
      <trkpt lat="46.70536" lon="5.73926">
        <ele>644.6</ele>
        <time>2022-03-08T13:51:11Z</time>
      </trkpt>
      <trkpt lat="46.70532" lon="5.73923">
        <ele>644.3</ele>
        <time>2022-03-08T13:51:15Z</time>
      </trkpt>
      <trkpt lat="46.70528" lon="5.7392">
        <ele>644.5</ele>
        <time>2022-03-08T13:51:20Z</time>
      </trkpt>
      <trkpt lat="46.70523" lon="5.73918">
        <ele>645.1</ele>
        <time>2022-03-08T13:51:24Z</time>
      </trkpt>
      <trkpt lat="46.70518" lon="5.73915">
        <ele>645.8</ele>
        <time>2022-03-08T13:51:28Z</time>
      </trkpt>
      <trkpt lat="46.70513" lon="5.73913">
        <ele>646.6</ele>
        <time>2022-03-08T13:51:32Z</time>
      </trkpt>
      <trkpt lat="46.70509" lon="5.73911">
        <ele>647.6</ele>
        <time>2022-03-08T13:51:38Z</time>
      </trkpt>
      <trkpt lat="46.70503" lon="5.7391">
        <ele>648.4</ele>
        <time>2022-03-08T13:51:42Z</time>
      </trkpt>
      <trkpt lat="46.70498" lon="5.73909">
        <ele>649.1</ele>
        <time>2022-03-08T13:51:46Z</time>
      </trkpt>
      <trkpt lat="46.70494" lon="5.73905">
        <ele>649.4</ele>
        <time>2022-03-08T13:51:51Z</time>
      </trkpt>
      <trkpt lat="46.7049" lon="5.73902">
        <ele>648.5</ele>
        <time>2022-03-08T13:51:58Z</time>
      </trkpt>
      <trkpt lat="46.70485" lon="5.73902">
        <ele>647.1</ele>
        <time>2022-03-08T13:52:05Z</time>
      </trkpt>
      <trkpt lat="46.70479" lon="5.739">
        <ele>646.1</ele>
        <time>2022-03-08T13:52:11Z</time>
      </trkpt>
      <trkpt lat="46.70475" lon="5.73897">
        <ele>645.5</ele>
        <time>2022-03-08T13:52:16Z</time>
      </trkpt>
      <trkpt lat="46.70471" lon="5.73895">
        <ele>644.4</ele>
        <time>2022-03-08T13:52:21Z</time>
      </trkpt>
      <trkpt lat="46.70466" lon="5.73892">
        <ele>643.4</ele>
        <time>2022-03-08T13:52:25Z</time>
      </trkpt>
      <trkpt lat="46.70462" lon="5.73888">
        <ele>642.7</ele>
        <time>2022-03-08T13:52:30Z</time>
      </trkpt>
      <trkpt lat="46.70459" lon="5.73883">
        <ele>641.3</ele>
        <time>2022-03-08T13:52:36Z</time>
      </trkpt>
      <trkpt lat="46.70454" lon="5.7388">
        <ele>640.2</ele>
        <time>2022-03-08T13:52:40Z</time>
      </trkpt>
      <trkpt lat="46.70448" lon="5.7388">
        <ele>639.4</ele>
        <time>2022-03-08T13:52:44Z</time>
      </trkpt>
      <trkpt lat="46.70443" lon="5.73877">
        <ele>639.2</ele>
        <time>2022-03-08T13:52:47Z</time>
      </trkpt>
      <trkpt lat="46.70437" lon="5.73874">
        <ele>639</ele>
        <time>2022-03-08T13:52:51Z</time>
      </trkpt>
      <trkpt lat="46.70433" lon="5.7387">
        <ele>639.3</ele>
        <time>2022-03-08T13:52:55Z</time>
      </trkpt>
      <trkpt lat="46.70429" lon="5.73866">
        <ele>640.2</ele>
        <time>2022-03-08T13:53:01Z</time>
      </trkpt>
      <trkpt lat="46.70426" lon="5.7386">
        <ele>640.6</ele>
        <time>2022-03-08T13:53:06Z</time>
      </trkpt>
      <trkpt lat="46.70421" lon="5.73857">
        <ele>640.6</ele>
        <time>2022-03-08T13:53:12Z</time>
      </trkpt>
      <trkpt lat="46.70416" lon="5.73856">
        <ele>640.5</ele>
        <time>2022-03-08T13:53:17Z</time>
      </trkpt>
      <trkpt lat="46.70411" lon="5.73854">
        <ele>640.6</ele>
        <time>2022-03-08T13:53:24Z</time>
      </trkpt>
      <trkpt lat="46.70406" lon="5.73849">
        <ele>640.3</ele>
        <time>2022-03-08T13:53:29Z</time>
      </trkpt>
      <trkpt lat="46.70402" lon="5.73846">
        <ele>640.1</ele>
        <time>2022-03-08T13:53:33Z</time>
      </trkpt>
      <trkpt lat="46.70397" lon="5.73845">
        <ele>639.8</ele>
        <time>2022-03-08T13:53:37Z</time>
      </trkpt>
      <trkpt lat="46.70393" lon="5.73847">
        <ele>640.2</ele>
        <time>2022-03-08T13:53:43Z</time>
      </trkpt>
      <trkpt lat="46.70388" lon="5.73849">
        <ele>641.3</ele>
        <time>2022-03-08T13:53:49Z</time>
      </trkpt>
      <trkpt lat="46.70382" lon="5.73849">
        <ele>641.9</ele>
        <time>2022-03-08T13:53:54Z</time>
      </trkpt>
      <trkpt lat="46.70378" lon="5.73846">
        <ele>642.4</ele>
        <time>2022-03-08T13:53:59Z</time>
      </trkpt>
      <trkpt lat="46.70373" lon="5.73844">
        <ele>643.1</ele>
        <time>2022-03-08T13:54:05Z</time>
      </trkpt>
      <trkpt lat="46.7037" lon="5.73839">
        <ele>643.7</ele>
        <time>2022-03-08T13:54:11Z</time>
      </trkpt>
      <trkpt lat="46.70366" lon="5.73834">
        <ele>643.2</ele>
        <time>2022-03-08T13:54:16Z</time>
      </trkpt>
      <trkpt lat="46.70361" lon="5.7383">
        <ele>642.1</ele>
        <time>2022-03-08T13:54:22Z</time>
      </trkpt>
      <trkpt lat="46.70357" lon="5.73833">
        <ele>641.3</ele>
        <time>2022-03-08T13:54:27Z</time>
      </trkpt>
      <trkpt lat="46.70352" lon="5.73834">
        <ele>638.9</ele>
        <time>2022-03-08T13:54:36Z</time>
      </trkpt>
      <trkpt lat="46.70349" lon="5.73838">
        <ele>637.6</ele>
        <time>2022-03-08T13:54:44Z</time>
      </trkpt>
      <trkpt lat="46.70345" lon="5.73834">
        <ele>637.6</ele>
        <time>2022-03-08T13:54:53Z</time>
      </trkpt>
      <trkpt lat="46.7034" lon="5.73829">
        <ele>638.5</ele>
        <time>2022-03-08T13:55:02Z</time>
      </trkpt>
      <trkpt lat="46.70339" lon="5.73822">
        <ele>639.2</ele>
        <time>2022-03-08T13:55:09Z</time>
      </trkpt>
      <trkpt lat="46.70343" lon="5.73819">
        <ele>640.5</ele>
        <time>2022-03-08T13:55:26Z</time>
      </trkpt>
      <trkpt lat="46.70339" lon="5.73817">
        <ele>638.9</ele>
        <time>2022-03-08T13:56:02Z</time>
      </trkpt>
      <trkpt lat="46.70337" lon="5.7381">
        <ele>637.9</ele>
        <time>2022-03-08T13:56:07Z</time>
      </trkpt>
      <trkpt lat="46.70333" lon="5.73807">
        <ele>636.6</ele>
        <time>2022-03-08T13:56:14Z</time>
      </trkpt>
      <trkpt lat="46.70328" lon="5.73805">
        <ele>636.1</ele>
        <time>2022-03-08T13:56:19Z</time>
      </trkpt>
      <trkpt lat="46.70324" lon="5.73801">
        <ele>636.2</ele>
        <time>2022-03-08T13:56:25Z</time>
      </trkpt>
      <trkpt lat="46.7032" lon="5.73796">
        <ele>636</ele>
        <time>2022-03-08T13:56:30Z</time>
      </trkpt>
      <trkpt lat="46.70316" lon="5.73793">
        <ele>636.1</ele>
        <time>2022-03-08T13:56:39Z</time>
      </trkpt>
      <trkpt lat="46.70312" lon="5.73786">
        <ele>636.5</ele>
        <time>2022-03-08T13:56:45Z</time>
      </trkpt>
      <trkpt lat="46.70308" lon="5.7378">
        <ele>636.8</ele>
        <time>2022-03-08T13:56:49Z</time>
      </trkpt>
      <trkpt lat="46.70304" lon="5.73774">
        <ele>636.7</ele>
        <time>2022-03-08T13:56:53Z</time>
      </trkpt>
      <trkpt lat="46.70301" lon="5.73769">
        <ele>636.8</ele>
        <time>2022-03-08T13:56:58Z</time>
      </trkpt>
      <trkpt lat="46.70299" lon="5.73762">
        <ele>637.3</ele>
        <time>2022-03-08T13:57:04Z</time>
      </trkpt>
      <trkpt lat="46.70296" lon="5.73756">
        <ele>637.4</ele>
        <time>2022-03-08T13:57:09Z</time>
      </trkpt>
      <trkpt lat="46.70292" lon="5.73754">
        <ele>636.8</ele>
        <time>2022-03-08T13:57:13Z</time>
      </trkpt>
      <trkpt lat="46.70287" lon="5.73753">
        <ele>635.9</ele>
        <time>2022-03-08T13:57:18Z</time>
      </trkpt>
      <trkpt lat="46.70282" lon="5.73753">
        <ele>635.5</ele>
        <time>2022-03-08T13:57:24Z</time>
      </trkpt>
      <trkpt lat="46.70277" lon="5.73751">
        <ele>635.6</ele>
        <time>2022-03-08T13:57:30Z</time>
      </trkpt>
      <trkpt lat="46.70274" lon="5.73747">
        <ele>636.2</ele>
        <time>2022-03-08T13:57:35Z</time>
      </trkpt>
      <trkpt lat="46.7027" lon="5.73743">
        <ele>637.1</ele>
        <time>2022-03-08T13:57:40Z</time>
      </trkpt>
      <trkpt lat="46.70269" lon="5.73737">
        <ele>639.1</ele>
        <time>2022-03-08T13:57:49Z</time>
      </trkpt>
      <trkpt lat="46.70273" lon="5.73734">
        <ele>639.5</ele>
        <time>2022-03-08T13:57:53Z</time>
      </trkpt>
      <trkpt lat="46.70278" lon="5.73731">
        <ele>640.1</ele>
        <time>2022-03-08T13:57:59Z</time>
      </trkpt>
      <trkpt lat="46.70281" lon="5.73725">
        <ele>641.7</ele>
        <time>2022-03-08T13:58:10Z</time>
      </trkpt>
      <trkpt lat="46.70286" lon="5.73721">
        <ele>642.6</ele>
        <time>2022-03-08T13:58:20Z</time>
      </trkpt>
      <trkpt lat="46.7029" lon="5.7372">
        <ele>643.5</ele>
        <time>2022-03-08T13:58:26Z</time>
      </trkpt>
      <trkpt lat="46.70288" lon="5.73714">
        <ele>643.8</ele>
        <time>2022-03-08T13:58:41Z</time>
      </trkpt>
      <trkpt lat="46.70285" lon="5.73709">
        <ele>644.8</ele>
        <time>2022-03-08T13:58:49Z</time>
      </trkpt>
      <trkpt lat="46.70282" lon="5.73703">
        <ele>647.2</ele>
        <time>2022-03-08T13:58:58Z</time>
      </trkpt>
      <trkpt lat="46.70278" lon="5.73699">
        <ele>648.5</ele>
        <time>2022-03-08T13:59:06Z</time>
      </trkpt>
      <trkpt lat="46.70274" lon="5.73694">
        <ele>649.7</ele>
        <time>2022-03-08T13:59:10Z</time>
      </trkpt>
      <trkpt lat="46.70271" lon="5.73689">
        <ele>651.2</ele>
        <time>2022-03-08T13:59:15Z</time>
      </trkpt>
      <trkpt lat="46.70267" lon="5.73685">
        <ele>653</ele>
        <time>2022-03-08T13:59:23Z</time>
      </trkpt>
      <trkpt lat="46.70263" lon="5.73681">
        <ele>654</ele>
        <time>2022-03-08T13:59:30Z</time>
      </trkpt>
      <trkpt lat="46.7026" lon="5.73676">
        <ele>655.3</ele>
        <time>2022-03-08T13:59:36Z</time>
      </trkpt>
      <trkpt lat="46.70256" lon="5.7367">
        <ele>656.8</ele>
        <time>2022-03-08T13:59:41Z</time>
      </trkpt>
      <trkpt lat="46.70255" lon="5.73663">
        <ele>658.2</ele>
        <time>2022-03-08T13:59:47Z</time>
      </trkpt>
      <trkpt lat="46.70251" lon="5.73658">
        <ele>660</ele>
        <time>2022-03-08T13:59:55Z</time>
      </trkpt>
      <trkpt lat="46.70247" lon="5.73654">
        <ele>661.3</ele>
        <time>2022-03-08T14:00:01Z</time>
      </trkpt>
      <trkpt lat="46.70244" lon="5.73649">
        <ele>661.8</ele>
        <time>2022-03-08T14:00:07Z</time>
      </trkpt>
      <trkpt lat="46.70241" lon="5.73642">
        <ele>662.1</ele>
        <time>2022-03-08T14:00:13Z</time>
      </trkpt>
      <trkpt lat="46.70238" lon="5.73636">
        <ele>662.5</ele>
        <time>2022-03-08T14:00:18Z</time>
      </trkpt>
      <trkpt lat="46.70236" lon="5.7363">
        <ele>664</ele>
        <time>2022-03-08T14:00:27Z</time>
      </trkpt>
      <trkpt lat="46.70236" lon="5.73622">
        <ele>666.5</ele>
        <time>2022-03-08T14:00:40Z</time>
      </trkpt>
      <trkpt lat="46.70232" lon="5.73617">
        <ele>666.6</ele>
        <time>2022-03-08T14:00:46Z</time>
      </trkpt>
      <trkpt lat="46.70236" lon="5.73622">
        <ele>665.9</ele>
        <time>2022-03-08T14:01:19Z</time>
      </trkpt>
      <trkpt lat="46.7024" lon="5.73625">
        <ele>667.6</ele>
        <time>2022-03-08T14:01:24Z</time>
      </trkpt>
      <trkpt lat="46.70244" lon="5.73626">
        <ele>668.5</ele>
        <time>2022-03-08T14:01:31Z</time>
      </trkpt>
      <trkpt lat="46.70248" lon="5.7363">
        <ele>669.1</ele>
        <time>2022-03-08T14:01:37Z</time>
      </trkpt>
      <trkpt lat="46.70253" lon="5.7363">
        <ele>670.6</ele>
        <time>2022-03-08T14:01:46Z</time>
      </trkpt>
      <trkpt lat="46.70257" lon="5.73633">
        <ele>671.5</ele>
        <time>2022-03-08T14:01:55Z</time>
      </trkpt>
      <trkpt lat="46.70262" lon="5.73634">
        <ele>672.3</ele>
        <time>2022-03-08T14:02:03Z</time>
      </trkpt>
      <trkpt lat="46.70265" lon="5.73629">
        <ele>672.6</ele>
        <time>2022-03-08T14:02:34Z</time>
      </trkpt>
      <trkpt lat="46.70261" lon="5.73626">
        <ele>673.7</ele>
        <time>2022-03-08T14:02:45Z</time>
      </trkpt>
      <trkpt lat="46.70266" lon="5.73627">
        <ele>675.9</ele>
        <time>2022-03-08T14:05:09Z</time>
      </trkpt>
      <trkpt lat="46.70261" lon="5.73631">
        <ele>677</ele>
        <time>2022-03-08T14:06:53Z</time>
      </trkpt>
      <trkpt lat="46.70258" lon="5.73626">
        <ele>674.6</ele>
        <time>2022-03-08T14:11:23Z</time>
      </trkpt>
      <trkpt lat="46.70263" lon="5.73626">
        <ele>674.5</ele>
        <time>2022-03-08T14:13:46Z</time>
      </trkpt>
      <trkpt lat="46.70267" lon="5.73629">
        <ele>677.4</ele>
        <time>2022-03-08T14:14:10Z</time>
      </trkpt>
      <trkpt lat="46.70263" lon="5.73635">
        <ele>676.5</ele>
        <time>2022-03-08T14:15:00Z</time>
      </trkpt>
      <trkpt lat="46.70258" lon="5.73636">
        <ele>676.1</ele>
        <time>2022-03-08T14:15:05Z</time>
      </trkpt>
      <trkpt lat="46.70253" lon="5.73635">
        <ele>675.5</ele>
        <time>2022-03-08T14:15:12Z</time>
      </trkpt>
      <trkpt lat="46.70246" lon="5.73634">
        <ele>675.5</ele>
        <time>2022-03-08T14:15:52Z</time>
      </trkpt>
      <trkpt lat="46.70242" lon="5.7363">
        <ele>674.7</ele>
        <time>2022-03-08T14:15:55Z</time>
      </trkpt>
      <trkpt lat="46.70239" lon="5.73625">
        <ele>673.5</ele>
        <time>2022-03-08T14:16:02Z</time>
      </trkpt>
      <trkpt lat="46.70234" lon="5.73622">
        <ele>672.2</ele>
        <time>2022-03-08T14:16:09Z</time>
      </trkpt>
      <trkpt lat="46.7023" lon="5.73618">
        <ele>671</ele>
        <time>2022-03-08T14:16:15Z</time>
      </trkpt>
      <trkpt lat="46.70226" lon="5.73615">
        <ele>670.1</ele>
        <time>2022-03-08T14:16:20Z</time>
      </trkpt>
      <trkpt lat="46.70222" lon="5.73609">
        <ele>668.3</ele>
        <time>2022-03-08T14:16:26Z</time>
      </trkpt>
      <trkpt lat="46.70218" lon="5.73606">
        <ele>666.7</ele>
        <time>2022-03-08T14:16:33Z</time>
      </trkpt>
      <trkpt lat="46.70214" lon="5.73602">
        <ele>665.8</ele>
        <time>2022-03-08T14:16:38Z</time>
      </trkpt>
      <trkpt lat="46.70211" lon="5.73597">
        <ele>664.9</ele>
        <time>2022-03-08T14:16:43Z</time>
      </trkpt>
      <trkpt lat="46.70207" lon="5.73594">
        <ele>664.7</ele>
        <time>2022-03-08T14:16:49Z</time>
      </trkpt>
      <trkpt lat="46.70203" lon="5.73591">
        <ele>664.6</ele>
        <time>2022-03-08T14:16:55Z</time>
      </trkpt>
      <trkpt lat="46.70199" lon="5.73587">
        <ele>665</ele>
        <time>2022-03-08T14:17:01Z</time>
      </trkpt>
      <trkpt lat="46.70194" lon="5.73584">
        <ele>665.3</ele>
        <time>2022-03-08T14:17:06Z</time>
      </trkpt>
      <trkpt lat="46.70189" lon="5.73582">
        <ele>665.5</ele>
        <time>2022-03-08T14:17:11Z</time>
      </trkpt>
      <trkpt lat="46.70185" lon="5.73578">
        <ele>665.7</ele>
        <time>2022-03-08T14:17:16Z</time>
      </trkpt>
      <trkpt lat="46.7018" lon="5.73575">
        <ele>665.9</ele>
        <time>2022-03-08T14:17:20Z</time>
      </trkpt>
      <trkpt lat="46.70176" lon="5.73571">
        <ele>666</ele>
        <time>2022-03-08T14:17:24Z</time>
      </trkpt>
      <trkpt lat="46.70171" lon="5.73569">
        <ele>666.6</ele>
        <time>2022-03-08T14:17:29Z</time>
      </trkpt>
      <trkpt lat="46.70166" lon="5.73566">
        <ele>666.7</ele>
        <time>2022-03-08T14:17:35Z</time>
      </trkpt>
      <trkpt lat="46.70162" lon="5.73563">
        <ele>667</ele>
        <time>2022-03-08T14:17:40Z</time>
      </trkpt>
      <trkpt lat="46.70158" lon="5.73559">
        <ele>667.5</ele>
        <time>2022-03-08T14:17:45Z</time>
      </trkpt>
      <trkpt lat="46.70157" lon="5.73552">
        <ele>669.2</ele>
        <time>2022-03-08T14:17:54Z</time>
      </trkpt>
      <trkpt lat="46.70153" lon="5.73547">
        <ele>671.1</ele>
        <time>2022-03-08T14:18:03Z</time>
      </trkpt>
      <trkpt lat="46.70149" lon="5.73543">
        <ele>671.9</ele>
        <time>2022-03-08T14:18:08Z</time>
      </trkpt>
      <trkpt lat="46.70145" lon="5.73539">
        <ele>672.2</ele>
        <time>2022-03-08T14:18:12Z</time>
      </trkpt>
      <trkpt lat="46.70141" lon="5.73535">
        <ele>672.4</ele>
        <time>2022-03-08T14:18:17Z</time>
      </trkpt>
      <trkpt lat="46.70137" lon="5.7353">
        <ele>672.6</ele>
        <time>2022-03-08T14:18:23Z</time>
      </trkpt>
      <trkpt lat="46.70133" lon="5.73524">
        <ele>672.8</ele>
        <time>2022-03-08T14:18:29Z</time>
      </trkpt>
      <trkpt lat="46.70131" lon="5.73519">
        <ele>672.7</ele>
        <time>2022-03-08T14:18:35Z</time>
      </trkpt>
      <trkpt lat="46.70127" lon="5.73514">
        <ele>671.1</ele>
        <time>2022-03-08T14:18:43Z</time>
      </trkpt>
      <trkpt lat="46.70124" lon="5.73508">
        <ele>669.5</ele>
        <time>2022-03-08T14:18:52Z</time>
      </trkpt>
      <trkpt lat="46.7012" lon="5.73507">
        <ele>668.3</ele>
        <time>2022-03-08T14:19:01Z</time>
      </trkpt>
      <trkpt lat="46.70115" lon="5.73505">
        <ele>667.6</ele>
        <time>2022-03-08T14:19:09Z</time>
      </trkpt>
      <trkpt lat="46.7011" lon="5.73509">
        <ele>667.8</ele>
        <time>2022-03-08T14:19:33Z</time>
      </trkpt>
      <trkpt lat="46.70106" lon="5.73506">
        <ele>669</ele>
        <time>2022-03-08T14:19:39Z</time>
      </trkpt>
      <trkpt lat="46.70102" lon="5.73502">
        <ele>670.2</ele>
        <time>2022-03-08T14:19:45Z</time>
      </trkpt>
      <trkpt lat="46.70099" lon="5.73497">
        <ele>670.9</ele>
        <time>2022-03-08T14:19:53Z</time>
      </trkpt>
      <trkpt lat="46.70096" lon="5.73492">
        <ele>671.3</ele>
        <time>2022-03-08T14:20:03Z</time>
      </trkpt>
      <trkpt lat="46.70091" lon="5.73489">
        <ele>671.3</ele>
        <time>2022-03-08T14:20:10Z</time>
      </trkpt>
      <trkpt lat="46.70087" lon="5.73485">
        <ele>671.5</ele>
        <time>2022-03-08T14:20:19Z</time>
      </trkpt>
      <trkpt lat="46.70083" lon="5.73482">
        <ele>671.5</ele>
        <time>2022-03-08T14:20:26Z</time>
      </trkpt>
      <trkpt lat="46.70078" lon="5.73478">
        <ele>671.5</ele>
        <time>2022-03-08T14:20:32Z</time>
      </trkpt>
      <trkpt lat="46.70074" lon="5.73477">
        <ele>671.3</ele>
        <time>2022-03-08T14:20:38Z</time>
      </trkpt>
      <trkpt lat="46.70069" lon="5.73476">
        <ele>671.5</ele>
        <time>2022-03-08T14:20:43Z</time>
      </trkpt>
      <trkpt lat="46.70065" lon="5.73474">
        <ele>671.8</ele>
        <time>2022-03-08T14:20:49Z</time>
      </trkpt>
      <trkpt lat="46.7006" lon="5.73472">
        <ele>672.1</ele>
        <time>2022-03-08T14:20:57Z</time>
      </trkpt>
      <trkpt lat="46.70055" lon="5.73469">
        <ele>671.6</ele>
        <time>2022-03-08T14:21:05Z</time>
      </trkpt>
      <trkpt lat="46.7005" lon="5.73467">
        <ele>671.4</ele>
        <time>2022-03-08T14:21:13Z</time>
      </trkpt>
      <trkpt lat="46.70046" lon="5.73465">
        <ele>671.3</ele>
        <time>2022-03-08T14:21:20Z</time>
      </trkpt>
      <trkpt lat="46.70046" lon="5.73453">
        <ele>670</ele>
        <time>2022-03-08T14:21:44Z</time>
      </trkpt>
      <trkpt lat="46.70048" lon="5.73446">
        <ele>669.2</ele>
        <time>2022-03-08T14:21:47Z</time>
      </trkpt>
      <trkpt lat="46.70047" lon="5.73439">
        <ele>667.4</ele>
        <time>2022-03-08T14:21:54Z</time>
      </trkpt>
      <trkpt lat="46.70046" lon="5.73432">
        <ele>663.9</ele>
        <time>2022-03-08T14:22:08Z</time>
      </trkpt>
      <trkpt lat="46.70046" lon="5.7344">
        <ele>657.1</ele>
        <time>2022-03-08T14:25:16Z</time>
      </trkpt>
      <trkpt lat="46.70042" lon="5.73444">
        <ele>655.9</ele>
        <time>2022-03-08T14:25:25Z</time>
      </trkpt>
      <trkpt lat="46.70037" lon="5.73445">
        <ele>654.9</ele>
        <time>2022-03-08T14:25:30Z</time>
      </trkpt>
      <trkpt lat="46.70032" lon="5.73446">
        <ele>654.4</ele>
        <time>2022-03-08T14:25:35Z</time>
      </trkpt>
      <trkpt lat="46.70027" lon="5.73446">
        <ele>654.2</ele>
        <time>2022-03-08T14:25:41Z</time>
      </trkpt>
      <trkpt lat="46.7003" lon="5.73452">
        <ele>655.1</ele>
        <time>2022-03-08T14:25:54Z</time>
      </trkpt>
      <trkpt lat="46.70025" lon="5.73455">
        <ele>655.8</ele>
        <time>2022-03-08T14:26:07Z</time>
      </trkpt>
      <trkpt lat="46.7002" lon="5.73453">
        <ele>656</ele>
        <time>2022-03-08T14:26:12Z</time>
      </trkpt>
      <trkpt lat="46.70016" lon="5.73449">
        <ele>656.1</ele>
        <time>2022-03-08T14:26:17Z</time>
      </trkpt>
      <trkpt lat="46.70012" lon="5.73445">
        <ele>657.6</ele>
        <time>2022-03-08T14:26:24Z</time>
      </trkpt>
      <trkpt lat="46.70007" lon="5.73443">
        <ele>658.9</ele>
        <time>2022-03-08T14:26:33Z</time>
      </trkpt>
      <trkpt lat="46.70011" lon="5.73446">
        <ele>658.7</ele>
        <time>2022-03-08T14:28:28Z</time>
      </trkpt>
      <trkpt lat="46.70016" lon="5.73449">
        <ele>658</ele>
        <time>2022-03-08T14:28:33Z</time>
      </trkpt>
      <trkpt lat="46.70019" lon="5.73453">
        <ele>657.3</ele>
        <time>2022-03-08T14:28:42Z</time>
      </trkpt>
      <trkpt lat="46.70023" lon="5.73456">
        <ele>657.5</ele>
        <time>2022-03-08T14:28:49Z</time>
      </trkpt>
      <trkpt lat="46.70028" lon="5.73458">
        <ele>657.7</ele>
        <time>2022-03-08T14:28:56Z</time>
      </trkpt>
      <trkpt lat="46.70026" lon="5.73451">
        <ele>658.3</ele>
        <time>2022-03-08T14:29:29Z</time>
      </trkpt>
      <trkpt lat="46.70022" lon="5.73447">
        <ele>659</ele>
        <time>2022-03-08T14:29:35Z</time>
      </trkpt>
      <trkpt lat="46.70019" lon="5.73442">
        <ele>659.1</ele>
        <time>2022-03-08T14:29:45Z</time>
      </trkpt>
      <trkpt lat="46.70014" lon="5.73441">
        <ele>654.6</ele>
        <time>2022-03-08T14:30:01Z</time>
      </trkpt>
      <trkpt lat="46.70009" lon="5.73438">
        <ele>653.6</ele>
        <time>2022-03-08T14:30:07Z</time>
      </trkpt>
      <trkpt lat="46.70005" lon="5.73434">
        <ele>652.9</ele>
        <time>2022-03-08T14:30:12Z</time>
      </trkpt>
      <trkpt lat="46.70002" lon="5.73429">
        <ele>652.6</ele>
        <time>2022-03-08T14:30:17Z</time>
      </trkpt>
      <trkpt lat="46.69997" lon="5.73425">
        <ele>652.5</ele>
        <time>2022-03-08T14:30:23Z</time>
      </trkpt>
      <trkpt lat="46.69993" lon="5.73421">
        <ele>652.6</ele>
        <time>2022-03-08T14:30:28Z</time>
      </trkpt>
      <trkpt lat="46.69989" lon="5.73417">
        <ele>653</ele>
        <time>2022-03-08T14:30:32Z</time>
      </trkpt>
      <trkpt lat="46.69985" lon="5.73413">
        <ele>653.6</ele>
        <time>2022-03-08T14:30:39Z</time>
      </trkpt>
      <trkpt lat="46.69979" lon="5.73406">
        <ele>652</ele>
        <time>2022-03-08T14:31:13Z</time>
      </trkpt>
      <trkpt lat="46.69975" lon="5.73401">
        <ele>651.3</ele>
        <time>2022-03-08T14:31:16Z</time>
      </trkpt>
      <trkpt lat="46.69971" lon="5.73397">
        <ele>649.4</ele>
        <time>2022-03-08T14:31:22Z</time>
      </trkpt>
      <trkpt lat="46.69966" lon="5.73395">
        <ele>646.6</ele>
        <time>2022-03-08T14:31:32Z</time>
      </trkpt>
      <trkpt lat="46.69964" lon="5.73402">
        <ele>643.8</ele>
        <time>2022-03-08T14:31:40Z</time>
      </trkpt>
      <trkpt lat="46.69962" lon="5.73408">
        <ele>641.8</ele>
        <time>2022-03-08T14:31:45Z</time>
      </trkpt>
      <trkpt lat="46.69961" lon="5.73416">
        <ele>640.4</ele>
        <time>2022-03-08T14:31:51Z</time>
      </trkpt>
      <trkpt lat="46.69962" lon="5.73423">
        <ele>639.7</ele>
        <time>2022-03-08T14:31:56Z</time>
      </trkpt>
      <trkpt lat="46.69966" lon="5.73429">
        <ele>639</ele>
        <time>2022-03-08T14:32:02Z</time>
      </trkpt>
      <trkpt lat="46.6997" lon="5.73433">
        <ele>638.7</ele>
        <time>2022-03-08T14:32:08Z</time>
      </trkpt>
      <trkpt lat="46.69974" lon="5.73437">
        <ele>638.4</ele>
        <time>2022-03-08T14:32:14Z</time>
      </trkpt>
      <trkpt lat="46.69978" lon="5.73441">
        <ele>638.1</ele>
        <time>2022-03-08T14:32:20Z</time>
      </trkpt>
      <trkpt lat="46.69982" lon="5.73447">
        <ele>638.1</ele>
        <time>2022-03-08T14:32:25Z</time>
      </trkpt>
      <trkpt lat="46.69986" lon="5.73451">
        <ele>638.2</ele>
        <time>2022-03-08T14:32:30Z</time>
      </trkpt>
      <trkpt lat="46.6999" lon="5.73456">
        <ele>638</ele>
        <time>2022-03-08T14:32:36Z</time>
      </trkpt>
      <trkpt lat="46.69993" lon="5.73463">
        <ele>637.7</ele>
        <time>2022-03-08T14:32:41Z</time>
      </trkpt>
      <trkpt lat="46.69996" lon="5.73468">
        <ele>637.5</ele>
        <time>2022-03-08T14:32:45Z</time>
      </trkpt>
      <trkpt lat="46.7" lon="5.73472">
        <ele>637.3</ele>
        <time>2022-03-08T14:32:50Z</time>
      </trkpt>
      <trkpt lat="46.70004" lon="5.73477">
        <ele>636.9</ele>
        <time>2022-03-08T14:32:55Z</time>
      </trkpt>
      <trkpt lat="46.70007" lon="5.73483">
        <ele>636.3</ele>
        <time>2022-03-08T14:33:00Z</time>
      </trkpt>
      <trkpt lat="46.7001" lon="5.73489">
        <ele>636</ele>
        <time>2022-03-08T14:33:05Z</time>
      </trkpt>
      <trkpt lat="46.7001" lon="5.73496">
        <ele>635.6</ele>
        <time>2022-03-08T14:33:11Z</time>
      </trkpt>
      <trkpt lat="46.70007" lon="5.73502">
        <ele>634.6</ele>
        <time>2022-03-08T14:33:17Z</time>
      </trkpt>
      <trkpt lat="46.70002" lon="5.73503">
        <ele>631.8</ele>
        <time>2022-03-08T14:33:30Z</time>
      </trkpt>
      <trkpt lat="46.69997" lon="5.73503">
        <ele>629.5</ele>
        <time>2022-03-08T14:33:36Z</time>
      </trkpt>
      <trkpt lat="46.69994" lon="5.73499">
        <ele>627.8</ele>
        <time>2022-03-08T14:33:44Z</time>
      </trkpt>
      <trkpt lat="46.6999" lon="5.73493">
        <ele>626.3</ele>
        <time>2022-03-08T14:33:50Z</time>
      </trkpt>
      <trkpt lat="46.69986" lon="5.73488">
        <ele>625.3</ele>
        <time>2022-03-08T14:33:54Z</time>
      </trkpt>
      <trkpt lat="46.69982" lon="5.73484">
        <ele>624.3</ele>
        <time>2022-03-08T14:34:00Z</time>
      </trkpt>
      <trkpt lat="46.69978" lon="5.73481">
        <ele>622</ele>
        <time>2022-03-08T14:34:08Z</time>
      </trkpt>
      <trkpt lat="46.69975" lon="5.73476">
        <ele>619.1</ele>
        <time>2022-03-08T14:34:20Z</time>
      </trkpt>
      <trkpt lat="46.6997" lon="5.73474">
        <ele>619.5</ele>
        <time>2022-03-08T14:34:27Z</time>
      </trkpt>
      <trkpt lat="46.69965" lon="5.7347">
        <ele>619.7</ele>
        <time>2022-03-08T14:34:34Z</time>
      </trkpt>
      <trkpt lat="46.6996" lon="5.73466">
        <ele>620.4</ele>
        <time>2022-03-08T14:34:38Z</time>
      </trkpt>
      <trkpt lat="46.69956" lon="5.73462">
        <ele>620.6</ele>
        <time>2022-03-08T14:34:43Z</time>
      </trkpt>
      <trkpt lat="46.69952" lon="5.73458">
        <ele>620.7</ele>
        <time>2022-03-08T14:34:47Z</time>
      </trkpt>
      <trkpt lat="46.69948" lon="5.73454">
        <ele>620.5</ele>
        <time>2022-03-08T14:34:51Z</time>
      </trkpt>
      <trkpt lat="46.69943" lon="5.7345">
        <ele>620.8</ele>
        <time>2022-03-08T14:34:55Z</time>
      </trkpt>
      <trkpt lat="46.6994" lon="5.73445">
        <ele>621.4</ele>
        <time>2022-03-08T14:34:59Z</time>
      </trkpt>
      <trkpt lat="46.69936" lon="5.73439">
        <ele>621.9</ele>
        <time>2022-03-08T14:35:03Z</time>
      </trkpt>
      <trkpt lat="46.69933" lon="5.73434">
        <ele>621.8</ele>
        <time>2022-03-08T14:35:07Z</time>
      </trkpt>
      <trkpt lat="46.69929" lon="5.73429">
        <ele>621.2</ele>
        <time>2022-03-08T14:35:11Z</time>
      </trkpt>
      <trkpt lat="46.69925" lon="5.73427">
        <ele>621.3</ele>
        <time>2022-03-08T14:35:16Z</time>
      </trkpt>
      <trkpt lat="46.6992" lon="5.73425">
        <ele>622.1</ele>
        <time>2022-03-08T14:35:21Z</time>
      </trkpt>
      <trkpt lat="46.69914" lon="5.73423">
        <ele>622.5</ele>
        <time>2022-03-08T14:35:26Z</time>
      </trkpt>
      <trkpt lat="46.69909" lon="5.73419">
        <ele>623</ele>
        <time>2022-03-08T14:35:30Z</time>
      </trkpt>
      <trkpt lat="46.69904" lon="5.73417">
        <ele>623.6</ele>
        <time>2022-03-08T14:35:34Z</time>
      </trkpt>
      <trkpt lat="46.699" lon="5.73415">
        <ele>624</ele>
        <time>2022-03-08T14:35:39Z</time>
      </trkpt>
      <trkpt lat="46.69895" lon="5.73413">
        <ele>624.6</ele>
        <time>2022-03-08T14:35:44Z</time>
      </trkpt>
      <trkpt lat="46.69891" lon="5.73411">
        <ele>624.6</ele>
        <time>2022-03-08T14:35:48Z</time>
      </trkpt>
      <trkpt lat="46.69887" lon="5.73407">
        <ele>623.8</ele>
        <time>2022-03-08T14:35:53Z</time>
      </trkpt>
      <trkpt lat="46.69884" lon="5.73401">
        <ele>622.7</ele>
        <time>2022-03-08T14:35:57Z</time>
      </trkpt>
      <trkpt lat="46.69881" lon="5.73396">
        <ele>621.3</ele>
        <time>2022-03-08T14:36:01Z</time>
      </trkpt>
      <trkpt lat="46.69878" lon="5.73391">
        <ele>619.9</ele>
        <time>2022-03-08T14:36:06Z</time>
      </trkpt>
      <trkpt lat="46.69874" lon="5.73386">
        <ele>618.7</ele>
        <time>2022-03-08T14:36:11Z</time>
      </trkpt>
      <trkpt lat="46.6987" lon="5.73381">
        <ele>617.5</ele>
        <time>2022-03-08T14:36:16Z</time>
      </trkpt>
      <trkpt lat="46.69867" lon="5.73376">
        <ele>616.4</ele>
        <time>2022-03-08T14:36:20Z</time>
      </trkpt>
      <trkpt lat="46.69865" lon="5.7337">
        <ele>615.7</ele>
        <time>2022-03-08T14:36:24Z</time>
      </trkpt>
      <trkpt lat="46.69862" lon="5.73364">
        <ele>615</ele>
        <time>2022-03-08T14:36:29Z</time>
      </trkpt>
      <trkpt lat="46.69861" lon="5.73357">
        <ele>614.4</ele>
        <time>2022-03-08T14:36:33Z</time>
      </trkpt>
      <trkpt lat="46.69859" lon="5.73351">
        <ele>613.8</ele>
        <time>2022-03-08T14:36:38Z</time>
      </trkpt>
      <trkpt lat="46.69859" lon="5.73343">
        <ele>613.3</ele>
        <time>2022-03-08T14:36:43Z</time>
      </trkpt>
      <trkpt lat="46.69857" lon="5.73335">
        <ele>612.8</ele>
        <time>2022-03-08T14:36:47Z</time>
      </trkpt>
      <trkpt lat="46.69857" lon="5.73328">
        <ele>611.7</ele>
        <time>2022-03-08T14:36:51Z</time>
      </trkpt>
      <trkpt lat="46.69856" lon="5.73321">
        <ele>610.7</ele>
        <time>2022-03-08T14:36:55Z</time>
      </trkpt>
      <trkpt lat="46.69856" lon="5.73312">
        <ele>610.2</ele>
        <time>2022-03-08T14:36:59Z</time>
      </trkpt>
      <trkpt lat="46.69857" lon="5.73305">
        <ele>610.3</ele>
        <time>2022-03-08T14:37:04Z</time>
      </trkpt>
      <trkpt lat="46.69857" lon="5.73297">
        <ele>610.9</ele>
        <time>2022-03-08T14:37:09Z</time>
      </trkpt>
      <trkpt lat="46.69856" lon="5.7329">
        <ele>611.2</ele>
        <time>2022-03-08T14:37:13Z</time>
      </trkpt>
      <trkpt lat="46.69855" lon="5.73283">
        <ele>611.5</ele>
        <time>2022-03-08T14:37:18Z</time>
      </trkpt>
      <trkpt lat="46.69857" lon="5.73275">
        <ele>611.3</ele>
        <time>2022-03-08T14:37:23Z</time>
      </trkpt>
      <trkpt lat="46.6986" lon="5.73269">
        <ele>611.4</ele>
        <time>2022-03-08T14:37:29Z</time>
      </trkpt>
      <trkpt lat="46.69863" lon="5.73263">
        <ele>611.7</ele>
        <time>2022-03-08T14:37:34Z</time>
      </trkpt>
      <trkpt lat="46.69867" lon="5.73259">
        <ele>612</ele>
        <time>2022-03-08T14:37:39Z</time>
      </trkpt>
      <trkpt lat="46.6987" lon="5.73253">
        <ele>611.2</ele>
        <time>2022-03-08T14:37:46Z</time>
      </trkpt>
      <trkpt lat="46.69874" lon="5.7325">
        <ele>609.8</ele>
        <time>2022-03-08T14:37:51Z</time>
      </trkpt>
      <trkpt lat="46.6988" lon="5.7325">
        <ele>608.4</ele>
        <time>2022-03-08T14:37:55Z</time>
      </trkpt>
      <trkpt lat="46.69885" lon="5.7325">
        <ele>606.5</ele>
        <time>2022-03-08T14:38:00Z</time>
      </trkpt>
      <trkpt lat="46.6989" lon="5.7325">
        <ele>604.6</ele>
        <time>2022-03-08T14:38:06Z</time>
      </trkpt>
      <trkpt lat="46.69895" lon="5.7325">
        <ele>603.7</ele>
        <time>2022-03-08T14:38:12Z</time>
      </trkpt>
      <trkpt lat="46.699" lon="5.7325">
        <ele>603.1</ele>
        <time>2022-03-08T14:38:18Z</time>
      </trkpt>
      <trkpt lat="46.69906" lon="5.73249">
        <ele>602.6</ele>
        <time>2022-03-08T14:38:23Z</time>
      </trkpt>
      <trkpt lat="46.69911" lon="5.73251">
        <ele>601.7</ele>
        <time>2022-03-08T14:38:27Z</time>
      </trkpt>
      <trkpt lat="46.69916" lon="5.73251">
        <ele>600.9</ele>
        <time>2022-03-08T14:38:31Z</time>
      </trkpt>
      <trkpt lat="46.69921" lon="5.7325">
        <ele>600.4</ele>
        <time>2022-03-08T14:38:36Z</time>
      </trkpt>
      <trkpt lat="46.69927" lon="5.7325">
        <ele>599.8</ele>
        <time>2022-03-08T14:38:41Z</time>
      </trkpt>
      <trkpt lat="46.69931" lon="5.73249">
        <ele>598.7</ele>
        <time>2022-03-08T14:38:46Z</time>
      </trkpt>
      <trkpt lat="46.69936" lon="5.73249">
        <ele>598.7</ele>
        <time>2022-03-08T14:38:52Z</time>
      </trkpt>
      <trkpt lat="46.69941" lon="5.73247">
        <ele>599.3</ele>
        <time>2022-03-08T14:38:57Z</time>
      </trkpt>
      <trkpt lat="46.69946" lon="5.73243">
        <ele>599.1</ele>
        <time>2022-03-08T14:39:03Z</time>
      </trkpt>
      <trkpt lat="46.69951" lon="5.73243">
        <ele>598.9</ele>
        <time>2022-03-08T14:39:08Z</time>
      </trkpt>
      <trkpt lat="46.69955" lon="5.73243">
        <ele>598.3</ele>
        <time>2022-03-08T14:39:15Z</time>
      </trkpt>
      <trkpt lat="46.69959" lon="5.73239">
        <ele>597.3</ele>
        <time>2022-03-08T14:39:21Z</time>
      </trkpt>
      <trkpt lat="46.69961" lon="5.73233">
        <ele>596</ele>
        <time>2022-03-08T14:39:27Z</time>
      </trkpt>
      <trkpt lat="46.6996" lon="5.73225">
        <ele>594.5</ele>
        <time>2022-03-08T14:39:33Z</time>
      </trkpt>
      <trkpt lat="46.69957" lon="5.73219">
        <ele>594</ele>
        <time>2022-03-08T14:39:38Z</time>
      </trkpt>
      <trkpt lat="46.69955" lon="5.73212">
        <ele>593.8</ele>
        <time>2022-03-08T14:39:42Z</time>
      </trkpt>
      <trkpt lat="46.69951" lon="5.73206">
        <ele>593.5</ele>
        <time>2022-03-08T14:39:47Z</time>
      </trkpt>
      <trkpt lat="46.69948" lon="5.73201">
        <ele>593.6</ele>
        <time>2022-03-08T14:39:53Z</time>
      </trkpt>
      <trkpt lat="46.69947" lon="5.73193">
        <ele>593.2</ele>
        <time>2022-03-08T14:39:58Z</time>
      </trkpt>
      <trkpt lat="46.69945" lon="5.73186">
        <ele>591.9</ele>
        <time>2022-03-08T14:40:04Z</time>
      </trkpt>
      <trkpt lat="46.69943" lon="5.7318">
        <ele>591.2</ele>
        <time>2022-03-08T14:40:09Z</time>
      </trkpt>
      <trkpt lat="46.6994" lon="5.73174">
        <ele>590.1</ele>
        <time>2022-03-08T14:40:13Z</time>
      </trkpt>
      <trkpt lat="46.69938" lon="5.73167">
        <ele>588.8</ele>
        <time>2022-03-08T14:40:18Z</time>
      </trkpt>
      <trkpt lat="46.69936" lon="5.7316">
        <ele>587.6</ele>
        <time>2022-03-08T14:40:23Z</time>
      </trkpt>
      <trkpt lat="46.69935" lon="5.73152">
        <ele>586.3</ele>
        <time>2022-03-08T14:40:28Z</time>
      </trkpt>
      <trkpt lat="46.69933" lon="5.73146">
        <ele>585.2</ele>
        <time>2022-03-08T14:40:34Z</time>
      </trkpt>
      <trkpt lat="46.69931" lon="5.73138">
        <ele>584.1</ele>
        <time>2022-03-08T14:40:40Z</time>
      </trkpt>
      <trkpt lat="46.69932" lon="5.73131">
        <ele>583.4</ele>
        <time>2022-03-08T14:40:44Z</time>
      </trkpt>
      <trkpt lat="46.69934" lon="5.73123">
        <ele>582.4</ele>
        <time>2022-03-08T14:40:50Z</time>
      </trkpt>
      <trkpt lat="46.69935" lon="5.73116">
        <ele>581.4</ele>
        <time>2022-03-08T14:40:55Z</time>
      </trkpt>
      <trkpt lat="46.69936" lon="5.73108">
        <ele>580.6</ele>
        <time>2022-03-08T14:40:59Z</time>
      </trkpt>
      <trkpt lat="46.69938" lon="5.73101">
        <ele>579.7</ele>
        <time>2022-03-08T14:41:04Z</time>
      </trkpt>
      <trkpt lat="46.6994" lon="5.73094">
        <ele>578.3</ele>
        <time>2022-03-08T14:41:10Z</time>
      </trkpt>
      <trkpt lat="46.69942" lon="5.73088">
        <ele>578</ele>
        <time>2022-03-08T14:41:14Z</time>
      </trkpt>
      <trkpt lat="46.69941" lon="5.7308">
        <ele>578.2</ele>
        <time>2022-03-08T14:41:19Z</time>
      </trkpt>
      <trkpt lat="46.6994" lon="5.73073">
        <ele>579</ele>
        <time>2022-03-08T14:41:24Z</time>
      </trkpt>
      <trkpt lat="46.69943" lon="5.73067">
        <ele>579.5</ele>
        <time>2022-03-08T14:41:30Z</time>
      </trkpt>
      <trkpt lat="46.69948" lon="5.73065">
        <ele>578.6</ele>
        <time>2022-03-08T14:41:40Z</time>
      </trkpt>
      <trkpt lat="46.69949" lon="5.73058">
        <ele>578</ele>
        <time>2022-03-08T14:41:50Z</time>
      </trkpt>
      <trkpt lat="46.6995" lon="5.7305">
        <ele>577.3</ele>
        <time>2022-03-08T14:41:55Z</time>
      </trkpt>
      <trkpt lat="46.69953" lon="5.73043">
        <ele>577</ele>
        <time>2022-03-08T14:42:01Z</time>
      </trkpt>
      <trkpt lat="46.69954" lon="5.73037">
        <ele>577.5</ele>
        <time>2022-03-08T14:42:07Z</time>
      </trkpt>
      <trkpt lat="46.69955" lon="5.73029">
        <ele>578.2</ele>
        <time>2022-03-08T14:42:12Z</time>
      </trkpt>
      <trkpt lat="46.69955" lon="5.73021">
        <ele>578.8</ele>
        <time>2022-03-08T14:42:16Z</time>
      </trkpt>
      <trkpt lat="46.69956" lon="5.73013">
        <ele>579.6</ele>
        <time>2022-03-08T14:42:20Z</time>
      </trkpt>
      <trkpt lat="46.69958" lon="5.73006">
        <ele>580.2</ele>
        <time>2022-03-08T14:42:26Z</time>
      </trkpt>
      <trkpt lat="46.69958" lon="5.72999">
        <ele>580.5</ele>
        <time>2022-03-08T14:42:30Z</time>
      </trkpt>
      <trkpt lat="46.6996" lon="5.72992">
        <ele>580.3</ele>
        <time>2022-03-08T14:42:36Z</time>
      </trkpt>
      <trkpt lat="46.6996" lon="5.72985">
        <ele>580.2</ele>
        <time>2022-03-08T14:42:40Z</time>
      </trkpt>
      <trkpt lat="46.69962" lon="5.72978">
        <ele>579.8</ele>
        <time>2022-03-08T14:42:46Z</time>
      </trkpt>
      <trkpt lat="46.69963" lon="5.7297">
        <ele>579.6</ele>
        <time>2022-03-08T14:42:51Z</time>
      </trkpt>
      <trkpt lat="46.69963" lon="5.72963">
        <ele>579.6</ele>
        <time>2022-03-08T14:42:55Z</time>
      </trkpt>
      <trkpt lat="46.69962" lon="5.72957">
        <ele>579.1</ele>
        <time>2022-03-08T14:42:59Z</time>
      </trkpt>
      <trkpt lat="46.69962" lon="5.72949">
        <ele>577.9</ele>
        <time>2022-03-08T14:43:05Z</time>
      </trkpt>
      <trkpt lat="46.69965" lon="5.72944">
        <ele>577.5</ele>
        <time>2022-03-08T14:43:18Z</time>
      </trkpt>
      <trkpt lat="46.69964" lon="5.72937">
        <ele>577.3</ele>
        <time>2022-03-08T14:43:24Z</time>
      </trkpt>
      <trkpt lat="46.69964" lon="5.72931">
        <ele>576.9</ele>
        <time>2022-03-08T14:43:29Z</time>
      </trkpt>
      <trkpt lat="46.69961" lon="5.72924">
        <ele>576.1</ele>
        <time>2022-03-08T14:43:35Z</time>
      </trkpt>
      <trkpt lat="46.69958" lon="5.7292">
        <ele>575.9</ele>
        <time>2022-03-08T14:43:40Z</time>
      </trkpt>
      <trkpt lat="46.69954" lon="5.72915">
        <ele>575.5</ele>
        <time>2022-03-08T14:43:46Z</time>
      </trkpt>
      <trkpt lat="46.69951" lon="5.72909">
        <ele>574.6</ele>
        <time>2022-03-08T14:43:50Z</time>
      </trkpt>
      <trkpt lat="46.69948" lon="5.72903">
        <ele>573.3</ele>
        <time>2022-03-08T14:43:54Z</time>
      </trkpt>
      <trkpt lat="46.69945" lon="5.72897">
        <ele>571.7</ele>
        <time>2022-03-08T14:43:58Z</time>
      </trkpt>
      <trkpt lat="46.69941" lon="5.72893">
        <ele>569.8</ele>
        <time>2022-03-08T14:44:03Z</time>
      </trkpt>
      <trkpt lat="46.69939" lon="5.72886">
        <ele>568.9</ele>
        <time>2022-03-08T14:44:07Z</time>
      </trkpt>
      <trkpt lat="46.69936" lon="5.72881">
        <ele>569.5</ele>
        <time>2022-03-08T14:44:12Z</time>
      </trkpt>
      <trkpt lat="46.69933" lon="5.72875">
        <ele>571</ele>
        <time>2022-03-08T14:44:17Z</time>
      </trkpt>
      <trkpt lat="46.69931" lon="5.72869">
        <ele>572.5</ele>
        <time>2022-03-08T14:44:21Z</time>
      </trkpt>
      <trkpt lat="46.69927" lon="5.72866">
        <ele>574.6</ele>
        <time>2022-03-08T14:44:25Z</time>
      </trkpt>
      <trkpt lat="46.69922" lon="5.72863">
        <ele>576.7</ele>
        <time>2022-03-08T14:44:29Z</time>
      </trkpt>
      <trkpt lat="46.69918" lon="5.7286">
        <ele>579.4</ele>
        <time>2022-03-08T14:44:34Z</time>
      </trkpt>
      <trkpt lat="46.69913" lon="5.72858">
        <ele>581.4</ele>
        <time>2022-03-08T14:44:38Z</time>
      </trkpt>
      <trkpt lat="46.69908" lon="5.72854">
        <ele>582.7</ele>
        <time>2022-03-08T14:44:42Z</time>
      </trkpt>
      <trkpt lat="46.69905" lon="5.72849">
        <ele>583.9</ele>
        <time>2022-03-08T14:44:46Z</time>
      </trkpt>
      <trkpt lat="46.69901" lon="5.72845">
        <ele>584.9</ele>
        <time>2022-03-08T14:44:51Z</time>
      </trkpt>
      <trkpt lat="46.69896" lon="5.72843">
        <ele>585.5</ele>
        <time>2022-03-08T14:44:57Z</time>
      </trkpt>
      <trkpt lat="46.69892" lon="5.72842">
        <ele>585.8</ele>
        <time>2022-03-08T14:45:02Z</time>
      </trkpt>
      <trkpt lat="46.69887" lon="5.72839">
        <ele>586.5</ele>
        <time>2022-03-08T14:45:12Z</time>
      </trkpt>
      <trkpt lat="46.69882" lon="5.72835">
        <ele>586.5</ele>
        <time>2022-03-08T14:45:16Z</time>
      </trkpt>
      <trkpt lat="46.69878" lon="5.72832">
        <ele>586.4</ele>
        <time>2022-03-08T14:45:20Z</time>
      </trkpt>
      <trkpt lat="46.69873" lon="5.7283">
        <ele>586.1</ele>
        <time>2022-03-08T14:45:25Z</time>
      </trkpt>
      <trkpt lat="46.69867" lon="5.7283">
        <ele>585.9</ele>
        <time>2022-03-08T14:45:30Z</time>
      </trkpt>
      <trkpt lat="46.69862" lon="5.72829">
        <ele>586.3</ele>
        <time>2022-03-08T14:45:34Z</time>
      </trkpt>
      <trkpt lat="46.69857" lon="5.72829">
        <ele>586.4</ele>
        <time>2022-03-08T14:45:39Z</time>
      </trkpt>
      <trkpt lat="46.69851" lon="5.72829">
        <ele>586.2</ele>
        <time>2022-03-08T14:45:44Z</time>
      </trkpt>
      <trkpt lat="46.69847" lon="5.72826">
        <ele>586.2</ele>
        <time>2022-03-08T14:45:48Z</time>
      </trkpt>
      <trkpt lat="46.69842" lon="5.72824">
        <ele>586</ele>
        <time>2022-03-08T14:45:52Z</time>
      </trkpt>
      <trkpt lat="46.69837" lon="5.72824">
        <ele>585.8</ele>
        <time>2022-03-08T14:45:57Z</time>
      </trkpt>
      <trkpt lat="46.69832" lon="5.72824">
        <ele>585.2</ele>
        <time>2022-03-08T14:46:03Z</time>
      </trkpt>
      <trkpt lat="46.69827" lon="5.72824">
        <ele>584.7</ele>
        <time>2022-03-08T14:46:08Z</time>
      </trkpt>
      <trkpt lat="46.69822" lon="5.72822">
        <ele>584</ele>
        <time>2022-03-08T14:46:13Z</time>
      </trkpt>
      <trkpt lat="46.69817" lon="5.72819">
        <ele>583.8</ele>
        <time>2022-03-08T14:46:18Z</time>
      </trkpt>
      <trkpt lat="46.69812" lon="5.72818">
        <ele>583.5</ele>
        <time>2022-03-08T14:46:23Z</time>
      </trkpt>
      <trkpt lat="46.69807" lon="5.72815">
        <ele>582.6</ele>
        <time>2022-03-08T14:46:29Z</time>
      </trkpt>
      <trkpt lat="46.69804" lon="5.72811">
        <ele>582.3</ele>
        <time>2022-03-08T14:46:33Z</time>
      </trkpt>
      <trkpt lat="46.69798" lon="5.72809">
        <ele>581.7</ele>
        <time>2022-03-08T14:46:38Z</time>
      </trkpt>
      <trkpt lat="46.69793" lon="5.72807">
        <ele>581.5</ele>
        <time>2022-03-08T14:46:42Z</time>
      </trkpt>
      <trkpt lat="46.69787" lon="5.72807">
        <ele>582</ele>
        <time>2022-03-08T14:46:47Z</time>
      </trkpt>
      <trkpt lat="46.69782" lon="5.72807">
        <ele>582.4</ele>
        <time>2022-03-08T14:46:51Z</time>
      </trkpt>
      <trkpt lat="46.69777" lon="5.72807">
        <ele>582.9</ele>
        <time>2022-03-08T14:46:55Z</time>
      </trkpt>
      <trkpt lat="46.69772" lon="5.72805">
        <ele>583.2</ele>
        <time>2022-03-08T14:47:00Z</time>
      </trkpt>
      <trkpt lat="46.69767" lon="5.72804">
        <ele>583.2</ele>
        <time>2022-03-08T14:47:06Z</time>
      </trkpt>
      <trkpt lat="46.69763" lon="5.728">
        <ele>582.8</ele>
        <time>2022-03-08T14:47:11Z</time>
      </trkpt>
      <trkpt lat="46.69759" lon="5.72794">
        <ele>582.7</ele>
        <time>2022-03-08T14:47:16Z</time>
      </trkpt>
      <trkpt lat="46.69754" lon="5.72793">
        <ele>582.5</ele>
        <time>2022-03-08T14:47:21Z</time>
      </trkpt>
      <trkpt lat="46.69749" lon="5.7279">
        <ele>582.2</ele>
        <time>2022-03-08T14:47:26Z</time>
      </trkpt>
      <trkpt lat="46.69744" lon="5.72787">
        <ele>581.9</ele>
        <time>2022-03-08T14:47:31Z</time>
      </trkpt>
      <trkpt lat="46.69742" lon="5.72781">
        <ele>581.5</ele>
        <time>2022-03-08T14:47:36Z</time>
      </trkpt>
      <trkpt lat="46.69739" lon="5.72774">
        <ele>581.5</ele>
        <time>2022-03-08T14:47:41Z</time>
      </trkpt>
      <trkpt lat="46.69738" lon="5.72767">
        <ele>581.7</ele>
        <time>2022-03-08T14:47:45Z</time>
      </trkpt>
      <trkpt lat="46.69738" lon="5.72759">
        <ele>581.8</ele>
        <time>2022-03-08T14:47:49Z</time>
      </trkpt>
      <trkpt lat="46.69736" lon="5.72752">
        <ele>581.8</ele>
        <time>2022-03-08T14:47:54Z</time>
      </trkpt>
      <trkpt lat="46.69732" lon="5.72749">
        <ele>582</ele>
        <time>2022-03-08T14:47:58Z</time>
      </trkpt>
      <trkpt lat="46.69727" lon="5.72745">
        <ele>582.3</ele>
        <time>2022-03-08T14:48:02Z</time>
      </trkpt>
      <trkpt lat="46.69726" lon="5.72738">
        <ele>581.5</ele>
        <time>2022-03-08T14:48:08Z</time>
      </trkpt>
      <trkpt lat="46.69725" lon="5.72732">
        <ele>580.1</ele>
        <time>2022-03-08T14:48:13Z</time>
      </trkpt>
      <trkpt lat="46.69723" lon="5.72725">
        <ele>578.9</ele>
        <time>2022-03-08T14:48:17Z</time>
      </trkpt>
      <trkpt lat="46.69719" lon="5.7272">
        <ele>578.2</ele>
        <time>2022-03-08T14:48:21Z</time>
      </trkpt>
      <trkpt lat="46.69714" lon="5.72719">
        <ele>578</ele>
        <time>2022-03-08T14:48:25Z</time>
      </trkpt>
      <trkpt lat="46.69709" lon="5.72715">
        <ele>578.1</ele>
        <time>2022-03-08T14:48:29Z</time>
      </trkpt>
      <trkpt lat="46.69706" lon="5.72711">
        <ele>579</ele>
        <time>2022-03-08T14:48:35Z</time>
      </trkpt>
      <trkpt lat="46.69705" lon="5.72704">
        <ele>579.6</ele>
        <time>2022-03-08T14:48:40Z</time>
      </trkpt>
      <trkpt lat="46.69703" lon="5.72697">
        <ele>578.9</ele>
        <time>2022-03-08T14:49:02Z</time>
      </trkpt>
      <trkpt lat="46.697" lon="5.72693">
        <ele>578.1</ele>
        <time>2022-03-08T14:49:27Z</time>
      </trkpt>
      <trkpt lat="46.69694" lon="5.72694">
        <ele>578.1</ele>
        <time>2022-03-08T14:49:32Z</time>
      </trkpt>
      <trkpt lat="46.6969" lon="5.72692">
        <ele>578.1</ele>
        <time>2022-03-08T14:49:37Z</time>
      </trkpt>
      <trkpt lat="46.69685" lon="5.72689">
        <ele>578.4</ele>
        <time>2022-03-08T14:49:43Z</time>
      </trkpt>
      <trkpt lat="46.6968" lon="5.7269">
        <ele>578.5</ele>
        <time>2022-03-08T14:49:48Z</time>
      </trkpt>
      <trkpt lat="46.69676" lon="5.72692">
        <ele>578.6</ele>
        <time>2022-03-08T14:49:53Z</time>
      </trkpt>
      <trkpt lat="46.69671" lon="5.72692">
        <ele>578.8</ele>
        <time>2022-03-08T14:49:58Z</time>
      </trkpt>
      <trkpt lat="46.69666" lon="5.72689">
        <ele>578.4</ele>
        <time>2022-03-08T14:50:03Z</time>
      </trkpt>
      <trkpt lat="46.69661" lon="5.7269">
        <ele>577.9</ele>
        <time>2022-03-08T14:50:08Z</time>
      </trkpt>
      <trkpt lat="46.69656" lon="5.7269">
        <ele>578.3</ele>
        <time>2022-03-08T14:50:13Z</time>
      </trkpt>
      <trkpt lat="46.69652" lon="5.72694">
        <ele>578.5</ele>
        <time>2022-03-08T14:50:20Z</time>
      </trkpt>
      <trkpt lat="46.69647" lon="5.72698">
        <ele>579.7</ele>
        <time>2022-03-08T14:50:28Z</time>
      </trkpt>
      <trkpt lat="46.69643" lon="5.72701">
        <ele>580.7</ele>
        <time>2022-03-08T14:50:34Z</time>
      </trkpt>
      <trkpt lat="46.69639" lon="5.72697">
        <ele>582.7</ele>
        <time>2022-03-08T14:51:18Z</time>
      </trkpt>
      <trkpt lat="46.69639" lon="5.72689">
        <ele>578</ele>
        <time>2022-03-08T14:51:43Z</time>
      </trkpt>
      <trkpt lat="46.69635" lon="5.72688">
        <ele>578.7</ele>
        <time>2022-03-08T14:52:06Z</time>
      </trkpt>
      <trkpt lat="46.69631" lon="5.72691">
        <ele>578.8</ele>
        <time>2022-03-08T14:52:26Z</time>
      </trkpt>
      <trkpt lat="46.69635" lon="5.72692">
        <ele>581.1</ele>
        <time>2022-03-08T14:53:47Z</time>
      </trkpt>
    </trkseg>
  </trk>
</gpx>